# Wetter Temperatur Luftdruck Luftfeuchtigkeit Sichtweite Windgeschwindigkeit Windrichtung Zeit
1 Clouds 2 1023 49 0 1.75 28.832 19:55 17.10.2019
2 Clouds 2 1023 49 0 1.75 28.832 19:37 17.10.2019
3 Clouds 2 1023 49 0 1.75 28.832 19:18 17.10.2019
4 Clouds 2 1023 49 0 1.75 28.832 19:18 17.10.2019
5 Clouds 2 1023 49 0 1.75 28.832 18:42 17.10.2019
6 Clouds 4 1023 39 0 2.59 347.839 18:21 17.10.2019
7 Clouds 4 1023 39 0 2.59 347.839 17:55 17.10.2019
8 Clouds 4 1023 39 0 2.587 347 17:37 17.10.2019
9 Clouds 4 1023 39 0 2.587 347 17:19 17.10.2019
10 Clouds 4 1023 39 0 2.587 347 16:55 17.10.2019
11 Clouds 4 1023 39 0 2.587 347 16:36 17.10.2019
12 Clouds 4 1023 39 0 2.587 347 16:18 17.10.2019
13 Clouds 4 1023 39 0 2.587 347 15:41 17.10.2019
14 Clear 6 1019 31 0 2.935 340 15:21 17.10.2019
15 Clear 6 1019 31 0 2.935 340 14:58 17.10.2019
16 Clear 6 1019 29 0 1.612 355 14:39 17.10.2019
17 Clear 6 1019 29 0 1.612 355 14:21 17.10.2019
18 Clear 6 1019 29 0 1.612 355 13:42 17.10.2019
19 Clear 6 1019 29 0 1.612 355 13:21 17.10.2019
20 Clear 6 1019 29 0 1.612 355 12:58 17.10.2019
21 Clear 6 1019 29 0 1.612 355 12:40 17.10.2019
22 Clear 10 1016 19 0 1.336 268 12:20 17.10.2019
23 Clear 10 1016 19 0 1.336 268 12:20 17.10.2019
24 Clear 10 1016 19 0 1.336 268 11:57 17.10.2019
25 Clear 10 1016 19 0 1.336 268 11:57 17.10.2019
26 Clear 10 1016 19 0 1.336 268 11:38 17.10.2019
27 Clear 10 1016 19 0 1.336 268 11:18 17.10.2019
28 Clear 10 1016 19 0 1.336 268 10:42 17.10.2019
29 Clear 10 1016 19 0 1.336 268 10:20 17.10.2019
30 Clear 10 1016 19 0 1.336 268 09:59 17.10.2019
31 Clear 10 1016 19 0 1.336 268 09:41 17.10.2019
32 Clouds 9 1021 18 0 0.639 244 09:21 17.10.2019
33 Clouds 9 1021 18 0 0.639 244 08:58 17.10.2019
34 Clouds 9 1021 18 0 0.639 244 08:39 17.10.2019
35 Clouds 9 1021 18 0 0.639 244 08:19 17.10.2019
36 Clouds 9 1021 18 0 0.639 244 07:50 17.10.2019
37 Clouds 9 1021 18 0 0.639 244 07:21 17.10.2019
38 Clouds 9 1021 18 0 0.639 244 07:21 17.10.2019
39 Clouds 9 1021 18 0 0.639 244 06:59 17.10.2019
40 Clouds 9 1021 18 0 0.639 244 06:39 17.10.2019
41 Clouds 5 1028 17 0 1.038 6 06:20 17.10.2019
42 Clouds 5 1028 17 0 1.038 6 05:46 17.10.2019
43 Clouds 5 1028 17 0 1.038 6 05:28 17.10.2019
44 Clouds 5 1028 17 0 1.038 6 04:50 17.10.2019
45 Clouds 5 1028 17 0 1.038 6 03:52 17.10.2019
46 Clouds -1 1028 38 0 1.987 35 02:35 17.10.2019
47 Clouds -1 1028 38 0 1.987 35 00:56 17.10.2019
48 Clouds -1 1028 38 0 1.987 35 00:36 17.10.2019
49 Clouds 2 1028 42 0 2.428 30 00:18 17.10.2019
50 Clouds 2 1028 42 0 2.428 30 23:42 16.10.2019
51 Clouds 2 1028 42 0 2.428 30 23:20 16.10.2019
52 Clouds 2 1028 42 0 2.428 30 22:55 16.10.2019
53 Clouds 2 1028 42 0 2.428 30 22:36 16.10.2019
54 Clouds 2 1028 42 0 2.428 30 22:18 16.10.2019
55 Clouds 2 1028 42 0 2.428 30 21:56 16.10.2019
56 Clouds 2 1028 46 0 1.985 36 21:37 16.10.2019
57 Clouds 2 1028 55 0 2.042 28 21:18 16.10.2019
58 Clouds 2 1028 55 0 2.042 28 20:56 16.10.2019
59 Clouds 2 1028 55 0 2.042 28 20:38 16.10.2019
60 Clouds 2 1028 55 0 2.042 28 20:20 16.10.2019
61 Clouds 2 1028 55 0 2.042 28 19:56 16.10.2019
62 Clouds 2 1028 55 0 2.042 28 19:38 16.10.2019
63 Clouds 2 1028 55 0 2.042 28 19:38 16.10.2019
64 Clouds 2 1028 55 0 2.042 28 19:19 16.10.2019
65 Clouds 2 1028 55 0 2.042 28 18:39 16.10.2019
66 Clouds 2 1028 55 0 2.042 28 18:39 16.10.2019
67 Clouds 4 1028 56 0 3.334 24 18:19 16.10.2019
68 Clouds 4 1028 56 0 3.334 24 17:56 16.10.2019
69 Clouds 4 1028 56 0 3.334 24 17:38 16.10.2019
70 Clouds 4 1028 56 0 3.334 24 17:20 16.10.2019
71 Clouds 4 1028 56 0 3.334 24 16:58 16.10.2019
72 Clouds 4 1028 56 0 3.334 24 16:40 16.10.2019
73 Clouds 4 1028 56 0 3.334 24 16:20 16.10.2019
74 Clouds 4 1028 56 0 3.334 24 15:56 16.10.2019
75 Clouds 4 1028 56 0 3.334 24 15:56 16.10.2019
76 Clouds 4 1028 56 0 3.334 24 15:37 16.10.2019
77 Clouds 5 1022 52 0 3.67 27 15:18 16.10.2019
78 Clouds 5 1022 52 0 3.67 27 14:56 16.10.2019
79 Clouds 5 1023 56 0 3.006 16 14:38 16.10.2019
80 Clouds 5 1023 56 0 3.006 16 14:18 16.10.2019
81 -273 0 0 0 0 0 13:56 16.10.2019
82 Clouds 5 1023 56 0 3.006 16 13:56 16.10.2019
83 Clouds 5 1023 56 0 3.006 16 13:37 16.10.2019
84 Clouds 5 1023 56 0 3.006 16 13:18 16.10.2019
85 Clouds 5 1023 56 0 3.006 16 12:41 16.10.2019
86 Clouds 8 1017 45 0 6.923 355 12:19 16.10.2019
87 Clouds 8 1017 45 0 6.923 355 11:43 16.10.2019
88 Clouds 8 1017 45 0 6.923 355 11:18 16.10.2019
89 Clouds 8 1017 45 0 6.923 355 10:40 16.10.2019
90 Clouds 8 1017 45 0 6.923 355 10:22 16.10.2019
91 Clouds 8 1017 45 0 6.923 355 09:58 16.10.2019
92 Snow 7 1017 50 0 6.48 352 09:38 16.10.2019
93 Clear 11 1018 29 0 2.216 185 09:20 16.10.2019
94 Clear 11 1018 29 0 2.216 185 08:43 16.10.2019
95 Clear 11 1018 29 0 2.216 185 08:25 16.10.2019
96 Clear 11 1018 29 0 2.216 185 07:56 16.10.2019
97 Clear 11 1018 29 0 2.216 185 07:38 16.10.2019
98 Clear 11 1018 29 0 2.216 185 07:19 16.10.2019
99 Clear 11 1018 29 0 2.216 185 06:40 16.10.2019
100 Clear 6 1023 45 0 2.371 173 05:56 16.10.2019
101 Clear 6 1023 45 0 2.371 173 03:33 16.10.2019
102 Clear 0 1024 73 0 1.334 137 02:50 16.10.2019
103 Clouds 0 1024 73 0 1.334 143 01:20 16.10.2019
104 Clouds 0 1024 73 0 1.334 143 00:54 16.10.2019
105 Clouds 0 1024 73 0 1.334 143 00:35 16.10.2019
106 Clear 2 1023 69 0 1.489 42 23:42 15.10.2019
107 Clear 2 1023 69 0 1.489 42 23:42 15.10.2019
108 Clear 2 1023 69 0 1.489 42 23:22 15.10.2019
109 Clear 2 1023 69 0 1.489 42 22:57 15.10.2019
110 Clear 2 1023 69 0 1.489 42 22:38 15.10.2019
111 Clear 2 1023 69 0 1.489 42 22:20 15.10.2019
112 Clear 2 1023 69 0 1.489 42 21:56 15.10.2019
113 Clear 2 1023 69 0 1.489 42 21:56 15.10.2019
114 Clear 2 1023 69 0 1.489 42 21:56 15.10.2019
115 Clouds 2 1023 64 0 1.23 61 21:38 15.10.2019
116 Clouds 4 1022 61 0 1.481 34 21:20 15.10.2019
117 Clouds 4 1022 61 0 1.481 34 20:58 15.10.2019
118 Clouds 4 1022 61 0 1.481 34 20:39 15.10.2019
119 Clouds 4 1022 61 0 1.481 34 20:20 15.10.2019
120 Clouds 4 1022 61 0 1.481 34 19:59 15.10.2019
121 Clouds 4 1022 61 0 1.481 34 19:40 15.10.2019
122 Clouds 4 1022 61 0 1.481 34 19:40 15.10.2019
123 Clouds 4 1022 61 0 1.481 34 19:20 15.10.2019
124 Clouds 4 1022 61 0 1.481 34 18:48 15.10.2019
125 Clouds 4 1022 61 0 1.481 34 18:30 15.10.2019
126 Clouds 5 1022 52 0 1.993 32 17:59 15.10.2019
127 Clouds 5 1022 52 0 1.993 32 17:41 15.10.2019
128 Clouds 5 1022 52 0 1.993 32 17:41 15.10.2019
129 Clouds 5 1022 52 0 1.993 32 17:41 15.10.2019
130 Clouds 5 1022 52 0 1.993 32 17:20 15.10.2019
131 Clouds 5 1022 52 0 1.993 32 17:20 15.10.2019
132 Clouds 5 1022 52 0 1.993 32 16:58 15.10.2019
133 Clouds 5 1022 52 0 1.993 32 16:39 15.10.2019
134 Clouds 5 1022 52 0 1.993 32 16:20 15.10.2019
135 Clouds 5 1022 52 0 1.993 32 15:55 15.10.2019
136 Clouds 5 1022 52 0 1.993 32 15:55 15.10.2019
137 Clouds 5 1022 52 0 1.993 32 15:36 15.10.2019
138 Clouds 10 1018 28 0 0.79 332 15:18 15.10.2019
139 Clouds 10 1018 30 0 1.568 38 14:38 15.10.2019
140 Clouds 10 1018 30 0 1.568 38 14:20 15.10.2019
141 Clouds 10 1018 30 0 1.568 38 13:58 15.10.2019
142 Clouds 10 1018 30 0 1.568 38 13:40 15.10.2019
143 Clouds 10 1018 30 0 1.568 38 13:19 15.10.2019
144 Clouds 10 1018 30 0 1.568 38 12:44 15.10.2019
145 Clouds 13 1014 23 0 3.49 199 12:22 15.10.2019
146 Clouds 13 1014 23 0 3.49 199 11:57 15.10.2019
147 Clouds 13 1014 23 0 3.49 199 11:57 15.10.2019
148 Clouds 13 1014 23 0 3.49 199 11:38 15.10.2019
149 Clouds 13 1014 23 0 3.49 199 11:19 15.10.2019
150 Clouds 13 1014 23 0 3.49 199 10:45 15.10.2019
151 Clouds 13 1014 23 0 3.49 199.328 10:22 15.10.2019
152 Clouds 13 1014 23 0 3.49 199.328 09:58 15.10.2019
153 Clouds 13 1014 23 0 3.49 199.328 09:39 15.10.2019
154 Clear 11 1016 32 0 2.84 189.403 09:20 15.10.2019
155 Clouds 11 1017 32 0 2.89 197.356 08:57 15.10.2019
156 Clouds 11 1017 32 0 2.89 197.356 08:37 15.10.2019
157 Clouds 11 1017 32 0 2.89 197.356 08:18 15.10.2019
158 Clouds 11 1017 32 0 2.89 197.356 07:42 15.10.2019
159 Clouds 11 1017 32 0 2.89 197.356 07:21 15.10.2019
160 Clouds 11 1017 32 0 2.89 197.356 06:54 15.10.2019
161 Clouds 11 1017 32 0 2.89 197.356 06:36 15.10.2019
162 Clear 7 1022 47 0 2.25 172.591 05:56 15.10.2019
163 Clear 7 1022 47 0 2.25 172.591 05:36 15.10.2019
164 Clear 7 1022 47 0 2.25 172.591 04:40 15.10.2019
165 Clear 7 1022 47 0 2.25 172.591 03:59 15.10.2019
166 Clear 7 1022 47 0 2.25 172.591 03:30 15.10.2019
167 Clear 1 1022 72 0 1.8 139.958 01:51 15.10.2019
168 Clear 0 1023 72 0 1.85 139.694 01:24 15.10.2019
169 Clear 0 1023 72 0 1.85 139.694 00:58 15.10.2019
170 Clear 0 1023 72 0 1.85 139.694 00:24 15.10.2019
171 Clear 2 1021 62 0 2.07 140.791 23:55 14.10.2019
172 Clear 2 1021 62 0 2.07 140.791 23:36 14.10.2019
173 Clear 2 1021 62 0 2.07 140.791 23:18 14.10.2019
174 Clear 2 1021 62 0 2.07 140.791 22:39 14.10.2019
175 Clear 2 1021 62 0 2.07 140.791 22:20 14.10.2019
176 Clear 2 1021 62 0 2.07 140.791 21:57 14.10.2019
177 Clear 2 1021 62 0 2.07 140.791 21:39 14.10.2019
178 Clear 4 1020 51 0 2.3 135.741 21:20 14.10.2019
179 Clouds 4 1020 52 0 2.25 138.034 20:56 14.10.2019
180 Clouds 4 1020 52 0 2.25 138.034 20:38 14.10.2019
181 Clouds 4 1020 52 0 2.25 138.034 20:38 14.10.2019
182 Clouds 4 1020 52 0 2.25 138.034 20:18 14.10.2019
183 Clouds 4 1020 52 0 2.245 138 19:43 14.10.2019
184 Clouds 4 1020 52 0 2.245 138 19:25 14.10.2019
185 Clouds 4 1020 52 0 2.25 138.034 18:59 14.10.2019
186 Clouds 4 1020 52 0 2.25 138.034 18:40 14.10.2019
187 Clouds 4 1020 52 0 2.25 138.034 18:40 14.10.2019
188 Clouds 7 1020 38 0 2.92 167.588 18:20 14.10.2019
189 Clouds 7 1020 38 0 2.92 167.588 18:20 14.10.2019
190 Clouds 7 1020 38 0 2.92 167.588 17:58 14.10.2019
191 Clouds 7 1020 38 0 2.92 167.588 17:40 14.10.2019
192 Clouds 7 1020 38 0 2.92 167.588 17:22 14.10.2019
193 Clouds 7 1020 38 0 2.92 167.588 16:44 14.10.2019
194 Clouds 7 1020 38 0 2.92 167.588 16:22 14.10.2019
195 Clouds 7 1020 38 0 2.92 167.588 15:58 14.10.2019
196 Clouds 7 1020 38 0 2.92 167.588 15:38 14.10.2019
197 Clouds 9 1015 30 0 0.9 242.322 15:20 14.10.2019
198 Clouds 9 1015 30 0 0.9 242.322 14:43 14.10.2019
199 Clouds 9 1015 30 0 0.9 242.322 14:24 14.10.2019
200 Clouds 9 1015 30 0 0.9 242.322 13:57 14.10.2019
201 Clouds 9 1015 30 0 0.9 242.322 13:39 14.10.2019
202 Clouds 9 1015 33 0 1.8 177.228 13:20 14.10.2019
203 -273 0 0 0 0 0 12:41 14.10.2019
204 Clouds 14 1011 22 0 2.58 190.408 12:20 14.10.2019
205 Clouds 14 1011 22 0 2.58 190.408 11:54 14.10.2019
206 Clouds 14 1011 22 0 2.58 190.408 11:36 14.10.2019
207 Clouds 14 1011 22 0 2.58 190.408 11:18 14.10.2019
208 Clouds 14 1011 22 0 2.58 190.408 10:43 14.10.2019
209 Clouds 14 1011 22 0 2.58 190.408 10:21 14.10.2019
210 Clouds 14 1011 22 0 2.58 190.408 09:59 14.10.2019
211 Clouds 14 1011 22 0 2.58 190.408 09:59 14.10.2019
212 Clouds 14 1011 22 0 2.58 190.408 09:38 14.10.2019
213 Clouds 14 1011 22 0 2.58 190.408 09:38 14.10.2019
214 Clear 11 1015 32 0 2.92 184.919 09:19 14.10.2019
215 Clear 11 1015 32 0 2.92 184.919 08:47 14.10.2019
216 Clear 11 1015 32 0 2.92 184.919 08:23 14.10.2019
217 Clear 11 1015 32 0 2.92 184.919 07:44 14.10.2019
218 Clear 11 1015 32 0 2.92 184.919 07:21 14.10.2019
219 Clear 11 1015 32 0 2.92 184.919 06:55 14.10.2019
220 Clear 11 1015 32 0 2.92 184.919 06:27 14.10.2019
221 Clear 7 1021 47 0 2.81 167.797 05:52 14.10.2019
222 Clear 7 1021 47 0 2.81 167.797 04:51 14.10.2019
223 Clear 7 1021 47 0 2.81 167.797 03:48 14.10.2019
224 Clear 1 1021 76 0 2.39 144.239 03:22 14.10.2019
225 Clear 1 1021 76 0 2.39 144.239 01:52 14.10.2019
226 Clear 1 1021 75 0 2.29 143.982 01:18 14.10.2019
227 Clear 1 1021 75 0 2.29 143.982 00:36 14.10.2019
228 Clear 3 1019 62 0 2.16 145.296 00:18 14.10.2019
229 Clear 3 1019 62 0 2.16 145.296 23:40 13.10.2019
230 Clear 3 1019 62 0 2.16 145.296 23:19 13.10.2019
231 Clear 3 1019 62 0 2.16 145.296 22:54 13.10.2019
232 Clear 3 1019 62 0 2.16 145.296 22:36 13.10.2019
233 Clear 3 1019 62 0 2.16 145.296 22:18 13.10.2019
234 Clear 3 1019 62 0 2.16 145.296 22:18 13.10.2019
235 Clear 3 1019 62 0 2.16 145.296 21:55 13.10.2019
236 Clear 3 1019 62 0 2.16 145.296 21:36 13.10.2019
237 Clear 5 1019 39 0 2.17 138.988 21:18 13.10.2019
238 Clear 5 1019 39 0 2.17 138.988 21:18 13.10.2019
239 Clear 5 1019 39 0 2.17 138.988 20:55 13.10.2019
240 Clear 5 1019 39 0 2.17 138.988 20:55 13.10.2019
241 Clear 5 1019 42 0 2.08 136.207 20:36 13.10.2019
242 Clear 5 1019 42 0 2.08 136.207 20:18 13.10.2019
243 Clear 5 1019 42 0 2.08 136.207 19:40 13.10.2019
244 Clear 5 1019 42 0 2.08 136.207 19:22 13.10.2019
245 Clear 5 1019 42 0 2.08 136.207 18:59 13.10.2019
246 Clear 5 1019 42 0 2.08 136.207 18:38 13.10.2019
247 Clear 6 1018 31 0 0.76 337.363 18:20 13.10.2019
248 Clear 6 1018 31 0 0.76 337.363 17:59 13.10.2019
249 Clear 6 1018 31 0 0.76 337.363 17:40 13.10.2019
250 Clear 6 1018 31 0 0.76 337.363 17:22 13.10.2019
251 Clear 6 1018 31 0 0.76 337.363 17:22 13.10.2019
252 Clear 6 1018 31 0 0.76 337.363 16:43 13.10.2019
253 Clear 6 1018 31 0 0.76 337.363 16:19 13.10.2019
254 Clear 6 1018 31 0 0.76 337.363 15:57 13.10.2019
255 Clear 6 1018 31 0 0.76 337.363 15:39 13.10.2019
256 Clouds 8 1013 28 0 0.9 74.806 15:20 13.10.2019
257 Clouds 8 1013 28 0 0.9 74.806 15:20 13.10.2019
258 Clouds 8 1013 28 0 0.9 74.806 14:58 13.10.2019
259 Clouds 8 1013 28 0 0.9 74.806 14:39 13.10.2019
260 Clouds 8 1013 28 0 0.9 74.806 14:20 13.10.2019
261 Clouds 8 1013 28 0 0.9 74.806 13:56 13.10.2019
262 Clouds 8 1013 28 0 0.9 74.806 13:37 13.10.2019
263 Clouds 8 1013 31 0 0.98 8.693 13:18 13.10.2019
264 Clouds 8 1013 31 0 0.98 8.693 12:55 13.10.2019
265 Clouds 8 1013 31 0 0.98 8.693 12:37 13.10.2019
266 Clouds 14 1011 19 0 1.19 200.32 12:18 13.10.2019
267 Clouds 14 1011 19 0 1.19 200.32 11:55 13.10.2019
268 Clouds 14 1011 19 0 1.19 200.32 11:36 13.10.2019
269 Clouds 14 1011 19 0 1.19 200.32 11:18 13.10.2019
270 Clouds 14 1011 19 0 1.19 200.32 10:41 13.10.2019
271 Clouds 14 1011 19 0 1.19 200.32 10:22 13.10.2019
272 Clouds 14 1011 19 0 1.19 200.32 09:41 13.10.2019
273 Clear 12 1014 26 0 2.63 186.631 09:21 13.10.2019
274 Clear 12 1014 26 0 2.56 185.263 08:57 13.10.2019
275 Clear 12 1014 26 0 2.56 185.263 08:38 13.10.2019
276 Clear 12 1014 26 0 2.56 185.263 08:19 13.10.2019
277 Clear 12 1014 26 0 2.56 185.263 07:46 13.10.2019
278 Clear 12 1014 26 0 2.56 185.263 06:59 13.10.2019
279 Clear 12 1014 26 0 2.56 185.263 06:40 13.10.2019
280 Clear 8 1019 44 0 2.08 173.721 05:34 13.10.2019
281 Clear 8 1019 44 0 2.08 173.721 04:46 13.10.2019
282 Clear 8 1019 44 0 2.08 173.721 03:40 13.10.2019
283 Clear 1 1020 65 0 1.62 132.846 02:39 13.10.2019
284 Clear 1 1020 65 0 1.62 132.846 01:53 13.10.2019
285 Clear 1 1021 65 0 1.71 134.311 01:26 13.10.2019
286 Clear 1 1021 65 0 1.71 134.311 01:26 13.10.2019
287 Clear 1 1021 65 0 1.71 134.311 00:46 13.10.2019
288 Clear 3 1018 59 0 1.63 136.77 00:21 13.10.2019
289 Clear 3 1018 59 0 1.63 136.77 23:55 12.10.2019
290 Clear 3 1018 59 0 1.63 136.77 23:36 12.10.2019
291 Clear 3 1018 59 0 1.63 136.77 23:18 12.10.2019
292 Clear 3 1018 59 0 1.63 136.77 22:56 12.10.2019
293 Clear 3 1018 59 0 1.63 136.77 22:37 12.10.2019
294 Clear 3 1018 59 0 1.63 136.77 22:37 12.10.2019
295 Clear 3 1018 59 0 1.63 136.77 22:19 12.10.2019
296 Clear 3 1018 59 0 1.63 136.77 21:42 12.10.2019
297 Clear 5 1018 53 0 2.23 147.738 21:24 12.10.2019
298 Clear 5 1018 53 0 2.23 147.738 20:58 12.10.2019
299 Clear 5 1018 51 0 2.13 148.602 20:39 12.10.2019
300 Clear 5 1018 51 0 2.13 148.602 20:21 12.10.2019
301 Clear 5 1018 51 0 2.13 148.602 19:37 12.10.2019
302 Clear 5 1018 51 0 2.13 148.602 19:19 12.10.2019
303 -273 0 0 0 0 0 18:56 12.10.2019
304 Clear 5 1018 51 0 2.13 148.602 18:37 12.10.2019
305 Clear 7 1017 40 0 2.02 176.394 18:19 12.10.2019
306 Clear 7 1017 40 0 2.02 176.394 17:42 12.10.2019
307 Clear 7 1017 40 0 2.02 176.394 17:19 12.10.2019
308 Clear 7 1017 40 0 2.02 176.394 16:54 12.10.2019
309 Clear 7 1017 40 0 2.02 176.394 16:36 12.10.2019
310 Clear 7 1017 40 0 2.02 176.394 16:18 12.10.2019
311 Clear 7 1017 40 0 2.02 176.394 15:43 12.10.2019
312 Clear 8 1012 32 0 0.42 242.511 15:23 12.10.2019
313 Clear 8 1012 32 0 0.42 242.511 14:43 12.10.2019
314 Clear 8 1012 32 0 0.42 242.511 14:22 12.10.2019
315 Clear 8 1012 32 0 0.42 242.511 13:58 12.10.2019
316 Clear 8 1012 32 0 0.42 242.511 13:40 12.10.2019
317 Clear 8 1012 32 0 0.42 242.511 13:40 12.10.2019
318 Clear 9 1012 33 0 0.51 264.602 13:21 12.10.2019
319 Clear 9 1012 33 0 0.51 264.602 12:39 12.10.2019
320 Clear 14 1009 21 0 1.19 187.406 12:21 12.10.2019
321 Clear 14 1009 21 0 1.19 187.406 11:58 12.10.2019
322 Clear 14 1009 21 0 1.19 187.406 11:39 12.10.2019
323 Clear 14 1009 21 0 1.19 187.406 11:20 12.10.2019
324 Clear 14 1009 21 0 1.19 187.406 10:43 12.10.2019
325 Clear 14 1009 21 0 1.19 187.406 10:23 12.10.2019
326 Clear 14 1009 21 0 1.19 187.406 09:58 12.10.2019
327 Clear 14 1009 21 0 1.19 187.406 09:58 12.10.2019
328 Clear 14 1009 21 0 1.19 187.406 09:39 12.10.2019
329 Clear 12 1013 31 0 2.56 182.504 09:21 12.10.2019
330 Clear 12 1013 31 0 2.6 185.206 08:57 12.10.2019
331 Clear 12 1013 31 0 2.6 185.206 08:38 12.10.2019
332 Clear 12 1013 31 0 2.6 185.206 08:19 12.10.2019
333 Clear 12 1013 31 0 2.6 185.206 07:35 12.10.2019
334 Clear 12 1013 31 0 2.6 185.206 06:56 12.10.2019
335 Clear 7 1018 47 0 2.63 166.855 05:47 12.10.2019
336 Clear 7 1018 47 0 2.63 166.855 05:23 12.10.2019
337 Clear 7 1018 47 0 2.63 166.855 04:24 12.10.2019
338 Clear 7 1018 47 0 2.63 166.855 03:31 12.10.2019
339 Clear 1 1019 68 0 1.38 116.602 01:45 12.10.2019
340 Clear 1 1019 67 0 1.24 112.84 01:21 12.10.2019
341 Clear 1 1019 67 0 1.24 112.84 00:42 12.10.2019
342 Clear 2 1018 54 0 1.29 44.122 23:59 11.10.2019
343 Clear 2 1018 54 0 1.29 44.122 23:40 11.10.2019
344 Clear 2 1018 54 0 1.29 44.122 23:20 11.10.2019
345 Clear 2 1018 54 0 1.29 44.122 22:41 11.10.2019
346 Clear 2 1018 54 0 1.29 44.122 22:21 11.10.2019
347 Clear 2 1018 54 0 1.29 44.122 21:57 11.10.2019
348 Clear 2 1018 54 0 1.29 44.122 21:39 11.10.2019
349 Clouds 4 1018 38 0 0.87 88.881 21:20 11.10.2019
350 Clouds 4 1018 38 0 1.59 47.501 20:44 11.10.2019
351 Clouds 4 1018 38 0 1.59 47.501 20:26 11.10.2019
352 Clouds 4 1018 38 0 1.59 47.501 19:58 11.10.2019
353 Clouds 4 1018 38 0 1.59 47.501 19:39 11.10.2019
354 Clouds 4 1018 38 0 1.59 47.501 19:39 11.10.2019
355 Clouds 4 1018 38 0 1.59 47.501 19:18 11.10.2019
356 Clouds 4 1018 38 0 1.59 47.501 18:59 11.10.2019
357 Clouds 4 1018 38 0 1.59 47.501 18:38 11.10.2019
358 Clear 6 1017 29 0 1.6 2.047 18:19 11.10.2019
359 Clear 6 1017 29 0 1.6 2.047 18:19 11.10.2019
360 Clear 6 1017 29 0 1.6 2.047 18:19 11.10.2019
361 Clear 6 1017 29 0 1.6 2.047 17:58 11.10.2019
362 Clear 6 1017 29 0 1.6 2.047 17:38 11.10.2019
363 Clear 6 1017 29 0 1.6 2.047 17:19 11.10.2019
364 Clear 6 1017 29 0 1.6 2.047 16:58 11.10.2019
365 Clear 6 1017 29 0 1.6 2.047 16:39 11.10.2019
366 Clear 6 1017 29 0 1.6 2.047 16:19 11.10.2019
367 Clear 6 1017 29 0 1.6 2.047 15:42 11.10.2019
368 Clouds 8 1013 32 0 0.21 251.65 15:22 11.10.2019
369 Clouds 8 1013 32 0 0.21 251.65 14:59 11.10.2019
370 Clouds 8 1013 32 0 0.21 251.65 14:40 11.10.2019
371 Clouds 8 1013 32 0 0.21 251.65 14:21 11.10.2019
372 Clouds 8 1013 32 0 0.21 251.65 13:45 11.10.2019
373 Clouds 8 1013 31 0 0.47 271.601 13:25 11.10.2019
374 Clouds 8 1013 31 0 0.47 271.601 12:58 11.10.2019
375 Clouds 8 1013 31 0 0.47 271.601 12:39 11.10.2019
376 Clouds 14 1009 20 0 2.1 206.565 12:20 11.10.2019
377 Clouds 14 1009 20 0 2.1 206.565 11:58 11.10.2019
378 Clouds 14 1009 20 0 2.1 206.565 11:39 11.10.2019
379 Clouds 14 1009 20 0 2.1 206.565 11:39 11.10.2019
380 Clouds 14 1009 20 0 2.1 206.565 11:20 11.10.2019
381 Clouds 14 1009 20 0 2.1 206.565 10:56 11.10.2019
382 Clouds 14 1009 20 0 2.1 206.565 10:56 11.10.2019
383 Clouds 14 1009 20 0 2.1 206.565 10:36 11.10.2019
384 Clouds 14 1009 20 0 2.1 206.565 10:18 11.10.2019
385 Clouds 14 1009 20 0 2.1 206.565 09:42 11.10.2019
386 Clear 12 1012 28 0 2.86 198.568 09:21 11.10.2019
387 Clear 12 1012 28 0 2.86 198.568 08:59 11.10.2019
388 Clear 12 1012 28 0 2.86 198.568 08:39 11.10.2019
389 Clear 12 1012 28 0 2.86 198.568 08:20 11.10.2019
390 Clear 12 1012 28 0 2.86 198.568 07:54 11.10.2019
391 Clear 12 1012 28 0 2.86 198.568 07:34 11.10.2019
392 Clear 12 1012 28 0 2.86 198.568 06:50 11.10.2019
393 Clear 12 1012 28 0 2.86 198.568 06:25 11.10.2019
394 Clear 8 1018 46 0 2.46 174.818 05:48 11.10.2019
395 Clear 8 1018 46 0 2.46 174.818 05:30 11.10.2019
396 Clear 8 1018 46 0 2.46 174.818 04:58 11.10.2019
397 Clear 8 1018 46 0 2.46 174.818 03:40 11.10.2019
398 Clear 2 1020 69 0 1.77 136.967 01:28 11.10.2019
399 Clear 2 1020 69 0 1.77 136.967 00:41 11.10.2019
400 Clear 3 1018 62 0 1.61 139.611 00:20 11.10.2019
401 Clear 3 1018 62 0 1.61 139.611 00:20 11.10.2019
402 Clear 3 1018 62 0 1.61 139.611 23:41 10.10.2019
403 Clear 3 1018 62 0 1.61 139.611 23:20 10.10.2019
404 Clear 3 1018 62 0 1.61 139.611 22:56 10.10.2019
405 Clear 3 1018 62 0 1.61 139.611 22:36 10.10.2019
406 Clear 3 1018 62 0 1.61 139.611 22:18 10.10.2019
407 Clear 3 1018 62 0 1.61 139.611 22:18 10.10.2019
408 Clear 3 1018 62 0 1.61 139.611 21:42 10.10.2019
409 Clear 5 1017 52 0 1.98 143.286 21:22 10.10.2019
410 Clear 5 1018 51 0 2.17 147.387 20:59 10.10.2019
411 Clear 5 1018 51 0 2.17 147.387 20:40 10.10.2019
412 Clear 5 1018 51 0 2.17 147.387 20:20 10.10.2019
413 Clear 5 1018 51 0 2.17 147.387 19:57 10.10.2019
414 Clear 5 1018 51 0 2.17 147.387 19:39 10.10.2019
415 Clear 5 1018 51 0 2.17 147.387 19:19 10.10.2019
416 -273 0 0 0 0 0 18:54 10.10.2019
417 Clear 5 1018 51 0 2.17 147.387 18:36 10.10.2019
418 Clear 6 1016 38 0 0.54 139.364 18:18 10.10.2019
419 -273 0 0 0 0 0 17:40 10.10.2019
420 Clear 6 1016 38 0 0.54 139.364 17:19 10.10.2019
421 Clear 6 1016 38 0 0.54 139.364 16:58 10.10.2019
422 Clear 6 1016 38 0 0.54 139.364 16:39 10.10.2019
423 Clear 6 1016 38 0 0.54 139.364 16:21 10.10.2019
424 Clear 6 1016 38 0 0.54 139.364 15:43 10.10.2019
425 Clouds 9 1012 30 0 0.88 64.05 15:23 10.10.2019
426 Clouds 9 1012 30 0 0.88 64.05 14:59 10.10.2019
427 Clouds 9 1012 30 0 0.88 64.05 14:37 10.10.2019
428 Clouds 9 1012 30 0 0.88 64.05 14:19 10.10.2019
429 Clouds 9 1012 30 0 0.88 64.05 13:58 10.10.2019
430 Clouds 9 1012 30 0 0.88 64.05 13:39 10.10.2019
431 Clouds 9 1011 32 0 0.98 97.973 13:18 10.10.2019
432 Clouds 9 1011 32 0 0.98 97.973 12:54 10.10.2019
433 Clouds 9 1011 32 0 0.98 97.973 12:36 10.10.2019
434 Clouds 14 1008 20 0 0.78 215.359 12:18 10.10.2019
435 Clouds 14 1008 20 0 0.78 215.359 11:41 10.10.2019
436 Clouds 14 1008 20 0 0.78 215.359 11:20 10.10.2019
437 Clouds 14 1008 20 0 0.78 215.359 11:20 10.10.2019
438 Clouds 14 1008 20 0 0.78 215.359 10:58 10.10.2019
439 Clouds 14 1008 20 0 0.78 215.359 10:40 10.10.2019
440 Clouds 14 1008 20 0 0.78 215.359 10:21 10.10.2019
441 Clouds 14 1008 20 0 0.78 215.359 09:41 10.10.2019
442 Clouds 14 1008 20 0 0.78 215.359 09:41 10.10.2019
443 Clouds 12 1012 32 0 2.76 196.21 09:23 10.10.2019
444 Clouds 12 1012 31 0 2.64 196.271 08:59 10.10.2019
445 Clouds 12 1012 31 0 2.64 196.271 08:41 10.10.2019
446 Clouds 12 1012 31 0 2.64 196.271 08:21 10.10.2019
447 Clouds 12 1012 31 0 2.64 196.271 07:57 10.10.2019
448 Clouds 12 1012 31 0 2.64 196.271 07:36 10.10.2019
449 Clouds 12 1012 31 0 2.64 196.271 07:18 10.10.2019
450 Clouds 12 1012 31 0 2.64 196.271 06:39 10.10.2019
451 Clouds 8 1018 47 0 2.67 174.249 05:56 10.10.2019
452 Clouds 8 1018 47 0 2.67 174.249 05:21 10.10.2019
453 Clouds 8 1018 47 0 2.67 174.249 04:36 10.10.2019
454 Clear 2 1019 70 0 1.57 140.896 02:46 10.10.2019
455 Clear 2 1019 70 0 1.57 140.896 01:39 10.10.2019
456 Clear 2 1019 69 0 1.62 139.66 01:21 10.10.2019
457 Clear 2 1019 69 0 1.62 139.66 00:41 10.10.2019
458 Clear 4 1017 63 0 2.06 146.086 23:57 09.10.2019
459 Clear 4 1017 63 0 2.06 146.086 23:36 09.10.2019
460 Clear 4 1017 63 0 2.06 146.086 23:18 09.10.2019
461 Clear 4 1017 63 0 2.06 146.086 22:42 09.10.2019
462 Clear 4 1017 63 0 2.06 146.086 22:22 09.10.2019
463 Clear 4 1017 63 0 2.06 146.086 21:58 09.10.2019
464 Clear 4 1017 63 0 2.06 146.086 21:39 09.10.2019
465 Clear 4 1017 63 0 2.06 146.086 21:39 09.10.2019
466 Clouds 6 1017 56 0 2.33 151.529 21:19 09.10.2019
467 Clouds 6 1016 55 0 2.44 151.661 20:55 09.10.2019
468 Clouds 6 1016 55 0 2.44 151.661 20:37 09.10.2019
469 Clouds 6 1016 55 0 2.44 151.661 20:18 09.10.2019
470 Clouds 6 1016 55 0 2.44 151.661 19:45 09.10.2019
471 Clouds 6 1016 55 0 2.44 151.661 19:23 09.10.2019
472 Clouds 6 1016 55 0 2.44 151.661 18:56 09.10.2019
473 Clouds 6 1016 55 0 2.44 151.661 18:37 09.10.2019
474 Clouds 9 1016 44 0 2.84 169.09 18:18 09.10.2019
475 Clouds 9 1016 44 0 2.84 169.09 17:54 09.10.2019
476 Clouds 9 1016 44 0 2.84 169.09 17:36 09.10.2019
477 Clouds 9 1016 44 0 2.84 169.09 17:18 09.10.2019
478 Clouds 9 1016 44 0 2.84 169.09 16:40 09.10.2019
479 Clouds 9 1016 44 0 2.84 169.09 16:21 09.10.2019
480 Clouds 9 1016 44 0 2.84 169.09 16:21 09.10.2019
481 Clouds 9 1016 44 0 2.84 169.09 15:57 09.10.2019
482 Clouds 9 1016 44 0 2.84 169.09 15:57 09.10.2019
483 Clouds 9 1016 44 0 2.84 169.09 15:39 09.10.2019
484 Clouds 11 1011 34 0 1.68 121.139 15:19 09.10.2019
485 Clouds 11 1011 34 0 1.68 121.139 14:56 09.10.2019
486 Clouds 11 1011 34 0 1.68 121.139 14:37 09.10.2019
487 Clouds 11 1011 34 0 1.68 121.139 14:18 09.10.2019
488 Clouds 11 1011 34 0 1.68 121.139 13:39 09.10.2019
489 Clouds 11 1011 34 0 1.2 103.353 13:20 09.10.2019
490 Clouds 11 1011 34 0 1.2 103.353 12:58 09.10.2019
491 Clouds 11 1011 34 0 1.2 103.353 12:40 09.10.2019
492 Clouds 14 1007 23 0 1.02 227.272 12:21 09.10.2019
493 Clouds 14 1007 23 0 1.02 227.272 11:55 09.10.2019
494 Clouds 14 1007 23 0 1.02 227.272 11:36 09.10.2019
495 Clouds 14 1007 23 0 1.02 227.272 11:18 09.10.2019
496 Clouds 14 1007 23 0 1.02 227.272 10:43 09.10.2019
497 Clouds 14 1007 23 0 1.02 227.272 10:21 09.10.2019
498 Clouds 14 1007 23 0 1.02 227.272 09:57 09.10.2019
499 Clouds 14 1007 23 0 1.02 227.272 09:38 09.10.2019
500 Clouds 12 1012 33 0 2.71 200.892 09:18 09.10.2019
501 Clear 12 1012 32 0 2.71 207.787 08:40 09.10.2019
502 Clear 12 1012 32 0 2.71 207.787 08:21 09.10.2019
503 Clear 12 1012 32 0 2.71 207.787 07:54 09.10.2019
504 Clear 12 1012 32 0 2.71 207.787 07:36 09.10.2019
505 Clear 12 1012 32 0 2.71 207.787 07:18 09.10.2019
506 Clear 12 1012 32 0 2.71 207.787 06:47 09.10.2019
507 Clouds 9 1018 47 0 2.51 180.547 05:55 09.10.2019
508 Clouds 9 1018 47 0 2.51 180.547 05:23 09.10.2019
509 Clouds 9 1018 47 0 2.51 180.547 04:20 09.10.2019
510 Clouds 4 1021 71 0 1.99 152.753 02:45 09.10.2019
511 Clouds 4 1021 71 0 1.99 152.753 01:42 09.10.2019
512 Clouds 4 1020 73 0 2.06 146.664 01:19 09.10.2019
513 Clouds 4 1020 73 0 2.06 146.664 01:19 09.10.2019
514 Clouds 4 1020 73 0 2.06 146.664 00:56 09.10.2019
515 Clouds 4 1020 73 0 2.06 146.664 00:38 09.10.2019
516 Clouds 4 1020 73 0 2.06 146.664 00:38 09.10.2019
517 Clouds 4 1020 73 0 2.06 146.664 00:38 09.10.2019
518 Clouds 5 1019 71 0 1.91 143.454 00:19 09.10.2019
519 Clouds 5 1019 71 0 1.91 143.454 23:39 08.10.2019
520 Clouds 5 1019 71 0 1.91 143.454 23:18 08.10.2019
521 Clouds 5 1019 71 0 1.91 143.454 22:56 08.10.2019
522 Clouds 5 1019 71 0 1.91 143.454 22:38 08.10.2019
523 Clouds 5 1019 71 0 1.91 143.454 22:19 08.10.2019
524 Clouds 5 1019 71 0 1.91 143.454 21:57 08.10.2019
525 Clouds 5 1019 71 0 1.91 143.454 21:38 08.10.2019
526 Rain 6 1019 68 0 1.99 160.424 21:18 08.10.2019
527 Rain 6 1019 68 0 1.99 160.424 20:55 08.10.2019
528 Rain 6 1019 68 0 2.01 153.46 20:37 08.10.2019
529 Rain 6 1019 68 0 2.01 153.46 20:37 08.10.2019
530 Rain 6 1019 68 0 2.01 153.46 20:19 08.10.2019
531 Rain 6 1019 68 0 2.01 153.46 19:56 08.10.2019
532 Rain 6 1019 68 0 2.01 153.46 19:36 08.10.2019
533 Rain 6 1019 68 0 2.01 153.46 19:18 08.10.2019
534 Rain 6 1019 68 0 2.01 153.46 18:45 08.10.2019
535 Rain 6 1019 68 0 2.01 153.46 18:25 08.10.2019
536 Rain 7 1017 66 0 1.4 171.313 17:58 08.10.2019
537 Rain 7 1017 66 0 1.4 171.313 17:39 08.10.2019
538 Rain 7 1017 66 0 1.4 171.313 17:39 08.10.2019
539 Rain 7 1017 66 0 1.4 171.313 17:20 08.10.2019
540 Rain 7 1017 66 0 1.4 171.313 16:56 08.10.2019
541 Rain 7 1017 66 0 1.4 171.313 16:56 08.10.2019
542 Rain 7 1017 66 0 1.4 171.313 16:37 08.10.2019
543 Rain 7 1017 66 0 1.4 171.313 16:19 08.10.2019
544 Rain 7 1017 66 0 1.4 171.313 15:40 08.10.2019
545 Rain 9 1013 54 0 1.75 92.65 15:20 08.10.2019
546 Rain 9 1013 54 0 1.75 92.65 15:20 08.10.2019
547 Rain 9 1013 54 0 1.75 92.65 14:57 08.10.2019
548 Rain 9 1013 54 0 1.75 92.65 14:38 08.10.2019
549 Rain 9 1013 54 0 1.75 92.65 14:19 08.10.2019
550 Rain 9 1013 54 0 1.75 92.65 13:55 08.10.2019
551 Rain 9 1013 54 0 1.75 92.65 13:55 08.10.2019
552 Rain 9 1013 54 0 1.75 92.65 13:37 08.10.2019
553 Rain 9 1013 54 0 1.75 92.65 13:37 08.10.2019
554 Rain 9 1013 54 0 1.75 92.65 13:18 08.10.2019
555 Clouds 10 1013 47 0 0.74 191.676 12:41 08.10.2019
556 Clouds 14 1010 33 0 2.24 241.821 12:20 08.10.2019
557 Clouds 14 1010 33 0 2.24 241.821 11:58 08.10.2019
558 Clouds 14 1010 33 0 2.24 241.821 11:39 08.10.2019
559 Clouds 14 1010 33 0 2.24 241.821 11:21 08.10.2019
560 Clouds 14 1010 33 0 2.24 241.821 10:55 08.10.2019
561 Clouds 14 1010 33 0 2.24 241.821 10:36 08.10.2019
562 Clouds 14 1010 33 0 2.24 241.821 10:18 08.10.2019
563 Clouds 14 1010 33 0 2.24 241.821 09:41 08.10.2019
564 Clouds 13 1014 37 0 3.1 182.037 09:22 08.10.2019
565 Clouds 13 1014 37 0 3.1 182.037 08:54 08.10.2019
566 Clouds 13 1014 36 0 3.12 183.657 08:36 08.10.2019
567 Clouds 13 1014 36 0 3.12 183.657 08:18 08.10.2019
568 Clouds 13 1014 36 0 3.12 183.657 07:41 08.10.2019
569 Clouds 13 1014 36 0 3.12 183.657 07:19 08.10.2019
570 Clouds 13 1014 36 0 3.12 183.657 06:46 08.10.2019
571 Clear 10 1019 47 0 2.28 173.336 06:23 08.10.2019
572 Clear 10 1019 47 0 2.28 173.336 05:43 08.10.2019
573 Clear 10 1019 47 0 2.28 173.336 05:21 08.10.2019
574 Clear 10 1019 47 0 2.28 173.336 03:32 08.10.2019
575 Clouds 4 1021 71 0 1.84 143.877 02:44 08.10.2019
576 Clouds 4 1021 71 0 1.84 143.877 02:25 08.10.2019
577 Clouds 4 1021 71 0 1.84 143.877 01:42 08.10.2019
578 Clouds 4 1021 72 0 1.7 143.697 00:57 08.10.2019
579 Clouds 4 1021 72 0 1.7 143.697 00:25 08.10.2019
580 Clouds 6 1019 67 0 2.06 148.329 23:58 07.10.2019
581 Clouds 6 1019 67 0 2.06 148.329 23:38 07.10.2019
582 Clouds 6 1019 67 0 2.06 148.329 23:19 07.10.2019
583 Clouds 6 1019 67 0 2.06 148.329 23:19 07.10.2019
584 Clouds 6 1019 67 0 2.06 148.329 22:55 07.10.2019
585 Clouds 6 1019 67 0 2.06 148.329 22:37 07.10.2019
586 Clouds 6 1019 67 0 2.06 148.329 22:18 07.10.2019
587 Clouds 6 1019 67 0 2.06 148.329 21:54 07.10.2019
588 Clouds 6 1019 67 0 2.06 148.329 21:36 07.10.2019
589 Clouds 6 1019 67 0 2.06 148.329 21:36 07.10.2019
590 Rain 8 1020 62 0 1.86 174.044 21:18 07.10.2019
591 Rain 8 1019 63 0 1.83 159.704 20:56 07.10.2019
592 Rain 8 1019 63 0 1.83 159.704 20:56 07.10.2019
593 Rain 8 1019 63 0 1.83 159.704 20:37 07.10.2019
594 Rain 8 1019 63 0 1.83 159.704 20:18 07.10.2019
595 Rain 8 1019 63 0 1.83 159.704 19:41 07.10.2019
596 Rain 8 1019 63 0 1.83 159.704 19:21 07.10.2019
597 Rain 8 1019 63 0 1.83 159.704 18:59 07.10.2019
598 Rain 8 1019 63 0 1.83 159.704 18:59 07.10.2019
599 Rain 8 1019 63 0 1.83 159.704 18:41 07.10.2019
600 Rain 10 1019 51 0 1.11 135.182 18:19 07.10.2019
601 Rain 10 1019 51 0 1.11 135.182 17:56 07.10.2019
602 Rain 10 1019 51 0 1.11 135.182 17:38 07.10.2019
603 Rain 10 1019 51 0 1.11 135.182 17:18 07.10.2019
604 Rain 10 1019 51 0 1.11 135.182 16:44 07.10.2019
605 Rain 10 1019 51 0 1.11 135.182 16:26 07.10.2019
606 Rain 10 1019 51 0 1.11 135.182 15:57 07.10.2019
607 Rain 10 1019 51 0 1.11 135.182 15:38 07.10.2019
608 Clouds 13 1014 38 0 1.7 313.382 15:20 07.10.2019
609 Clouds 13 1014 38 0 1.7 313.382 14:41 07.10.2019
610 Clouds 13 1014 38 0 1.7 313.382 14:23 07.10.2019
611 Clouds 13 1014 38 0 1.7 313.382 13:45 07.10.2019
612 Clouds 12 1014 44 0 0.48 327.714 13:21 07.10.2019
613 Clouds 12 1014 44 0 0.48 327.714 12:58 07.10.2019
614 Clouds 12 1014 44 0 0.48 327.714 12:58 07.10.2019
615 Clouds 12 1014 44 0 0.48 327.714 12:40 07.10.2019
616 Clear 16 1012 29 0 0.61 228.062 12:21 07.10.2019
617 Clear 16 1012 29 0 0.61 228.062 11:59 07.10.2019
618 Clear 16 1012 29 0 0.61 228.062 11:40 07.10.2019
619 Clear 16 1012 29 0 0.61 228.062 11:40 07.10.2019
620 Clear 16 1012 29 0 0.61 228.062 11:21 07.10.2019
621 Clear 16 1012 29 0 0.61 228.062 10:56 07.10.2019
622 Clear 16 1012 29 0 0.61 228.062 10:37 07.10.2019
623 Clear 16 1012 29 0 0.61 228.062 10:37 07.10.2019
624 Clear 16 1012 29 0 0.61 228.062 10:19 07.10.2019
625 Clear 16 1012 29 0 0.61 228.062 09:38 07.10.2019
626 Rain 14 1016 37 0 2 185.973 09:20 07.10.2019
627 Clear 14 1015 35 0 2.37 180.991 08:44 07.10.2019
628 Clear 14 1015 35 0 2.37 180.991 08:21 07.10.2019
629 Clear 14 1015 35 0 2.37 180.991 07:55 07.10.2019
630 Clear 14 1015 35 0 2.37 180.991 07:36 07.10.2019
631 Clear 14 1015 35 0 2.37 180.991 07:18 07.10.2019
632 Clear 14 1015 35 0 2.37 180.991 06:43 07.10.2019
633 Clear 10 1021 54 0 1.97 163.743 06:20 07.10.2019
634 Clear 10 1021 54 0 1.97 163.743 05:27 07.10.2019
635 Clear 10 1021 54 0 1.97 163.743 04:56 07.10.2019
636 Clear 10 1021 54 0 1.97 163.743 03:51 07.10.2019
637 Clear 10 1021 54 0 1.97 163.743 03:51 07.10.2019
638 Clear 10 1021 54 0 1.97 163.743 03:32 07.10.2019
639 Rain 5 1022 82 0 1.07 36.268 02:55 07.10.2019
640 Rain 5 1022 82 0 1.07 36.268 02:19 07.10.2019
641 Rain 5 1022 82 0 1.07 36.268 02:19 07.10.2019
642 -273 0 0 0 0 0 01:24 07.10.2019
643 Rain 4 1022 80 0 0.62 57.917 00:55 07.10.2019
644 Rain 4 1022 80 0 0.62 57.917 00:36 07.10.2019
645 Rain 6 1020 73 0 1.23 40.045 00:18 07.10.2019
646 Rain 6 1020 73 0 1.23 40.045 23:40 06.10.2019
647 Rain 6 1020 73 0 1.23 40.045 23:21 06.10.2019
648 Rain 6 1020 73 0 1.23 40.045 22:58 06.10.2019
649 Rain 6 1020 73 0 1.23 40.045 22:39 06.10.2019
650 Rain 6 1020 73 0 1.23 40.045 22:21 06.10.2019
651 Rain 6 1020 73 0 1.23 40.045 21:56 06.10.2019
652 Rain 6 1020 73 0 1.23 40.045 21:37 06.10.2019
653 Rain 8 1020 67 0 1.23 25.624 21:19 06.10.2019
654 Rain 8 1020 67 0 1.23 25.624 20:57 06.10.2019
655 Rain 7 1020 73 0 0.84 120.542 20:38 06.10.2019
656 Rain 7 1020 73 0 0.84 120.542 20:20 06.10.2019
657 Rain 7 1020 73 0 0.84 120.542 19:57 06.10.2019
658 Rain 7 1020 73 0 0.84 120.542 19:37 06.10.2019
659 Rain 7 1020 73 0 0.84 120.542 19:19 06.10.2019
660 Rain 7 1020 73 0 0.84 120.542 18:56 06.10.2019
661 Rain 7 1020 73 0 0.84 120.542 18:56 06.10.2019
662 Rain 7 1020 73 0 0.84 120.542 18:37 06.10.2019
663 Rain 9 1019 59 0 2.62 134.566 18:19 06.10.2019
664 Rain 9 1019 59 0 2.62 134.566 17:43 06.10.2019
665 Rain 9 1019 59 0 2.62 134.566 17:20 06.10.2019
666 Rain 9 1019 59 0 2.62 134.566 16:58 06.10.2019
667 Rain 9 1019 59 0 2.62 134.566 16:40 06.10.2019
668 Rain 9 1019 59 0 2.62 134.566 16:22 06.10.2019
669 Rain 9 1019 59 0 2.62 134.566 15:44 06.10.2019
670 Rain 9 1019 59 0 2.62 134.566 15:44 06.10.2019
671 Clouds 13 1014 37 0 3.53 304.463 15:22 06.10.2019
672 Clouds 13 1014 37 0 3.53 304.463 14:58 06.10.2019
673 Clouds 13 1014 37 0 3.53 304.463 14:40 06.10.2019
674 Clouds 13 1014 37 0 3.53 304.463 14:21 06.10.2019
675 Clouds 13 1014 37 0 3.53 304.463 13:55 06.10.2019
676 Clouds 13 1014 37 0 3.53 304.463 13:37 06.10.2019
677 Clouds 12 1013 39 0 0.77 264.684 13:18 06.10.2019
678 Clouds 12 1013 39 0 0.77 264.684 12:55 06.10.2019
679 Clouds 12 1013 39 0 0.77 264.684 12:55 06.10.2019
680 Clouds 12 1013 39 0 0.77 264.684 12:37 06.10.2019
681 Clear 17 1010 26 0 0.45 223.751 12:19 06.10.2019
682 Clear 17 1010 26 0 0.45 223.751 11:43 06.10.2019
683 -273 0 0 0 0 0 11:24 06.10.2019
684 Clear 17 1010 26 0 0.45 223.751 10:58 06.10.2019
685 Clear 17 1010 26 0 0.45 223.751 10:39 06.10.2019
686 Clear 17 1010 26 0 0.45 223.751 10:21 06.10.2019
687 Clear 17 1010 26 0 0.45 223.751 09:41 06.10.2019
688 Clouds 15 1014 32 0 2.56 187.778 09:21 06.10.2019
689 Clouds 15 1014 32 0 2.56 187.778 08:57 06.10.2019
690 Clouds 15 1014 32 0 2.49 181.313 08:38 06.10.2019
691 Clouds 15 1014 32 0 2.49 181.313 08:19 06.10.2019
692 Clouds 15 1014 32 0 2.49 181.313 07:40 06.10.2019
693 Clouds 15 1014 32 0 2.49 181.313 06:59 06.10.2019
694 Clouds 11 1019 49 0 2.39 177.77 05:57 06.10.2019
695 Clouds 11 1019 49 0 2.39 177.77 04:44 06.10.2019
696 Clouds 11 1019 49 0 2.39 177.77 04:44 06.10.2019
697 Clouds 11 1019 49 0 2.39 177.77 04:44 06.10.2019
698 Rain 5 1020 72 0 1.37 135.237 02:56 06.10.2019
699 Rain 5 1020 72 0 1.37 135.237 02:37 06.10.2019
700 Rain 5 1020 72 0 1.37 135.237 01:50 06.10.2019
701 Rain 5 1021 71 0 1.4 143.457 01:31 06.10.2019
702 Rain 5 1021 71 0 1.4 143.457 01:31 06.10.2019
703 Rain 5 1021 71 0 1.4 143.457 00:59 06.10.2019
704 Rain 5 1021 71 0 1.4 143.457 00:59 06.10.2019
705 Rain 5 1021 71 0 1.4 143.457 00:40 06.10.2019
706 Rain 6 1019 65 0 1.43 143.958 00:20 06.10.2019
707 Rain 6 1019 65 0 1.43 143.958 23:42 05.10.2019
708 Rain 6 1019 65 0 1.43 143.958 23:21 05.10.2019
709 Rain 6 1019 65 0 1.43 143.958 22:56 05.10.2019
710 Rain 6 1019 65 0 1.43 143.958 22:37 05.10.2019
711 Rain 6 1019 65 0 1.43 143.958 22:19 05.10.2019
712 Rain 6 1019 65 0 1.43 143.958 21:42 05.10.2019
713 Rain 8 1019 58 0 1.55 132.023 21:23 05.10.2019
714 Rain 8 1019 58 0 1.55 132.023 20:58 05.10.2019
715 Rain 8 1019 58 0 1.55 132.023 20:58 05.10.2019
716 Rain 8 1019 60 0 1.37 147.087 20:39 05.10.2019
717 Rain 8 1019 60 0 1.37 147.087 20:19 05.10.2019
718 Rain 8 1019 60 0 1.37 147.087 19:56 05.10.2019
719 Rain 8 1019 60 0 1.37 147.087 19:37 05.10.2019
720 Rain 8 1019 60 0 1.37 147.087 19:18 05.10.2019
721 Rain 8 1019 60 0 1.37 147.087 18:55 05.10.2019
722 Rain 8 1019 60 0 1.37 147.087 18:55 05.10.2019
723 Rain 8 1019 60 0 1.37 147.087 18:36 05.10.2019
724 Clear 10 1018 44 0 1.3 144.943 18:18 05.10.2019
725 Clear 10 1018 44 0 1.3 144.943 17:42 05.10.2019
726 Clear 10 1018 44 0 1.3 144.943 17:21 05.10.2019
727 Clear 10 1018 44 0 1.3 144.943 16:56 05.10.2019
728 Clear 10 1018 44 0 1.3 144.943 16:37 05.10.2019
729 Clear 10 1018 44 0 1.3 144.943 16:18 05.10.2019
730 Clear 10 1018 44 0 1.3 144.943 15:55 05.10.2019
731 Clear 10 1018 44 0 1.3 144.943 15:37 05.10.2019
732 Clouds 12 1013 34 0 1.45 242.055 15:18 05.10.2019
733 Clouds 12 1013 34 0 1.45 242.055 14:42 05.10.2019
734 Clouds 12 1013 34 0 1.45 242.055 14:23 05.10.2019
735 Clouds 12 1013 34 0 1.45 242.055 13:44 05.10.2019
736 Clouds 12 1012 35 0 1.17 242.385 13:26 05.10.2019
737 Clouds 12 1012 35 0 1.17 242.385 12:58 05.10.2019
738 Clouds 12 1012 35 0 1.17 242.385 12:40 05.10.2019
739 Clear 17 1010 23 0 0.8 190.208 12:19 05.10.2019
740 Clear 17 1010 23 0 0.8 190.208 11:41 05.10.2019
741 Clear 17 1010 23 0 0.8 190.208 11:41 05.10.2019
742 Clear 17 1010 23 0 0.8 190.208 11:20 05.10.2019
743 Clear 17 1010 23 0 0.8 190.208 10:57 05.10.2019
744 Clear 17 1010 23 0 0.8 190.208 10:38 05.10.2019
745 Clear 17 1010 23 0 0.8 190.208 10:38 05.10.2019
746 Clear 17 1010 23 0 0.8 190.208 10:19 05.10.2019
747 Clear 17 1010 23 0 0.8 190.208 10:19 05.10.2019
748 Clear 17 1010 23 0 0.8 190.208 09:40 05.10.2019
749 Clear 15 1013 30 0 2.43 175.397 09:22 05.10.2019
750 Clear 15 1013 29 0 2.33 174.612 08:42 05.10.2019
751 Clear 15 1013 29 0 2.33 174.612 08:23 05.10.2019
752 Clear 15 1013 29 0 2.33 174.612 07:59 05.10.2019
753 Clear 15 1013 29 0 2.33 174.612 07:39 05.10.2019
754 Clear 15 1013 29 0 2.33 174.612 07:20 05.10.2019
755 Clear 15 1013 29 0 2.33 174.612 06:52 05.10.2019
756 Clear 11 1018 46 0 2.46 176.409 06:21 05.10.2019
757 Clear 11 1018 46 0 2.46 176.409 04:46 05.10.2019
758 Clear 11 1018 46 0 2.46 176.409 03:32 05.10.2019
759 Clouds 5 1020 70 0 1.61 149.646 02:26 05.10.2019
760 Clouds 5 1019 71 0 1.7 148.868 01:26 05.10.2019
761 Clouds 5 1019 71 0 1.7 148.868 00:48 05.10.2019
762 Clouds 5 1019 71 0 1.7 148.868 00:48 05.10.2019
763 Clouds 5 1019 71 0 1.7 148.868 00:27 05.10.2019
764 Clouds 6 1017 64 0 1.72 153.257 23:57 04.10.2019
765 Clouds 6 1017 64 0 1.72 153.257 23:39 04.10.2019
766 Clouds 6 1017 64 0 1.72 153.257 23:21 04.10.2019
767 Clouds 6 1017 64 0 1.72 153.257 22:42 04.10.2019
768 Clouds 6 1017 64 0 1.72 153.257 22:24 04.10.2019
769 Clouds 6 1017 64 0 1.72 153.257 21:59 04.10.2019
770 Clouds 6 1017 64 0 1.72 153.257 21:40 04.10.2019
771 Clouds 8 1017 49 0 2.35 151.409 21:22 04.10.2019
772 Clouds 8 1017 49 0 2.35 151.409 20:58 04.10.2019
773 Clouds 8 1017 50 0 2.18 149.968 20:40 04.10.2019
774 Clouds 8 1017 50 0 2.18 149.968 20:22 04.10.2019
775 Clouds 8 1017 50 0 2.18 149.968 19:56 04.10.2019
776 Clouds 8 1017 50 0 2.18 149.968 19:55 04.10.2019
777 Clouds 8 1017 50 0 2.18 149.968 19:55 04.10.2019
778 Clouds 8 1017 50 0 2.18 149.968 19:55 04.10.2019
779 Clouds 8 1017 50 0 2.18 149.968 19:36 04.10.2019
780 Clouds 8 1017 50 0 2.18 149.968 19:18 04.10.2019
781 Clouds 8 1017 50 0 2.18 149.968 18:39 04.10.2019
782 Clouds 10 1016 43 0 0.88 131.229 18:19 04.10.2019
783 Clouds 10 1016 43 0 0.88 131.229 17:57 04.10.2019
784 Clouds 10 1016 43 0 0.88 131.229 17:38 04.10.2019
785 Clouds 10 1016 43 0 0.88 131.229 17:20 04.10.2019
786 Clouds 10 1016 43 0 0.88 131.229 16:55 04.10.2019
787 Clouds 10 1016 43 0 0.88 131.229 16:36 04.10.2019
788 Clouds 10 1016 43 0 0.88 131.229 16:18 04.10.2019
789 Clouds 10 1016 43 0 0.88 131.229 15:55 04.10.2019
790 Clouds 10 1016 43 0 0.88 131.229 15:36 04.10.2019
791 Clear 12 1011 40 0 1.02 348.054 15:18 04.10.2019
792 Clear 12 1011 40 0 1.02 348.054 14:42 04.10.2019
793 Clear 12 1011 40 0 1.02 348.054 14:22 04.10.2019
794 Clear 12 1011 40 0 1.02 348.054 13:59 04.10.2019
795 Clear 12 1011 40 0 1.02 348.054 13:40 04.10.2019
796 Clear 12 1011 40 0 1.06 348.933 13:19 04.10.2019
797 Clear 12 1011 40 0 1.06 348.933 12:45 04.10.2019
798 Clear 12 1011 40 0 1.06 348.933 12:27 04.10.2019
799 Clear 17 1009 26 0 1.41 222.102 11:55 04.10.2019
800 Clear 17 1009 26 0 1.41 222.102 11:37 04.10.2019
801 Clear 17 1009 26 0 1.41 222.102 11:18 04.10.2019
802 Clear 17 1009 26 0 1.41 222.102 10:39 04.10.2019
803 Clear 17 1009 26 0 1.41 222.102 10:20 04.10.2019
804 Clear 17 1009 26 0 1.41 222.102 10:20 04.10.2019
805 Clear 17 1009 26 0 1.41 222.102 09:44 04.10.2019
806 Clear 17 1009 27 0 1.39 217.511 09:26 04.10.2019
807 Clear 17 1009 27 0 1.39 217.511 09:26 04.10.2019
808 Clear 15 1013 33 0 2.3 193.522 08:56 04.10.2019
809 Clear 15 1013 33 0 2.3 193.522 08:37 04.10.2019
810 Clear 15 1013 33 0 2.3 193.522 08:19 04.10.2019
811 Clear 15 1013 33 0 2.3 193.522 07:43 04.10.2019
812 Clear 15 1013 33 0 2.3 193.522 07:21 04.10.2019
813 Clear 15 1013 33 0 2.3 193.522 06:41 04.10.2019
814 Clear 11 1018 50 0 2.05 178.994 06:23 04.10.2019
815 Clear 11 1018 50 0 2.05 178.994 05:23 04.10.2019
816 Clear 11 1018 50 0 2.05 178.994 04:56 04.10.2019
817 Clear 11 1018 50 0 2.05 178.994 03:43 04.10.2019
818 Rain 5 1019 75 0 1.57 140.395 02:53 04.10.2019
819 Rain 5 1019 75 0 1.57 140.395 01:55 04.10.2019
820 Rain 5 1019 75 0 1.57 140.395 01:55 04.10.2019
821 Clouds 5 1019 70 0 1.75 145.92 01:29 04.10.2019
822 Clouds 5 1019 70 0 1.75 145.92 00:56 04.10.2019
823 Clouds 7 1017 61 0 1.93 155.829 23:55 03.10.2019
824 Clouds 7 1017 61 0 1.93 155.829 23:36 03.10.2019
825 Clouds 7 1017 61 0 1.93 155.829 23:18 03.10.2019
826 Clouds 7 1017 61 0 1.93 155.829 23:18 03.10.2019
827 Clouds 7 1017 61 0 1.93 155.829 22:55 03.10.2019
828 Clouds 7 1017 61 0 1.93 155.829 22:36 03.10.2019
829 Clouds 7 1017 61 0 1.93 155.829 22:18 03.10.2019
830 Clouds 7 1017 61 0 1.93 155.829 21:54 03.10.2019
831 Clouds 7 1017 61 0 1.93 155.829 21:36 03.10.2019
832 Clouds 9 1018 50 0 1.87 165.755 21:18 03.10.2019
833 Clouds 9 1018 50 0 1.78 163.696 20:41 03.10.2019
834 Clouds 9 1018 50 0 1.78 163.696 20:23 03.10.2019
835 Clouds 9 1018 50 0 1.78 163.696 19:59 03.10.2019
836 Clouds 9 1018 50 0 1.78 163.696 19:41 03.10.2019
837 Clouds 9 1018 50 0 1.78 163.696 19:22 03.10.2019
838 Clouds 9 1018 50 0 1.78 163.696 18:58 03.10.2019
839 Clouds 9 1018 50 0 1.78 163.696 18:39 03.10.2019
840 Clouds 10 1016 50 0 0.84 174.874 18:19 03.10.2019
841 Clouds 10 1016 50 0 0.84 174.874 17:56 03.10.2019
842 Clouds 10 1016 50 0 0.84 174.874 17:37 03.10.2019
843 Clouds 10 1016 50 0 0.84 174.874 17:19 03.10.2019
844 Clouds 10 1016 50 0 0.84 174.874 16:41 03.10.2019
845 Clouds 10 1016 50 0 0.84 174.874 16:23 03.10.2019
846 Clouds 10 1016 50 0 0.84 174.874 15:56 03.10.2019
847 Clouds 10 1016 50 0 0.84 174.874 15:38 03.10.2019
848 Clouds 12 1012 42 0 1.16 260.334 15:19 03.10.2019
849 Clouds 12 1012 42 0 1.16 260.334 14:45 03.10.2019
850 Clouds 12 1012 42 0 1.16 260.334 14:45 03.10.2019
851 Clouds 12 1012 42 0 1.16 260.334 14:26 03.10.2019
852 Clouds 12 1012 42 0 1.16 260.334 13:57 03.10.2019
853 Clouds 12 1012 42 0 1.16 260.334 13:39 03.10.2019
854 Clouds 12 1012 45 0 0.86 286.986 13:19 03.10.2019
855 Clouds 12 1012 45 0 0.86 286.986 12:56 03.10.2019
856 Clouds 12 1012 45 0 0.86 286.986 12:37 03.10.2019
857 Clouds 16 1010 31 0 1.86 191.89 12:19 03.10.2019
858 Clouds 16 1010 31 0 1.86 191.89 11:41 03.10.2019
859 Clouds 16 1010 31 0 1.86 191.89 11:41 03.10.2019
860 Clouds 16 1010 31 0 1.86 191.89 11:22 03.10.2019
861 Clouds 16 1010 31 0 1.86 191.89 10:58 03.10.2019
862 Clouds 16 1010 31 0 1.86 191.89 10:40 03.10.2019
863 Clouds 16 1010 31 0 1.86 191.89 10:19 03.10.2019
864 Clouds 16 1010 31 0 1.86 191.89 09:58 03.10.2019
865 Clouds 16 1010 31 0 1.86 191.89 09:39 03.10.2019
866 Clouds 14 1013 36 0 2.67 190.201 09:20 03.10.2019
867 Clear 14 1013 35 0 2.53 183.354 08:45 03.10.2019
868 Clear 14 1013 35 0 2.53 183.354 08:27 03.10.2019
869 Clear 14 1013 35 0 2.53 183.354 07:57 03.10.2019
870 Clear 14 1013 35 0 2.53 183.354 07:39 03.10.2019
871 Clear 14 1013 35 0 2.53 183.354 07:19 03.10.2019
872 Clear 14 1013 35 0 2.53 183.354 06:47 03.10.2019
873 Clear 10 1017 48 0 2.12 174.972 06:24 03.10.2019
874 Clear 10 1017 48 0 2.12 174.972 05:44 03.10.2019
875 Clear 10 1017 48 0 2.12 174.972 04:56 03.10.2019
876 Clear 10 1017 48 0 2.12 174.972 04:25 03.10.2019
877 Clouds 4 1019 73 0 1.49 135.816 03:24 03.10.2019
878 Clouds 4 1019 73 0 1.49 135.816 02:38 03.10.2019
879 Clouds 4 1019 73 0 1.49 135.816 01:51 03.10.2019
880 Clouds 4 1019 73 0 1.51 136.877 01:32 03.10.2019
881 Clouds 4 1019 73 0 1.51 136.877 00:47 03.10.2019
882 Clouds 6 1017 64 0 1.96 143.639 00:19 03.10.2019
883 Clouds 6 1017 64 0 1.96 143.639 23:43 02.10.2019
884 Clouds 6 1017 64 0 1.96 143.639 23:21 02.10.2019
885 Clouds 6 1017 64 0 1.96 143.639 22:44 02.10.2019
886 Clouds 6 1017 64 0 1.96 143.639 22:22 02.10.2019
887 Clouds 6 1017 64 0 1.96 143.639 21:57 02.10.2019
888 Clouds 6 1017 64 0 1.96 143.639 21:57 02.10.2019
889 Clouds 6 1017 64 0 1.96 143.639 21:38 02.10.2019
890 Clouds 8 1017 51 0 2.18 169.148 21:20 02.10.2019
891 Clouds 8 1017 51 0 2.18 169.148 21:20 02.10.2019
892 Clouds 8 1017 52 0 2.19 166.649 20:57 02.10.2019
893 Clouds 8 1017 52 0 2.19 166.649 20:38 02.10.2019
894 Clouds 8 1017 52 0 2.19 166.649 20:20 02.10.2019
895 Clouds 8 1017 52 0 2.19 166.649 19:55 02.10.2019
896 Clouds 8 1017 52 0 2.19 166.649 19:37 02.10.2019
897 Clouds 8 1017 52 0 2.19 166.649 19:18 02.10.2019
898 Clouds 8 1017 52 0 2.19 166.649 18:56 02.10.2019
899 Clouds 8 1017 52 0 2.19 166.649 18:37 02.10.2019
900 Clouds 11 1016 41 0 1.88 145.606 18:19 02.10.2019
901 Clouds 11 1016 41 0 1.88 145.606 17:42 02.10.2019
902 Clouds 11 1016 41 0 1.88 145.606 17:21 02.10.2019
903 Clouds 11 1016 41 0 1.88 145.606 17:21 02.10.2019
904 Clouds 11 1016 41 0 1.88 145.606 16:59 02.10.2019
905 Clouds 11 1016 41 0 1.88 145.606 16:41 02.10.2019
906 Clouds 11 1016 41 0 1.88 145.606 16:21 02.10.2019
907 Clouds 11 1016 41 0 1.88 145.606 15:57 02.10.2019
908 Clouds 11 1016 41 0 1.88 145.606 15:38 02.10.2019
909 Clear 11 1011 41 0 0.41 89.862 15:18 02.10.2019
910 Clear 11 1011 41 0 0.41 89.862 14:55 02.10.2019
911 Clear 11 1011 41 0 0.41 89.862 14:37 02.10.2019
912 Clear 11 1011 41 0 0.41 89.862 14:37 02.10.2019
913 Clear 11 1011 41 0 0.41 89.862 14:18 02.10.2019
914 Clear 11 1011 41 0 0.41 89.862 13:42 02.10.2019
915 Clear 11 1010 40 0 0.9 42.849 13:23 02.10.2019
916 Clear 11 1010 40 0 0.9 42.849 12:56 02.10.2019
917 Clear 11 1010 40 0 0.9 42.849 12:37 02.10.2019
918 Clear 11 1010 40 0 0.9 42.849 12:37 02.10.2019
919 Clear 16 1009 27 0 1.26 182.955 12:18 02.10.2019
920 Clear 16 1009 27 0 1.26 182.955 11:43 02.10.2019
921 Clear 16 1009 27 0 1.26 182.955 11:22 02.10.2019
922 Clear 16 1009 27 0 1.26 182.955 10:42 02.10.2019
923 Clear 16 1009 27 0 1.26 182.955 10:20 02.10.2019
924 Clear 16 1009 27 0 1.26 182.955 09:57 02.10.2019
925 Clear 16 1009 27 0 1.26 182.955 09:36 02.10.2019
926 Clear 14 1012 35 0 2.67 191.449 09:18 02.10.2019
927 Clear 14 1012 35 0 2.39 189.207 08:43 02.10.2019
928 Clear 14 1012 35 0 2.39 189.207 08:22 02.10.2019
929 Clear 14 1012 35 0 2.39 189.207 07:56 02.10.2019
930 Clear 14 1012 35 0 2.39 189.207 07:37 02.10.2019
931 Clear 14 1012 35 0 2.39 189.207 07:19 02.10.2019
932 Clear 14 1012 35 0 2.39 189.207 06:31 02.10.2019
933 Clear 10 1017 49 0 2.05 175.46 05:52 02.10.2019
934 Clear 10 1017 49 0 2.05 175.46 05:23 02.10.2019
935 Clear 10 1017 49 0 2.05 175.46 04:43 02.10.2019
936 Clear 10 1017 49 0 2.05 175.46 03:51 02.10.2019
937 Clouds 4 1019 73 0 1.36 133.056 02:40 02.10.2019
938 Clouds 4 1019 73 0 1.36 133.056 02:22 02.10.2019
939 Clouds 4 1019 74 0 1.33 134.36 01:21 02.10.2019
940 Clouds 4 1019 74 0 1.33 134.36 00:43 02.10.2019
941 Clouds 6 1017 68 0 1.74 145.184 00:23 02.10.2019
942 Clouds 6 1017 68 0 1.74 145.184 23:42 01.10.2019
943 Clouds 6 1017 68 0 1.74 145.184 23:24 01.10.2019
944 Clouds 6 1017 68 0 1.74 145.184 22:58 01.10.2019
945 Clouds 6 1017 68 0 1.74 145.184 22:39 01.10.2019
946 Clouds 6 1017 68 0 1.74 145.184 22:18 01.10.2019
947 Clouds 6 1017 68 0 1.74 145.184 21:55 01.10.2019
948 Clouds 6 1017 68 0 1.74 145.184 21:36 01.10.2019
949 Rain 8 1017 64 0 1.94 163.136 21:18 01.10.2019
950 Rain 8 1017 64 0 1.94 163.136 20:54 01.10.2019
951 Rain 7 1016 64 0 1.94 164.278 20:36 01.10.2019
952 Rain 7 1016 64 0 1.94 164.278 20:18 01.10.2019
953 Rain 7 1016 64 0 1.94 164.278 19:43 01.10.2019
954 Rain 7 1016 64 0 1.94 164.278 19:24 01.10.2019
955 Rain 7 1016 64 0 1.94 164.278 18:59 01.10.2019
956 Rain 7 1016 64 0 1.94 164.278 18:39 01.10.2019
957 Rain 9 1015 49 0 2.37 168.059 18:21 01.10.2019
958 Rain 9 1015 49 0 2.37 168.059 17:55 01.10.2019
959 Rain 9 1015 49 0 2.37 168.059 17:37 01.10.2019
960 Rain 9 1015 49 0 2.37 168.059 17:18 01.10.2019
961 Rain 9 1015 49 0 2.37 168.059 16:54 01.10.2019
962 Rain 9 1015 49 0 2.37 168.059 16:36 01.10.2019
963 Rain 9 1015 49 0 2.37 168.059 16:18 01.10.2019
964 Rain 9 1015 49 0 2.37 168.059 15:42 01.10.2019
965 Clouds 11 1010 43 0 1.06 295.573 15:21 01.10.2019
966 Clouds 11 1010 43 0 1.06 295.573 14:41 01.10.2019
967 Clouds 11 1010 43 0 1.06 295.573 14:20 01.10.2019
968 Clouds 11 1010 43 0 1.06 295.573 13:57 01.10.2019
969 Clouds 11 1010 43 0 1.06 295.573 13:39 01.10.2019
970 Clouds 11 1009 45 0 0.86 259.499 13:20 01.10.2019
971 Clouds 11 1009 45 0 0.86 259.499 12:57 01.10.2019
972 Clouds 11 1009 45 0 0.86 259.499 12:57 01.10.2019
973 Clouds 11 1009 45 0 0.86 259.499 12:38 01.10.2019
974 Clouds 15 1007 30 0 1.53 197.301 12:18 01.10.2019
975 Clouds 15 1007 30 0 1.53 197.301 11:57 01.10.2019
976 Clouds 15 1007 30 0 1.53 197.301 11:37 01.10.2019
977 Clouds 15 1007 30 0 1.53 197.301 11:18 01.10.2019
978 Clouds 15 1007 30 0 1.53 197.301 10:48 01.10.2019
979 Clouds 15 1007 30 0 1.53 197.301 10:29 01.10.2019
980 Clouds 15 1007 30 0 1.53 197.301 09:47 01.10.2019
981 Clouds 15 1007 30 0 1.53 197.301 09:27 01.10.2019
982 Clouds 14 1011 39 0 2.96 197.609 08:57 01.10.2019
983 Rain 13 1011 41 0 3.04 197.136 08:39 01.10.2019
984 Rain 13 1011 41 0 3.04 197.136 08:20 01.10.2019
985 Rain 13 1011 41 0 3.04 197.136 07:42 01.10.2019
986 Rain 13 1011 41 0 3.04 197.136 07:22 01.10.2019
987 Rain 13 1011 41 0 3.04 197.136 06:45 01.10.2019
988 Clouds 10 1016 51 0 2.7 164.929 06:18 01.10.2019
989 Clouds 10 1016 51 0 2.7 164.929 06:18 01.10.2019
990 Clouds 10 1016 51 0 2.7 164.929 05:45 01.10.2019
991 Clouds 10 1016 51 0 2.7 164.929 04:49 01.10.2019
992 Clouds 10 1016 51 0 2.7 164.929 04:26 01.10.2019
993 Clouds 5 1017 75 0 1.39 138.52 02:26 01.10.2019
994 Clouds 5 1017 75 0 1.39 138.52 01:58 01.10.2019
995 Clear 4 1017 74 0 1.46 129.143 00:53 01.10.2019
996 Clear 4 1017 74 0 1.46 129.143 00:26 01.10.2019
997 Clear 5 1015 70 0 1.86 140.598 23:55 30.09.2019
998 Clear 5 1015 70 0 1.86 140.598 23:37 30.09.2019
999 Clear 5 1015 70 0 1.86 140.598 23:19 30.09.2019
1000 Clear 5 1015 70 0 1.86 140.598 22:42 30.09.2019
1001 Clear 5 1015 70 0 1.86 140.598 22:24 30.09.2019
1002 Clear 5 1015 70 0 1.86 140.598 21:56 30.09.2019
1003 Clear 5 1015 70 0 1.86 140.598 21:38 30.09.2019
1004 Rain 7 1016 67 0 1.7 162.981 21:19 30.09.2019
1005 Rain 7 1016 67 0 1.7 162.981 20:56 30.09.2019
1006 Rain 7 1015 67 0 1.58 161.645 20:38 30.09.2019
1007 Rain 7 1015 67 0 1.58 161.645 20:19 30.09.2019
1008 Rain 7 1015 67 0 1.58 161.645 19:56 30.09.2019
1009 Rain 7 1015 67 0 1.58 161.645 19:56 30.09.2019
1010 Rain 7 1015 67 0 1.58 161.645 19:56 30.09.2019
1011 Rain 7 1015 67 0 1.58 161.645 19:38 30.09.2019
1012 Rain 7 1015 67 0 1.58 161.645 19:19 30.09.2019
1013 Rain 7 1015 67 0 1.58 161.645 18:56 30.09.2019
1014 Rain 7 1015 67 0 1.58 161.645 18:56 30.09.2019
1015 Rain 7 1015 67 0 1.58 161.645 18:37 30.09.2019
1016 Rain 7 1015 67 0 1.58 161.645 18:37 30.09.2019
1017 Rain 9 1014 61 0 1.26 192.742 18:19 30.09.2019
1018 Rain 9 1014 61 0 1.26 192.742 17:41 30.09.2019
1019 Rain 9 1014 61 0 1.26 192.742 17:22 30.09.2019
1020 Rain 9 1014 61 0 1.26 192.742 16:56 30.09.2019
1021 Rain 9 1014 61 0 1.26 192.742 16:38 30.09.2019
1022 Rain 9 1014 61 0 1.26 192.742 16:19 30.09.2019
1023 Rain 9 1014 61 0 1.26 192.742 15:57 30.09.2019
1024 Rain 9 1014 61 0 1.26 192.742 15:37 30.09.2019
1025 Rain 11 1011 50 0 0.93 277.378 15:19 30.09.2019
1026 Rain 11 1011 50 0 0.93 277.378 14:57 30.09.2019
1027 Rain 11 1011 50 0 0.93 277.378 14:37 30.09.2019
1028 Rain 11 1011 50 0 0.93 277.378 14:18 30.09.2019
1029 Rain 11 1011 50 0 0.93 277.378 13:56 30.09.2019
1030 Rain 11 1011 50 0 0.93 277.378 13:37 30.09.2019
1031 Rain 11 1011 49 0 0.96 252.054 13:19 30.09.2019
1032 Rain 11 1011 49 0 0.96 252.054 12:41 30.09.2019
1033 Rain 15 1009 34 0 1.62 223.452 12:21 30.09.2019
1034 Rain 15 1009 34 0 1.62 223.452 11:56 30.09.2019
1035 Rain 15 1009 34 0 1.62 223.452 11:37 30.09.2019
1036 Rain 15 1009 34 0 1.62 223.452 11:18 30.09.2019
1037 Rain 15 1009 34 0 1.62 223.452 10:40 30.09.2019
1038 Rain 15 1009 34 0 1.62 223.452 10:19 30.09.2019
1039 Rain 15 1009 34 0 1.62 223.452 09:58 30.09.2019
1040 Rain 15 1009 34 0 1.62 223.452 09:58 30.09.2019
1041 Rain 15 1009 34 0 1.62 223.452 09:39 30.09.2019
1042 Rain 13 1014 42 0 2.07 211.12 09:20 30.09.2019
1043 Rain 13 1014 42 0 2.07 211.12 08:47 30.09.2019
1044 Rain 13 1013 43 0 1.74 200.718 08:28 30.09.2019
1045 Rain 13 1013 43 0 1.74 200.718 07:45 30.09.2019
1046 Rain 13 1013 43 0 1.74 200.718 07:27 30.09.2019
1047 Rain 13 1013 43 0 1.74 200.718 06:56 30.09.2019
1048 Rain 13 1013 43 0 1.74 200.718 06:34 30.09.2019
1049 Clouds 8 1018 65 0 1.72 181.234 05:48 30.09.2019
1050 Clouds 8 1018 65 0 1.72 181.234 04:40 30.09.2019
1051 Clouds 6 1019 74 0 1.18 128.637 02:48 30.09.2019
1052 Clouds 6 1019 74 0 1.18 128.637 01:38 30.09.2019
1053 Rain 5 1018 81 0 1.01 122.389 00:43 30.09.2019
1054 Clouds 6 1018 72 0 0.87 281.736 00:22 30.09.2019
1055 Clouds 6 1018 72 0 0.87 281.736 23:55 29.09.2019
1056 Clouds 6 1018 72 0 0.87 281.736 23:36 29.09.2019
1057 Clouds 6 1018 72 0 0.87 281.736 23:18 29.09.2019
1058 Clouds 6 1018 72 0 0.87 281.736 22:42 29.09.2019
1059 Clouds 6 1018 72 0 0.87 281.736 22:23 29.09.2019
1060 Clouds 6 1018 72 0 0.87 281.736 21:58 29.09.2019
1061 Clouds 6 1018 72 0 0.87 281.736 21:38 29.09.2019
1062 Rain 7 1018 67 0 2.1 151.583 21:19 29.09.2019
1063 Rain 7 1018 67 0 2.1 151.583 21:19 29.09.2019
1064 -273 0 0 0 0 0 20:55 29.09.2019
1065 Rain 7 1018 67 0 2.1 151.583 20:55 29.09.2019
1066 Rain 7 1018 67 0 2.1 151.583 20:37 29.09.2019
1067 Rain 7 1018 65 0 2.16 147.053 20:19 29.09.2019
1068 Rain 7 1018 65 0 2.16 147.053 19:39 29.09.2019
1069 Rain 7 1018 65 0 2.16 147.053 19:19 29.09.2019
1070 Rain 7 1018 65 0 2.16 147.053 18:57 29.09.2019
1071 Rain 7 1018 65 0 2.16 147.053 18:39 29.09.2019
1072 Rain 9 1018 62 0 2.35 163.76 18:20 29.09.2019
1073 Rain 9 1018 62 0 2.35 163.76 17:59 29.09.2019
1074 Rain 9 1018 62 0 2.35 163.76 17:41 29.09.2019
1075 Rain 9 1018 62 0 2.35 163.76 17:20 29.09.2019
1076 Rain 9 1018 62 0 2.35 163.76 17:00 29.09.2019
1077 Rain 9 1018 62 0 2.35 163.76 17:00 29.09.2019
1078 Rain 9 1018 62 0 2.35 163.76 16:41 29.09.2019
1079 Rain 9 1018 62 0 2.35 163.76 16:20 29.09.2019
1080 Rain 9 1018 62 0 2.35 163.76 15:58 29.09.2019
1081 Rain 9 1018 62 0 2.35 163.76 15:37 29.09.2019
1082 Rain 12 1014 49 0 2.69 162.185 15:18 29.09.2019
1083 Rain 12 1014 49 0 2.69 162.185 15:18 29.09.2019
1084 Rain 12 1014 49 0 2.69 162.185 14:57 29.09.2019
1085 Rain 12 1014 49 0 2.69 162.185 14:37 29.09.2019
1086 Rain 12 1014 49 0 2.69 162.185 14:19 29.09.2019
1087 Rain 12 1014 49 0 2.69 162.185 13:55 29.09.2019
1088 Rain 12 1014 49 0 2.69 162.185 13:36 29.09.2019
1089 Rain 13 1013 44 0 2.39 179.425 13:18 29.09.2019
1090 Rain 13 1013 44 0 2.39 179.425 12:56 29.09.2019
1091 Rain 13 1013 44 0 2.39 179.425 12:38 29.09.2019
1092 Rain 15 1011 35 0 2.24 201.188 12:20 29.09.2019
1093 Rain 15 1011 35 0 2.24 201.188 11:41 29.09.2019
1094 Rain 15 1011 35 0 2.24 201.188 11:20 29.09.2019
1095 Rain 15 1011 35 0 2.24 201.188 10:58 29.09.2019
1096 Rain 15 1011 35 0 2.24 201.188 10:39 29.09.2019
1097 Rain 15 1011 35 0 2.24 201.188 10:20 29.09.2019
1098 Rain 15 1011 35 0 2.24 201.188 10:20 29.09.2019
1099 Rain 15 1011 35 0 2.24 201.188 09:57 29.09.2019
1100 Rain 15 1011 35 0 2.24 201.188 09:39 29.09.2019
1101 Rain 15 1011 35 0 2.24 201.188 09:39 29.09.2019
1102 Clouds 13 1015 41 0 2.43 192.49 09:19 29.09.2019
1103 Clouds 13 1015 41 0 2.43 192.49 08:43 29.09.2019
1104 Rain 13 1016 43 0 3.15 187.587 08:22 29.09.2019
1105 Rain 13 1016 43 0 3.15 187.587 07:44 29.09.2019
1106 Rain 13 1016 43 0 3.15 187.587 07:44 29.09.2019
1107 Rain 13 1016 43 0 3.15 187.587 07:26 29.09.2019
1108 Rain 13 1016 43 0 3.15 187.587 06:50 29.09.2019
1109 Clouds 9 1021 56 0 2.04 178.878 06:22 29.09.2019
1110 Clouds 9 1021 56 0 2.04 178.878 04:46 29.09.2019
1111 Clouds 9 1021 56 0 2.04 178.878 04:24 29.09.2019
1112 Clouds 4 1022 86 0 0.1 154.708 02:59 29.09.2019
1113 Clouds 4 1022 86 0 0.1 154.708 02:19 29.09.2019
1114 Clouds 4 1022 86 0 0.1 154.708 02:19 29.09.2019
1115 Clouds 4 1022 86 0 0.1 154.708 01:45 29.09.2019
1116 Clouds 4 1022 84 0 1.52 167.844 01:19 29.09.2019
1117 Clouds 4 1022 84 0 1.52 167.844 00:40 29.09.2019
1118 Rain 5 1020 82 0 1.49 151.478 00:19 29.09.2019
1119 Rain 5 1020 82 0 1.49 151.478 23:39 28.09.2019
1120 Rain 5 1020 82 0 1.49 151.478 23:20 28.09.2019
1121 Rain 5 1020 82 0 1.49 151.478 22:41 28.09.2019
1122 Rain 5 1020 82 0 1.49 151.478 22:41 28.09.2019
1123 Rain 5 1020 82 0 1.49 151.478 22:23 28.09.2019
1124 Rain 5 1020 82 0 1.49 151.478 22:23 28.09.2019
1125 Rain 5 1020 82 0 1.49 151.478 21:59 28.09.2019
1126 Rain 5 1020 82 0 1.49 151.478 21:40 28.09.2019
1127 Rain 6 1021 82 0 2.14 171.219 21:21 28.09.2019
1128 Rain 6 1021 82 0 2.14 171.219 20:59 28.09.2019
1129 Clouds 6 1021 81 0 1.91 164.376 20:40 28.09.2019
1130 Clouds 6 1021 81 0 1.91 164.376 20:20 28.09.2019
1131 Clouds 6 1021 81 0 1.91 164.376 19:57 28.09.2019
1132 Clouds 6 1021 81 0 1.91 164.376 19:39 28.09.2019
1133 Clouds 6 1021 81 0 1.91 164.376 19:21 28.09.2019
1134 Clouds 6 1021 81 0 1.91 164.376 18:57 28.09.2019
1135 Clouds 6 1021 81 0 1.91 164.376 18:39 28.09.2019
1136 Clouds 7 1021 79 0 1.6 151.707 18:20 28.09.2019
1137 Clouds 7 1021 79 0 1.6 151.707 17:56 28.09.2019
1138 Clouds 7 1021 79 0 1.6 151.707 17:38 28.09.2019
1139 Clouds 7 1021 79 0 1.6 151.707 17:19 28.09.2019
1140 Clouds 7 1021 79 0 1.6 151.707 16:44 28.09.2019
1141 Clouds 7 1021 79 0 1.6 151.707 16:25 28.09.2019
1142 Clouds 7 1021 79 0 1.6 151.707 15:42 28.09.2019
1143 Clouds 7 1021 79 0 1.6 151.707 15:42 28.09.2019
1144 Rain 7 1016 75 0 1.5 179.962 15:23 28.09.2019
1145 Rain 7 1016 75 0 1.5 179.962 14:58 28.09.2019
1146 Rain 7 1016 75 0 1.5 179.962 14:40 28.09.2019
1147 Rain 7 1016 75 0 1.5 179.962 14:21 28.09.2019
1148 Rain 7 1016 75 0 1.5 179.962 13:58 28.09.2019
1149 Rain 7 1016 75 0 1.5 179.962 13:38 28.09.2019
1150 Rain 7 1016 76 0 0.19 106.356 13:20 28.09.2019
1151 Rain 7 1016 76 0 0.19 106.356 12:45 28.09.2019
1152 Rain 8 1013 69 0 3.9 247.633 12:20 28.09.2019
1153 Rain 8 1013 69 0 3.9 247.633 11:59 28.09.2019
1154 Rain 8 1013 69 0 3.9 247.633 11:39 28.09.2019
1155 Rain 8 1013 69 0 3.9 247.633 11:18 28.09.2019
1156 Rain 8 1013 69 0 3.9 247.633 10:43 28.09.2019
1157 Rain 8 1013 69 0 3.9 247.633 10:21 28.09.2019
1158 Rain 8 1013 69 0 3.9 247.633 09:58 28.09.2019
1159 Rain 8 1013 69 0 3.9 247.633 09:40 28.09.2019
1160 Rain 8 1013 69 0 3.9 247.633 09:40 28.09.2019
1161 Rain 11 1017 50 0 1.18 281.319 09:18 28.09.2019
1162 Rain 11 1017 50 0 1.18 281.319 08:46 28.09.2019
1163 Clouds 12 1017 38 0 1.7 185.024 08:28 28.09.2019
1164 Clouds 12 1017 38 0 1.7 185.024 07:46 28.09.2019
1165 Clouds 12 1017 38 0 1.7 185.024 07:24 28.09.2019
1166 Clouds 12 1017 38 0 1.7 185.024 06:56 28.09.2019
1167 Clouds 12 1017 38 0 1.7 185.024 06:32 28.09.2019
1168 Clouds 9 1022 50 0 2.1 180.711 05:57 28.09.2019
1169 Clouds 9 1022 50 0 2.1 180.711 05:24 28.09.2019
1170 Clouds 9 1022 50 0 2.1 180.711 04:41 28.09.2019
1171 Clouds 9 1022 50 0 2.1 180.711 03:59 28.09.2019
1172 Clouds 9 1022 50 0 2.1 180.711 03:25 28.09.2019
1173 Clouds 6 1023 61 0 1.81 136.882 02:57 28.09.2019
1174 Clouds 6 1023 61 0 1.81 136.882 02:35 28.09.2019
1175 Clouds 6 1023 61 0 1.81 136.882 01:51 28.09.2019
1176 Clouds 6 1023 61 0 1.81 136.882 01:51 28.09.2019
1177 Clouds 5 1023 64 0 1.88 126.601 01:27 28.09.2019
1178 Clouds 5 1023 64 0 1.88 126.601 00:58 28.09.2019
1179 Clouds 5 1023 64 0 1.88 126.601 00:39 28.09.2019
1180 Clouds 5 1022 61 0 2.18 136.136 00:18 28.09.2019
1181 Clouds 5 1022 61 0 2.18 136.136 23:38 27.09.2019
1182 Clouds 5 1022 61 0 2.18 136.136 23:38 27.09.2019
1183 Clouds 5 1022 61 0 2.18 136.136 23:19 27.09.2019
1184 Clouds 5 1022 61 0 2.18 136.136 22:47 27.09.2019
1185 Clouds 5 1022 61 0 2.18 136.136 22:20 27.09.2019
1186 Clouds 5 1022 61 0 2.18 136.136 21:59 27.09.2019
1187 Clouds 5 1022 61 0 2.18 136.136 21:39 27.09.2019
1188 Clouds 7 1022 55 0 2.19 159.698 21:20 27.09.2019
1189 Clouds 7 1022 55 0 2.19 159.698 20:58 27.09.2019
1190 Clouds 7 1022 55 0 2.19 159.698 20:58 27.09.2019
1191 Rain 7 1021 52 0 2.42 159.173 20:40 27.09.2019
1192 Rain 7 1021 52 0 2.42 159.173 20:19 27.09.2019
1193 Rain 7 1021 52 0 2.42 159.173 20:19 27.09.2019
1194 Rain 7 1021 52 0 2.42 159.173 19:57 27.09.2019
1195 Rain 7 1021 52 0 2.42 159.173 19:38 27.09.2019
1196 Rain 7 1021 52 0 2.42 159.173 19:38 27.09.2019
1197 Rain 7 1021 52 0 2.42 159.173 19:19 27.09.2019
1198 Rain 7 1021 52 0 2.42 159.173 18:41 27.09.2019
1199 Rain 7 1021 52 0 2.42 159.173 18:41 27.09.2019
1200 Clouds 8 1020 38 0 1.16 190.102 18:23 27.09.2019
1201 Clouds 8 1020 38 0 1.16 190.102 17:56 27.09.2019
1202 Clouds 8 1020 38 0 1.16 190.102 17:38 27.09.2019
1203 Clouds 8 1020 38 0 1.16 190.102 17:19 27.09.2019
1204 Clouds 8 1020 38 0 1.16 190.102 16:57 27.09.2019
1205 Clouds 8 1020 38 0 1.16 190.102 16:37 27.09.2019
1206 Clouds 8 1020 38 0 1.16 190.102 16:18 27.09.2019
1207 Clouds 8 1020 38 0 1.16 190.102 16:18 27.09.2019
1208 Clouds 8 1020 38 0 1.16 190.102 15:45 27.09.2019
1209 -273 0 0 0 0 0 15:21 27.09.2019
1210 Clouds 10 1015 43 0 0.9 348.965 15:21 27.09.2019
1211 Clouds 10 1015 43 0 0.9 348.965 14:59 27.09.2019
1212 Clouds 10 1015 43 0 0.9 348.965 14:40 27.09.2019
1213 Clouds 10 1015 43 0 0.9 348.965 14:21 27.09.2019
1214 Clouds 10 1015 43 0 0.9 348.965 13:58 27.09.2019
1215 Clouds 10 1015 43 0 0.9 348.965 13:39 27.09.2019
1216 Clouds 10 1015 42 0 0.6 355.969 13:21 27.09.2019
1217 Clouds 10 1015 42 0 0.6 355.969 13:21 27.09.2019
1218 Clouds 10 1015 42 0 0.6 355.969 12:54 27.09.2019
1219 Clouds 15 1013 27 0 4.04 334.303 12:24 27.09.2019
1220 Clouds 15 1013 27 0 4.04 334.303 11:59 27.09.2019
1221 Clouds 15 1013 27 0 4.04 334.303 11:38 27.09.2019
1222 Clouds 15 1013 27 0 4.04 334.303 11:20 27.09.2019
1223 Clouds 15 1013 27 0 4.04 334.303 10:43 27.09.2019
1224 Clouds 15 1013 27 0 4.04 334.303 10:23 27.09.2019
1225 Clouds 15 1013 27 0 4.04 334.303 09:58 27.09.2019
1226 Clouds 15 1013 27 0 4.04 334.303 09:58 27.09.2019
1227 Clouds 15 1013 27 0 4.04 334.303 09:40 27.09.2019
1228 Clouds 15 1017 24 0 2.07 198.821 09:20 27.09.2019
1229 Clouds 15 1017 24 0 2.07 198.821 08:42 27.09.2019
1230 Clouds 15 1016 25 0 2.09 194.549 08:22 27.09.2019
1231 Clouds 15 1016 25 0 2.09 194.549 07:58 27.09.2019
1232 Clouds 15 1016 25 0 2.09 194.549 07:39 27.09.2019
1233 Clouds 15 1016 25 0 2.09 194.549 07:20 27.09.2019
1234 Clouds 15 1016 25 0 2.09 194.549 06:40 27.09.2019
1235 Clouds 11 1022 36 0 1.95 177.47 06:22 27.09.2019
1236 Clouds 11 1022 36 0 1.95 177.47 05:49 27.09.2019
1237 Clouds 11 1022 36 0 1.95 177.47 05:30 27.09.2019
1238 Clouds 11 1022 36 0 1.95 177.47 03:53 27.09.2019
1239 Clouds 4 1025 50 0 1.5 129.389 01:58 27.09.2019
1240 Clouds 4 1025 50 0 1.5 129.389 01:58 27.09.2019
1241 Clouds 4 1025 52 0 1.65 135.245 01:35 27.09.2019
1242 Clouds 4 1025 52 0 1.65 135.245 00:44 27.09.2019
1243 Clouds 5 1023 41 0 1.15 127.37 00:19 27.09.2019
1244 Clouds 5 1023 41 0 1.15 127.37 23:55 26.09.2019
1245 Clouds 5 1023 41 0 1.15 127.37 23:37 26.09.2019
1246 Clouds 5 1023 41 0 1.15 127.37 23:18 26.09.2019
1247 Clouds 5 1023 41 0 1.15 127.37 22:55 26.09.2019
1248 Clouds 5 1023 41 0 1.15 127.37 22:36 26.09.2019
1249 Clouds 5 1023 41 0 1.15 127.37 22:18 26.09.2019
1250 Clouds 5 1023 41 0 1.15 127.37 21:54 26.09.2019
1251 Clouds 5 1023 41 0 1.15 127.37 21:36 26.09.2019
1252 Clouds 7 1023 39 0 0.42 77.353 21:18 26.09.2019
1253 Clouds 7 1023 38 0 0.39 68.528 20:55 26.09.2019
1254 Clouds 7 1023 38 0 0.39 68.528 20:37 26.09.2019
1255 Clouds 7 1023 38 0 0.39 68.528 20:19 26.09.2019
1256 Clouds 7 1023 38 0 0.39 68.528 20:19 26.09.2019
1257 Clouds 7 1023 38 0 0.39 68.528 19:40 26.09.2019
1258 Clouds 7 1023 38 0 0.39 68.528 19:18 26.09.2019
1259 Clouds 7 1023 38 0 0.39 68.528 18:58 26.09.2019
1260 Clouds 7 1023 38 0 0.39 68.528 18:38 26.09.2019
1261 Clouds 7 1023 38 0 0.39 68.528 18:38 26.09.2019
1262 Clear 8 1022 36 0 0.36 35.593 18:20 26.09.2019
1263 Clear 8 1022 36 0 0.36 35.593 17:39 26.09.2019
1264 Clear 8 1022 36 0 0.36 35.593 17:19 26.09.2019
1265 Clear 8 1022 36 0 0.36 35.593 17:19 26.09.2019
1266 Clear 8 1022 36 0 0.36 35.593 16:59 26.09.2019
1267 Clear 8 1022 36 0 0.36 35.593 16:39 26.09.2019
1268 Clear 8 1022 36 0 0.36 35.593 16:20 26.09.2019
1269 Clear 8 1022 36 0 0.36 35.593 15:57 26.09.2019
1270 Clear 8 1022 36 0 0.36 35.593 15:37 26.09.2019
1271 Clouds 10 1018 32 0 0.43 111.189 15:19 26.09.2019
1272 Clouds 10 1018 32 0 0.43 111.189 14:56 26.09.2019
1273 Clouds 10 1018 32 0 0.43 111.189 14:37 26.09.2019
1274 Clouds 10 1018 32 0 0.43 111.189 14:19 26.09.2019
1275 Clouds 10 1018 32 0 0.43 111.189 13:41 26.09.2019
1276 Clouds 10 1017 30 0 0.76 115.421 13:20 26.09.2019
1277 Clouds 10 1017 30 0 0.76 115.421 13:20 26.09.2019
1278 Clouds 10 1017 30 0 0.76 115.421 12:57 26.09.2019
1279 Clouds 10 1017 30 0 0.76 115.421 12:39 26.09.2019
1280 Clear 16 1016 16 0 0.38 338.142 12:20 26.09.2019
1281 Clear 16 1016 16 0 0.38 338.142 11:42 26.09.2019
1282 Clear 16 1016 16 0 0.38 338.142 11:23 26.09.2019
1283 Clear 16 1016 16 0 0.38 338.142 10:56 26.09.2019
1284 Clear 16 1016 16 0 0.38 338.142 10:38 26.09.2019
1285 Clear 16 1016 16 0 0.38 338.142 10:20 26.09.2019
1286 -273 0 0 0 0 0 10:20 26.09.2019
1287 Clear 16 1016 16 0 0.38 338.142 09:44 26.09.2019
1288 Clear 16 1016 16 0 0.38 338.142 09:26 26.09.2019
1289 Clear 15 1020 16 0 0.42 235.966 08:57 26.09.2019
1290 Clear 15 1019 16 0 0.54 243.104 08:39 26.09.2019
1291 Clear 15 1019 16 0 0.54 243.104 08:21 26.09.2019
1292 Clear 15 1019 16 0 0.54 243.104 07:43 26.09.2019
1293 Clear 15 1019 16 0 0.54 243.104 07:21 26.09.2019
1294 Clear 15 1019 16 0 0.54 243.104 06:45 26.09.2019
1295 Clear 15 1019 16 0 0.54 243.104 06:25 26.09.2019
1296 Clear 12 1024 21 0 0.06 81.741 05:44 26.09.2019
1297 Clear 12 1024 21 0 0.06 81.741 05:25 26.09.2019
1298 Clear 2 1027 39 0 1.08 28.207 02:53 26.09.2019
1299 Clear 2 1027 39 0 1.08 28.207 01:54 26.09.2019
1300 Clear 2 1026 39 0 0.96 42.058 01:31 26.09.2019
1301 Clear 2 1026 39 0 0.96 42.058 00:56 26.09.2019
1302 Clear 2 1026 39 0 0.96 42.058 00:38 26.09.2019
1303 Clear 3 1025 33 0 0.58 16.832 00:19 26.09.2019
1304 Clear 3 1025 33 0 0.58 16.832 23:42 25.09.2019
1305 Clear 3 1025 33 0 0.58 16.832 23:19 25.09.2019
1306 Clear 3 1025 33 0 0.58 16.832 22:42 25.09.2019
1307 Clear 3 1025 33 0 0.58 16.832 22:21 25.09.2019
1308 Clear 3 1025 33 0 0.58 16.832 22:21 25.09.2019
1309 Clear 3 1025 33 0 0.58 16.832 21:58 25.09.2019
1310 Clear 3 1025 33 0 0.58 16.832 21:40 25.09.2019
1311 Clear 5 1026 28 0 1.4 5.209 21:19 25.09.2019
1312 Clear 5 1026 28 0 1.4 5.209 20:58 25.09.2019
1313 Clouds 5 1025 29 0 1.4 10.773 20:40 25.09.2019
1314 Clouds 5 1025 29 0 1.4 10.773 20:22 25.09.2019
1315 Clouds 5 1025 29 0 1.4 10.773 19:59 25.09.2019
1316 Clouds 5 1025 29 0 1.4 10.773 19:38 25.09.2019
1317 Clouds 5 1025 29 0 1.4 10.773 19:19 25.09.2019
1318 Clouds 5 1025 29 0 1.4 10.773 18:56 25.09.2019
1319 Clouds 5 1025 29 0 1.4 10.773 18:37 25.09.2019
1320 Clouds 7 1025 31 0 1.66 340.759 18:18 25.09.2019
1321 Clouds 7 1025 31 0 1.66 340.759 17:40 25.09.2019
1322 Clouds 7 1025 31 0 1.66 340.759 17:21 25.09.2019
1323 Clouds 7 1025 31 0 1.66 340.759 16:56 25.09.2019
1324 Clouds 7 1025 31 0 1.66 340.759 16:37 25.09.2019
1325 Clouds 7 1025 31 0 1.66 340.759 16:19 25.09.2019
1326 Clouds 7 1025 31 0 1.66 340.759 15:42 25.09.2019
1327 Clouds 10 1021 29 0 1.46 109.029 15:23 25.09.2019
1328 Clouds 10 1021 29 0 1.46 109.029 14:58 25.09.2019
1329 Clouds 10 1021 29 0 1.46 109.029 14:39 25.09.2019
1330 Clouds 10 1021 29 0 1.46 109.029 14:21 25.09.2019
1331 Clouds 10 1021 29 0 1.46 109.029 13:56 25.09.2019
1332 Clouds 10 1021 29 0 1.46 109.029 13:38 25.09.2019
1333 Clouds 10 1020 30 0 1.41 99.315 13:19 25.09.2019
1334 Clouds 10 1020 30 0 1.41 99.315 12:42 25.09.2019
1335 Clouds 15 1019 18 0 0.88 68.053 12:23 25.09.2019
1336 Clouds 15 1019 18 0 0.88 68.053 11:58 25.09.2019
1337 Clouds 15 1019 18 0 0.88 68.053 11:40 25.09.2019
1338 Clouds 15 1019 18 0 0.88 68.053 11:19 25.09.2019
1339 Clouds 15 1019 18 0 0.88 68.053 10:45 25.09.2019
1340 Clouds 15 1019 18 0 0.88 68.053 10:26 25.09.2019
1341 Clouds 15 1019 18 0 0.88 68.053 09:58 25.09.2019
1342 Clouds 15 1019 18 0 0.88 68.053 09:58 25.09.2019
1343 Clouds 15 1019 18 0 0.88 68.053 09:38 25.09.2019
1344 Clear 13 1022 19 0 0.85 0.741 09:20 25.09.2019
1345 Clear 14 1022 20 0 1.19 8.266 08:45 25.09.2019
1346 Clear 14 1022 20 0 1.19 8.266 08:21 25.09.2019
1347 Clear 14 1022 20 0 1.19 8.266 07:59 25.09.2019
1348 Clear 14 1022 20 0 1.19 8.266 07:39 25.09.2019
1349 Clear 14 1022 20 0 1.19 8.266 07:21 25.09.2019
1350 Clear 14 1022 20 0 1.19 8.266 06:45 25.09.2019
1351 Clear 10 1026 26 0 1.01 359.147 06:22 25.09.2019
1352 Clear 10 1026 26 0 1.01 359.147 05:35 25.09.2019
1353 Clear 10 1026 26 0 1.01 359.147 04:55 25.09.2019
1354 Clear 2 1028 43 0 1.85 16.601 02:31 25.09.2019
1355 Clear 2 1027 43 0 2.16 17.276 00:56 25.09.2019
1356 Clear 2 1027 43 0 2.16 17.276 00:36 25.09.2019
1357 Clear 4 1026 39 0 1.88 10.485 00:18 25.09.2019
1358 Clear 4 1026 39 0 1.88 10.485 23:40 24.09.2019
1359 Clear 4 1026 39 0 1.88 10.485 23:21 24.09.2019
1360 Clear 4 1026 39 0 1.88 10.485 22:40 24.09.2019
1361 Clear 4 1026 39 0 1.88 10.485 22:22 24.09.2019
1362 Clear 4 1025 38 0 2.07 14.097 21:58 24.09.2019
1363 Clear 4 1025 38 0 2.07 14.097 21:38 24.09.2019
1364 Clear 5 1025 34 0 2.14 1.098 21:19 24.09.2019
1365 Clear 5 1025 34 0 2.14 1.098 21:19 24.09.2019
1366 Clear 5 1025 34 0 2.14 1.098 20:59 24.09.2019
1367 Clear 5 1025 34 0 2.14 1.098 20:41 24.09.2019
1368 Clear 5 1025 34 0 2.14 1.098 20:22 24.09.2019
1369 Clear 5 1025 34 0 2.14 1.098 19:59 24.09.2019
1370 Clear 5 1025 34 0 2.14 1.098 19:41 24.09.2019
1371 Clear 5 1025 34 0 2.14 1.098 19:19 24.09.2019
1372 Clear 5 1025 34 0 2.14 1.098 18:55 24.09.2019
1373 Clear 5 1025 34 0 2.14 1.098 18:55 24.09.2019
1374 Clear 5 1025 34 0 2.14 1.098 18:55 24.09.2019
1375 Clear 5 1025 34 0 2.14 1.098 18:37 24.09.2019
1376 Clear 7 1025 31 0 2.68 16.548 18:19 24.09.2019
1377 Clear 7 1025 31 0 2.68 16.548 17:55 24.09.2019
1378 Clear 7 1025 31 0 2.68 16.548 17:37 24.09.2019
1379 Clear 7 1025 31 0 2.68 16.548 17:18 24.09.2019
1380 Clear 7 1025 31 0 2.68 16.548 16:41 24.09.2019
1381 Clear 7 1025 31 0 2.68 16.548 16:20 24.09.2019
1382 Clear 7 1025 31 0 2.68 16.548 16:20 24.09.2019
1383 Clear 7 1025 31 0 2.68 16.548 15:57 24.09.2019
1384 Clear 7 1025 31 0 2.68 16.548 15:38 24.09.2019
1385 Clouds 10 1019 26 0 1.92 326.921 15:19 24.09.2019
1386 Clouds 10 1019 26 0 1.92 326.921 14:37 24.09.2019
1387 Clouds 10 1019 26 0 1.92 326.921 14:18 24.09.2019
1388 Clouds 10 1019 26 0 1.92 326.921 13:41 24.09.2019
1389 Clouds 9 1019 26 0 1.98 325.685 13:21 24.09.2019
1390 Clouds 9 1019 26 0 1.98 325.685 12:42 24.09.2019
1391 Clouds 15 1017 17 0 4.22 320.465 12:22 24.09.2019
1392 Clouds 15 1017 17 0 4.22 320.465 11:58 24.09.2019
1393 Clouds 15 1017 17 0 4.22 320.465 11:40 24.09.2019
1394 Clouds 15 1017 17 0 4.22 320.465 11:21 24.09.2019
1395 Clouds 15 1017 17 0 4.22 320.465 10:42 24.09.2019
1396 Clouds 15 1017 17 0 4.22 320.465 10:22 24.09.2019
1397 Clouds 15 1017 17 0 4.22 320.465 09:59 24.09.2019
1398 Clouds 15 1017 17 0 4.22 320.465 09:41 24.09.2019
1399 Clouds 13 1021 25 0 1.44 352.156 09:20 24.09.2019
1400 Clouds 13 1021 25 0 1.44 352.156 08:55 24.09.2019
1401 Clouds 13 1022 28 0 1.88 5.492 08:37 24.09.2019
1402 Clouds 13 1022 28 0 1.88 5.492 08:19 24.09.2019
1403 Clouds 13 1022 28 0 1.88 5.492 07:42 24.09.2019
1404 Clouds 13 1022 28 0 1.88 5.492 07:24 24.09.2019
1405 Clouds 13 1022 28 0 1.88 5.492 06:48 24.09.2019
1406 Clouds 13 1022 28 0 1.88 5.492 06:28 24.09.2019
1407 Rain 10 1025 45 0 2.11 3.151 05:51 24.09.2019
1408 Rain 10 1025 45 0 2.11 3.151 05:18 24.09.2019
1409 Rain 10 1025 45 0 2.11 3.151 03:43 24.09.2019
1410 Rain 6 1027 71 0 1.92 8.05 02:46 24.09.2019
1411 Rain 6 1027 71 0 1.92 8.05 01:50 24.09.2019
1412 Clouds 4 1026 76 0 1.77 23.687 00:43 24.09.2019
1413 Clouds 6 1025 72 0 1.31 19.323 00:23 24.09.2019
1414 Clouds 6 1025 72 0 1.31 19.323 23:56 23.09.2019
1415 Clouds 6 1025 72 0 1.31 19.323 23:37 23.09.2019
1416 Clouds 6 1025 72 0 1.31 19.323 23:19 23.09.2019
1417 Clouds 6 1025 72 0 1.31 19.323 22:39 23.09.2019
1418 Clouds 6 1025 72 0 1.31 19.323 22:20 23.09.2019
1419 Clouds 6 1025 72 0 1.31 19.323 21:57 23.09.2019
1420 Clouds 6 1025 72 0 1.31 19.323 21:38 23.09.2019
1421 Clouds 6 1025 72 0 0.54 118.072 21:19 23.09.2019
1422 Clouds 6 1025 75 0 0.72 81.501 20:41 23.09.2019
1423 Clouds 6 1025 75 0 0.72 81.501 20:20 23.09.2019
1424 Clouds 6 1025 75 0 0.72 81.501 20:20 23.09.2019
1425 Clouds 6 1025 75 0 0.72 81.501 20:20 23.09.2019
1426 Clouds 6 1025 75 0 0.72 81.501 19:59 23.09.2019
1427 Clouds 6 1025 75 0 0.72 81.501 19:39 23.09.2019
1428 Clouds 6 1025 75 0 0.72 81.501 19:21 23.09.2019
1429 Clouds 6 1025 75 0 0.72 81.501 18:55 23.09.2019
1430 Clouds 6 1025 75 0 0.72 81.501 18:36 23.09.2019
1431 Rain 7 1023 73 0 1.35 0.975 18:18 23.09.2019
1432 -273 0 0 0 0 0 17:55 23.09.2019
1433 Rain 7 1023 73 0 1.35 0.975 17:55 23.09.2019
1434 Rain 7 1023 73 0 1.35 0.975 17:36 23.09.2019
1435 Rain 7 1023 73 0 1.35 0.975 17:36 23.09.2019
1436 Rain 7 1023 73 0 1.35 0.975 17:18 23.09.2019
1437 Rain 7 1023 73 0 1.35 0.975 16:39 23.09.2019
1438 Rain 7 1023 73 0 1.35 0.975 16:21 23.09.2019
1439 Rain 7 1023 73 0 1.35 0.975 15:59 23.09.2019
1440 Rain 7 1023 73 0 1.35 0.975 15:41 23.09.2019
1441 Rain 6 1019 78 0 6.02 13.157 15:20 23.09.2019
1442 Rain 6 1019 78 0 6.02 13.157 14:58 23.09.2019
1443 Rain 6 1019 78 0 6.02 13.157 14:39 23.09.2019
1444 Rain 6 1019 78 0 6.02 13.157 14:19 23.09.2019
1445 Rain 6 1019 78 0 6.02 13.157 13:57 23.09.2019
1446 Rain 6 1019 78 0 6.02 13.157 13:37 23.09.2019
1447 Rain 6 1019 81 0 5.03 19.094 13:18 23.09.2019
1448 Rain 6 1019 81 0 5.03 19.094 13:18 23.09.2019
1449 Rain 6 1019 81 0 5.03 19.094 12:40 23.09.2019
1450 Rain 14 1014 37 0 1.27 254.396 12:21 23.09.2019
1451 Rain 14 1014 37 0 1.27 254.396 11:55 23.09.2019
1452 Rain 14 1014 37 0 1.27 254.396 11:36 23.09.2019
1453 Rain 14 1014 37 0 1.27 254.396 11:18 23.09.2019
1454 Rain 14 1014 37 0 1.27 254.396 10:42 23.09.2019
1455 Rain 14 1014 37 0 1.27 254.396 10:20 23.09.2019
1456 Rain 14 1014 37 0 1.27 254.396 09:43 23.09.2019
1457 Rain 14 1014 37 0 1.27 254.396 09:25 23.09.2019
1458 Rain 13 1017 49 0 0.24 85.62 08:58 23.09.2019
1459 Rain 12 1017 52 0 0.97 7.513 08:39 23.09.2019
1460 Rain 12 1017 52 0 0.97 7.513 08:19 23.09.2019
1461 Rain 12 1017 52 0 0.97 7.513 07:38 23.09.2019
1462 Rain 12 1017 52 0 0.97 7.513 07:20 23.09.2019
1463 Rain 8 1021 70 0 1.7 28.296 06:20 23.09.2019
1464 Rain 8 1021 70 0 1.7 28.296 05:44 23.09.2019
1465 Rain 8 1021 70 0 1.7 28.296 04:59 23.09.2019
1466 Rain 8 1021 70 0 1.7 28.296 04:37 23.09.2019
1467 Rain 6 1021 82 0 3 26.787 01:26 23.09.2019
1468 Rain 6 1021 82 0 3 26.787 00:39 23.09.2019
1469 Rain 7 1019 72 0 1.63 143.074 00:19 23.09.2019
1470 Rain 7 1019 72 0 1.63 143.074 23:44 22.09.2019
1471 Rain 7 1019 72 0 1.63 143.074 23:44 22.09.2019
1472 Rain 7 1019 72 0 1.63 143.074 23:26 22.09.2019
1473 Rain 7 1019 72 0 1.63 143.074 22:56 22.09.2019
1474 Rain 7 1019 72 0 1.63 143.074 22:37 22.09.2019
1475 Rain 7 1019 72 0 1.63 143.074 22:19 22.09.2019
1476 Rain 7 1019 72 0 1.63 143.074 21:43 22.09.2019
1477 Rain 9 1020 66 0 2.33 128.398 21:21 22.09.2019
1478 Rain 9 1020 66 0 2.33 128.398 20:46 22.09.2019
1479 Rain 9 1020 72 0 2.52 127.257 20:28 22.09.2019
1480 Rain 9 1020 72 0 2.52 127.257 20:00 22.09.2019
1481 Rain 9 1020 72 0 2.52 127.257 19:41 22.09.2019
1482 Rain 9 1020 72 0 2.52 127.257 19:22 22.09.2019
1483 Rain 9 1020 72 0 2.52 127.257 18:58 22.09.2019
1484 Rain 9 1020 72 0 2.52 127.257 18:38 22.09.2019
1485 Rain 9 1019 65 0 0.67 154.89 18:19 22.09.2019
1486 Rain 9 1019 65 0 0.67 154.89 17:56 22.09.2019
1487 Rain 9 1019 65 0 0.67 154.89 17:37 22.09.2019
1488 Rain 9 1019 65 0 0.67 154.89 17:18 22.09.2019
1489 Rain 9 1019 65 0 0.67 154.89 16:42 22.09.2019
1490 Rain 9 1019 65 0 0.67 154.89 16:23 22.09.2019
1491 Rain 9 1019 65 0 0.67 154.89 15:47 22.09.2019
1492 Rain 9 1019 65 0 0.67 154.89 15:28 22.09.2019
1493 Clouds 12 1014 51 0 0.47 135.086 14:59 22.09.2019
1494 Clouds 12 1014 51 0 0.47 135.086 14:59 22.09.2019
1495 Clouds 12 1014 51 0 0.47 135.086 14:40 22.09.2019
1496 Clouds 12 1014 51 0 0.47 135.086 14:22 22.09.2019
1497 Clouds 12 1014 51 0 0.47 135.086 13:55 22.09.2019
1498 Clouds 12 1014 51 0 0.47 135.086 13:36 22.09.2019
1499 Clouds 12 1013 52 0 0.47 227.052 13:18 22.09.2019
1500 Clouds 12 1013 52 0 0.47 227.052 12:42 22.09.2019
1501 Clouds 15 1012 34 0 1.83 214.874 12:22 22.09.2019
1502 Clouds 15 1012 34 0 1.83 214.874 11:56 22.09.2019
1503 Clouds 15 1012 34 0 1.83 214.874 11:38 22.09.2019
1504 Clouds 15 1012 34 0 1.83 214.874 11:19 22.09.2019
1505 Clouds 15 1012 34 0 1.83 214.874 10:44 22.09.2019
1506 Clouds 15 1012 34 0 1.83 214.874 10:20 22.09.2019
1507 Clouds 15 1012 34 0 1.83 214.874 09:57 22.09.2019
1508 Clouds 15 1012 34 0 1.83 214.874 09:38 22.09.2019
1509 Rain 14 1015 43 0 2.38 193.657 09:19 22.09.2019
1510 Rain 13 1016 44 0 2.35 190.836 08:44 22.09.2019
1511 Rain 13 1016 44 0 2.35 190.836 08:24 22.09.2019
1512 Rain 13 1016 44 0 2.35 190.836 07:54 22.09.2019
1513 Rain 13 1016 44 0 2.35 190.836 07:36 22.09.2019
1514 Rain 13 1016 44 0 2.35 190.836 07:18 22.09.2019
1515 Rain 13 1016 44 0 2.35 190.836 06:46 22.09.2019
1516 Rain 10 1021 58 0 2.04 182.055 05:23 22.09.2019
1517 Rain 4 1022 89 0 0.59 90.097 02:59 22.09.2019
1518 Rain 4 1022 89 0 0.59 90.097 02:36 22.09.2019
1519 Rain 4 1022 89 0 0.59 90.097 02:18 22.09.2019
1520 Rain 4 1022 92 0 0.1 128.66 00:58 22.09.2019
1521 Rain 4 1022 92 0 0.1 128.66 00:33 22.09.2019
1522 Rain 4 1020 91 0 0.47 185.382 23:57 21.09.2019
1523 Rain 4 1020 91 0 0.47 185.382 23:39 21.09.2019
1524 Rain 4 1020 91 0 0.47 185.382 22:59 21.09.2019
1525 Rain 4 1020 91 0 0.47 185.382 22:39 21.09.2019
1526 Rain 4 1020 91 0 0.47 185.382 22:21 21.09.2019
1527 Rain 4 1020 91 0 0.47 185.382 21:42 21.09.2019
1528 Rain 5 1021 87 0 1.22 227.695 21:20 21.09.2019
1529 Rain 5 1021 87 0 1.22 227.695 20:58 21.09.2019
1530 Rain 5 1021 90 0 1 188.973 20:38 21.09.2019
1531 Rain 5 1021 90 0 1 188.973 20:19 21.09.2019
1532 Rain 5 1021 90 0 1 188.973 20:19 21.09.2019
1533 Rain 5 1021 90 0 1 188.973 20:19 21.09.2019
1534 Rain 5 1021 90 0 1 188.973 19:47 21.09.2019
1535 Rain 5 1021 90 0 1 188.973 19:23 21.09.2019
1536 Rain 5 1021 90 0 1 188.973 18:55 21.09.2019
1537 Rain 5 1021 90 0 1 188.973 18:37 21.09.2019
1538 Rain 6 1020 84 0 1.46 228.34 18:18 21.09.2019
1539 Rain 6 1020 84 0 1.46 228.34 17:40 21.09.2019
1540 Rain 6 1020 84 0 1.46 228.34 17:20 21.09.2019
1541 Rain 6 1020 84 0 1.46 228.34 16:43 21.09.2019
1542 Rain 6 1020 84 0 1.46 228.34 16:24 21.09.2019
1543 Rain 6 1020 84 0 1.46 228.34 15:56 21.09.2019
1544 Rain 6 1020 84 0 1.46 228.34 15:38 21.09.2019
1545 Rain 8 1015 67 0 3.13 46.681 15:19 21.09.2019
1546 Rain 8 1015 67 0 3.13 46.681 14:43 21.09.2019
1547 Rain 8 1015 67 0 3.13 46.681 14:24 21.09.2019
1548 Rain 8 1015 67 0 3.13 46.681 13:42 21.09.2019
1549 Rain 8 1014 70 0 3.38 41.981 13:23 21.09.2019
1550 Rain 8 1014 70 0 3.38 41.981 12:57 21.09.2019
1551 Rain 8 1014 70 0 3.38 41.981 12:38 21.09.2019
1552 Clouds 16 1011 32 0 1.69 186.029 12:20 21.09.2019
1553 Clouds 16 1011 32 0 1.69 186.029 11:50 21.09.2019
1554 Clouds 16 1011 32 0 1.69 186.029 11:25 21.09.2019
1555 Clouds 16 1011 32 0 1.69 186.029 10:56 21.09.2019
1556 Clouds 16 1011 32 0 1.69 186.029 10:37 21.09.2019
1557 Clouds 16 1011 32 0 1.69 186.029 10:19 21.09.2019
1558 Clouds 16 1011 32 0 1.69 186.029 09:55 21.09.2019
1559 Clouds 16 1011 32 0 1.69 186.029 09:36 21.09.2019
1560 Rain 14 1015 40 0 1.7 173.235 09:18 21.09.2019
1561 Rain 14 1015 40 0 1.76 182.737 08:42 21.09.2019
1562 Rain 14 1015 40 0 1.76 182.737 07:58 21.09.2019
1563 Rain 14 1015 40 0 1.76 182.737 07:39 21.09.2019
1564 Rain 14 1015 40 0 1.76 182.737 07:18 21.09.2019
1565 Rain 14 1015 40 0 1.76 182.737 06:35 21.09.2019
1566 Rain 10 1020 57 0 1.68 186.616 05:51 21.09.2019
1567 Rain 10 1020 57 0 1.68 186.616 04:39 21.09.2019
1568 Rain 10 1020 57 0 1.68 186.616 03:31 21.09.2019
1569 Rain 4 1021 86 0 1.14 141.747 02:25 21.09.2019
1570 Rain 4 1021 86 0 1.14 141.747 01:48 21.09.2019
1571 Rain 4 1021 86 0 1.14 141.747 01:23 21.09.2019
1572 Rain 7 1020 68 0 1.37 179.5 00:23 21.09.2019
1573 Rain 7 1020 68 0 1.37 179.5 23:49 20.09.2019
1574 Rain 7 1020 68 0 1.37 179.5 23:30 20.09.2019
1575 Rain 7 1020 68 0 1.37 179.5 22:55 20.09.2019
1576 Rain 7 1020 68 0 1.37 179.5 22:55 20.09.2019
1577 Rain 7 1020 68 0 1.37 179.5 22:36 20.09.2019
1578 Rain 7 1020 68 0 1.37 179.5 22:36 20.09.2019
1579 Rain 7 1020 68 0 1.37 179.5 22:18 20.09.2019
1580 Rain 7 1020 68 0 1.37 179.5 21:54 20.09.2019
1581 Rain 7 1020 68 0 1.37 179.5 21:36 20.09.2019
1582 Clouds 7 1021 68 0 0.76 152.964 21:18 20.09.2019
1583 Clouds 7 1021 67 0 1.05 161.979 20:41 20.09.2019
1584 Clouds 7 1021 67 0 1.05 161.979 20:20 20.09.2019
1585 Clouds 7 1021 67 0 1.05 161.979 20:20 20.09.2019
1586 Clouds 7 1021 67 0 1.05 161.979 19:56 20.09.2019
1587 Clouds 7 1021 67 0 1.05 161.979 19:37 20.09.2019
1588 Clouds 7 1021 67 0 1.05 161.979 19:19 20.09.2019
1589 Clouds 7 1021 67 0 1.05 161.979 18:39 20.09.2019
1590 Clouds 8 1020 62 0 1.07 206.207 18:20 20.09.2019
1591 Clouds 8 1020 62 0 1.07 206.207 17:57 20.09.2019
1592 Clouds 8 1020 62 0 1.07 206.207 17:57 20.09.2019
1593 Clouds 8 1020 62 0 1.07 206.207 17:57 20.09.2019
1594 Clouds 8 1020 62 0 1.07 206.207 17:38 20.09.2019
1595 Clouds 8 1020 62 0 1.07 206.207 17:18 20.09.2019
1596 Clouds 8 1020 62 0 1.07 206.207 16:41 20.09.2019
1597 Clouds 8 1020 62 0 1.07 206.207 16:41 20.09.2019
1598 Clouds 8 1020 62 0 1.07 206.207 16:19 20.09.2019
1599 Clouds 8 1020 62 0 1.07 206.207 15:43 20.09.2019
1600 Clouds 8 1020 62 0 1.07 206.207 15:43 20.09.2019
1601 Rain 10 1016 51 0 1.14 252.568 15:23 20.09.2019
1602 Rain 10 1016 51 0 1.14 252.568 14:57 20.09.2019
1603 Rain 10 1016 51 0 1.14 252.568 14:38 20.09.2019
1604 Rain 10 1016 51 0 1.14 252.568 14:18 20.09.2019
1605 Rain 10 1016 51 0 1.14 252.568 13:47 20.09.2019
1606 Rain 11 1016 47 0 1.29 242.7 13:27 20.09.2019
1607 Rain 11 1016 47 0 1.29 242.7 12:56 20.09.2019
1608 Rain 11 1016 47 0 1.29 242.7 12:36 20.09.2019
1609 Rain 13 1015 40 0 1.06 240.128 12:18 20.09.2019
1610 Rain 13 1015 40 0 1.06 240.128 12:18 20.09.2019
1611 Rain 13 1015 40 0 1.06 240.128 11:45 20.09.2019
1612 Rain 13 1015 40 0 1.06 240.128 11:20 20.09.2019
1613 Rain 13 1015 40 0 1.06 240.128 10:43 20.09.2019
1614 Rain 13 1015 40 0 1.06 240.128 10:43 20.09.2019
1615 Rain 13 1015 40 0 1.06 240.128 10:23 20.09.2019
1616 Rain 13 1015 40 0 1.06 240.128 09:39 20.09.2019
1617 Rain 10 1020 53 0 1.17 248.825 09:19 20.09.2019
1618 Rain 10 1020 53 0 1.17 248.825 08:59 20.09.2019
1619 Rain 10 1020 53 0 1.17 248.825 08:40 20.09.2019
1620 Rain 10 1020 53 0 1.17 248.825 08:21 20.09.2019
1621 Rain 10 1020 53 0 1.17 248.825 07:45 20.09.2019
1622 Rain 9 1021 58 0 1.25 316.23 07:25 20.09.2019
1623 Rain 9 1021 58 0 1.25 316.23 06:44 20.09.2019
1624 Rain 6 1024 72 0 0.51 278.857 06:20 20.09.2019
1625 Rain 6 1024 72 0 0.51 278.857 05:42 20.09.2019
1626 Rain 6 1024 72 0 0.51 278.857 03:31 20.09.2019
1627 Rain 3 1025 91 0 1.31 342.536 02:51 20.09.2019
1628 Rain 3 1025 91 0 1.31 342.536 02:51 20.09.2019
1629 Rain 3 1025 91 0 1.31 342.536 01:44 20.09.2019
1630 Rain 3 1025 89 0 1.91 12.747 00:46 20.09.2019
1631 Rain 5 1023 81 0 0.74 328.784 00:21 20.09.2019
1632 Rain 5 1023 81 0 0.74 328.784 00:21 20.09.2019
1633 Rain 5 1023 81 0 0.74 328.784 23:41 19.09.2019
1634 Rain 5 1023 81 0 0.74 328.784 23:19 19.09.2019
1635 Rain 5 1023 81 0 0.74 328.784 22:54 19.09.2019
1636 Rain 5 1023 81 0 0.74 328.784 22:36 19.09.2019
1637 Rain 5 1023 81 0 0.74 328.784 22:18 19.09.2019
1638 Rain 5 1023 81 0 0.74 328.784 21:55 19.09.2019
1639 Rain 5 1023 81 0 0.74 328.784 21:36 19.09.2019
1640 Rain 6 1024 77 0 2.49 346.288 21:18 19.09.2019
1641 Rain 6 1024 77 0 2.49 346.288 21:18 19.09.2019
1642 Rain 6 1024 77 0 2.49 346.288 20:43 19.09.2019
1643 Rain 5 1024 79 0 2.24 323.565 20:20 19.09.2019
1644 Rain 5 1024 79 0 2.24 323.565 19:55 19.09.2019
1645 Rain 5 1024 79 0 2.24 323.565 19:37 19.09.2019
1646 Rain 5 1024 79 0 2.24 323.565 19:19 19.09.2019
1647 Rain 5 1024 79 0 2.24 323.565 19:19 19.09.2019
1648 Rain 5 1024 79 0 2.24 323.565 18:42 19.09.2019
1649 Clouds 8 1023 69 0 3.51 339.568 18:24 19.09.2019
1650 Clouds 8 1023 69 0 3.51 339.568 18:24 19.09.2019
1651 Clouds 8 1023 69 0 3.51 339.568 17:54 19.09.2019
1652 Clouds 8 1023 69 0 3.51 339.568 17:36 19.09.2019
1653 Clouds 8 1023 69 0 3.51 339.568 17:18 19.09.2019
1654 Clouds 8 1023 69 0 3.51 339.568 16:42 19.09.2019
1655 Clouds 8 1023 69 0 3.51 339.568 16:20 19.09.2019
1656 Clouds 8 1023 69 0 3.51 339.568 15:55 19.09.2019
1657 Clouds 8 1023 69 0 3.51 339.568 15:55 19.09.2019
1658 Clouds 8 1023 69 0 3.51 339.568 15:55 19.09.2019
1659 Clouds 8 1023 69 0 3.51 339.568 15:55 19.09.2019
1660 Clouds 8 1023 69 0 3.51 339.568 15:55 19.09.2019
1661 Clouds 8 1023 69 0 3.51 339.568 15:36 19.09.2019
1662 Rain 9 1019 69 0 4.27 7.611 15:18 19.09.2019
1663 Rain 9 1019 69 0 4.27 7.611 14:41 19.09.2019
1664 Rain 9 1019 69 0 4.27 7.611 14:22 19.09.2019
1665 Rain 9 1019 69 0 4.27 7.611 13:58 19.09.2019
1666 Rain 9 1019 69 0 4.27 7.611 13:37 19.09.2019
1667 Rain 11 1018 60 0 4.3 25.593 13:18 19.09.2019
1668 Rain 11 1018 60 0 4.3 25.593 12:37 19.09.2019
1669 Clouds 16 1014 35 0 1.67 248.071 12:18 19.09.2019
1670 Clouds 16 1014 35 0 1.67 248.071 11:41 19.09.2019
1671 Clouds 16 1014 35 0 1.67 248.071 11:22 19.09.2019
1672 Clouds 16 1014 35 0 1.67 248.071 10:59 19.09.2019
1673 Clouds 16 1014 35 0 1.67 248.071 10:39 19.09.2019
1674 Clouds 16 1014 35 0 1.67 248.071 10:21 19.09.2019
1675 Clouds 16 1014 35 0 1.67 248.071 09:58 19.09.2019
1676 Clouds 16 1014 35 0 1.67 248.071 09:40 19.09.2019
1677 Clouds 16 1014 35 0 1.67 248.071 09:40 19.09.2019
1678 Clouds 16 1014 35 0 1.67 248.071 09:40 19.09.2019
1679 Clouds 14 1017 41 0 2.05 207.476 09:19 19.09.2019
1680 Clouds 14 1017 41 0 2.05 207.476 08:51 19.09.2019
1681 Clouds 14 1018 40 0 2.15 210.036 08:24 19.09.2019
1682 Clouds 14 1018 40 0 2.15 210.036 07:45 19.09.2019
1683 Clouds 14 1018 40 0 2.15 210.036 07:23 19.09.2019
1684 Clouds 14 1018 40 0 2.15 210.036 06:58 19.09.2019
1685 Clouds 14 1018 40 0 2.15 210.036 06:38 19.09.2019
1686 Clouds 10 1022 53 0 2.59 167.608 06:19 19.09.2019
1687 Clouds 10 1022 53 0 2.59 167.608 05:48 19.09.2019
1688 Clouds 10 1022 53 0 2.59 167.608 04:19 19.09.2019
1689 Clouds 7 1022 71 0 0.96 155.458 03:20 19.09.2019
1690 Clouds 7 1022 71 0 0.96 155.458 01:40 19.09.2019
1691 Clouds 7 1022 72 0 0.73 216.838 01:19 19.09.2019
1692 Clouds 7 1022 72 0 0.73 216.838 00:43 19.09.2019
1693 Clouds 8 1020 61 0 1.65 151.188 00:19 19.09.2019
1694 Clouds 8 1020 61 0 1.65 151.188 23:38 18.09.2019
1695 Clouds 8 1020 61 0 1.65 151.188 23:19 18.09.2019
1696 Clouds 8 1020 61 0 1.65 151.188 22:39 18.09.2019
1697 Clouds 8 1020 61 0 1.65 151.188 22:19 18.09.2019
1698 Clouds 8 1020 61 0 1.65 151.188 21:57 18.09.2019
1699 Clouds 8 1020 61 0 1.65 151.188 21:39 18.09.2019
1700 Clouds 9 1021 60 0 2.58 140.086 21:18 18.09.2019
1701 Clouds 9 1020 59 0 2.25 143.538 20:57 18.09.2019
1702 Clouds 9 1020 59 0 2.25 143.538 20:39 18.09.2019
1703 Clouds 9 1020 59 0 2.25 143.538 20:20 18.09.2019
1704 Clouds 9 1020 59 0 2.25 143.538 19:56 18.09.2019
1705 Clouds 9 1020 59 0 2.25 143.538 19:37 18.09.2019
1706 Clouds 9 1020 59 0 2.25 143.538 19:18 18.09.2019
1707 Clouds 9 1020 59 0 2.25 143.538 19:18 18.09.2019
1708 Clouds 9 1020 59 0 2.25 143.538 19:18 18.09.2019
1709 Clouds 9 1020 59 0 2.25 143.538 18:55 18.09.2019
1710 Clouds 9 1020 59 0 2.25 143.538 18:36 18.09.2019
1711 Clouds 12 1019 49 0 2.76 174.269 18:18 18.09.2019
1712 Clouds 12 1019 49 0 2.76 174.269 17:54 18.09.2019
1713 Clouds 12 1019 49 0 2.76 174.269 17:36 18.09.2019
1714 Clouds 12 1019 49 0 2.76 174.269 17:18 18.09.2019
1715 Clouds 12 1019 49 0 2.76 174.269 16:43 18.09.2019
1716 Clouds 12 1019 49 0 2.76 174.269 16:22 18.09.2019
1717 Clouds 12 1019 49 0 2.76 174.269 15:59 18.09.2019
1718 Clouds 12 1019 49 0 2.76 174.269 15:59 18.09.2019
1719 Clouds 12 1019 49 0 2.76 174.269 15:59 18.09.2019
1720 Clouds 12 1019 49 0 2.76 174.269 15:40 18.09.2019
1721 Clouds 15 1013 43 0 1.79 230.704 15:21 18.09.2019
1722 Clouds 15 1013 43 0 1.79 230.704 14:58 18.09.2019
1723 Clouds 15 1013 43 0 1.79 230.704 14:40 18.09.2019
1724 Clouds 15 1013 43 0 1.79 230.704 14:22 18.09.2019
1725 Clouds 15 1013 43 0 1.79 230.704 14:22 18.09.2019
1726 Clouds 15 1013 43 0 1.79 230.704 13:59 18.09.2019
1727 Clouds 15 1013 43 0 1.79 230.704 13:59 18.09.2019
1728 Clouds 15 1013 43 0 1.79 230.704 13:39 18.09.2019
1729 Clouds 13 1013 51 0 2.64 302.791 13:18 18.09.2019
1730 Clouds 13 1013 51 0 2.64 302.791 12:47 18.09.2019
1731 Clouds 13 1013 51 0 2.64 302.791 12:29 18.09.2019
1732 Clouds 18 1009 33 0 2.31 167.995 11:55 18.09.2019
1733 Clouds 18 1009 33 0 2.31 167.995 11:37 18.09.2019
1734 Clouds 18 1009 33 0 2.31 167.995 11:18 18.09.2019
1735 Clouds 18 1009 33 0 2.31 167.995 10:40 18.09.2019
1736 Clouds 18 1009 33 0 2.31 167.995 10:21 18.09.2019
1737 Clouds 18 1009 33 0 2.31 167.995 09:58 18.09.2019
1738 Clouds 18 1009 33 0 2.31 167.995 09:38 18.09.2019
1739 Clouds 16 1014 38 0 2.41 182.646 09:19 18.09.2019
1740 Clouds 16 1014 37 0 2.66 179.181 08:42 18.09.2019
1741 Clouds 16 1014 37 0 2.66 179.181 08:23 18.09.2019
1742 Clouds 16 1014 37 0 2.66 179.181 07:57 18.09.2019
1743 Clouds 16 1014 37 0 2.66 179.181 07:39 18.09.2019
1744 Clouds 16 1014 37 0 2.66 179.181 07:21 18.09.2019
1745 Clouds 16 1014 37 0 2.66 179.181 06:38 18.09.2019
1746 Clouds 13 1019 45 0 2.32 166.168 05:46 18.09.2019
1747 Clouds 13 1019 45 0 2.32 166.168 04:52 18.09.2019
1748 Clouds 8 1020 66 0 0.97 131.496 02:54 18.09.2019
1749 Clouds 8 1020 66 0 0.97 131.496 02:28 18.09.2019
1750 Clouds 8 1020 70 0 0.78 127.148 01:21 18.09.2019
1751 Clouds 8 1020 70 0 0.78 127.148 00:48 18.09.2019
1752 Clouds 10 1018 57 0 1.52 141.37 00:20 18.09.2019
1753 Clouds 10 1018 57 0 1.52 141.37 23:44 17.09.2019
1754 Clouds 10 1018 57 0 1.52 141.37 23:22 17.09.2019
1755 Clouds 10 1018 57 0 1.52 141.37 22:43 17.09.2019
1756 Clouds 10 1018 57 0 1.52 141.37 22:24 17.09.2019
1757 Clouds 10 1018 57 0 1.52 141.37 21:55 17.09.2019
1758 Clouds 10 1018 57 0 1.52 141.37 21:55 17.09.2019
1759 Clouds 10 1018 57 0 1.52 141.37 21:37 17.09.2019
1760 Clouds 9 1018 62 0 2.52 143.902 21:19 17.09.2019
1761 Clouds 9 1018 62 0 2.52 143.902 20:58 17.09.2019
1762 Clouds 9 1018 61 0 2.18 136.971 20:40 17.09.2019
1763 Clouds 9 1018 61 0 2.18 136.971 20:21 17.09.2019
1764 Clouds 9 1018 61 0 2.18 136.971 19:58 17.09.2019
1765 Clouds 9 1018 61 0 2.18 136.971 19:39 17.09.2019
1766 Clouds 9 1018 61 0 2.18 136.971 19:19 17.09.2019
1767 Clouds 9 1018 61 0 2.18 136.971 18:57 17.09.2019
1768 Clouds 9 1018 61 0 2.18 136.971 18:38 17.09.2019
1769 Rain 13 1016 50 0 2.99 169.839 18:20 17.09.2019
1770 Rain 13 1016 50 0 2.99 169.839 17:46 17.09.2019
1771 Rain 13 1016 50 0 2.99 169.839 17:20 17.09.2019
1772 Rain 13 1016 50 0 2.99 169.839 16:58 17.09.2019
1773 Rain 13 1016 50 0 2.99 169.839 16:39 17.09.2019
1774 Rain 13 1016 50 0 2.99 169.839 16:39 17.09.2019
1775 Rain 13 1016 50 0 2.99 169.839 16:21 17.09.2019
1776 Rain 13 1016 50 0 2.99 169.839 15:40 17.09.2019
1777 Clouds 15 1010 44 0 2.8 195.895 15:21 17.09.2019
1778 Clouds 15 1010 44 0 2.8 195.895 14:57 17.09.2019
1779 Clouds 15 1010 44 0 2.8 195.895 14:39 17.09.2019
1780 Clouds 15 1010 44 0 2.8 195.895 14:19 17.09.2019
1781 Clouds 15 1010 44 0 2.8 195.895 13:57 17.09.2019
1782 Clouds 15 1010 44 0 2.8 195.895 13:38 17.09.2019
1783 Clouds 14 1010 48 0 1.94 235.066 13:20 17.09.2019
1784 Clouds 14 1010 48 0 1.94 235.066 12:42 17.09.2019
1785 Clouds 19 1006 31 0 2.31 181.265 12:20 17.09.2019
1786 Clouds 19 1006 31 0 2.31 181.265 11:57 17.09.2019
1787 Clouds 19 1006 31 0 2.31 181.265 11:38 17.09.2019
1788 Clouds 19 1006 31 0 2.31 181.265 11:18 17.09.2019
1789 Clouds 19 1006 31 0 2.31 181.265 10:41 17.09.2019
1790 Clouds 19 1006 31 0 2.31 181.265 10:21 17.09.2019
1791 Clouds 19 1006 31 0 2.31 181.265 09:56 17.09.2019
1792 Clouds 19 1006 31 0 2.31 181.265 09:37 17.09.2019
1793 Clouds 17 1009 37 0 2.77 186.452 09:19 17.09.2019
1794 Clouds 17 1009 37 0 2.77 186.452 09:19 17.09.2019
1795 Clouds 17 1009 37 0 2.77 186.452 08:43 17.09.2019
1796 Clouds 17 1009 36 0 2.93 182.933 08:25 17.09.2019
1797 Clouds 17 1009 36 0 2.93 182.933 08:25 17.09.2019
1798 Clouds 17 1009 36 0 2.93 182.933 07:46 17.09.2019
1799 Clouds 17 1009 36 0 2.93 182.933 07:28 17.09.2019
1800 Clouds 17 1009 36 0 2.93 182.933 06:57 17.09.2019
1801 Clouds 17 1009 36 0 2.93 182.933 06:36 17.09.2019
1802 Clouds 14 1014 46 0 2.28 178.569 05:56 17.09.2019
1803 Clouds 14 1014 46 0 2.28 178.569 05:33 17.09.2019
1804 Clouds 14 1014 46 0 2.28 178.569 04:19 17.09.2019
1805 Clouds 8 1015 73 0 1.39 135.291 02:40 17.09.2019
1806 Clouds 8 1015 73 0 1.39 135.291 01:53 17.09.2019
1807 Clouds 8 1016 72 0 1.42 149.471 00:58 17.09.2019
1808 Clouds 8 1016 72 0 1.42 149.471 00:58 17.09.2019
1809 Clouds 9 1014 66 0 1.82 136.741 23:56 16.09.2019
1810 Clouds 9 1014 66 0 1.82 136.741 23:36 16.09.2019
1811 Clouds 9 1014 66 0 1.82 136.741 23:18 16.09.2019
1812 Clouds 9 1014 66 0 1.82 136.741 22:41 16.09.2019
1813 Clouds 9 1014 66 0 1.82 136.741 22:23 16.09.2019
1814 Clouds 9 1014 66 0 1.82 136.741 21:59 16.09.2019
1815 Clouds 9 1014 66 0 1.82 136.741 21:38 16.09.2019
1816 Clouds 11 1014 59 0 2.52 167.785 21:20 16.09.2019
1817 Clouds 11 1014 59 0 2.52 167.785 20:55 16.09.2019
1818 Clouds 11 1014 60 0 2.46 173.374 20:37 16.09.2019
1819 Clouds 11 1014 60 0 2.46 173.374 20:18 16.09.2019
1820 Clouds 11 1014 60 0 2.46 173.374 19:54 16.09.2019
1821 Clouds 11 1014 60 0 2.46 173.374 19:36 16.09.2019
1822 Clouds 11 1014 60 0 2.46 173.374 19:36 16.09.2019
1823 Clouds 11 1014 60 0 2.46 173.374 19:18 16.09.2019
1824 Clouds 11 1014 60 0 2.46 173.374 18:42 16.09.2019
1825 Clouds 13 1012 51 0 2.59 164.714 18:24 16.09.2019
1826 Clouds 13 1012 51 0 2.59 164.714 17:43 16.09.2019
1827 Clouds 13 1012 51 0 2.59 164.714 17:24 16.09.2019
1828 Clouds 13 1012 51 0 2.59 164.714 16:59 16.09.2019
1829 Clouds 13 1012 51 0 2.59 164.714 16:40 16.09.2019
1830 Clouds 13 1012 51 0 2.59 164.714 16:21 16.09.2019
1831 Clouds 13 1012 51 0 2.59 164.714 15:57 16.09.2019
1832 Clouds 13 1012 51 0 2.59 164.714 15:38 16.09.2019
1833 Clouds 15 1007 46 0 2.29 191.07 15:20 16.09.2019
1834 Clouds 15 1007 46 0 2.29 191.07 14:57 16.09.2019
1835 Clouds 15 1007 46 0 2.29 191.07 14:38 16.09.2019
1836 Clouds 15 1007 46 0 2.29 191.07 14:38 16.09.2019
1837 Clouds 15 1007 46 0 2.29 191.07 14:19 16.09.2019
1838 Clouds 15 1007 46 0 2.29 191.07 13:40 16.09.2019
1839 Clouds 15 1006 47 0 2.42 204.793 13:22 16.09.2019
1840 Clouds 15 1006 47 0 2.42 204.793 12:54 16.09.2019
1841 Clouds 15 1006 47 0 2.42 204.793 12:36 16.09.2019
1842 Clouds 19 1003 31 0 2.14 199.63 12:18 16.09.2019
1843 Clouds 19 1003 31 0 2.14 199.63 11:44 16.09.2019
1844 Clouds 19 1003 31 0 2.14 199.63 11:21 16.09.2019
1845 Clouds 19 1003 31 0 2.14 199.63 10:40 16.09.2019
1846 Clouds 19 1003 31 0 2.14 199.63 10:21 16.09.2019
1847 Clouds 19 1003 31 0 2.14 199.63 09:58 16.09.2019
1848 Clouds 19 1003 31 0 2.14 199.63 09:40 16.09.2019
1849 Rain 18 1008 38 0 2.47 192.796 09:20 16.09.2019
1850 Rain 18 1008 38 0 2.47 192.796 08:48 16.09.2019
1851 Clouds 18 1008 37 0 2.32 187.391 08:29 16.09.2019
1852 Clouds 18 1008 37 0 2.32 187.391 07:58 16.09.2019
1853 Clouds 18 1008 37 0 2.32 187.391 07:40 16.09.2019
1854 Clouds 18 1008 37 0 2.32 187.391 07:20 16.09.2019
1855 Clouds 18 1008 37 0 2.32 187.391 06:49 16.09.2019
1856 Clouds 18 1008 37 0 2.32 187.391 06:31 16.09.2019
1857 Rain 14 1014 51 0 2.35 171.68 05:57 16.09.2019
1858 Rain 14 1014 51 0 2.35 171.68 05:39 16.09.2019
1859 Rain 14 1014 51 0 2.35 171.68 04:57 16.09.2019
1860 Rain 14 1014 51 0 2.35 171.68 03:35 16.09.2019
1861 Clouds 10 1016 68 0 2.12 143.845 00:57 16.09.2019
1862 Clouds 10 1016 68 0 2.12 143.845 00:57 16.09.2019
1863 Clouds 10 1016 68 0 2.12 143.845 00:36 16.09.2019
1864 Clouds 10 1014 68 0 1.78 148.456 00:18 16.09.2019
1865 Clouds 10 1014 68 0 1.78 148.456 23:38 15.09.2019
1866 Clouds 10 1014 68 0 1.78 148.456 23:20 15.09.2019
1867 Clouds 10 1014 68 0 1.78 148.456 22:39 15.09.2019
1868 Clouds 10 1014 68 0 1.78 148.456 22:20 15.09.2019
1869 Clouds 10 1014 68 0 1.78 148.456 21:57 15.09.2019
1870 Clouds 10 1014 68 0 1.78 148.456 21:38 15.09.2019
1871 Rain 12 1015 65 0 1.94 161.827 21:19 15.09.2019
1872 Rain 12 1015 65 0 2.03 160.056 20:45 15.09.2019
1873 Rain 12 1015 65 0 2.03 160.056 20:27 15.09.2019
1874 Rain 12 1015 65 0 2.03 160.056 19:58 15.09.2019
1875 Rain 12 1015 65 0 2.03 160.056 19:40 15.09.2019
1876 Rain 12 1015 65 0 2.03 160.056 19:22 15.09.2019
1877 Rain 12 1015 65 0 2.03 160.056 18:40 15.09.2019
1878 Rain 14 1014 57 0 1.67 149.672 18:22 15.09.2019
1879 Rain 14 1014 57 0 1.67 149.672 17:56 15.09.2019
1880 Rain 14 1014 57 0 1.67 149.672 17:36 15.09.2019
1881 Rain 14 1014 57 0 1.67 149.672 17:18 15.09.2019
1882 Rain 14 1014 57 0 1.67 149.672 16:42 15.09.2019
1883 Rain 14 1014 57 0 1.67 149.672 16:22 15.09.2019
1884 Rain 14 1014 57 0 1.67 149.672 15:58 15.09.2019
1885 Rain 14 1014 57 0 1.67 149.672 15:38 15.09.2019
1886 Rain 16 1008 47 0 0.43 288.138 15:19 15.09.2019
1887 Rain 16 1008 47 0 0.43 288.138 14:55 15.09.2019
1888 Rain 16 1008 47 0 0.43 288.138 14:37 15.09.2019
1889 Rain 16 1008 47 0 0.43 288.138 14:19 15.09.2019
1890 Rain 16 1008 47 0 0.43 288.138 13:44 15.09.2019
1891 Clouds 16 1007 45 0 1.1 8.623 13:22 15.09.2019
1892 Clouds 16 1007 45 0 1.1 8.623 12:43 15.09.2019
1893 Clouds 16 1007 45 0 1.1 8.623 12:25 15.09.2019
1894 Clouds 16 1007 45 0 1.1 8.623 12:25 15.09.2019
1895 Clouds 20 1005 33 0 1.05 219.932 11:59 15.09.2019
1896 Clouds 20 1005 33 0 1.05 219.932 11:41 15.09.2019
1897 Clouds 20 1005 33 0 1.05 219.932 11:21 15.09.2019
1898 Clouds 20 1005 33 0 1.05 219.932 10:47 15.09.2019
1899 Clouds 20 1005 33 0 1.05 219.932 10:23 15.09.2019
1900 Clouds 20 1005 33 0 1.05 219.932 09:59 15.09.2019
1901 Clouds 20 1005 33 0 1.05 219.932 09:39 15.09.2019
1902 Clouds 18 1009 41 0 2.28 185.938 09:19 15.09.2019
1903 Clouds 18 1009 41 0 2.28 185.938 08:46 15.09.2019
1904 Clouds 18 1009 41 0 2.19 182.173 08:27 15.09.2019
1905 Clouds 18 1009 41 0 2.19 182.173 07:48 15.09.2019
1906 Clouds 18 1009 41 0 2.19 182.173 07:27 15.09.2019
1907 Clouds 18 1009 41 0 2.19 182.173 06:43 15.09.2019
1908 Clouds 14 1014 54 0 2.31 174.129 03:31 15.09.2019
1909 Rain 9 1017 79 0 1.04 146.905 02:35 15.09.2019
1910 Rain 9 1017 79 0 1.04 146.905 01:40 15.09.2019
1911 Clouds 8 1017 78 0 1.39 140.252 01:19 15.09.2019
1912 Clouds 8 1017 78 0 1.39 140.252 00:43 15.09.2019
1913 Clouds 9 1014 74 0 1.41 143.358 00:22 15.09.2019
1914 Clouds 9 1014 74 0 1.41 143.358 23:58 14.09.2019
1915 Clouds 9 1014 74 0 1.41 143.358 23:40 14.09.2019
1916 Clouds 9 1014 74 0 1.41 143.358 23:21 14.09.2019
1917 Clouds 9 1014 74 0 1.41 143.358 22:59 14.09.2019
1918 Clouds 9 1014 74 0 1.41 143.358 22:40 14.09.2019
1919 Clouds 9 1014 74 0 1.41 143.358 22:21 14.09.2019
1920 Clouds 9 1014 74 0 1.41 143.358 21:57 14.09.2019
1921 Clouds 9 1014 74 0 1.41 143.358 21:39 14.09.2019
1922 Rain 10 1015 71 0 1.98 143.645 21:19 14.09.2019
1923 Rain 10 1015 71 0 1.98 143.645 20:54 14.09.2019
1924 Rain 10 1015 71 0 1.98 143.645 20:54 14.09.2019
1925 Rain 10 1015 71 0 1.98 143.645 20:54 14.09.2019
1926 Rain 10 1015 73 0 1.97 148.867 20:36 14.09.2019
1927 Rain 10 1015 73 0 1.97 148.867 20:18 14.09.2019
1928 Rain 10 1015 73 0 1.97 148.867 19:41 14.09.2019
1929 Rain 10 1015 73 0 1.97 148.867 19:20 14.09.2019
1930 Rain 10 1015 73 0 1.97 148.867 18:54 14.09.2019
1931 Rain 10 1015 73 0 1.97 148.867 18:36 14.09.2019
1932 Rain 14 1013 52 0 2.29 169.044 18:18 14.09.2019
1933 Rain 14 1013 52 0 2.29 169.044 17:41 14.09.2019
1934 Rain 14 1013 52 0 2.29 169.044 17:22 14.09.2019
1935 Rain 14 1013 52 0 2.29 169.044 16:46 14.09.2019
1936 Rain 14 1013 52 0 2.29 169.044 16:26 14.09.2019
1937 Rain 14 1013 52 0 2.29 169.044 15:56 14.09.2019
1938 Rain 14 1013 52 0 2.29 169.044 15:56 14.09.2019
1939 Rain 14 1013 52 0 2.29 169.044 15:38 14.09.2019
1940 Clouds 16 1008 49 0 0.38 51.054 15:18 14.09.2019
1941 Clouds 16 1008 49 0 0.38 51.054 14:43 14.09.2019
1942 Clouds 16 1008 49 0 0.38 51.054 14:19 14.09.2019
1943 Clouds 16 1008 49 0 0.38 51.054 13:48 14.09.2019
1944 Clouds 15 1007 47 0 0.59 112.59 13:23 14.09.2019
1945 Clouds 15 1007 47 0 0.59 112.59 12:58 14.09.2019
1946 Clouds 15 1007 47 0 0.59 112.59 12:37 14.09.2019
1947 Clouds 20 1005 32 0 1.31 228.534 12:18 14.09.2019
1948 Clouds 20 1005 32 0 1.31 228.534 11:40 14.09.2019
1949 Clouds 20 1005 32 0 1.31 228.534 11:19 14.09.2019
1950 Clouds 20 1005 32 0 1.31 228.534 10:39 14.09.2019
1951 Clouds 20 1005 32 0 1.31 228.534 10:20 14.09.2019
1952 Clouds 20 1005 32 0 1.31 228.534 09:57 14.09.2019
1953 Clouds 20 1005 32 0 1.31 228.534 09:39 14.09.2019
1954 Clouds 18 1010 39 0 2.42 203.195 09:19 14.09.2019
1955 Clouds 18 1010 39 0 2.55 201.404 08:46 14.09.2019
1956 Clouds 18 1010 39 0 2.55 201.404 08:24 14.09.2019
1957 Clouds 18 1010 39 0 2.55 201.404 07:48 14.09.2019
1958 Clouds 18 1010 39 0 2.55 201.404 07:28 14.09.2019
1959 Clouds 18 1010 39 0 2.55 201.404 06:52 14.09.2019
1960 Clouds 18 1010 39 0 2.55 201.404 06:52 14.09.2019
1961 Clouds 18 1010 39 0 2.55 201.404 06:28 14.09.2019
1962 Clouds 18 1010 39 0 2.55 201.404 06:28 14.09.2019
1963 Clouds 14 1016 52 0 2.34 175.434 05:26 14.09.2019
1964 Clouds 14 1016 52 0 2.34 175.434 03:46 14.09.2019
1965 Clouds 9 1016 74 0 1.15 125.885 02:54 14.09.2019
1966 Clouds 9 1016 74 0 1.15 125.885 01:54 14.09.2019
1967 Clouds 9 1017 75 0 1.55 139.607 01:23 14.09.2019
1968 Clouds 9 1017 75 0 1.55 139.607 00:59 14.09.2019
1969 Clouds 9 1017 75 0 1.55 139.607 00:39 14.09.2019
1970 Clouds 9 1014 74 0 1.71 153.181 00:20 14.09.2019
1971 Clouds 9 1014 74 0 1.71 153.181 23:38 13.09.2019
1972 Clouds 9 1014 74 0 1.71 153.181 23:19 13.09.2019
1973 Clouds 9 1014 74 0 1.71 153.181 22:59 13.09.2019
1974 Clouds 9 1014 74 0 1.71 153.181 22:38 13.09.2019
1975 Clouds 9 1014 74 0 1.71 153.181 22:20 13.09.2019
1976 Clouds 9 1014 74 0 1.71 153.181 21:54 13.09.2019
1977 Clouds 9 1014 74 0 1.71 153.181 21:54 13.09.2019
1978 Clouds 9 1014 74 0 1.71 153.181 21:36 13.09.2019
1979 Rain 11 1014 72 0 1.59 168.067 21:18 13.09.2019
1980 Rain 11 1014 72 0 1.59 168.067 20:55 13.09.2019
1981 Rain 11 1014 74 0 1.65 164.165 20:36 13.09.2019
1982 Rain 11 1014 74 0 1.65 164.165 20:18 13.09.2019
1983 Rain 11 1014 74 0 1.65 164.165 19:42 13.09.2019
1984 Rain 11 1014 74 0 1.65 164.165 19:20 13.09.2019
1985 Rain 11 1014 74 0 1.65 164.165 18:57 13.09.2019
1986 Rain 11 1014 74 0 1.65 164.165 18:37 13.09.2019
1987 Rain 12 1013 64 0 2.51 152.344 18:19 13.09.2019
1988 Rain 12 1013 64 0 2.51 152.344 17:43 13.09.2019
1989 Rain 12 1013 64 0 2.51 152.344 17:19 13.09.2019
1990 Rain 12 1013 64 0 2.51 152.344 16:54 13.09.2019
1991 Rain 12 1013 64 0 2.51 152.344 16:36 13.09.2019
1992 Rain 12 1013 64 0 2.51 152.344 16:18 13.09.2019
1993 Rain 12 1013 64 0 2.51 152.344 15:40 13.09.2019
1994 Clouds 17 1008 42 0 1.8 234.94 15:21 13.09.2019
1995 Clouds 17 1008 42 0 1.8 234.94 14:44 13.09.2019
1996 Clouds 17 1008 42 0 1.8 234.94 14:44 13.09.2019
1997 Clouds 17 1008 42 0 1.8 234.94 14:23 13.09.2019
1998 Clouds 17 1008 42 0 1.8 234.94 13:58 13.09.2019
1999 Clouds 17 1008 42 0 1.8 234.94 13:39 13.09.2019
2000 Clouds 16 1008 45 0 1.65 233.269 13:21 13.09.2019
2001 Clouds 16 1008 45 0 1.65 233.269 12:44 13.09.2019
2002 Clouds 19 1006 33 0 1.35 229.191 12:23 13.09.2019
2003 Clouds 19 1006 33 0 1.35 229.191 11:56 13.09.2019
2004 Clouds 19 1006 33 0 1.35 229.191 11:20 13.09.2019
2005 Clouds 19 1006 33 0 1.35 229.191 10:41 13.09.2019
2006 Clouds 19 1006 33 0 1.35 229.191 10:20 13.09.2019
2007 Clouds 19 1006 33 0 1.35 229.191 09:54 13.09.2019
2008 Clouds 19 1006 33 0 1.35 229.191 09:36 13.09.2019
2009 Clouds 19 1006 33 0 1.35 229.191 09:36 13.09.2019
2010 Clouds 18 1011 38 0 1.9 212.819 09:18 13.09.2019
2011 Clouds 18 1011 38 0 1.9 212.819 08:41 13.09.2019
2012 Clouds 18 1011 38 0 2.53 202.475 08:21 13.09.2019
2013 Clouds 18 1011 38 0 2.53 202.475 07:57 13.09.2019
2014 Clouds 18 1011 38 0 2.53 202.475 07:39 13.09.2019
2015 Clouds 18 1011 38 0 2.53 202.475 06:49 13.09.2019
2016 Clouds 14 1016 50 0 2.38 179.06 05:50 13.09.2019
2017 Clouds 14 1016 50 0 2.38 179.06 05:30 13.09.2019
2018 Clouds 14 1016 50 0 2.38 179.06 03:44 13.09.2019
2019 Clouds 8 1018 74 0 1.45 140.73 02:54 13.09.2019
2020 Clouds 8 1018 74 0 1.45 140.73 02:19 13.09.2019
2021 Clouds 8 1018 74 0 1.45 140.73 01:35 13.09.2019
2022 Clouds 8 1018 74 0 1.45 140.73 01:35 13.09.2019
2023 Clouds 8 1018 74 0 1.68 137.724 00:59 13.09.2019
2024 Clouds 8 1018 74 0 1.68 137.724 00:34 13.09.2019
2025 Clouds 9 1016 70 0 1.73 138.375 23:47 12.09.2019
2026 Clouds 9 1016 70 0 1.73 138.375 23:23 12.09.2019
2027 Clouds 9 1016 70 0 1.73 138.375 22:56 12.09.2019
2028 Clouds 9 1016 70 0 1.73 138.375 22:38 12.09.2019
2029 Clouds 9 1016 70 0 1.73 138.375 22:20 12.09.2019
2030 Clouds 9 1016 70 0 1.73 138.375 21:55 12.09.2019
2031 Clouds 9 1016 70 0 1.73 138.375 21:36 12.09.2019
2032 Rain 11 1017 63 0 2.32 156.193 21:18 12.09.2019
2033 Rain 11 1017 65 0 2.37 151.411 20:43 12.09.2019
2034 Rain 11 1017 65 0 2.37 151.411 20:22 12.09.2019
2035 Rain 11 1017 65 0 2.37 151.411 19:57 12.09.2019
2036 Rain 11 1017 65 0 2.37 151.411 19:38 12.09.2019
2037 Rain 11 1017 65 0 2.37 151.411 19:19 12.09.2019
2038 Rain 11 1017 65 0 2.37 151.411 19:19 12.09.2019
2039 Rain 11 1017 65 0 2.37 151.411 19:19 12.09.2019
2040 Rain 11 1017 65 0 2.37 151.411 19:19 12.09.2019
2041 Rain 11 1017 65 0 2.37 151.411 18:39 12.09.2019
2042 Rain 13 1015 57 0 2.62 170.002 18:21 12.09.2019
2043 Rain 13 1015 57 0 2.62 170.002 18:00 12.09.2019
2044 Rain 13 1015 57 0 2.62 170.002 17:39 12.09.2019
2045 Rain 13 1015 57 0 2.62 170.002 17:39 12.09.2019
2046 Rain 13 1015 57 0 2.62 170.002 17:20 12.09.2019
2047 Rain 13 1015 57 0 2.62 170.002 16:55 12.09.2019
2048 Rain 13 1015 57 0 2.62 170.002 16:36 12.09.2019
2049 Rain 13 1015 57 0 2.62 170.002 16:18 12.09.2019
2050 Rain 13 1015 57 0 2.62 170.002 15:40 12.09.2019
2051 Clouds 16 1010 45 0 1.98 145.579 15:21 12.09.2019
2052 Clouds 16 1010 45 0 1.98 145.579 14:45 12.09.2019
2053 Clouds 16 1010 45 0 1.98 145.579 14:45 12.09.2019
2054 Clouds 16 1010 45 0 1.98 145.579 14:21 12.09.2019
2055 -273 0 0 0 0 0 13:55 12.09.2019
2056 Clouds 16 1010 45 0 1.98 145.579 13:37 12.09.2019
2057 Clouds 17 1009 42 0 1.87 150.666 13:18 12.09.2019
2058 Clouds 17 1009 42 0 1.87 150.666 12:43 12.09.2019
2059 Clouds 20 1006 31 0 2.24 209.894 12:19 12.09.2019
2060 Clouds 20 1006 31 0 2.24 209.894 11:55 12.09.2019
2061 Clouds 20 1006 31 0 2.24 209.894 11:37 12.09.2019
2062 Clouds 20 1006 31 0 2.24 209.894 11:19 12.09.2019
2063 Clouds 20 1006 31 0 2.24 209.894 10:44 12.09.2019
2064 Clouds 20 1006 31 0 2.24 209.894 10:24 12.09.2019
2065 Clouds 20 1006 31 0 2.24 209.894 09:44 12.09.2019
2066 Rain 19 1010 39 0 2.48 196.173 09:23 12.09.2019
2067 Rain 19 1010 39 0 2.48 196.173 08:58 12.09.2019
2068 Clear 19 1010 38 0 2.53 204.167 08:39 12.09.2019
2069 Clear 19 1010 38 0 2.53 204.167 08:21 12.09.2019
2070 Clear 19 1010 38 0 2.53 204.167 07:39 12.09.2019
2071 Clear 19 1010 38 0 2.53 204.167 07:19 12.09.2019
2072 Clear 19 1010 38 0 2.53 204.167 06:50 12.09.2019
2073 Clear 14 1015 52 0 2.26 175.348 06:19 12.09.2019
2074 Clear 14 1015 52 0 2.26 175.348 05:49 12.09.2019
2075 Clear 14 1015 52 0 2.26 175.348 05:29 12.09.2019
2076 Clear 14 1015 52 0 2.26 175.348 04:35 12.09.2019
2077 Clouds 9 1017 78 0 1.32 140.595 02:24 12.09.2019
2078 Clouds 9 1017 77 0 1.37 138.976 01:30 12.09.2019
2079 Clouds 9 1017 77 0 1.37 138.976 00:59 12.09.2019
2080 Clouds 9 1017 77 0 1.37 138.976 00:41 12.09.2019
2081 Rain 10 1015 73 0 1.71 138.25 00:23 12.09.2019
2082 Rain 10 1015 73 0 1.71 138.25 23:41 11.09.2019
2083 Rain 10 1015 73 0 1.71 138.25 23:41 11.09.2019
2084 Rain 10 1015 73 0 1.71 138.25 23:21 11.09.2019
2085 Rain 10 1015 73 0 1.71 138.25 22:56 11.09.2019
2086 Rain 10 1015 73 0 1.71 138.25 22:37 11.09.2019
2087 Rain 10 1015 73 0 1.71 138.25 22:19 11.09.2019
2088 Rain 10 1015 73 0 1.71 138.25 22:19 11.09.2019
2089 Rain 10 1015 73 0 1.71 138.25 21:42 11.09.2019
2090 Rain 10 1015 73 0 1.71 138.25 21:42 11.09.2019
2091 Rain 10 1015 73 0 1.71 138.25 21:42 11.09.2019
2092 Rain 12 1015 65 0 2.19 158.165 21:24 11.09.2019
2093 Rain 12 1015 65 0 2.19 158.165 20:58 11.09.2019
2094 Rain 12 1015 63 0 2.69 146.263 20:39 11.09.2019
2095 Rain 12 1015 63 0 2.69 146.263 20:19 11.09.2019
2096 Rain 12 1015 63 0 2.69 146.263 19:58 11.09.2019
2097 Rain 12 1015 63 0 2.69 146.263 19:39 11.09.2019
2098 Rain 12 1015 63 0 2.69 146.263 19:21 11.09.2019
2099 Rain 12 1015 63 0 2.69 146.263 18:58 11.09.2019
2100 Rain 12 1015 63 0 2.69 146.263 18:38 11.09.2019
2101 Rain 14 1013 50 0 2.32 203.807 18:19 11.09.2019
2102 Rain 14 1013 50 0 2.32 203.807 17:55 11.09.2019
2103 Rain 14 1013 50 0 2.32 203.807 17:37 11.09.2019
2104 Rain 14 1013 50 0 2.32 203.807 17:19 11.09.2019
2105 Rain 14 1013 50 0 2.32 203.807 16:46 11.09.2019
2106 Rain 14 1013 50 0 2.32 203.807 16:25 11.09.2019
2107 Rain 14 1013 50 0 2.32 203.807 15:54 11.09.2019
2108 Rain 14 1013 50 0 2.32 203.807 15:54 11.09.2019
2109 Rain 14 1013 50 0 2.32 203.807 15:36 11.09.2019
2110 Clouds 17 1007 47 0 0.98 322.954 15:18 11.09.2019
2111 Clouds 17 1007 47 0 0.98 322.954 14:41 11.09.2019
2112 Clouds 17 1007 47 0 0.98 322.954 14:21 11.09.2019
2113 Clouds 17 1007 47 0 0.98 322.954 13:59 11.09.2019
2114 Clouds 17 1007 47 0 0.98 322.954 13:37 11.09.2019
2115 Clouds 17 1007 47 0 0.98 322.954 13:37 11.09.2019
2116 Clouds 17 1006 50 0 0.84 277.482 13:19 11.09.2019
2117 Clouds 17 1006 50 0 0.84 277.482 12:56 11.09.2019
2118 Clouds 17 1006 50 0 0.84 277.482 12:37 11.09.2019
2119 Clear 21 1005 31 0 1.36 197.279 12:19 11.09.2019
2120 Clear 21 1005 31 0 1.36 197.279 11:39 11.09.2019
2121 Clear 21 1005 31 0 1.36 197.279 11:21 11.09.2019
2122 Clear 21 1005 31 0 1.36 197.279 10:56 11.09.2019
2123 Clear 21 1005 31 0 1.36 197.279 10:38 11.09.2019
2124 Clear 21 1005 31 0 1.36 197.279 10:19 11.09.2019
2125 Clear 21 1005 31 0 1.36 197.279 09:39 11.09.2019
2126 Clear 19 1008 39 0 2.61 191.871 09:19 11.09.2019
2127 Clear 19 1008 39 0 2.61 191.871 08:55 11.09.2019
2128 Clear 19 1008 39 0 2.45 192.529 08:36 11.09.2019
2129 Clear 19 1008 39 0 2.45 192.529 08:18 11.09.2019
2130 Clear 19 1008 39 0 2.45 192.529 07:39 11.09.2019
2131 Clear 19 1008 39 0 2.45 192.529 07:21 11.09.2019
2132 Clear 19 1008 39 0 2.45 192.529 06:46 11.09.2019
2133 Clear 15 1013 54 0 1.9 177.097 06:24 11.09.2019
2134 Clear 15 1013 54 0 1.9 177.097 05:36 11.09.2019
2135 Clear 15 1013 54 0 1.9 177.097 05:18 11.09.2019
2136 Clear 15 1013 54 0 1.9 177.097 04:22 11.09.2019
2137 Clear 15 1013 54 0 1.9 177.097 03:29 11.09.2019
2138 Rain 9 1015 81 0 1.23 136.286 02:37 11.09.2019
2139 Clouds 9 1015 81 0 1.16 133.986 01:33 11.09.2019
2140 Clouds 9 1015 81 0 1.16 133.986 00:46 11.09.2019
2141 Rain 10 1013 74 0 0.94 123.233 00:20 11.09.2019
2142 Rain 10 1013 74 0 0.94 123.233 23:41 10.09.2019
2143 Rain 10 1013 74 0 0.94 123.233 23:41 10.09.2019
2144 Rain 10 1013 74 0 0.94 123.233 23:22 10.09.2019
2145 Rain 10 1013 74 0 0.94 123.233 22:57 10.09.2019
2146 Rain 10 1013 74 0 0.94 123.233 22:38 10.09.2019
2147 Rain 10 1013 74 0 0.94 123.233 22:19 10.09.2019
2148 Rain 10 1013 74 0 0.94 123.233 21:55 10.09.2019
2149 Rain 10 1013 74 0 0.94 123.233 21:37 10.09.2019
2150 Rain 11 1014 63 0 1.84 21.732 21:18 10.09.2019
2151 Rain 11 1014 63 0 1.84 21.732 20:56 10.09.2019
2152 Rain 11 1013 71 0 1.21 78.858 20:38 10.09.2019
2153 Rain 11 1013 71 0 1.21 78.858 20:38 10.09.2019
2154 Rain 11 1013 71 0 1.21 78.858 20:19 10.09.2019
2155 Rain 11 1013 71 0 1.21 78.858 19:55 10.09.2019
2156 Rain 11 1013 71 0 1.21 78.858 19:36 10.09.2019
2157 Rain 11 1013 71 0 1.21 78.858 19:18 10.09.2019
2158 Rain 11 1013 71 0 1.21 78.858 18:46 10.09.2019
2159 Rain 13 1012 54 0 0.94 151.468 18:23 10.09.2019
2160 Rain 13 1012 54 0 0.94 151.468 17:59 10.09.2019
2161 Rain 13 1012 54 0 0.94 151.468 17:41 10.09.2019
2162 Rain 13 1012 54 0 0.94 151.468 17:21 10.09.2019
2163 Rain 13 1012 54 0 0.94 151.468 16:57 10.09.2019
2164 Rain 13 1012 54 0 0.94 151.468 16:38 10.09.2019
2165 Rain 13 1012 54 0 0.94 151.468 16:19 10.09.2019
2166 Rain 13 1012 54 0 0.94 151.468 15:44 10.09.2019
2167 Rain 13 1012 54 0 0.94 151.468 15:44 10.09.2019
2168 Clouds 16 1005 49 0 0.37 326.012 15:23 10.09.2019
2169 Clouds 16 1005 49 0 0.37 326.012 14:59 10.09.2019
2170 Clouds 16 1005 49 0 0.37 326.012 14:59 10.09.2019
2171 Clouds 16 1005 49 0 0.37 326.012 14:40 10.09.2019
2172 Clouds 16 1005 49 0 0.37 326.012 14:22 10.09.2019
2173 Clouds 16 1005 49 0 0.37 326.012 13:48 10.09.2019
2174 Rain 16 1004 49 0 0.2 244.093 13:24 10.09.2019
2175 Rain 16 1004 49 0 0.2 244.093 12:56 10.09.2019
2176 Rain 16 1004 49 0 0.2 244.093 12:37 10.09.2019
2177 Clouds 21 1002 28 0 0.97 234.235 12:19 10.09.2019
2178 Clouds 21 1002 28 0 0.97 234.235 12:19 10.09.2019
2179 Clouds 21 1002 28 0 0.97 234.235 11:42 10.09.2019
2180 Clouds 21 1002 28 0 0.97 234.235 11:23 10.09.2019
2181 Clouds 21 1002 28 0 0.97 234.235 10:59 10.09.2019
2182 Clouds 21 1002 28 0 0.97 234.235 10:38 10.09.2019
2183 Clouds 21 1002 28 0 0.97 234.235 10:18 10.09.2019
2184 Clouds 21 1002 28 0 0.97 234.235 09:46 10.09.2019
2185 Clouds 19 1005 38 0 1.87 207.441 09:20 10.09.2019
2186 Clouds 19 1005 38 0 1.87 207.441 08:59 10.09.2019
2187 Rain 19 1005 38 0 2.02 194.456 08:41 10.09.2019
2188 Rain 19 1005 38 0 2.02 194.456 08:21 10.09.2019
2189 Rain 19 1005 38 0 2.02 194.456 07:44 10.09.2019
2190 Rain 19 1005 38 0 2.02 194.456 07:25 10.09.2019
2191 Rain 19 1005 38 0 2.02 194.456 06:48 10.09.2019
2192 Rain 19 1005 38 0 2.02 194.456 06:29 10.09.2019
2193 Clouds 14 1011 55 0 1.9 184.941 04:41 10.09.2019
2194 Rain 9 1014 84 0 0.72 122.09 02:44 10.09.2019
2195 Rain 9 1014 84 0 0.72 122.09 02:22 10.09.2019
2196 Rain 9 1014 84 0 0.72 122.09 02:22 10.09.2019
2197 Rain 9 1014 84 0 0.72 122.09 01:54 10.09.2019
2198 Rain 8 1014 85 0 0.91 142.941 01:24 10.09.2019
2199 Rain 8 1014 85 0 0.91 142.941 00:44 10.09.2019
2200 Rain 9 1012 81 0 1.2 134.293 00:24 10.09.2019
2201 Rain 9 1012 81 0 1.2 134.293 23:43 09.09.2019
2202 Rain 9 1012 81 0 1.2 134.293 23:20 09.09.2019
2203 Rain 9 1012 81 0 1.2 134.293 22:56 09.09.2019
2204 Rain 9 1012 81 0 1.2 134.293 22:37 09.09.2019
2205 Rain 9 1012 81 0 1.2 134.293 22:19 09.09.2019
2206 Rain 9 1012 81 0 1.2 134.293 21:56 09.09.2019
2207 Rain 9 1012 81 0 1.2 134.293 21:37 09.09.2019
2208 Rain 11 1012 70 0 0.58 140.194 21:19 09.09.2019
2209 Rain 11 1012 70 0 0.58 140.194 20:55 09.09.2019
2210 Rain 10 1012 79 0 1.62 62.977 20:37 09.09.2019
2211 Rain 10 1012 79 0 1.62 62.977 20:18 09.09.2019
2212 Rain 10 1012 79 0 1.62 62.977 20:18 09.09.2019
2213 Rain 10 1012 79 0 1.62 62.977 19:56 09.09.2019
2214 Rain 10 1012 79 0 1.62 62.977 19:38 09.09.2019
2215 Rain 10 1012 79 0 1.62 62.977 19:19 09.09.2019
2216 Rain 10 1012 79 0 1.62 62.977 18:56 09.09.2019
2217 Rain 10 1012 79 0 1.62 62.977 18:38 09.09.2019
2218 Rain 13 1011 56 0 1.42 19.876 18:19 09.09.2019
2219 Rain 13 1011 56 0 1.42 19.876 17:56 09.09.2019
2220 Rain 13 1011 56 0 1.42 19.876 17:38 09.09.2019
2221 Rain 13 1011 56 0 1.42 19.876 17:20 09.09.2019
2222 Rain 13 1011 56 0 1.42 19.876 17:20 09.09.2019
2223 Rain 13 1011 56 0 1.42 19.876 17:20 09.09.2019
2224 Rain 13 1011 56 0 1.42 19.876 16:55 09.09.2019
2225 Rain 13 1011 56 0 1.42 19.876 16:36 09.09.2019
2226 Rain 13 1011 56 0 1.42 19.876 16:18 09.09.2019
2227 Rain 13 1011 56 0 1.42 19.876 15:42 09.09.2019
2228 Clouds 17 1004 47 0 1.59 330.515 15:24 09.09.2019
2229 Clouds 17 1004 47 0 1.59 330.515 14:58 09.09.2019
2230 Clouds 17 1004 47 0 1.59 330.515 14:40 09.09.2019
2231 Clouds 17 1004 47 0 1.59 330.515 14:21 09.09.2019
2232 Clouds 17 1004 47 0 1.59 330.515 13:55 09.09.2019
2233 Clouds 17 1004 47 0 1.59 330.515 13:37 09.09.2019
2234 Clouds 17 1003 47 0 0.68 63.397 13:18 09.09.2019
2235 Clouds 17 1003 47 0 0.68 63.397 12:54 09.09.2019
2236 Clouds 17 1003 47 0 0.68 63.397 12:36 09.09.2019
2237 Clouds 21 1001 29 0 0.99 277.384 12:18 09.09.2019
2238 Clouds 21 1001 29 0 0.99 277.384 11:43 09.09.2019
2239 Clouds 21 1001 29 0 0.99 277.384 11:20 09.09.2019
2240 Clouds 21 1001 29 0 0.99 277.384 10:42 09.09.2019
2241 Clouds 21 1001 29 0 0.99 277.384 10:24 09.09.2019
2242 Clouds 21 1001 29 0 0.99 277.384 09:59 09.09.2019
2243 Clouds 21 1001 29 0 0.99 277.384 09:59 09.09.2019
2244 Clouds 21 1001 29 0 0.99 277.384 09:40 09.09.2019
2245 Rain 19 1005 37 0 2.12 192.723 09:22 09.09.2019
2246 Rain 19 1005 37 0 2.12 192.723 08:56 09.09.2019
2247 Rain 19 1005 37 0 2.27 188.719 08:37 09.09.2019
2248 Rain 19 1005 37 0 2.27 188.719 08:18 09.09.2019
2249 Rain 19 1005 37 0 2.27 188.719 07:41 09.09.2019
2250 Rain 19 1005 37 0 2.27 188.719 07:20 09.09.2019
2251 Rain 19 1005 37 0 2.27 188.719 06:53 09.09.2019
2252 Rain 19 1005 37 0 2.27 188.719 06:53 09.09.2019
2253 Rain 19 1005 37 0 2.27 188.719 06:27 09.09.2019
2254 Rain 9 1014 79 0 0.71 143.324 03:21 09.09.2019
2255 Rain 9 1014 79 0 0.71 143.324 02:42 09.09.2019
2256 Clouds 8 1014 77 0 1.47 146.019 01:24 09.09.2019
2257 Clouds 9 1012 71 0 1.77 145.527 00:24 09.09.2019
2258 Clouds 9 1012 71 0 1.77 145.527 23:56 08.09.2019
2259 Clouds 9 1012 71 0 1.77 145.527 23:38 08.09.2019
2260 Clouds 9 1012 71 0 1.77 145.527 23:19 08.09.2019
2261 Clouds 9 1012 71 0 1.77 145.527 22:41 08.09.2019
2262 Clouds 9 1012 71 0 1.77 145.527 22:22 08.09.2019
2263 Clouds 9 1012 71 0 1.77 145.527 21:59 08.09.2019
2264 Clouds 9 1012 71 0 1.77 145.527 21:40 08.09.2019
2265 Rain 11 1012 65 0 1.74 164.331 21:22 08.09.2019
2266 Rain 11 1012 65 0 1.74 164.331 20:55 08.09.2019
2267 Clouds 11 1012 63 0 2.02 168.913 20:37 08.09.2019
2268 Clouds 11 1012 63 0 2.02 168.913 20:18 08.09.2019
2269 Clouds 11 1012 63 0 2.02 168.913 19:39 08.09.2019
2270 Clouds 11 1012 63 0 2.02 168.913 19:21 08.09.2019
2271 Clouds 11 1012 63 0 2.02 168.913 18:59 08.09.2019
2272 Clouds 11 1012 63 0 2.02 168.913 18:39 08.09.2019
2273 Rain 13 1011 50 0 2.11 159.342 18:19 08.09.2019
2274 Rain 13 1011 50 0 2.11 159.342 17:59 08.09.2019
2275 Rain 13 1011 50 0 2.11 159.342 17:37 08.09.2019
2276 Rain 13 1011 50 0 2.11 159.342 17:19 08.09.2019
2277 Rain 13 1011 50 0 2.11 159.342 17:19 08.09.2019
2278 Rain 13 1011 50 0 2.11 159.342 17:19 08.09.2019
2279 Rain 13 1011 50 0 2.11 159.342 17:19 08.09.2019
2280 Rain 13 1011 50 0 2.11 159.342 17:19 08.09.2019
2281 Rain 13 1011 50 0 2.11 159.342 16:57 08.09.2019
2282 Rain 13 1011 50 0 2.11 159.342 16:39 08.09.2019
2283 Rain 13 1011 50 0 2.11 159.342 16:20 08.09.2019
2284 Rain 13 1011 50 0 2.11 159.342 15:42 08.09.2019
2285 Clouds 16 1005 48 0 0.33 252.884 15:23 08.09.2019
2286 Clouds 16 1005 48 0 0.33 252.884 14:59 08.09.2019
2287 Clouds 16 1005 48 0 0.33 252.884 14:40 08.09.2019
2288 Clouds 16 1005 48 0 0.33 252.884 14:21 08.09.2019
2289 Clouds 16 1005 48 0 0.33 252.884 13:58 08.09.2019
2290 Clouds 16 1005 48 0 0.33 252.884 13:40 08.09.2019
2291 Clouds 17 1004 48 0 0.51 207.514 13:21 08.09.2019
2292 Clouds 17 1004 48 0 0.51 207.514 12:55 08.09.2019
2293 Clouds 17 1004 48 0 0.51 207.514 12:37 08.09.2019
2294 Clouds 21 1002 30 0 1.03 228.856 12:18 08.09.2019
2295 Clouds 21 1002 30 0 1.03 228.856 11:56 08.09.2019
2296 Clouds 21 1002 30 0 1.03 228.856 11:37 08.09.2019
2297 Clouds 21 1002 30 0 1.03 228.856 11:18 08.09.2019
2298 Clouds 21 1002 30 0 1.03 228.856 10:42 08.09.2019
2299 Clouds 21 1002 30 0 1.03 228.856 10:23 08.09.2019
2300 Clouds 21 1002 30 0 1.03 228.856 09:56 08.09.2019
2301 Clouds 21 1002 30 0 1.03 228.856 09:37 08.09.2019
2302 Clouds 19 1007 37 0 2.19 200.185 09:19 08.09.2019
2303 Clear 18 1007 37 0 2.12 198.555 08:39 08.09.2019
2304 Clear 18 1007 37 0 2.12 198.555 08:19 08.09.2019
2305 Clear 18 1007 37 0 2.12 198.555 07:43 08.09.2019
2306 Clear 18 1007 37 0 2.12 198.555 07:22 08.09.2019
2307 Clear 18 1007 37 0 2.12 198.555 06:57 08.09.2019
2308 Clear 18 1007 37 0 2.12 198.555 06:38 08.09.2019
2309 Clear 15 1012 50 0 2.43 174.763 05:40 08.09.2019
2310 Clear 15 1012 50 0 2.43 174.763 05:21 08.09.2019
2311 Clouds 9 1016 72 0 1.59 139.055 03:23 08.09.2019
2312 Clouds 9 1016 72 0 1.59 139.055 02:48 08.09.2019
2313 Clouds 9 1016 72 0 1.59 139.055 01:54 08.09.2019
2314 Clouds 9 1016 72 0 1.59 143.26 01:29 08.09.2019
2315 Clouds 9 1016 72 0 1.59 143.26 00:49 08.09.2019
2316 Clouds 9 1016 72 0 1.59 143.26 00:30 08.09.2019
2317 Clouds 11 1014 63 0 1.84 163.069 23:57 07.09.2019
2318 Clouds 11 1014 63 0 1.84 163.069 23:37 07.09.2019
2319 Clouds 11 1014 63 0 1.84 163.069 23:18 07.09.2019
2320 Clouds 11 1014 63 0 1.84 163.069 22:43 07.09.2019
2321 Clouds 11 1014 63 0 1.84 163.069 22:25 07.09.2019
2322 Clouds 11 1014 63 0 1.84 163.069 22:25 07.09.2019
2323 Clouds 11 1014 63 0 1.84 163.069 21:57 07.09.2019
2324 Clouds 11 1014 63 0 1.84 163.069 21:38 07.09.2019
2325 Clouds 11 1014 63 0 1.84 163.069 21:38 07.09.2019
2326 Clouds 13 1014 58 0 2.06 182.363 21:20 07.09.2019
2327 Clouds 13 1014 58 0 2.06 182.363 21:20 07.09.2019
2328 Rain 13 1013 63 0 1.83 190.529 20:40 07.09.2019
2329 Rain 13 1013 63 0 1.83 190.529 20:21 07.09.2019
2330 Rain 13 1013 63 0 1.83 190.529 19:57 07.09.2019
2331 Rain 13 1013 63 0 1.83 190.529 19:38 07.09.2019
2332 Rain 13 1013 63 0 1.83 190.529 19:20 07.09.2019
2333 Rain 13 1013 63 0 1.83 190.529 18:59 07.09.2019
2334 Rain 13 1013 63 0 1.83 190.529 18:39 07.09.2019
2335 Rain 12 1012 67 0 0.52 147.384 18:20 07.09.2019
2336 Rain 12 1012 67 0 0.52 147.384 17:59 07.09.2019
2337 Rain 12 1012 67 0 0.52 147.384 17:39 07.09.2019
2338 Rain 12 1012 67 0 0.52 147.384 17:18 07.09.2019
2339 Rain 12 1012 67 0 0.52 147.384 16:57 07.09.2019
2340 Rain 12 1012 67 0 0.52 147.384 16:39 07.09.2019
2341 Rain 12 1012 67 0 0.52 147.384 16:19 07.09.2019
2342 Rain 12 1012 67 0 0.52 147.384 15:45 07.09.2019
2343 Rain 12 1012 67 0 0.52 147.384 15:26 07.09.2019
2344 Clouds 15 1007 55 0 1.1 0.104 14:56 07.09.2019
2345 Clouds 15 1007 55 0 1.1 0.104 14:36 07.09.2019
2346 Clouds 15 1007 55 0 1.1 0.104 14:18 07.09.2019
2347 Clouds 15 1007 55 0 1.1 0.104 13:56 07.09.2019
2348 Clouds 15 1007 55 0 1.1 0.104 13:56 07.09.2019
2349 Clouds 15 1007 55 0 1.1 0.104 13:37 07.09.2019
2350 Clouds 16 1007 52 0 1.71 7.113 13:19 07.09.2019
2351 Clouds 16 1007 52 0 1.71 7.113 12:43 07.09.2019
2352 Clouds 19 1005 38 0 0.59 149.405 12:24 07.09.2019
2353 Clouds 19 1005 38 0 0.59 149.405 11:41 07.09.2019
2354 Clouds 19 1005 38 0 0.59 149.405 11:22 07.09.2019
2355 Clouds 19 1005 38 0 0.59 149.405 10:58 07.09.2019
2356 Clouds 19 1005 38 0 0.59 149.405 10:37 07.09.2019
2357 Clouds 19 1005 38 0 0.59 149.405 10:19 07.09.2019
2358 Clouds 19 1005 38 0 0.59 149.405 09:43 07.09.2019
2359 Rain 17 1010 45 0 1.4 194.704 09:23 07.09.2019
2360 Rain 17 1010 45 0 1.4 194.704 08:57 07.09.2019
2361 Rain 17 1010 45 0 1.4 194.704 08:57 07.09.2019
2362 Rain 16 1010 49 0 0.92 3.44 08:37 07.09.2019
2363 Rain 16 1010 49 0 0.92 3.44 08:19 07.09.2019
2364 Rain 16 1010 49 0 0.92 3.44 07:44 07.09.2019
2365 Rain 16 1010 49 0 0.92 3.44 07:24 07.09.2019
2366 Rain 16 1010 49 0 0.92 3.44 06:43 07.09.2019
2367 Clouds 12 1013 64 0 0.61 176.441 06:19 07.09.2019
2368 Clouds 12 1013 64 0 0.61 176.441 04:33 07.09.2019
2369 Clouds 12 1013 64 0 0.61 176.441 03:49 07.09.2019
2370 Rain 10 1014 73 0 1.21 151.894 02:43 07.09.2019
2371 Rain 10 1014 73 0 1.21 151.894 01:44 07.09.2019
2372 Rain 8 1014 88 0 2.84 13.365 00:56 07.09.2019
2373 Rain 8 1014 88 0 2.84 13.365 00:37 07.09.2019
2374 Rain 10 1011 76 0 1.33 188.861 00:18 07.09.2019
2375 Rain 10 1011 76 0 1.33 188.861 23:38 06.09.2019
2376 Rain 10 1011 76 0 1.33 188.861 23:38 06.09.2019
2377 Rain 10 1011 76 0 1.33 188.861 23:20 06.09.2019
2378 Rain 10 1011 76 0 1.33 188.861 22:57 06.09.2019
2379 Rain 10 1011 76 0 1.33 188.861 22:37 06.09.2019
2380 Rain 10 1011 76 0 1.33 188.861 22:19 06.09.2019
2381 Rain 10 1011 76 0 1.33 188.861 21:56 06.09.2019
2382 Rain 10 1011 76 0 1.33 188.861 21:38 06.09.2019
2383 Rain 11 1011 75 0 0.46 170.802 21:19 06.09.2019
2384 Rain 11 1011 75 0 0.46 170.802 20:55 06.09.2019
2385 Rain 11 1011 74 0 1.2 143.684 20:37 06.09.2019
2386 Rain 11 1011 74 0 1.2 143.684 20:18 06.09.2019
2387 Rain 11 1011 74 0 1.2 143.684 19:42 06.09.2019
2388 Rain 11 1011 74 0 1.2 143.684 19:24 06.09.2019
2389 Rain 11 1011 74 0 1.2 143.684 18:58 06.09.2019
2390 Rain 11 1011 74 0 1.2 143.684 18:39 06.09.2019
2391 Rain 13 1009 67 0 0.59 348.863 18:21 06.09.2019
2392 Rain 13 1009 67 0 0.59 348.863 17:56 06.09.2019
2393 Rain 13 1009 67 0 0.59 348.863 17:37 06.09.2019
2394 Rain 13 1009 67 0 0.59 348.863 17:18 06.09.2019
2395 Rain 13 1009 67 0 0.59 348.863 16:38 06.09.2019
2396 Rain 13 1009 67 0 0.59 348.863 16:18 06.09.2019
2397 Rain 13 1009 67 0 0.59 348.863 15:41 06.09.2019
2398 Clouds 17 1005 46 0 1.47 317.377 15:23 06.09.2019
2399 Clouds 17 1005 46 0 1.47 317.377 14:48 06.09.2019
2400 Clouds 17 1005 46 0 1.47 317.377 14:20 06.09.2019
2401 Clouds 17 1005 46 0 1.47 317.377 13:55 06.09.2019
2402 Clouds 18 1004 44 0 1.47 281.923 13:37 06.09.2019
2403 Clouds 18 1004 44 0 1.47 281.923 13:18 06.09.2019
2404 Clouds 18 1004 44 0 1.47 281.923 12:38 06.09.2019
2405 Rain 21 1002 30 0 1.49 190.153 12:18 06.09.2019
2406 Rain 21 1002 30 0 1.49 190.153 11:43 06.09.2019
2407 Rain 21 1002 30 0 1.49 190.153 11:24 06.09.2019
2408 Rain 21 1002 30 0 1.49 190.153 10:59 06.09.2019
2409 Rain 21 1002 30 0 1.49 190.153 10:40 06.09.2019
2410 Clouds 21 1002 29 0 1.32 202.489 10:21 06.09.2019
2411 Clouds 21 1002 29 0 1.32 202.489 09:41 06.09.2019
2412 Clouds 19 1006 37 0 2.76 187.287 09:21 06.09.2019
2413 Clouds 19 1006 37 0 2.76 187.287 08:58 06.09.2019
2414 Clouds 19 1006 37 0 2.76 187.287 08:58 06.09.2019
2415 Clouds 19 1006 37 0 2.76 187.287 08:39 06.09.2019
2416 Clouds 19 1006 37 0 2.76 187.287 08:39 06.09.2019
2417 Clouds 19 1006 37 0 2.76 187.287 08:21 06.09.2019
2418 Clouds 19 1006 37 0 2.76 187.287 07:47 06.09.2019
2419 Clouds 19 1006 37 0 2.76 187.287 07:27 06.09.2019
2420 Clouds 19 1006 37 0 2.76 187.287 06:57 06.09.2019
2421 Clear 14 1010 51 0 2.36 169.394 06:21 06.09.2019
2422 Clear 14 1010 51 0 2.36 169.394 05:43 06.09.2019
2423 Clear 14 1010 51 0 2.36 169.394 04:48 06.09.2019
2424 Clear 14 1010 51 0 2.36 169.394 03:52 06.09.2019
2425 Clouds 8 1012 77 0 2.03 145.269 02:23 06.09.2019
2426 Clouds 8 1012 77 0 1.99 144.379 00:44 06.09.2019
2427 Clouds 9 1010 66 0 2.24 148.607 23:55 05.09.2019
2428 Clouds 9 1010 66 0 2.24 148.607 23:37 05.09.2019
2429 Clouds 9 1010 66 0 2.24 148.607 23:18 05.09.2019
2430 Clouds 9 1010 66 0 2.24 148.607 22:42 05.09.2019
2431 Clouds 9 1010 66 0 2.24 148.607 22:24 05.09.2019
2432 Clouds 9 1010 66 0 2.24 148.607 21:56 05.09.2019
2433 Clouds 9 1010 66 0 2.24 148.607 21:37 05.09.2019
2434 Clouds 11 1010 54 0 1.71 168.539 21:19 05.09.2019
2435 Clouds 11 1010 54 0 1.71 168.539 20:57 05.09.2019
2436 Clouds 11 1010 56 0 1.64 166.548 20:37 05.09.2019
2437 Clouds 11 1010 56 0 1.64 166.548 20:19 05.09.2019
2438 Clouds 11 1010 56 0 1.64 166.548 20:19 05.09.2019
2439 Clouds 11 1010 56 0 1.64 166.548 19:55 05.09.2019
2440 Clouds 11 1010 56 0 1.64 166.548 19:36 05.09.2019
2441 Clouds 11 1010 56 0 1.64 166.548 19:18 05.09.2019
2442 Clouds 11 1010 56 0 1.64 166.548 18:40 05.09.2019
2443 Clouds 12 1009 55 0 0.54 188.779 18:20 05.09.2019
2444 Clouds 12 1009 55 0 0.54 188.779 17:56 05.09.2019
2445 Clouds 12 1009 55 0 0.54 188.779 17:38 05.09.2019
2446 Clouds 12 1009 55 0 0.54 188.779 17:20 05.09.2019
2447 Clouds 12 1009 55 0 0.54 188.779 16:41 05.09.2019
2448 Clouds 12 1009 55 0 0.54 188.779 16:21 05.09.2019
2449 Clouds 12 1009 55 0 0.54 188.779 15:58 05.09.2019
2450 Clouds 12 1009 55 0 0.54 188.779 15:39 05.09.2019
2451 Clouds 16 1005 47 0 1.29 298.685 15:19 05.09.2019
2452 Clouds 16 1005 47 0 1.29 298.685 15:19 05.09.2019
2453 Clouds 16 1005 47 0 1.29 298.685 14:44 05.09.2019
2454 Clouds 16 1005 47 0 1.29 298.685 14:23 05.09.2019
2455 Clouds 16 1005 47 0 1.29 298.685 13:59 05.09.2019
2456 Clouds 16 1005 47 0 1.29 298.685 13:39 05.09.2019
2457 Clouds 17 1004 47 0 1.06 291.116 13:18 05.09.2019
2458 Clouds 17 1004 47 0 1.06 291.116 12:42 05.09.2019
2459 Clouds 20 1002 30 0 2.47 276.348 12:24 05.09.2019
2460 Clouds 20 1002 30 0 2.47 276.348 11:45 05.09.2019
2461 Clouds 20 1002 30 0 2.47 276.348 11:20 05.09.2019
2462 Clouds 20 1002 30 0 2.47 276.348 10:59 05.09.2019
2463 Clouds 20 1002 30 0 2.47 276.348 10:37 05.09.2019
2464 Clouds 20 1002 30 0 2.47 276.348 10:19 05.09.2019
2465 Clouds 20 1002 30 0 2.47 276.348 09:41 05.09.2019
2466 Rain 19 1007 36 0 1.81 180.695 09:22 05.09.2019
2467 Rain 19 1007 36 0 1.81 180.695 08:57 05.09.2019
2468 Rain 19 1007 36 0 1.81 180.695 08:39 05.09.2019
2469 Rain 19 1007 36 0 1.81 180.695 08:21 05.09.2019
2470 Rain 19 1007 36 0 1.81 180.695 07:44 05.09.2019
2471 Rain 19 1007 36 0 1.81 180.695 07:25 05.09.2019
2472 Rain 19 1007 36 0 1.81 180.695 06:48 05.09.2019
2473 Rain 19 1007 36 0 1.81 180.695 06:28 05.09.2019
2474 Rain 14 1012 55 0 2.33 176.755 05:47 05.09.2019
2475 Rain 14 1012 55 0 2.33 176.755 05:28 05.09.2019
2476 Rain 14 1012 55 0 2.33 176.755 04:45 05.09.2019
2477 Rain 14 1012 55 0 2.33 176.755 04:19 05.09.2019
2478 Clear 8 1015 82 0 0.74 145.704 03:22 05.09.2019
2479 Clear 8 1015 82 0 0.74 145.704 02:40 05.09.2019
2480 Clear 8 1015 82 0 0.74 145.704 02:18 05.09.2019
2481 Clear 8 1014 82 0 1.36 151.056 01:19 05.09.2019
2482 Clear 8 1014 82 0 1.36 151.056 00:40 05.09.2019
2483 Clear 8 1013 80 0 0.79 131.976 00:20 05.09.2019
2484 Clear 8 1013 80 0 0.79 131.976 23:45 04.09.2019
2485 Clear 8 1013 80 0 0.79 131.976 23:23 04.09.2019
2486 Clear 8 1013 80 0 0.79 131.976 22:57 04.09.2019
2487 Clear 8 1013 80 0 0.79 131.976 22:38 04.09.2019
2488 Clear 8 1013 80 0 0.79 131.976 22:18 04.09.2019
2489 Clear 8 1012 81 0 1.05 146.841 21:39 04.09.2019
2490 Rain 9 1013 73 0 1.2 145.281 21:20 04.09.2019
2491 Rain 9 1013 73 0 1.2 145.281 20:56 04.09.2019
2492 Rain 9 1013 73 0 1.2 145.281 20:37 04.09.2019
2493 Rain 9 1013 73 0 1.2 145.281 20:18 04.09.2019
2494 Rain 9 1013 73 0 1.2 145.281 19:45 04.09.2019
2495 Rain 9 1013 73 0 1.2 145.281 19:25 04.09.2019
2496 Rain 9 1013 73 0 1.2 145.281 18:58 04.09.2019
2497 Rain 9 1013 73 0 1.2 145.281 18:38 04.09.2019
2498 Rain 11 1012 68 0 0.87 221.13 18:19 04.09.2019
2499 Rain 11 1012 68 0 0.87 221.13 17:41 04.09.2019
2500 Rain 11 1012 68 0 0.87 221.13 17:23 04.09.2019
2501 Rain 11 1012 68 0 0.87 221.13 16:57 04.09.2019
2502 Rain 11 1012 68 0 0.87 221.13 16:39 04.09.2019
2503 Rain 11 1012 68 0 0.87 221.13 16:20 04.09.2019
2504 Rain 11 1012 68 0 0.87 221.13 15:55 04.09.2019
2505 Rain 11 1012 68 0 0.87 221.13 15:37 04.09.2019
2506 Clouds 14 1007 60 0 0.43 177.884 15:18 04.09.2019
2507 Clouds 14 1007 60 0 0.43 177.884 14:54 04.09.2019
2508 Clouds 14 1007 60 0 0.43 177.884 14:36 04.09.2019
2509 Clouds 14 1007 60 0 0.43 177.884 14:18 04.09.2019
2510 Clouds 14 1007 60 0 0.43 177.884 13:39 04.09.2019
2511 Rain 15 1006 58 0 0.06 52.943 13:21 04.09.2019
2512 Rain 15 1006 58 0 0.06 52.943 12:46 04.09.2019
2513 Rain 15 1006 58 0 0.06 52.943 12:27 04.09.2019
2514 Rain 18 1005 42 0 1.09 229.102 11:58 04.09.2019
2515 Rain 18 1005 42 0 1.09 229.102 11:40 04.09.2019
2516 Rain 18 1005 42 0 1.09 229.102 11:21 04.09.2019
2517 Rain 18 1005 42 0 1.09 229.102 10:57 04.09.2019
2518 Rain 18 1005 42 0 1.09 229.102 10:38 04.09.2019
2519 Rain 18 1005 42 0 1.09 229.102 10:20 04.09.2019
2520 Clouds 18 1005 41 0 1.14 226.066 09:46 04.09.2019
2521 Rain 15 1010 53 0 0.82 184.873 09:21 04.09.2019
2522 Rain 15 1010 53 0 0.82 184.873 08:43 04.09.2019
2523 Rain 15 1010 53 0 0.82 184.873 08:24 04.09.2019
2524 Rain 15 1010 53 0 0.82 184.873 08:00 04.09.2019
2525 Rain 15 1010 53 0 0.82 184.873 07:40 04.09.2019
2526 Rain 15 1010 53 0 0.82 184.873 07:22 04.09.2019
2527 Rain 15 1010 53 0 0.82 184.873 06:39 04.09.2019
2528 Rain 10 1015 73 0 1.61 127.869 04:56 04.09.2019
2529 Rain 10 1015 73 0 1.61 127.869 04:24 04.09.2019
2530 Rain 10 1015 73 0 1.61 127.869 03:39 04.09.2019
2531 Rain 9 1015 87 0 1.97 173.268 01:21 04.09.2019
2532 Rain 9 1015 87 0 1.97 173.268 01:21 04.09.2019
2533 Rain 9 1015 87 0 1.97 173.268 00:46 04.09.2019
2534 Rain 9 1015 87 0 1.97 173.268 00:27 04.09.2019
2535 Rain 9 1014 87 0 0.54 237.309 23:53 03.09.2019
2536 Rain 9 1014 87 0 0.54 237.309 23:27 03.09.2019
2537 Rain 9 1014 87 0 0.54 237.309 22:57 03.09.2019
2538 Rain 9 1014 87 0 0.54 237.309 22:57 03.09.2019
2539 Rain 9 1014 87 0 0.54 237.309 22:38 03.09.2019
2540 Rain 9 1014 87 0 0.54 237.309 22:20 03.09.2019
2541 Rain 9 1014 86 0 1.05 205.047 21:55 03.09.2019
2542 Rain 9 1014 86 0 1.05 205.047 21:36 03.09.2019
2543 Rain 9 1015 88 0 0.89 200.714 21:18 03.09.2019
2544 Rain 9 1015 88 0 0.89 200.714 20:41 03.09.2019
2545 Rain 9 1015 88 0 0.89 200.714 20:21 03.09.2019
2546 Rain 9 1015 88 0 0.89 200.714 19:55 03.09.2019
2547 Rain 9 1015 88 0 0.89 200.714 19:37 03.09.2019
2548 Rain 9 1015 88 0 0.89 200.714 19:18 03.09.2019
2549 Rain 9 1015 88 0 0.89 200.714 18:44 03.09.2019
2550 Rain 9 1015 88 0 0.89 200.714 18:25 03.09.2019
2551 -273 0 0 0 0 0 18:25 03.09.2019
2552 Rain 10 1015 79 0 1.62 330.29 17:57 03.09.2019
2553 Rain 10 1015 79 0 1.62 330.29 17:39 03.09.2019
2554 Rain 10 1015 79 0 1.62 330.29 17:19 03.09.2019
2555 Rain 10 1015 79 0 1.62 330.29 16:44 03.09.2019
2556 Rain 10 1015 79 0 1.62 330.29 16:23 03.09.2019
2557 Rain 10 1015 79 0 1.62 330.29 15:59 03.09.2019
2558 Rain 10 1015 79 0 1.62 330.29 15:39 03.09.2019
2559 Clouds 13 1010 62 0 0.47 132.936 15:21 03.09.2019
2560 Clouds 13 1010 62 0 0.47 132.936 14:57 03.09.2019
2561 Clouds 13 1010 62 0 0.47 132.936 14:39 03.09.2019
2562 Clouds 13 1010 62 0 0.47 132.936 14:20 03.09.2019
2563 Clouds 13 1010 62 0 0.47 132.936 13:56 03.09.2019
2564 Clouds 13 1010 62 0 0.47 132.936 13:37 03.09.2019
2565 Clouds 13 1009 60 0 0.37 150.524 13:19 03.09.2019
2566 Clouds 13 1009 60 0 0.37 150.524 12:48 03.09.2019
2567 Clouds 13 1009 60 0 0.37 150.524 12:29 03.09.2019
2568 Clouds 14 1008 55 0 0.63 108.03 11:57 03.09.2019
2569 Clouds 14 1008 55 0 0.63 108.03 11:38 03.09.2019
2570 Clouds 14 1008 55 0 0.63 108.03 11:18 03.09.2019
2571 Clouds 14 1008 55 0 0.63 108.03 10:41 03.09.2019
2572 Clouds 14 1008 55 0 0.63 108.03 10:22 03.09.2019
2573 Clouds 14 1008 55 0 0.63 108.03 09:53 03.09.2019
2574 Clouds 14 1007 58 0 0.83 196.971 09:34 03.09.2019
2575 Rain 8 1012 80 0 1.17 148.893 08:59 03.09.2019
2576 Rain 8 1012 80 0 1.17 148.893 08:39 03.09.2019
2577 Rain 8 1012 80 0 1.17 148.893 08:21 03.09.2019
2578 Rain 8 1012 80 0 1.17 148.893 07:54 03.09.2019
2579 Rain 8 1012 80 0 1.17 148.893 07:36 03.09.2019
2580 Rain 8 1012 80 0 1.17 148.893 07:18 03.09.2019
2581 Rain 8 1012 80 0 1.17 148.893 06:41 03.09.2019
2582 Rain 7 1015 91 0 2.4 111.987 03:45 03.09.2019
2583 Rain 8 1015 83 0 2.62 149.141 02:59 03.09.2019
2584 Rain 8 1015 83 0 2.62 149.141 02:38 03.09.2019
2585 Rain 8 1015 83 0 2.62 149.141 02:20 03.09.2019
2586 Rain 8 1015 83 0 2.62 149.141 01:43 03.09.2019
2587 Rain 9 1015 80 0 2.39 151.699 01:25 03.09.2019
2588 Rain 9 1015 80 0 2.39 151.699 00:31 03.09.2019
2589 Clouds 10 1014 78 0 2.02 132.871 23:57 02.09.2019
2590 Clouds 10 1014 78 0 2.02 132.871 23:37 02.09.2019
2591 Clouds 10 1014 78 0 2.02 132.871 23:19 02.09.2019
2592 Clouds 10 1014 78 0 2.02 132.871 22:55 02.09.2019
2593 Clouds 10 1014 78 0 2.02 132.871 22:55 02.09.2019
2594 -273 0 0 0 0 0 22:55 02.09.2019
2595 Clouds 10 1014 78 0 2.02 132.871 22:55 02.09.2019
2596 Clouds 10 1014 78 0 2.02 132.871 22:36 02.09.2019
2597 Clouds 10 1014 78 0 2.02 132.871 22:18 02.09.2019
2598 Clouds 10 1014 78 0 2.02 132.871 21:55 02.09.2019
2599 Rain 7 1014 89 0 3.61 160.586 21:36 02.09.2019
2600 Rain 11 1014 73 0 1.58 142.323 21:18 02.09.2019
2601 Rain 11 1014 73 0 1.58 142.323 20:41 02.09.2019
2602 Rain 11 1014 73 0 1.58 142.323 20:23 02.09.2019
2603 Rain 11 1014 73 0 1.58 142.323 19:58 02.09.2019
2604 Rain 11 1014 73 0 1.58 142.323 19:40 02.09.2019
2605 Rain 11 1014 73 0 1.58 142.323 19:21 02.09.2019
2606 Rain 11 1014 73 0 1.58 142.323 18:56 02.09.2019
2607 Rain 11 1014 73 0 1.58 142.323 18:36 02.09.2019
2608 Rain 11 1013 73 0 1.96 13.894 18:18 02.09.2019
2609 Rain 11 1013 73 0 1.96 13.894 17:40 02.09.2019
2610 Rain 11 1013 73 0 1.96 13.894 17:21 02.09.2019
2611 Rain 11 1013 73 0 1.96 13.894 16:59 02.09.2019
2612 Rain 11 1013 73 0 1.96 13.894 16:39 02.09.2019
2613 Rain 11 1013 73 0 1.96 13.894 16:20 02.09.2019
2614 Rain 11 1013 73 0 1.96 13.894 15:46 02.09.2019
2615 Rain 11 1013 73 0 1.96 13.894 15:27 02.09.2019
2616 Rain 12 1009 73 0 3.88 19.56 14:58 02.09.2019
2617 Rain 12 1009 73 0 3.88 19.56 14:40 02.09.2019
2618 Rain 12 1009 73 0 3.88 19.56 14:22 02.09.2019
2619 Rain 12 1009 73 0 3.88 19.56 13:56 02.09.2019
2620 Rain 12 1009 73 0 3.88 19.56 13:37 02.09.2019
2621 Rain 12 1008 70 0 6.25 347.186 13:19 02.09.2019
2622 Rain 12 1008 70 0 6.25 347.186 12:45 02.09.2019
2623 Rain 12 1008 70 0 6.25 347.186 12:25 02.09.2019
2624 Rain 19 1007 35 0 1.36 331.003 11:58 02.09.2019
2625 Rain 19 1007 35 0 1.36 331.003 11:39 02.09.2019
2626 Rain 19 1007 35 0 1.36 331.003 11:21 02.09.2019
2627 Rain 19 1007 35 0 1.36 331.003 10:57 02.09.2019
2628 Rain 19 1007 35 0 1.36 331.003 10:38 02.09.2019
2629 Rain 19 1007 35 0 1.36 331.003 10:38 02.09.2019
2630 Rain 19 1007 35 0 1.36 331.003 10:19 02.09.2019
2631 Rain 19 1007 35 0 1.36 331.003 09:46 02.09.2019
2632 Clouds 18 1011 39 0 1.76 207.701 09:22 02.09.2019
2633 Clouds 18 1011 39 0 1.76 207.701 08:45 02.09.2019
2634 Clouds 18 1011 39 0 1.76 207.701 08:24 02.09.2019
2635 Clouds 18 1011 39 0 1.76 207.701 07:59 02.09.2019
2636 Clouds 18 1011 39 0 1.76 207.701 07:40 02.09.2019
2637 Clouds 18 1011 39 0 1.76 207.701 07:21 02.09.2019
2638 Clouds 18 1011 39 0 1.76 207.701 06:44 02.09.2019
2639 -273 0 0 0 0 0 06:25 02.09.2019
2640 Clouds 14 1015 56 0 0.8 156.256 05:47 02.09.2019
2641 Clouds 14 1015 56 0 0.8 156.256 05:18 02.09.2019
2642 Rain 9 1016 78 0 1.74 31.331 02:59 02.09.2019
2643 Rain 9 1016 78 0 1.74 31.331 01:45 02.09.2019
2644 Rain 11 1016 71 0 1.14 102.855 00:47 02.09.2019
2645 Rain 11 1016 71 0 1.14 102.855 00:28 02.09.2019
2646 Rain 11 1014 74 0 1.82 90.915 23:43 01.09.2019
2647 Rain 11 1014 74 0 1.82 90.915 23:22 01.09.2019
2648 Rain 11 1014 74 0 1.82 90.915 22:58 01.09.2019
2649 Rain 11 1014 74 0 1.82 90.915 22:39 01.09.2019
2650 Rain 11 1014 74 0 1.82 90.915 22:39 01.09.2019
2651 Rain 11 1014 74 0 1.82 90.915 22:19 01.09.2019
2652 Rain 11 1014 74 0 1.82 90.915 21:57 01.09.2019
2653 Rain 11 1014 68 0 2.02 139.408 21:38 01.09.2019
2654 Rain 12 1013 64 0 1.97 178.023 21:20 01.09.2019
2655 Rain 12 1013 64 0 1.97 178.023 20:56 01.09.2019
2656 Rain 12 1013 64 0 1.97 178.023 20:36 01.09.2019
2657 Rain 12 1013 64 0 1.97 178.023 20:18 01.09.2019
2658 Rain 12 1013 64 0 1.97 178.023 19:56 01.09.2019
2659 Rain 12 1013 64 0 1.97 178.023 19:37 01.09.2019
2660 Rain 12 1013 64 0 1.97 178.023 19:18 01.09.2019
2661 Rain 12 1013 64 0 1.97 178.023 18:42 01.09.2019
2662 Clouds 13 1012 55 0 0.98 242.542 18:24 01.09.2019
2663 -273 0 0 0 0 0 17:55 01.09.2019
2664 Clouds 13 1012 55 0 0.98 242.542 17:37 01.09.2019
2665 Clouds 13 1012 55 0 0.98 242.542 17:18 01.09.2019
2666 Clouds 13 1012 55 0 0.98 242.542 16:39 01.09.2019
2667 Clouds 13 1012 55 0 0.98 242.542 16:19 01.09.2019
2668 Clouds 13 1012 55 0 0.98 242.542 15:47 01.09.2019
2669 Clouds 13 1012 55 0 0.98 242.542 15:29 01.09.2019
2670 Clouds 17 1006 48 0 1.08 251.196 14:57 01.09.2019
2671 Clouds 17 1006 48 0 1.08 251.196 14:38 01.09.2019
2672 Clouds 17 1006 48 0 1.08 251.196 14:20 01.09.2019
2673 Clouds 17 1006 48 0 1.08 251.196 13:43 01.09.2019
2674 Clouds 17 1006 49 0 1.08 254.926 13:24 01.09.2019
2675 Clouds 17 1006 49 0 1.08 254.926 12:59 01.09.2019
2676 Clouds 17 1006 49 0 1.08 254.926 12:40 01.09.2019
2677 Clouds 17 1006 49 0 1.08 254.926 12:40 01.09.2019
2678 Clouds 19 1006 35 0 1.9 216.635 12:21 01.09.2019
2679 Clouds 19 1006 35 0 1.9 216.635 12:21 01.09.2019
2680 Clouds 19 1006 35 0 1.9 216.635 11:40 01.09.2019
2681 Clouds 19 1006 35 0 1.9 216.635 11:20 01.09.2019
2682 Clouds 19 1006 35 0 1.9 216.635 10:58 01.09.2019
2683 Clouds 19 1006 35 0 1.9 216.635 10:40 01.09.2019
2684 Clouds 19 1006 35 0 1.9 216.635 10:21 01.09.2019
2685 Clouds 19 1006 37 0 1.85 215.595 09:43 01.09.2019
2686 Rain 16 1010 50 0 1.44 198.738 09:25 01.09.2019
2687 Rain 16 1010 50 0 1.44 198.738 08:44 01.09.2019
2688 Rain 16 1010 50 0 1.44 198.738 08:24 01.09.2019
2689 Rain 16 1010 50 0 1.44 198.738 07:51 01.09.2019
2690 Rain 16 1010 50 0 1.44 198.738 07:51 01.09.2019
2691 Rain 16 1010 50 0 1.44 198.738 07:33 01.09.2019
2692 Rain 16 1010 50 0 1.44 198.738 06:42 01.09.2019
2693 Rain 10 1015 78 0 1.86 319.278 06:23 01.09.2019
2694 Rain 10 1015 78 0 1.86 319.278 05:39 01.09.2019
2695 Rain 10 1015 78 0 1.86 319.278 04:29 01.09.2019
2696 Rain 10 1015 78 0 1.86 319.278 03:41 01.09.2019
2697 Rain 10 1016 75 0 0.7 118.721 02:57 01.09.2019
2698 Rain 10 1016 75 0 0.7 118.721 02:26 01.09.2019
2699 Rain 10 1016 75 0 0.7 118.721 01:50 01.09.2019
2700 Clouds 10 1016 74 0 2.21 151.601 01:22 01.09.2019
2701 Clouds 10 1016 74 0 2.21 151.601 00:45 01.09.2019
2702 Rain 11 1013 70 0 1.71 144.474 00:22 01.09.2019
2703 Rain 11 1013 70 0 1.71 144.474 23:49 31.08.2019
2704 Rain 11 1013 70 0 1.71 144.474 23:22 31.08.2019
2705 Rain 11 1013 70 0 1.71 144.474 22:58 31.08.2019
2706 Rain 11 1013 70 0 1.71 144.474 22:40 31.08.2019
2707 Rain 11 1013 70 0 1.71 144.474 22:22 31.08.2019
2708 Rain 11 1013 70 0 1.71 144.474 21:55 31.08.2019
2709 Rain 9 1012 79 0 2.18 143.241 21:37 31.08.2019
2710 Rain 11 1012 68 0 2.17 153.778 21:19 31.08.2019
2711 Rain 11 1012 68 0 2.17 153.778 20:47 31.08.2019
2712 Rain 11 1012 68 0 2.17 153.778 20:28 31.08.2019
2713 Rain 11 1012 68 0 2.17 153.778 19:56 31.08.2019
2714 Rain 11 1012 68 0 2.17 153.778 19:37 31.08.2019
2715 Rain 11 1012 68 0 2.17 153.778 19:19 31.08.2019
2716 Rain 11 1012 68 0 2.17 153.778 18:40 31.08.2019
2717 Clouds 15 1010 43 0 0.61 147.787 18:20 31.08.2019
2718 Clouds 15 1010 43 0 0.61 147.787 17:56 31.08.2019
2719 Clouds 15 1010 43 0 0.61 147.787 17:37 31.08.2019
2720 Clouds 15 1010 43 0 0.61 147.787 17:18 31.08.2019
2721 Clouds 15 1010 43 0 0.61 147.787 16:57 31.08.2019
2722 Clouds 15 1010 43 0 0.61 147.787 16:39 31.08.2019
2723 Clouds 15 1010 43 0 0.61 147.787 16:20 31.08.2019
2724 Clouds 15 1010 43 0 0.61 147.787 15:55 31.08.2019
2725 Clouds 15 1010 43 0 0.61 147.787 15:36 31.08.2019
2726 Clear 18 1005 44 0 0.02 194.036 15:18 31.08.2019
2727 Clear 18 1005 44 0 0.02 194.036 14:41 31.08.2019
2728 Clear 18 1005 44 0 0.02 194.036 14:22 31.08.2019
2729 Clear 18 1005 44 0 0.02 194.036 13:41 31.08.2019
2730 Clear 19 1004 44 0 0.51 136.351 13:23 31.08.2019
2731 Clear 19 1004 44 0 0.51 136.351 12:59 31.08.2019
2732 Clear 19 1004 44 0 0.51 136.351 12:39 31.08.2019
2733 Clear 21 1003 28 0 0.39 189.822 12:20 31.08.2019
2734 Clear 21 1003 28 0 0.39 189.822 11:55 31.08.2019
2735 Clear 21 1003 28 0 0.39 189.822 11:36 31.08.2019
2736 Clear 21 1003 28 0 0.39 189.822 11:18 31.08.2019
2737 Clear 21 1003 28 0 0.39 189.822 11:18 31.08.2019
2738 Clear 21 1003 28 0 0.39 189.822 10:41 31.08.2019
2739 Clear 21 1003 28 0 0.39 189.822 10:19 31.08.2019
2740 Clear 21 1003 28 0 0.39 189.822 09:56 31.08.2019
2741 Clear 21 1003 28 0 0.56 189.244 09:37 31.08.2019
2742 Rain 19 1008 38 0 1.09 173.124 09:19 31.08.2019
2743 Rain 19 1008 38 0 1.09 173.124 08:42 31.08.2019
2744 Rain 19 1008 38 0 1.09 173.124 08:23 31.08.2019
2745 Rain 19 1008 38 0 1.09 173.124 07:40 31.08.2019
2746 Rain 19 1008 38 0 1.09 173.124 07:22 31.08.2019
2747 Rain 19 1008 38 0 1.09 173.124 06:41 31.08.2019
2748 Rain 14 1013 56 0 0.78 195.563 06:18 31.08.2019
2749 Rain 14 1013 56 0 0.78 195.563 05:33 31.08.2019
2750 Rain 14 1013 56 0 0.78 195.563 04:36 31.08.2019
2751 Rain 14 1013 56 0 0.78 195.563 03:45 31.08.2019
2752 Clouds 8 1016 82 0 0.19 107.676 02:37 31.08.2019
2753 Clouds 8 1016 82 0 0.19 107.676 01:53 31.08.2019
2754 Clouds 8 1015 82 0 0.2 95.886 01:33 31.08.2019
2755 Clouds 8 1015 82 0 0.2 95.886 00:50 31.08.2019
2756 Clouds 8 1015 82 0 0.2 95.886 00:30 31.08.2019
2757 Clouds 8 1014 81 0 0.52 51.237 23:57 30.08.2019
2758 Clouds 8 1014 81 0 0.52 51.237 23:39 30.08.2019
2759 Clouds 8 1014 81 0 0.52 51.237 23:18 30.08.2019
2760 Clouds 8 1014 81 0 0.52 51.237 23:18 30.08.2019
2761 Clouds 8 1014 81 0 0.52 51.237 22:42 30.08.2019
2762 Clouds 8 1014 81 0 0.52 51.237 22:24 30.08.2019
2763 Clouds 8 1014 81 0 0.52 51.237 21:59 30.08.2019
2764 Rain 8 1013 79 0 0.75 21.235 21:38 30.08.2019
2765 Rain 10 1014 71 0 1.24 38.544 21:20 30.08.2019
2766 Rain 10 1014 71 0 1.24 38.544 20:59 30.08.2019
2767 Rain 10 1014 71 0 1.24 38.544 20:40 30.08.2019
2768 Rain 10 1014 71 0 1.24 38.544 20:20 30.08.2019
2769 Rain 10 1014 71 0 1.24 38.544 19:58 30.08.2019
2770 Rain 10 1014 71 0 1.24 38.544 19:39 30.08.2019
2771 Rain 10 1014 71 0 1.24 38.544 19:19 30.08.2019
2772 Rain 10 1014 71 0 1.24 38.544 19:19 30.08.2019
2773 Rain 10 1014 71 0 1.24 38.544 18:55 30.08.2019
2774 Rain 10 1014 71 0 1.24 38.544 18:37 30.08.2019
2775 Rain 10 1014 71 0 1.24 38.544 18:37 30.08.2019
2776 Rain 12 1014 62 0 2.51 43.043 18:18 30.08.2019
2777 Rain 12 1014 62 0 2.51 43.043 17:55 30.08.2019
2778 Rain 12 1014 62 0 2.51 43.043 17:55 30.08.2019
2779 Rain 12 1014 62 0 2.51 43.043 17:37 30.08.2019
2780 Rain 12 1014 62 0 2.51 43.043 17:18 30.08.2019
2781 Rain 12 1014 62 0 2.51 43.043 16:43 30.08.2019
2782 Rain 12 1014 62 0 2.51 43.043 16:22 30.08.2019
2783 Rain 12 1014 62 0 2.51 43.043 15:44 30.08.2019
2784 Clouds 17 1008 41 0 3.61 299.104 15:24 30.08.2019
2785 Clouds 17 1008 41 0 3.61 299.104 15:24 30.08.2019
2786 Clouds 17 1008 41 0 3.61 299.104 14:57 30.08.2019
2787 Clouds 17 1008 41 0 3.61 299.104 14:38 30.08.2019
2788 Clouds 17 1008 41 0 3.61 299.104 14:20 30.08.2019
2789 Clouds 17 1008 41 0 3.61 299.104 13:43 30.08.2019
2790 Clouds 18 1008 39 0 3.36 288.797 13:23 30.08.2019
2791 Clouds 18 1008 39 0 3.36 288.797 12:56 30.08.2019
2792 Clouds 18 1008 39 0 3.36 288.797 12:38 30.08.2019
2793 Clouds 22 1003 26 0 2.06 246.021 12:20 30.08.2019
2794 Clouds 22 1003 26 0 2.06 246.021 11:41 30.08.2019
2795 Clouds 22 1003 26 0 2.06 246.021 11:23 30.08.2019
2796 Clouds 22 1003 26 0 2.06 246.021 10:39 30.08.2019
2797 Clouds 22 1003 26 0 2.06 246.021 10:21 30.08.2019
2798 Clouds 22 1003 26 0 2.06 246.021 09:58 30.08.2019
2799 Clouds 22 1003 26 0 2.06 246.021 09:39 30.08.2019
2800 Rain 20 1007 33 0 2.15 200.294 09:19 30.08.2019
2801 Rain 20 1007 33 0 2.15 200.294 08:44 30.08.2019
2802 Rain 20 1007 33 0 2.15 200.294 08:25 30.08.2019
2803 Rain 20 1007 33 0 2.15 200.294 07:59 30.08.2019
2804 Rain 20 1007 33 0 2.15 200.294 07:39 30.08.2019
2805 Rain 20 1007 33 0 2.15 200.294 07:21 30.08.2019
2806 Rain 20 1007 33 0 2.15 200.294 06:44 30.08.2019
2807 Rain 20 1007 33 0 2.15 200.294 06:26 30.08.2019
2808 Rain 15 1013 47 0 2.22 180.284 05:43 30.08.2019
2809 Rain 15 1013 47 0 2.22 180.284 03:58 30.08.2019
2810 Rain 15 1013 47 0 2.22 180.284 03:38 30.08.2019
2811 Clouds 9 1017 72 0 1.39 143.717 02:55 30.08.2019
2812 Clouds 9 1017 72 0 1.39 143.717 02:24 30.08.2019
2813 Clouds 9 1016 70 0 1.7 149.03 01:28 30.08.2019
2814 Clouds 9 1016 70 0 1.7 149.03 00:29 30.08.2019
2815 Clouds 10 1015 62 0 1.63 145.374 23:58 29.08.2019
2816 Clouds 10 1015 62 0 1.63 145.374 23:40 29.08.2019
2817 Clouds 10 1015 62 0 1.63 145.374 23:20 29.08.2019
2818 Clouds 10 1015 62 0 1.63 145.374 22:43 29.08.2019
2819 Clouds 10 1015 62 0 1.63 145.374 22:24 29.08.2019
2820 Clouds 10 1015 65 0 1.66 140.517 21:56 29.08.2019
2821 Clouds 10 1015 65 0 1.66 140.517 21:38 29.08.2019
2822 Clouds 12 1015 55 0 1.41 138.181 21:20 29.08.2019
2823 Clouds 12 1015 55 0 1.41 138.181 20:43 29.08.2019
2824 Clouds 12 1015 55 0 1.41 138.181 20:20 29.08.2019
2825 Clouds 12 1015 55 0 1.41 138.181 19:59 29.08.2019
2826 Clouds 12 1015 55 0 1.41 138.181 19:40 29.08.2019
2827 Clouds 12 1015 55 0 1.41 138.181 19:21 29.08.2019
2828 Clouds 12 1015 55 0 1.41 138.181 18:44 29.08.2019
2829 Clouds 14 1014 44 0 1.3 135.281 18:21 29.08.2019
2830 Clouds 14 1014 44 0 1.3 135.281 17:57 29.08.2019
2831 Clouds 14 1014 44 0 1.3 135.281 17:39 29.08.2019
2832 Clouds 14 1014 44 0 1.3 135.281 17:19 29.08.2019
2833 Clouds 14 1014 44 0 1.3 135.281 16:57 29.08.2019
2834 Clouds 14 1014 44 0 1.3 135.281 16:39 29.08.2019
2835 Clouds 14 1014 44 0 1.3 135.281 16:20 29.08.2019
2836 Clouds 14 1014 44 0 1.3 135.281 15:39 29.08.2019
2837 Clouds 18 1009 43 0 0.52 229.983 15:21 29.08.2019
2838 Clouds 18 1009 43 0 0.52 229.983 14:50 29.08.2019
2839 Clouds 18 1009 43 0 0.52 229.983 14:25 29.08.2019
2840 Clouds 18 1009 43 0 0.52 229.983 13:59 29.08.2019
2841 Clouds 18 1009 43 0 0.52 229.983 13:40 29.08.2019
2842 Clouds 18 1008 43 0 0.68 243.208 13:21 29.08.2019
2843 Clouds 18 1008 43 0 0.68 243.208 12:59 29.08.2019
2844 Clouds 18 1008 43 0 0.68 243.208 12:40 29.08.2019
2845 Clouds 21 1007 26 0 1.8 208.943 12:22 29.08.2019
2846 Clouds 21 1007 26 0 1.8 208.943 11:59 29.08.2019
2847 Clouds 21 1007 26 0 1.8 208.943 11:40 29.08.2019
2848 Clouds 21 1007 26 0 1.8 208.943 11:20 29.08.2019
2849 Clouds 21 1007 26 0 1.8 208.943 11:20 29.08.2019
2850 Clouds 21 1007 26 0 1.8 208.943 10:45 29.08.2019
2851 Clouds 21 1007 26 0 1.8 208.943 10:25 29.08.2019
2852 Clouds 21 1007 26 0 1.8 208.943 09:57 29.08.2019
2853 Clouds 21 1007 26 0 1.75 199.203 09:39 29.08.2019
2854 Clouds 19 1011 33 0 2.13 188.64 09:18 29.08.2019
2855 Clouds 19 1011 33 0 2.13 188.64 08:41 29.08.2019
2856 Clouds 19 1011 33 0 2.13 188.64 08:23 29.08.2019
2857 Clouds 19 1011 33 0 2.13 188.64 07:53 29.08.2019
2858 Clouds 19 1011 33 0 2.13 188.64 07:33 29.08.2019
2859 Clouds 19 1011 33 0 2.13 188.64 06:56 29.08.2019
2860 Clouds 19 1011 33 0 2.13 188.64 06:37 29.08.2019
2861 Clouds 15 1016 48 0 2.02 179.461 05:52 29.08.2019
2862 Clouds 15 1016 48 0 2.02 179.461 05:21 29.08.2019
2863 Clouds 15 1016 48 0 2.02 179.461 04:47 29.08.2019
2864 Clouds 15 1016 48 0 2.02 179.461 04:26 29.08.2019
2865 Clouds 9 1019 70 0 1.7 147.599 01:54 29.08.2019
2866 Clouds 9 1019 71 0 1.69 149.421 01:35 29.08.2019
2867 Clouds 9 1019 71 0 1.69 149.421 00:47 29.08.2019
2868 Clouds 9 1017 64 0 1.44 139.024 00:23 29.08.2019
2869 Clouds 9 1017 64 0 1.44 139.024 23:58 28.08.2019
2870 Clouds 9 1017 64 0 1.44 139.024 23:38 28.08.2019
2871 Clouds 9 1017 64 0 1.44 139.024 23:20 28.08.2019
2872 Clouds 9 1017 64 0 1.44 139.024 22:56 28.08.2019
2873 Clouds 9 1017 64 0 1.44 139.024 22:37 28.08.2019
2874 Clouds 9 1017 64 0 1.44 139.024 22:18 28.08.2019
2875 Clouds 9 1017 63 0 1.25 142.431 21:41 28.08.2019
2876 Clouds 11 1016 55 0 1.57 129.778 21:23 28.08.2019
2877 Clouds 11 1016 55 0 1.57 129.778 20:56 28.08.2019
2878 Clouds 11 1016 55 0 1.57 129.778 20:38 28.08.2019
2879 Clouds 11 1016 55 0 1.57 129.778 20:20 28.08.2019
2880 Clouds 11 1016 55 0 1.57 129.778 19:42 28.08.2019
2881 Clouds 11 1016 55 0 1.57 129.778 19:22 28.08.2019
2882 Clouds 11 1016 55 0 1.57 129.778 18:57 28.08.2019
2883 Clouds 11 1016 55 0 1.57 129.778 18:37 28.08.2019
2884 Clouds 15 1015 42 0 1.59 179.096 18:19 28.08.2019
2885 Clouds 15 1015 42 0 1.59 179.096 17:38 28.08.2019
2886 Clouds 15 1015 42 0 1.59 179.096 17:19 28.08.2019
2887 Clouds 15 1015 42 0 1.59 179.096 16:45 28.08.2019
2888 Clouds 15 1015 42 0 1.59 179.096 16:23 28.08.2019
2889 Clouds 15 1015 42 0 1.59 179.096 15:59 28.08.2019
2890 Clouds 15 1015 42 0 1.59 179.096 15:38 28.08.2019
2891 Clouds 18 1009 42 0 0.35 180.828 15:20 28.08.2019
2892 Clouds 18 1009 42 0 0.35 180.828 14:57 28.08.2019
2893 Clouds 18 1009 42 0 0.35 180.828 14:38 28.08.2019
2894 Clouds 18 1009 42 0 0.35 180.828 14:20 28.08.2019
2895 Clouds 18 1009 42 0 0.35 180.828 13:58 28.08.2019
2896 Clouds 18 1009 42 0 0.35 180.828 13:38 28.08.2019
2897 Clouds 18 1008 42 0 0.61 135.66 13:19 28.08.2019
2898 Clouds 18 1008 42 0 0.61 135.66 12:42 28.08.2019
2899 Clouds 21 1007 21 0 0.6 240.207 12:24 28.08.2019
2900 Clouds 21 1007 21 0 0.6 240.207 11:57 28.08.2019
2901 Clouds 21 1007 21 0 0.6 240.207 11:38 28.08.2019
2902 Clouds 21 1007 21 0 0.6 240.207 11:20 28.08.2019
2903 Clouds 21 1007 21 0 0.6 240.207 10:55 28.08.2019
2904 Clouds 21 1007 21 0 0.6 240.207 10:37 28.08.2019
2905 Clouds 21 1007 21 0 0.6 240.207 10:18 28.08.2019
2906 Clouds 21 1007 21 0 0.6 240.207 09:41 28.08.2019
2907 Clouds 21 1007 21 0 0.6 240.207 09:41 28.08.2019
2908 Clouds 20 1011 26 0 1.88 196.083 09:20 28.08.2019
2909 Clouds 20 1011 26 0 1.88 196.083 08:40 28.08.2019
2910 Clouds 20 1011 26 0 1.88 196.083 08:21 28.08.2019
2911 Clouds 20 1011 26 0 1.88 196.083 07:45 28.08.2019
2912 Clouds 20 1011 26 0 1.88 196.083 07:26 28.08.2019
2913 Clouds 20 1011 26 0 1.88 196.083 06:59 28.08.2019
2914 Clouds 20 1011 26 0 1.88 196.083 06:40 28.08.2019
2915 Clouds 15 1017 48 0 1.91 180.3 05:44 28.08.2019
2916 Clouds 15 1017 48 0 1.91 180.3 03:55 28.08.2019
2917 Clear 9 1019 69 0 1.62 150.4 01:53 28.08.2019
2918 Clouds 9 1019 70 0 1.62 149.103 01:30 28.08.2019
2919 Clouds 9 1019 70 0 1.62 149.103 00:42 28.08.2019
2920 Clouds 9 1016 57 0 1.76 149.193 00:18 28.08.2019
2921 Clouds 9 1016 57 0 1.76 149.193 23:40 27.08.2019
2922 Clouds 9 1016 57 0 1.76 149.193 23:21 27.08.2019
2923 Clouds 9 1016 57 0 1.76 149.193 22:57 27.08.2019
2924 Clouds 9 1016 57 0 1.76 149.193 22:38 27.08.2019
2925 Clouds 9 1016 57 0 1.76 149.193 22:20 27.08.2019
2926 Clear 9 1016 59 0 1.88 149.256 21:55 27.08.2019
2927 Clear 9 1016 59 0 1.88 149.256 21:55 27.08.2019
2928 Clear 9 1016 59 0 1.88 149.256 21:37 27.08.2019
2929 Clouds 11 1015 49 0 1.08 131.475 21:18 27.08.2019
2930 Clouds 11 1015 49 0 1.08 131.475 20:42 27.08.2019
2931 Clouds 11 1015 49 0 1.08 131.475 20:21 27.08.2019
2932 Clouds 11 1015 49 0 1.08 131.475 19:58 27.08.2019
2933 Clouds 11 1015 49 0 1.08 131.475 19:58 27.08.2019
2934 Clouds 11 1015 49 0 1.08 131.475 19:40 27.08.2019
2935 Clouds 11 1015 49 0 1.08 131.475 19:22 27.08.2019
2936 Clouds 11 1015 49 0 1.08 131.475 18:54 27.08.2019
2937 Clouds 11 1015 49 0 1.08 131.475 18:36 27.08.2019
2938 Clouds 13 1013 43 0 0.55 113.973 18:18 27.08.2019
2939 Clouds 13 1013 43 0 0.55 113.973 17:42 27.08.2019
2940 Clouds 13 1013 43 0 0.55 113.973 17:22 27.08.2019
2941 Clouds 13 1013 43 0 0.55 113.973 16:48 27.08.2019
2942 Clouds 13 1013 43 0 0.55 113.973 16:28 27.08.2019
2943 Clouds 13 1013 43 0 0.55 113.973 16:28 27.08.2019
2944 Clouds 13 1013 43 0 0.55 113.973 15:58 27.08.2019
2945 Clouds 13 1013 43 0 0.55 113.973 15:40 27.08.2019
2946 Clear 18 1009 41 0 0.92 186.776 15:21 27.08.2019
2947 Clear 18 1009 41 0 0.92 186.776 14:58 27.08.2019
2948 Clear 18 1009 41 0 0.92 186.776 14:40 27.08.2019
2949 Clear 18 1009 41 0 0.92 186.776 14:20 27.08.2019
2950 Clear 18 1009 41 0 0.92 186.776 13:42 27.08.2019
2951 Clear 18 1008 42 0 0.63 173.92 13:23 27.08.2019
2952 Clear 18 1008 42 0 0.63 173.92 12:55 27.08.2019
2953 Clear 18 1008 42 0 0.63 173.92 12:36 27.08.2019
2954 Clear 21 1007 22 0 1.5 195.746 12:18 27.08.2019
2955 Clear 21 1007 22 0 1.5 195.746 12:18 27.08.2019
2956 Clear 21 1007 22 0 1.5 195.746 11:43 27.08.2019
2957 Clear 21 1007 22 0 1.5 195.746 11:23 27.08.2019
2958 Clear 21 1007 22 0 1.5 195.746 10:42 27.08.2019
2959 Clear 21 1007 22 0 1.5 195.746 10:42 27.08.2019
2960 Clear 21 1007 22 0 1.5 195.746 10:20 27.08.2019
2961 Clear 21 1007 22 0 1.5 195.746 09:58 27.08.2019
2962 Clear 21 1007 22 0 1.5 195.746 09:38 27.08.2019
2963 Clear 19 1011 27 0 2.08 189.685 09:20 27.08.2019
2964 Clear 19 1011 27 0 2.08 189.685 08:46 27.08.2019
2965 Clear 19 1011 27 0 2.08 189.685 08:27 27.08.2019
2966 Clear 19 1011 27 0 2.08 189.685 08:27 27.08.2019
2967 Clear 19 1011 27 0 2.08 189.685 07:59 27.08.2019
2968 Clear 19 1011 27 0 2.08 189.685 07:38 27.08.2019
2969 Clear 19 1011 27 0 2.08 189.685 07:19 27.08.2019
2970 Clear 19 1011 27 0 2.08 189.685 06:50 27.08.2019
2971 Clear 14 1017 47 0 1.94 176.722 06:21 27.08.2019
2972 Clear 14 1017 47 0 1.94 176.722 05:30 27.08.2019
2973 Clear 14 1017 47 0 1.94 176.722 04:28 27.08.2019
2974 Clear 14 1017 47 0 1.94 176.722 03:32 27.08.2019
2975 Clear 8 1019 71 0 1.93 148.225 02:22 27.08.2019
2976 Clear 8 1019 71 0 1.93 148.225 01:34 27.08.2019
2977 Clear 8 1019 71 0 1.84 147.019 00:50 27.08.2019
2978 Clear 8 1019 71 0 1.84 147.019 00:29 27.08.2019
2979 Clear 9 1016 54 0 2.04 145.788 23:54 26.08.2019
2980 Clear 9 1016 54 0 2.04 145.788 23:36 26.08.2019
2981 Clear 9 1016 54 0 2.04 145.788 23:18 26.08.2019
2982 Clear 9 1016 54 0 2.04 145.788 22:38 26.08.2019
2983 Clear 9 1016 54 0 2.04 145.788 22:19 26.08.2019
2984 Clear 9 1016 57 0 2.06 147.738 21:55 26.08.2019
2985 Clear 9 1016 57 0 2.06 147.738 21:37 26.08.2019
2986 Clear 10 1015 42 0 1.33 116.7 21:18 26.08.2019
2987 Clear 10 1015 42 0 1.33 116.7 20:41 26.08.2019
2988 Clear 10 1015 42 0 1.33 116.7 20:22 26.08.2019
2989 Clear 10 1015 42 0 1.33 116.7 19:59 26.08.2019
2990 Clear 10 1015 42 0 1.33 116.7 19:41 26.08.2019
2991 Clear 10 1015 42 0 1.33 116.7 19:19 26.08.2019
2992 Clear 10 1015 42 0 1.33 116.7 18:56 26.08.2019
2993 Clear 10 1015 42 0 1.33 116.7 18:37 26.08.2019
2994 Clear 12 1013 35 0 1.1 69.03 18:18 26.08.2019
2995 Clear 12 1013 35 0 1.1 69.03 17:43 26.08.2019
2996 Clear 12 1013 35 0 1.1 69.03 17:19 26.08.2019
2997 Clear 12 1013 35 0 1.1 69.03 16:57 26.08.2019
2998 Clear 12 1013 35 0 1.1 69.03 16:38 26.08.2019
2999 Clear 12 1013 35 0 1.1 69.03 16:18 26.08.2019
3000 Clear 12 1013 35 0 1.1 69.03 15:44 26.08.2019
3001 Clear 17 1009 33 0 1.34 172.768 15:22 26.08.2019
3002 Clear 17 1009 33 0 1.34 172.768 14:58 26.08.2019
3003 Clear 17 1009 33 0 1.34 172.768 14:39 26.08.2019
3004 Clear 17 1009 33 0 1.34 172.768 14:21 26.08.2019
3005 Clear 17 1009 33 0 1.34 172.768 13:43 26.08.2019
3006 Clear 17 1009 32 0 1.36 172.369 13:23 26.08.2019
3007 Clear 17 1009 32 0 1.36 172.369 12:56 26.08.2019
3008 Clear 17 1009 32 0 1.36 172.369 12:37 26.08.2019
3009 Clear 20 1007 19 0 1.68 178.087 12:19 26.08.2019
3010 Clear 20 1007 19 0 1.68 178.087 11:38 26.08.2019
3011 Clear 20 1007 19 0 1.68 178.087 11:20 26.08.2019
3012 Clear 20 1007 19 0 1.68 178.087 10:57 26.08.2019
3013 Clear 20 1007 19 0 1.68 178.087 10:39 26.08.2019
3014 Clear 20 1007 19 0 1.68 178.087 10:18 26.08.2019
3015 Clear 20 1007 19 0 1.68 178.087 09:42 26.08.2019
3016 Clear 18 1011 28 0 2.04 181.01 09:23 26.08.2019
3017 Clear 18 1011 28 0 2.04 181.01 08:56 26.08.2019
3018 Clear 18 1011 28 0 2.04 181.01 08:38 26.08.2019
3019 Clear 18 1011 28 0 2.04 181.01 08:19 26.08.2019
3020 Clear 18 1011 28 0 2.04 181.01 07:42 26.08.2019
3021 Clear 18 1011 28 0 2.04 181.01 07:24 26.08.2019
3022 Clear 18 1011 28 0 2.04 181.01 06:57 26.08.2019
3023 Clear 18 1011 28 0 2.04 181.01 06:38 26.08.2019
3024 Clear 14 1016 49 0 2.29 175.346 06:18 26.08.2019
3025 Clear 14 1016 49 0 2.29 175.346 04:54 26.08.2019
3026 Clear 14 1016 49 0 2.29 175.346 03:49 26.08.2019
3027 Clouds 8 1019 72 0 1.72 143.243 02:38 26.08.2019
3028 Clouds 8 1019 73 0 1.53 140.984 01:23 26.08.2019
3029 Clouds 8 1019 73 0 1.53 140.984 00:45 26.08.2019
3030 Clouds 8 1019 73 0 1.53 140.984 00:26 26.08.2019
3031 Clear 9 1017 66 0 1.86 153.67 23:45 25.08.2019
3032 Clear 9 1017 66 0 1.86 153.67 23:20 25.08.2019
3033 Clear 9 1017 66 0 1.86 153.67 22:59 25.08.2019
3034 Clear 9 1017 66 0 1.86 153.67 22:40 25.08.2019
3035 Clear 9 1017 66 0 1.86 153.67 22:20 25.08.2019
3036 Clear 9 1017 66 0 1.86 153.67 21:58 25.08.2019
3037 Clear 9 1018 69 0 2.19 149.774 21:39 25.08.2019
3038 Clouds 11 1017 55 0 2.03 150.031 21:19 25.08.2019
3039 Clouds 11 1017 55 0 2.03 150.031 20:56 25.08.2019
3040 Clouds 11 1017 55 0 2.03 150.031 20:38 25.08.2019
3041 Clouds 11 1017 55 0 2.03 150.031 20:19 25.08.2019
3042 Clouds 11 1017 55 0 2.03 150.031 19:41 25.08.2019
3043 Clouds 11 1017 55 0 2.03 150.031 19:23 25.08.2019
3044 Clouds 11 1017 55 0 2.03 150.031 18:59 25.08.2019
3045 Clouds 11 1017 55 0 2.03 150.031 18:59 25.08.2019
3046 Clouds 11 1017 55 0 2.03 150.031 18:40 25.08.2019
3047 Clouds 13 1014 44 0 1.81 147.038 18:22 25.08.2019
3048 Clouds 13 1014 44 0 1.81 147.038 17:59 25.08.2019
3049 Clouds 13 1014 44 0 1.81 147.038 17:39 25.08.2019
3050 Clouds 13 1014 44 0 1.81 147.038 17:20 25.08.2019
3051 Clouds 13 1014 44 0 1.81 147.038 16:41 25.08.2019
3052 Clouds 13 1014 44 0 1.81 147.038 16:23 25.08.2019
3053 Clouds 13 1014 44 0 1.81 147.038 15:48 25.08.2019
3054 Clouds 13 1014 44 0 1.81 147.038 15:27 25.08.2019
3055 Clouds 17 1009 46 0 0.29 65.056 14:59 25.08.2019
3056 Clouds 17 1009 46 0 0.29 65.056 14:39 25.08.2019
3057 Clouds 17 1009 46 0 0.29 65.056 14:20 25.08.2019
3058 Clouds 17 1009 46 0 0.29 65.056 13:45 25.08.2019
3059 Clear 18 1009 44 0 0.75 110.735 13:21 25.08.2019
3060 Clear 18 1009 44 0 0.75 110.735 13:21 25.08.2019
3061 Clear 18 1009 44 0 0.75 110.735 12:56 25.08.2019
3062 Clear 18 1009 44 0 0.75 110.735 12:37 25.08.2019
3063 Clear 19 1007 29 0 1.29 166.385 12:19 25.08.2019
3064 Clear 19 1007 29 0 1.29 166.385 11:55 25.08.2019
3065 Clear 19 1007 29 0 1.29 166.385 11:36 25.08.2019
3066 Clear 19 1007 29 0 1.29 166.385 11:36 25.08.2019
3067 Clear 19 1007 29 0 1.29 166.385 11:18 25.08.2019
3068 Clear 19 1007 29 0 1.29 166.385 11:18 25.08.2019
3069 Clear 19 1007 29 0 1.29 166.385 10:40 25.08.2019
3070 Clear 19 1007 29 0 1.29 166.385 10:21 25.08.2019
3071 Clear 19 1007 29 0 1.29 166.385 09:57 25.08.2019
3072 Clear 19 1008 29 0 1.8 177.203 09:39 25.08.2019
3073 Clear 17 1011 33 0 2.42 173.341 09:20 25.08.2019
3074 Clear 17 1011 33 0 2.42 173.341 08:42 25.08.2019
3075 Clear 17 1011 33 0 2.42 173.341 08:22 25.08.2019
3076 Clear 17 1011 33 0 2.42 173.341 07:43 25.08.2019
3077 Clear 17 1011 33 0 2.42 173.341 07:22 25.08.2019
3078 Clear 13 1015 50 0 2.11 171.57 06:23 25.08.2019
3079 Clear 13 1015 50 0 2.11 171.57 04:53 25.08.2019
3080 Clear 13 1015 50 0 2.11 171.57 03:36 25.08.2019
3081 Clouds 8 1019 76 0 1.79 143.765 02:40 25.08.2019
3082 Clouds 8 1019 76 0 1.79 143.765 01:42 25.08.2019
3083 Clouds 8 1018 77 0 1.77 144.507 00:40 25.08.2019
3084 Clouds 9 1016 72 0 2.2 144.899 00:21 25.08.2019
3085 Clouds 9 1016 72 0 2.2 144.899 23:52 24.08.2019
3086 Clouds 9 1016 72 0 2.2 144.899 23:23 24.08.2019
3087 Clouds 9 1016 72 0 2.2 144.899 22:56 24.08.2019
3088 Clouds 9 1016 72 0 2.2 144.899 22:38 24.08.2019
3089 Clouds 9 1016 72 0 2.2 144.899 22:19 24.08.2019
3090 Clouds 9 1016 72 0 2.2 144.899 21:56 24.08.2019
3091 Clouds 9 1016 72 0 2.2 144.899 21:38 24.08.2019
3092 Clouds 11 1015 60 0 2.29 143.48 21:19 24.08.2019
3093 Clouds 11 1015 60 0 2.29 143.48 20:55 24.08.2019
3094 Clouds 11 1015 60 0 2.29 143.48 20:37 24.08.2019
3095 Clouds 11 1015 60 0 2.29 143.48 20:18 24.08.2019
3096 Clouds 11 1015 60 0 2.29 143.48 20:18 24.08.2019
3097 Clouds 11 1015 60 0 2.29 143.48 19:55 24.08.2019
3098 Clouds 11 1015 60 0 2.29 143.48 19:37 24.08.2019
3099 Clouds 11 1015 60 0 2.29 143.48 19:18 24.08.2019
3100 Clouds 11 1015 60 0 2.29 143.48 18:41 24.08.2019
3101 Rain 15 1013 50 0 1.7 180.135 18:21 24.08.2019
3102 Rain 15 1013 50 0 1.7 180.135 17:45 24.08.2019
3103 Rain 15 1013 50 0 1.7 180.135 17:25 24.08.2019
3104 Rain 15 1013 50 0 1.7 180.135 16:51 24.08.2019
3105 Rain 15 1013 50 0 1.7 180.135 16:51 24.08.2019
3106 Rain 15 1013 50 0 1.7 180.135 16:21 24.08.2019
3107 Rain 15 1013 50 0 1.7 180.135 15:59 24.08.2019
3108 Rain 15 1013 50 0 1.7 180.135 15:41 24.08.2019
3109 Rain 15 1013 50 0 1.7 180.135 15:41 24.08.2019
3110 Clouds 18 1008 43 0 1.02 219.36 15:23 24.08.2019
3111 Clouds 18 1008 43 0 1.02 219.36 14:44 24.08.2019
3112 Clouds 18 1008 43 0 1.02 219.36 14:23 24.08.2019
3113 Clouds 18 1008 43 0 1.02 219.36 13:59 24.08.2019
3114 Clouds 18 1008 43 0 1.02 219.36 13:40 24.08.2019
3115 Clouds 18 1007 43 0 1.17 240.698 13:21 24.08.2019
3116 Clouds 18 1007 43 0 1.17 240.698 12:58 24.08.2019
3117 Clouds 18 1007 43 0 1.17 240.698 12:39 24.08.2019
3118 Clouds 20 1006 31 0 1.43 218.209 12:20 24.08.2019
3119 Clouds 20 1006 31 0 1.43 218.209 11:45 24.08.2019
3120 Clouds 20 1006 31 0 1.43 218.209 11:22 24.08.2019
3121 Clouds 20 1006 31 0 1.43 218.209 10:53 24.08.2019
3122 Clouds 20 1006 31 0 1.43 218.209 10:24 24.08.2019
3123 Clouds 20 1006 31 0 1.43 218.209 09:55 24.08.2019
3124 Clouds 20 1006 32 0 1.16 205.882 09:36 24.08.2019
3125 Rain 18 1011 40 0 1.47 186.926 09:18 24.08.2019
3126 Rain 18 1011 40 0 1.47 186.926 08:41 24.08.2019
3127 Rain 18 1011 40 0 1.47 186.926 08:22 24.08.2019
3128 Rain 18 1011 40 0 1.47 186.926 07:50 24.08.2019
3129 Rain 18 1011 40 0 1.47 186.926 07:27 24.08.2019
3130 Rain 18 1011 40 0 1.47 186.926 06:30 24.08.2019
3131 Clouds 12 1015 63 0 0.33 93.619 05:43 24.08.2019
3132 Clouds 12 1015 63 0 0.33 93.619 05:22 24.08.2019
3133 Clouds 12 1015 63 0 0.33 93.619 03:38 24.08.2019
3134 Rain 9 1018 82 0 0.52 150.337 02:27 24.08.2019
3135 Rain 9 1018 82 0 0.52 150.337 01:38 24.08.2019
3136 Rain 9 1018 83 0 0.52 53.639 01:18 24.08.2019
3137 Rain 9 1018 83 0 0.52 53.639 00:41 24.08.2019
3138 Rain 9 1016 82 0 0.84 247.401 00:18 24.08.2019
3139 Rain 9 1016 82 0 0.84 247.401 23:42 23.08.2019
3140 Rain 9 1016 82 0 0.84 247.401 23:19 23.08.2019
3141 Rain 9 1016 82 0 0.84 247.401 22:43 23.08.2019
3142 Rain 9 1016 82 0 0.84 247.401 22:24 23.08.2019
3143 Rain 9 1016 82 0 0.84 247.401 21:54 23.08.2019
3144 Rain 8 1016 87 0 2.38 163.248 21:36 23.08.2019
3145 Rain 12 1015 68 0 1.7 158.311 21:18 23.08.2019
3146 Rain 12 1015 68 0 1.7 158.311 20:40 23.08.2019
3147 Rain 12 1015 68 0 1.7 158.311 20:22 23.08.2019
3148 Rain 12 1015 68 0 1.7 158.311 19:45 23.08.2019
3149 Rain 12 1015 68 0 1.7 158.311 19:19 23.08.2019
3150 Rain 12 1015 68 0 1.7 158.311 18:49 23.08.2019
3151 Rain 12 1015 68 0 1.7 158.311 18:31 23.08.2019
3152 Rain 14 1013 55 0 2.48 55.059 17:59 23.08.2019
3153 Rain 14 1013 55 0 2.48 55.059 17:40 23.08.2019
3154 Rain 14 1013 55 0 2.48 55.059 17:21 23.08.2019
3155 Rain 14 1013 55 0 2.48 55.059 16:48 23.08.2019
3156 Rain 14 1013 55 0 2.48 55.059 16:29 23.08.2019
3157 Rain 14 1013 55 0 2.48 55.059 15:59 23.08.2019
3158 Rain 14 1013 55 0 2.48 55.059 15:39 23.08.2019
3159 Clouds 19 1006 41 0 0.67 107.564 15:21 23.08.2019
3160 Clouds 19 1006 41 0 0.67 107.564 14:44 23.08.2019
3161 Clouds 19 1006 41 0 0.67 107.564 14:21 23.08.2019
3162 Clouds 19 1006 41 0 0.67 107.564 13:59 23.08.2019
3163 Clouds 19 1006 41 0 0.67 107.564 13:41 23.08.2019
3164 Clouds 19 1006 40 0 0.86 185.977 13:22 23.08.2019
3165 Clouds 19 1006 40 0 0.86 185.977 12:58 23.08.2019
3166 Clouds 19 1006 40 0 0.86 185.977 12:40 23.08.2019
3167 Clouds 22 1004 24 0 0.88 218.853 12:21 23.08.2019
3168 Clouds 22 1004 24 0 0.88 218.853 11:57 23.08.2019
3169 Clouds 22 1004 24 0 0.88 218.853 11:39 23.08.2019
3170 Clouds 22 1004 24 0 0.88 218.853 11:19 23.08.2019
3171 Clouds 22 1004 24 0 0.88 218.853 10:54 23.08.2019
3172 Clouds 22 1004 24 0 0.88 218.853 10:36 23.08.2019
3173 Clouds 22 1004 24 0 0.75 195.84 10:18 23.08.2019
3174 Clouds 22 1004 24 0 0.75 195.84 09:43 23.08.2019
3175 Clear 20 1007 32 0 1.83 211.759 09:20 23.08.2019
3176 Clear 20 1007 32 0 1.83 211.759 08:45 23.08.2019
3177 Clear 20 1007 32 0 1.83 211.759 08:20 23.08.2019
3178 Clear 20 1007 32 0 1.83 211.759 07:45 23.08.2019
3179 Clear 20 1007 32 0 1.83 211.759 07:25 23.08.2019
3180 Clear 20 1007 32 0 1.83 211.759 06:59 23.08.2019
3181 Clear 20 1007 32 0 1.83 211.759 06:40 23.08.2019
3182 Clear 15 1013 44 0 2.1 178.037 06:21 23.08.2019
3183 Clear 15 1013 44 0 2.1 178.037 05:43 23.08.2019
3184 Clear 15 1013 44 0 2.1 178.037 05:23 23.08.2019
3185 Clear 15 1013 44 0 2.1 178.037 03:37 23.08.2019
3186 Clouds 9 1016 68 0 1.58 144.83 02:37 23.08.2019
3187 Clouds 9 1016 68 0 1.58 144.83 02:18 23.08.2019
3188 Clouds 9 1016 67 0 1.75 145.346 00:46 23.08.2019
3189 Clouds 10 1014 60 0 1.82 168.992 00:23 23.08.2019
3190 Clouds 10 1014 60 0 1.82 168.992 23:59 22.08.2019
3191 Clouds 10 1014 60 0 1.82 168.992 23:40 22.08.2019
3192 Clouds 10 1014 60 0 1.82 168.992 23:20 22.08.2019
3193 Clouds 10 1014 60 0 1.82 168.992 22:42 22.08.2019
3194 Clouds 10 1014 60 0 1.82 168.992 22:23 22.08.2019
3195 Clouds 10 1014 60 0 1.82 168.992 21:58 22.08.2019
3196 Clouds 10 1013 58 0 1.83 171.378 21:40 22.08.2019
3197 Clouds 12 1013 42 0 1.32 172.417 21:21 22.08.2019
3198 Clouds 12 1013 42 0 1.32 172.417 20:57 22.08.2019
3199 Clouds 12 1013 42 0 1.32 172.417 20:39 22.08.2019
3200 Clouds 12 1013 42 0 1.32 172.417 20:19 22.08.2019
3201 Clouds 12 1013 42 0 1.32 172.417 19:56 22.08.2019
3202 Clouds 12 1013 42 0 1.32 172.417 19:37 22.08.2019
3203 Clouds 12 1013 42 0 1.32 172.417 19:19 22.08.2019
3204 Clouds 12 1013 42 0 1.32 172.417 18:56 22.08.2019
3205 Clouds 12 1013 42 0 1.32 172.417 18:38 22.08.2019
3206 Clear 13 1011 39 0 1.01 44.04 18:18 22.08.2019
3207 Clear 13 1011 39 0 1.01 44.04 17:43 22.08.2019
3208 Clear 13 1011 39 0 1.01 44.04 17:24 22.08.2019
3209 Clear 13 1011 39 0 1.01 44.04 17:24 22.08.2019
3210 Clear 13 1011 39 0 1.01 44.04 16:59 22.08.2019
3211 Clear 13 1011 39 0 1.01 44.04 16:40 22.08.2019
3212 Clear 13 1011 39 0 1.01 44.04 16:21 22.08.2019
3213 Clear 13 1011 39 0 1.01 44.04 16:21 22.08.2019
3214 Clear 13 1011 39 0 1.01 44.04 16:21 22.08.2019
3215 Clear 13 1011 39 0 1.01 44.04 15:59 22.08.2019
3216 Clear 13 1011 39 0 1.01 44.04 15:59 22.08.2019
3217 Clear 13 1011 39 0 1.01 44.04 15:39 22.08.2019
3218 Clear 13 1011 39 0 1.01 44.04 15:39 22.08.2019
3219 Clear 19 1006 35 0 1.49 0.193 15:20 22.08.2019
3220 Clear 19 1006 35 0 1.49 0.193 14:56 22.08.2019
3221 Clear 19 1006 35 0 1.49 0.193 14:38 22.08.2019
3222 Clear 19 1006 35 0 1.49 0.193 14:18 22.08.2019
3223 Clear 19 1006 35 0 1.49 0.193 13:42 22.08.2019
3224 Clear 19 1006 40 0 0.95 5.477 13:24 22.08.2019
3225 Clear 19 1006 40 0 0.95 5.477 12:59 22.08.2019
3226 Clear 19 1006 40 0 0.95 5.477 12:40 22.08.2019
3227 Clear 21 1004 24 0 1.03 246.377 12:21 22.08.2019
3228 Clear 21 1004 24 0 1.03 246.377 11:55 22.08.2019
3229 Clear 21 1004 24 0 1.03 246.377 11:55 22.08.2019
3230 Clear 21 1004 24 0 1.03 246.377 11:36 22.08.2019
3231 Clear 21 1004 24 0 1.03 246.377 11:18 22.08.2019
3232 Clear 21 1004 24 0 1.03 246.377 10:56 22.08.2019
3233 Clear 21 1004 24 0 1.03 246.377 10:36 22.08.2019
3234 Clear 21 1004 24 0 1.03 246.377 10:18 22.08.2019
3235 Clear 21 1004 23 0 0.78 233.817 09:39 22.08.2019
3236 Clear 19 1009 29 0 2.27 194.6 09:21 22.08.2019
3237 Clear 19 1009 29 0 2.27 194.6 08:58 22.08.2019
3238 Clear 19 1009 29 0 2.27 194.6 08:39 22.08.2019
3239 Clear 19 1009 29 0 2.27 194.6 08:20 22.08.2019
3240 Clear 19 1009 29 0 2.27 194.6 07:41 22.08.2019
3241 Clear 19 1009 29 0 2.27 194.6 07:23 22.08.2019
3242 Clear 19 1009 29 0 2.27 194.6 06:55 22.08.2019
3243 Clear 19 1009 29 0 2.27 194.6 06:25 22.08.2019
3244 Clear 14 1014 45 0 2.14 180.909 05:59 22.08.2019
3245 Clear 14 1014 45 0 2.14 180.909 04:42 22.08.2019
3246 Clouds 9 1017 69 0 1.7 147.684 02:52 22.08.2019
3247 Clouds 9 1017 69 0 1.7 147.684 02:34 22.08.2019
3248 Clouds 9 1017 69 0 1.53 145.023 01:26 22.08.2019
3249 Clouds 9 1017 69 0 1.53 145.023 00:47 22.08.2019
3250 Clouds 9 1017 69 0 1.53 145.023 00:28 22.08.2019
3251 Clouds 9 1014 59 0 1.82 153.758 23:58 21.08.2019
3252 Clouds 9 1014 59 0 1.82 153.758 23:37 21.08.2019
3253 Clouds 9 1014 59 0 1.82 153.758 23:19 21.08.2019
3254 Clouds 9 1014 59 0 1.82 153.758 22:55 21.08.2019
3255 Clouds 9 1014 59 0 1.82 153.758 22:37 21.08.2019
3256 Clouds 9 1014 59 0 1.82 153.758 22:19 21.08.2019
3257 Clouds 9 1014 59 0 1.82 153.758 21:55 21.08.2019
3258 Clouds 10 1014 59 0 1.84 156.258 21:36 21.08.2019
3259 Rain 11 1013 54 0 1.75 156.094 21:18 21.08.2019
3260 Rain 11 1013 54 0 1.75 156.094 20:42 21.08.2019
3261 Rain 11 1013 54 0 1.75 156.094 20:24 21.08.2019
3262 Rain 11 1013 54 0 1.75 156.094 19:57 21.08.2019
3263 Rain 11 1013 54 0 1.75 156.094 19:39 21.08.2019
3264 Rain 11 1013 54 0 1.75 156.094 19:20 21.08.2019
3265 Rain 11 1013 54 0 1.75 156.094 18:55 21.08.2019
3266 Rain 11 1013 54 0 1.75 156.094 18:37 21.08.2019
3267 Clouds 14 1011 45 0 1.75 176.438 18:19 21.08.2019
3268 Clouds 14 1011 45 0 1.75 176.438 17:42 21.08.2019
3269 Clouds 14 1011 45 0 1.75 176.438 17:20 21.08.2019
3270 Clouds 14 1011 45 0 1.75 176.438 16:54 21.08.2019
3271 Clouds 14 1011 45 0 1.75 176.438 16:36 21.08.2019
3272 Clouds 14 1011 45 0 1.75 176.438 16:18 21.08.2019
3273 Clouds 14 1011 45 0 1.75 176.438 15:42 21.08.2019
3274 Clouds 19 1005 34 0 2.2 127.615 15:22 21.08.2019
3275 Clouds 19 1005 34 0 2.2 127.615 14:58 21.08.2019
3276 Clouds 19 1005 34 0 2.2 127.615 14:39 21.08.2019
3277 Clouds 19 1005 34 0 2.2 127.615 14:21 21.08.2019
3278 Clouds 19 1005 34 0 2.2 127.615 13:58 21.08.2019
3279 Clouds 19 1005 34 0 2.2 127.615 13:40 21.08.2019
3280 Clouds 19 1005 38 0 1.42 93.144 13:19 21.08.2019
3281 Clouds 19 1005 38 0 1.42 93.144 12:57 21.08.2019
3282 Clouds 19 1005 38 0 1.42 93.144 12:38 21.08.2019
3283 Clear 21 1004 24 0 0.49 221.021 12:18 21.08.2019
3284 Clear 21 1004 24 0 0.49 221.021 12:18 21.08.2019
3285 Clear 21 1004 24 0 0.49 221.021 11:43 21.08.2019
3286 Clear 21 1004 24 0 0.49 221.021 11:22 21.08.2019
3287 Clear 21 1004 24 0 0.49 221.021 10:58 21.08.2019
3288 Clear 21 1004 24 0 0.49 221.021 10:38 21.08.2019
3289 Clear 21 1004 24 0 0.49 221.021 10:20 21.08.2019
3290 Clear 21 1004 24 0 0.49 221.021 09:57 21.08.2019
3291 Clear 21 1004 24 0 0.49 221.021 09:39 21.08.2019
3292 Clear 19 1008 30 0 2.38 176.12 09:20 21.08.2019
3293 Clear 19 1008 30 0 2.38 176.12 08:47 21.08.2019
3294 Clear 19 1008 30 0 2.38 176.12 08:24 21.08.2019
3295 Clear 19 1008 30 0 2.38 176.12 07:44 21.08.2019
3296 Clear 19 1008 30 0 2.38 176.12 07:25 21.08.2019
3297 Clear 19 1008 30 0 2.38 176.12 06:51 21.08.2019
3298 Clear 19 1008 30 0 2.38 176.12 06:32 21.08.2019
3299 Clear 15 1013 44 0 2.74 169.708 05:57 21.08.2019
3300 Clear 15 1013 44 0 2.74 169.708 05:28 21.08.2019
3301 Clear 15 1013 44 0 2.74 169.708 04:35 21.08.2019
3302 Clouds 9 1015 69 0 2.2 153.342 02:40 21.08.2019
3303 Clouds 10 1015 67 0 2.01 158.368 01:30 21.08.2019
3304 Clouds 10 1015 67 0 2.01 158.368 00:41 21.08.2019
3305 Rain 11 1012 62 0 2.02 147.989 00:20 21.08.2019
3306 Rain 11 1012 62 0 2.02 147.989 23:45 20.08.2019
3307 Rain 11 1012 62 0 2.02 147.989 23:20 20.08.2019
3308 Rain 11 1012 62 0 2.02 147.989 23:20 20.08.2019
3309 Rain 11 1012 62 0 2.02 147.989 22:59 20.08.2019
3310 Rain 11 1012 62 0 2.02 147.989 22:40 20.08.2019
3311 Rain 11 1012 62 0 2.02 147.989 22:21 20.08.2019
3312 Rain 11 1012 62 0 2.02 147.989 21:58 20.08.2019
3313 Rain 11 1012 65 0 2.02 148.392 21:39 20.08.2019
3314 Rain 14 1011 54 0 1.86 154.937 21:19 20.08.2019
3315 Rain 14 1011 54 0 1.86 154.937 20:58 20.08.2019
3316 Rain 14 1011 54 0 1.86 154.937 20:40 20.08.2019
3317 Rain 14 1011 54 0 1.86 154.937 20:21 20.08.2019
3318 Rain 14 1011 54 0 1.86 154.937 19:39 20.08.2019
3319 Rain 14 1011 54 0 1.86 154.937 19:21 20.08.2019
3320 Rain 14 1011 54 0 1.86 154.937 18:56 20.08.2019
3321 Rain 14 1011 54 0 1.86 154.937 18:38 20.08.2019
3322 Clouds 14 1010 46 0 2.11 142.139 18:19 20.08.2019
3323 Clouds 14 1010 46 0 2.11 142.139 18:19 20.08.2019
3324 Clouds 14 1010 46 0 2.11 142.139 17:56 20.08.2019
3325 Clouds 14 1010 46 0 2.11 142.139 17:38 20.08.2019
3326 Clouds 14 1010 46 0 2.11 142.139 17:19 20.08.2019
3327 Clouds 14 1010 46 0 2.11 142.139 16:44 20.08.2019
3328 Clouds 14 1010 46 0 2.11 142.139 16:25 20.08.2019
3329 Clouds 14 1010 46 0 2.11 142.139 15:43 20.08.2019
3330 Clouds 19 1005 38 0 2.21 145.814 15:19 20.08.2019
3331 Clouds 19 1005 38 0 2.21 145.814 14:59 20.08.2019
3332 Clouds 19 1005 38 0 2.21 145.814 14:41 20.08.2019
3333 Clouds 19 1005 38 0 2.21 145.814 14:21 20.08.2019
3334 Clouds 19 1005 38 0 2.21 145.814 13:56 20.08.2019
3335 Clouds 19 1005 38 0 2.21 145.814 13:38 20.08.2019
3336 Clouds 20 1004 40 0 1.91 163.036 13:20 20.08.2019
3337 Clouds 20 1004 40 0 1.91 163.036 12:51 20.08.2019
3338 Clouds 20 1004 40 0 1.91 163.036 12:29 20.08.2019
3339 Clouds 22 1004 28 0 1.73 208.507 11:58 20.08.2019
3340 Clouds 22 1004 28 0 1.73 208.507 11:38 20.08.2019
3341 Clouds 22 1004 28 0 1.73 208.507 11:19 20.08.2019
3342 Clouds 22 1004 28 0 1.73 208.507 11:19 20.08.2019
3343 Clouds 22 1004 28 0 1.73 208.507 11:19 20.08.2019
3344 Clouds 22 1004 28 0 1.73 208.507 10:57 20.08.2019
3345 Clouds 22 1004 28 0 1.73 208.507 10:38 20.08.2019
3346 Clouds 22 1004 28 0 1.73 208.507 10:20 20.08.2019
3347 Clouds 22 1004 28 0 1.73 208.507 09:44 20.08.2019
3348 Rain 20 1007 35 0 2.16 191.18 09:25 20.08.2019
3349 Rain 20 1007 35 0 2.16 191.18 08:58 20.08.2019
3350 Rain 20 1007 35 0 2.16 191.18 08:40 20.08.2019
3351 Rain 20 1007 35 0 2.16 191.18 08:21 20.08.2019
3352 Rain 20 1007 35 0 2.16 191.18 07:57 20.08.2019
3353 Rain 20 1007 35 0 2.16 191.18 07:37 20.08.2019
3354 Rain 20 1007 35 0 2.16 191.18 07:18 20.08.2019
3355 Rain 20 1007 35 0 2.16 191.18 07:18 20.08.2019
3356 Rain 20 1007 35 0 2.16 191.18 06:28 20.08.2019
3357 Rain 16 1012 49 0 2.12 176.565 05:58 20.08.2019
3358 Rain 16 1012 49 0 2.12 176.565 05:38 20.08.2019
3359 Rain 16 1012 49 0 2.12 176.565 04:21 20.08.2019
3360 Clouds 10 1015 73 0 1.66 138.159 02:47 20.08.2019
3361 Clouds 10 1015 73 0 1.66 138.159 01:45 20.08.2019
3362 Clouds 10 1015 73 0 1.75 143.535 01:19 20.08.2019
3363 Clouds 10 1015 73 0 1.75 143.535 00:43 20.08.2019
3364 Clouds 10 1013 65 0 1.57 157.805 00:21 20.08.2019
3365 Clouds 10 1013 65 0 1.57 157.805 23:42 19.08.2019
3366 Clouds 10 1013 65 0 1.57 157.805 23:18 19.08.2019
3367 Clouds 10 1013 65 0 1.57 157.805 22:58 19.08.2019
3368 Clouds 10 1013 65 0 1.57 157.805 22:39 19.08.2019
3369 Clouds 10 1013 65 0 1.57 157.805 22:19 19.08.2019
3370 Clouds 10 1013 65 0 1.57 157.805 22:19 19.08.2019
3371 Clouds 10 1013 65 0 1.57 157.805 21:56 19.08.2019
3372 Rain 10 1013 69 0 0.92 158.717 21:38 19.08.2019
3373 Clouds 12 1012 47 0 1.3 161.971 21:19 19.08.2019
3374 Clouds 12 1012 47 0 1.3 161.971 20:40 19.08.2019
3375 Clouds 12 1012 47 0 1.3 161.971 20:21 19.08.2019
3376 Clouds 12 1012 47 0 1.3 161.971 19:59 19.08.2019
3377 Clouds 12 1012 47 0 1.3 161.971 19:41 19.08.2019
3378 Clouds 12 1012 47 0 1.3 161.971 19:19 19.08.2019
3379 Clouds 12 1012 47 0 1.3 161.971 19:19 19.08.2019
3380 Clouds 12 1012 47 0 1.3 161.971 19:19 19.08.2019
3381 Clouds 12 1012 47 0 1.3 161.971 18:59 19.08.2019
3382 Clouds 12 1012 47 0 1.3 161.971 18:39 19.08.2019
3383 -273 0 0 0 0 0 18:21 19.08.2019
3384 Clear 13 1011 45 0 0.33 18.817 17:55 19.08.2019
3385 Clear 13 1011 45 0 0.33 18.817 17:36 19.08.2019
3386 Clear 13 1011 45 0 0.33 18.817 17:18 19.08.2019
3387 Clear 13 1011 45 0 0.33 18.817 16:38 19.08.2019
3388 Clear 13 1011 45 0 0.33 18.817 16:20 19.08.2019
3389 Clear 13 1011 45 0 0.33 18.817 15:56 19.08.2019
3390 Clear 13 1011 45 0 0.33 18.817 15:38 19.08.2019
3391 Clouds 19 1005 44 0 0.19 105.011 15:19 19.08.2019
3392 Clouds 19 1005 44 0 0.19 105.011 14:44 19.08.2019
3393 Clouds 19 1005 44 0 0.19 105.011 14:23 19.08.2019
3394 Clouds 19 1005 44 0 0.19 105.011 13:58 19.08.2019
3395 Clouds 19 1005 44 0 0.19 105.011 13:39 19.08.2019
3396 Clouds 19 1005 42 0 0.63 258.224 13:20 19.08.2019
3397 Clouds 19 1005 42 0 0.63 258.224 12:58 19.08.2019
3398 Clouds 19 1005 42 0 0.63 258.224 12:40 19.08.2019
3399 Clouds 21 1004 25 0 1.32 220.757 12:20 19.08.2019
3400 Clouds 21 1004 25 0 1.32 220.757 11:40 19.08.2019
3401 Clouds 21 1004 25 0 1.32 220.757 11:22 19.08.2019
3402 Clouds 21 1004 25 0 1.32 220.757 10:58 19.08.2019
3403 Clouds 21 1004 25 0 1.32 220.757 10:38 19.08.2019
3404 Clouds 21 1004 25 0 1.32 220.757 10:18 19.08.2019
3405 Clouds 21 1004 25 0 1.32 220.757 09:45 19.08.2019
3406 Clear 19 1008 33 0 2.45 187.64 09:24 19.08.2019
3407 Clear 19 1008 33 0 2.45 187.64 08:59 19.08.2019
3408 Clear 19 1008 33 0 2.45 187.64 08:41 19.08.2019
3409 Clear 19 1008 33 0 2.45 187.64 08:41 19.08.2019
3410 Clear 19 1008 33 0 2.45 187.64 08:20 19.08.2019
3411 Clear 19 1008 33 0 2.45 187.64 07:50 19.08.2019
3412 Clear 19 1008 33 0 2.45 187.64 07:31 19.08.2019
3413 Clear 19 1008 33 0 2.45 187.64 06:58 19.08.2019
3414 Clear 19 1008 33 0 2.45 187.64 06:36 19.08.2019
3415 Clear 15 1014 48 0 2.1 170.062 05:25 19.08.2019
3416 Clear 15 1014 48 0 2.1 170.062 04:33 19.08.2019
3417 Clouds 10 1016 72 0 1.59 151.381 03:24 19.08.2019
3418 Clouds 10 1016 72 0 1.59 151.381 02:29 19.08.2019
3419 Clouds 10 1016 72 0 1.59 151.381 01:36 19.08.2019
3420 Clouds 9 1016 69 0 1.81 137.402 00:44 19.08.2019
3421 Clouds 10 1015 63 0 1.64 157.772 00:23 19.08.2019
3422 Clouds 10 1015 63 0 1.64 157.772 23:43 18.08.2019
3423 Clouds 10 1015 63 0 1.64 157.772 23:22 18.08.2019
3424 Clouds 10 1015 63 0 1.64 157.772 22:57 18.08.2019
3425 Clouds 10 1015 63 0 1.64 157.772 22:38 18.08.2019
3426 Clouds 10 1015 63 0 1.64 157.772 22:20 18.08.2019
3427 Clouds 10 1015 63 0 1.64 157.772 21:56 18.08.2019
3428 Clouds 10 1015 63 0 1.64 157.772 21:37 18.08.2019
3429 Clouds 13 1013 48 0 2.48 159.736 21:19 18.08.2019
3430 Clouds 13 1013 48 0 2.48 159.736 20:44 18.08.2019
3431 Clouds 13 1013 48 0 2.48 159.736 20:26 18.08.2019
3432 Clouds 13 1013 48 0 2.48 159.736 19:59 18.08.2019
3433 Clouds 13 1013 48 0 2.48 159.736 19:40 18.08.2019
3434 Clouds 13 1013 48 0 2.48 159.736 19:40 18.08.2019
3435 Clouds 13 1013 48 0 2.48 159.736 19:22 18.08.2019
3436 Clouds 13 1013 48 0 2.48 159.736 18:54 18.08.2019
3437 Clouds 13 1013 48 0 2.48 159.736 18:36 18.08.2019
3438 Clear 14 1011 43 0 0.9 86.042 18:18 18.08.2019
3439 Clear 14 1011 43 0 0.9 86.042 17:43 18.08.2019
3440 Clear 14 1011 43 0 0.9 86.042 17:19 18.08.2019
3441 Clear 14 1011 43 0 0.9 86.042 17:19 18.08.2019
3442 Clear 14 1011 43 0 0.9 86.042 16:59 18.08.2019
3443 Clear 14 1011 43 0 0.9 86.042 16:40 18.08.2019
3444 Clear 14 1011 43 0 0.9 86.042 16:20 18.08.2019
3445 Clear 14 1011 43 0 0.9 86.042 15:58 18.08.2019
3446 Clear 14 1011 43 0 0.9 86.042 15:38 18.08.2019
3447 Clear 19 1005 40 0 0.88 14.965 15:20 18.08.2019
3448 Clear 19 1005 40 0 0.88 14.965 15:20 18.08.2019
3449 Clear 19 1005 40 0 0.88 14.965 15:20 18.08.2019
3450 Clear 19 1005 40 0 0.88 14.965 14:56 18.08.2019
3451 Clear 19 1005 40 0 0.88 14.965 14:37 18.08.2019
3452 Clear 19 1005 40 0 0.88 14.965 14:37 18.08.2019
3453 Clear 19 1005 40 0 0.88 14.965 14:18 18.08.2019
3454 Clear 19 1005 40 0 0.88 14.965 13:43 18.08.2019
3455 Clear 19 1005 40 0 0.88 14.965 13:24 18.08.2019
3456 Clear 19 1005 40 0 0.88 14.965 12:59 18.08.2019
3457 Clear 19 1005 40 0 0.88 14.965 12:39 18.08.2019
3458 Clear 21 1005 26 0 1 204.595 12:21 18.08.2019
3459 Clear 21 1005 26 0 1 204.595 12:21 18.08.2019
3460 Clear 21 1005 26 0 1 204.595 11:44 18.08.2019
3461 Clear 21 1005 26 0 1 204.595 11:23 18.08.2019
3462 Clear 21 1005 26 0 1 204.595 10:59 18.08.2019
3463 Clear 21 1005 26 0 1 204.595 10:41 18.08.2019
3464 Clear 21 1005 26 0 1 204.595 10:19 18.08.2019
3465 Clear 21 1005 26 0 1 204.595 09:48 18.08.2019
3466 Clear 19 1008 35 0 2.33 186.321 09:21 18.08.2019
3467 Clear 19 1008 35 0 2.33 186.321 08:54 18.08.2019
3468 Clear 19 1008 35 0 2.33 186.321 08:36 18.08.2019
3469 Clear 19 1008 35 0 2.33 186.321 08:18 18.08.2019
3470 Clear 19 1008 35 0 2.33 186.321 07:42 18.08.2019
3471 Clear 19 1008 35 0 2.33 186.321 07:23 18.08.2019
3472 Clear 15 1014 48 0 2.3 175.121 05:46 18.08.2019
3473 Clear 15 1014 48 0 2.3 175.121 04:52 18.08.2019
3474 Clouds 10 1017 72 0 1.87 141.867 03:23 18.08.2019
3475 Clouds 10 1017 72 0 1.87 141.867 02:46 18.08.2019
3476 Clouds 10 1017 72 0 1.87 141.867 02:19 18.08.2019
3477 Clouds 9 1017 71 0 1.9 139.389 01:30 18.08.2019
3478 Clouds 9 1017 71 0 1.9 139.389 00:56 18.08.2019
3479 Clouds 9 1017 71 0 1.9 139.389 00:37 18.08.2019
3480 Clouds 11 1015 62 0 2.42 161.865 00:18 18.08.2019
3481 Clouds 11 1015 62 0 2.42 161.865 23:56 17.08.2019
3482 Clouds 11 1015 62 0 2.42 161.865 23:36 17.08.2019
3483 Clouds 11 1015 62 0 2.42 161.865 23:18 17.08.2019
3484 Clouds 11 1015 62 0 2.42 161.865 23:18 17.08.2019
3485 Clouds 11 1015 62 0 2.42 161.865 22:42 17.08.2019
3486 Clouds 11 1015 62 0 2.42 161.865 22:23 17.08.2019
3487 Clouds 11 1015 62 0 2.42 161.865 21:59 17.08.2019
3488 Clouds 11 1015 62 0 2.42 161.865 21:40 17.08.2019
3489 Clouds 12 1014 55 0 2.28 156.557 21:22 17.08.2019
3490 Clouds 12 1014 55 0 2.28 156.557 20:40 17.08.2019
3491 Clouds 12 1014 55 0 2.28 156.557 20:21 17.08.2019
3492 Clouds 12 1014 55 0 2.28 156.557 19:58 17.08.2019
3493 Clouds 12 1014 55 0 2.28 156.557 19:39 17.08.2019
3494 Clouds 12 1014 55 0 2.28 156.557 19:20 17.08.2019
3495 Clouds 12 1014 55 0 2.28 156.557 18:41 17.08.2019
3496 Clouds 14 1012 51 0 1.62 148.115 18:19 17.08.2019
3497 Clouds 14 1012 51 0 1.62 148.115 17:58 17.08.2019
3498 Clouds 14 1012 51 0 1.62 148.115 17:40 17.08.2019
3499 Clouds 14 1012 51 0 1.62 148.115 17:21 17.08.2019
3500 Clouds 14 1012 51 0 1.62 148.115 17:21 17.08.2019
3501 Clouds 14 1012 51 0 1.62 148.115 16:55 17.08.2019
3502 Clouds 14 1012 51 0 1.62 148.115 16:36 17.08.2019
3503 Clouds 14 1012 51 0 1.62 148.115 16:18 17.08.2019
3504 Clouds 14 1012 51 0 1.62 148.115 15:41 17.08.2019
3505 Clouds 19 1006 43 0 1.51 135.457 15:21 17.08.2019
3506 Clouds 19 1006 43 0 1.51 135.457 14:56 17.08.2019
3507 Clouds 19 1006 43 0 1.51 135.457 14:36 17.08.2019
3508 Clouds 19 1006 43 0 1.51 135.457 14:18 17.08.2019
3509 Clouds 19 1006 43 0 1.51 135.457 13:42 17.08.2019
3510 Clouds 19 1005 45 0 0.16 95.194 13:19 17.08.2019
3511 Clouds 19 1005 45 0 0.16 95.194 12:42 17.08.2019
3512 Clouds 21 1005 30 0 1.17 185.515 12:19 17.08.2019
3513 Clouds 21 1005 30 0 1.17 185.515 11:57 17.08.2019
3514 Clouds 21 1005 30 0 1.17 185.515 11:37 17.08.2019
3515 Clouds 21 1005 30 0 1.17 185.515 11:19 17.08.2019
3516 Clouds 21 1005 30 0 1.17 185.515 10:39 17.08.2019
3517 Clouds 21 1005 30 0 1.17 185.515 10:20 17.08.2019
3518 Clouds 21 1005 30 0 1.17 185.515 09:52 17.08.2019
3519 Clouds 21 1005 30 0 1.17 185.515 09:32 17.08.2019
3520 Clouds 19 1009 37 0 2.36 175.989 08:57 17.08.2019
3521 Clouds 19 1009 37 0 2.36 175.989 08:28 17.08.2019
3522 Clouds 19 1009 37 0 2.36 175.989 07:56 17.08.2019
3523 Clouds 19 1009 37 0 2.36 175.989 07:38 17.08.2019
3524 Clouds 19 1009 37 0 2.36 175.989 07:19 17.08.2019
3525 Clouds 15 1013 49 0 2.26 170.692 05:58 17.08.2019
3526 Clouds 15 1013 49 0 2.26 170.692 04:32 17.08.2019
3527 Clouds 15 1013 49 0 2.26 170.692 04:32 17.08.2019
3528 Clouds 15 1013 49 0 2.26 170.692 04:32 17.08.2019
3529 Clouds 15 1013 49 0 2.26 170.692 03:37 17.08.2019
3530 Clouds 9 1015 75 0 1.88 140.779 01:59 17.08.2019
3531 Clouds 9 1015 75 0 1.84 140.665 01:36 17.08.2019
3532 Clouds 9 1015 75 0 1.84 140.665 01:18 17.08.2019
3533 Clouds 9 1015 75 0 1.84 140.665 00:39 17.08.2019
3534 Clouds 10 1013 68 0 2.17 158.964 23:57 16.08.2019
3535 Clouds 10 1013 68 0 2.17 158.964 23:38 16.08.2019
3536 Clouds 10 1013 68 0 2.17 158.964 23:19 16.08.2019
3537 Clouds 10 1013 68 0 2.17 158.964 22:40 16.08.2019
3538 Clouds 10 1013 68 0 2.17 158.964 22:19 16.08.2019
3539 Clouds 10 1013 68 0 2.17 158.964 21:42 16.08.2019
3540 Clouds 12 1013 61 0 1.66 147.078 21:22 16.08.2019
3541 Clouds 12 1013 61 0 1.66 147.078 20:59 16.08.2019
3542 Clouds 12 1013 61 0 1.66 147.078 20:40 16.08.2019
3543 Clouds 12 1013 61 0 1.66 147.078 20:19 16.08.2019
3544 Clouds 12 1013 61 0 1.66 147.078 19:55 16.08.2019
3545 Clouds 12 1013 61 0 1.66 147.078 19:37 16.08.2019
3546 Clouds 12 1013 61 0 1.66 147.078 19:19 16.08.2019
3547 Clouds 12 1013 61 0 1.66 147.078 18:41 16.08.2019
3548 Clouds 14 1010 53 0 1.32 118.826 18:22 16.08.2019
3549 Clouds 14 1010 53 0 1.32 118.826 17:45 16.08.2019
3550 Clouds 14 1010 53 0 1.32 118.826 17:25 16.08.2019
3551 Clouds 14 1010 53 0 1.32 118.826 16:56 16.08.2019
3552 Clouds 14 1010 53 0 1.32 118.826 16:38 16.08.2019
3553 Clouds 14 1010 53 0 1.32 118.826 16:18 16.08.2019
3554 Clouds 14 1010 53 0 1.32 118.826 15:55 16.08.2019
3555 Clouds 14 1010 53 0 1.32 118.826 15:37 16.08.2019
3556 Clouds 19 1005 42 0 1.97 117.594 15:19 16.08.2019
3557 Clouds 19 1005 42 0 1.97 117.594 14:42 16.08.2019
3558 Clouds 19 1005 42 0 1.97 117.594 14:19 16.08.2019
3559 Clouds 19 1005 42 0 1.97 117.594 13:59 16.08.2019
3560 Clouds 19 1005 42 0 1.97 117.594 13:38 16.08.2019
3561 Clouds 20 1004 45 0 0.98 126.426 13:20 16.08.2019
3562 Clouds 20 1004 45 0 0.98 126.426 12:40 16.08.2019
3563 Clouds 21 1003 32 0 1.12 180.565 12:20 16.08.2019
3564 Clouds 21 1003 32 0 1.12 180.565 12:20 16.08.2019
3565 Clouds 21 1003 32 0 1.12 180.565 11:43 16.08.2019
3566 Clouds 21 1003 32 0 1.12 180.565 11:24 16.08.2019
3567 Clouds 21 1003 32 0 1.12 180.565 11:24 16.08.2019
3568 Clouds 21 1003 32 0 1.12 180.565 10:59 16.08.2019
3569 Clouds 21 1003 32 0 1.12 180.565 10:41 16.08.2019
3570 Clouds 21 1003 32 0 1.12 180.565 10:20 16.08.2019
3571 Clouds 21 1003 32 0 1.12 180.565 09:38 16.08.2019
3572 Clouds 19 1007 40 0 2.32 182.675 09:19 16.08.2019
3573 Clouds 19 1007 40 0 2.32 182.675 08:57 16.08.2019
3574 Clouds 19 1007 40 0 2.32 182.675 08:38 16.08.2019
3575 Clouds 19 1007 40 0 2.32 182.675 08:19 16.08.2019
3576 Clouds 19 1007 40 0 2.32 182.675 07:44 16.08.2019
3577 Clouds 19 1007 40 0 2.32 182.675 07:25 16.08.2019
3578 Clouds 19 1007 40 0 2.32 182.675 06:43 16.08.2019
3579 Clouds 15 1011 53 0 2.38 169.704 05:58 16.08.2019
3580 Clouds 15 1011 53 0 2.38 169.704 05:33 16.08.2019
3581 Clouds 10 1013 76 0 1.93 138.507 03:19 16.08.2019
3582 Clouds 10 1013 76 0 1.93 138.507 01:52 16.08.2019
3583 Clouds 10 1013 76 0 1.91 138.254 01:25 16.08.2019
3584 Clouds 10 1013 76 0 1.91 138.254 00:50 16.08.2019
3585 Clouds 11 1011 65 0 2.19 160.422 00:23 16.08.2019
3586 Clouds 11 1011 65 0 2.19 160.422 23:57 15.08.2019
3587 Clouds 11 1011 65 0 2.19 160.422 23:38 15.08.2019
3588 Clouds 11 1011 65 0 2.19 160.422 23:18 15.08.2019
3589 Clouds 11 1011 65 0 2.19 160.422 22:41 15.08.2019
3590 Clouds 11 1011 65 0 2.19 160.422 22:22 15.08.2019
3591 Clouds 11 1011 65 0 2.19 160.422 21:58 15.08.2019
3592 Clouds 11 1012 65 0 2.1 155.644 21:39 15.08.2019
3593 Clouds 12 1011 55 0 1.3 182.77 21:19 15.08.2019
3594 Clouds 12 1011 55 0 1.3 182.77 20:57 15.08.2019
3595 Clouds 12 1011 55 0 1.3 182.77 20:38 15.08.2019
3596 Clouds 12 1011 55 0 1.3 182.77 20:20 15.08.2019
3597 Clouds 12 1011 55 0 1.3 182.77 19:40 15.08.2019
3598 Clouds 12 1011 55 0 1.3 182.77 19:21 15.08.2019
3599 Clouds 12 1011 55 0 1.3 182.77 18:57 15.08.2019
3600 Clouds 12 1011 55 0 1.3 182.77 18:39 15.08.2019
3601 Clouds 14 1010 53 0 0.53 233.302 18:21 15.08.2019
3602 Clouds 14 1010 53 0 0.53 233.302 17:54 15.08.2019
3603 Clouds 14 1010 53 0 0.53 233.302 17:36 15.08.2019
3604 Clouds 14 1010 53 0 0.53 233.302 17:18 15.08.2019
3605 Clouds 14 1010 53 0 0.53 233.302 16:42 15.08.2019
3606 Clouds 14 1010 53 0 0.53 233.302 16:23 15.08.2019
3607 Clouds 14 1010 53 0 0.53 233.302 15:55 15.08.2019
3608 Clouds 14 1010 53 0 0.53 233.302 15:36 15.08.2019
3609 Clouds 19 1004 45 0 0.37 220.126 15:18 15.08.2019
3610 Clouds 19 1004 45 0 0.37 220.126 14:41 15.08.2019
3611 Clouds 19 1004 45 0 0.37 220.126 14:22 15.08.2019
3612 Clouds 19 1004 45 0 0.37 220.126 13:57 15.08.2019
3613 Clouds 19 1004 45 0 0.37 220.126 13:39 15.08.2019
3614 Clouds 20 1004 45 0 0.87 235.525 13:20 15.08.2019
3615 Clouds 20 1004 45 0 0.87 235.525 12:55 15.08.2019
3616 Clouds 20 1004 45 0 0.87 235.525 12:36 15.08.2019
3617 Clouds 21 1004 32 0 1.28 224.747 12:18 15.08.2019
3618 Clouds 21 1004 32 0 1.28 224.747 11:40 15.08.2019
3619 Clouds 21 1004 32 0 1.28 224.747 11:21 15.08.2019
3620 Clouds 21 1004 32 0 1.28 224.747 10:59 15.08.2019
3621 Clouds 21 1004 32 0 1.28 224.747 10:38 15.08.2019
3622 Clouds 21 1004 32 0 1.28 224.747 10:38 15.08.2019
3623 Clouds 21 1004 32 0 1.28 224.747 10:20 15.08.2019
3624 Clouds 21 1004 32 0 1.28 224.747 09:45 15.08.2019
3625 Rain 19 1008 40 0 2.01 198.489 09:24 15.08.2019
3626 Rain 19 1008 40 0 2.01 198.489 08:57 15.08.2019
3627 Rain 19 1008 40 0 2.01 198.489 08:37 15.08.2019
3628 Rain 19 1008 40 0 2.01 198.489 08:37 15.08.2019
3629 Rain 19 1008 40 0 2.01 198.489 08:18 15.08.2019
3630 Rain 19 1008 40 0 2.01 198.489 07:44 15.08.2019
3631 Rain 19 1008 40 0 2.01 198.489 07:26 15.08.2019
3632 Rain 19 1008 40 0 2.01 198.489 06:54 15.08.2019
3633 Rain 19 1008 40 0 2.01 198.489 06:33 15.08.2019
3634 Rain 15 1014 53 0 1.96 173.002 05:48 15.08.2019
3635 Rain 15 1014 53 0 1.96 173.002 05:28 15.08.2019
3636 Rain 15 1014 53 0 1.96 173.002 04:34 15.08.2019
3637 Rain 15 1014 53 0 1.96 173.002 03:39 15.08.2019
3638 Rain 10 1016 79 0 1.02 150.569 02:45 15.08.2019
3639 Rain 10 1016 79 0 1.02 150.569 01:52 15.08.2019
3640 Clouds 10 1016 79 0 1.09 126.765 01:31 15.08.2019
3641 Clouds 10 1016 79 0 1.09 126.765 00:41 15.08.2019
3642 Rain 9 1015 81 0 1.31 134.132 00:21 15.08.2019
3643 Rain 9 1015 81 0 1.31 134.132 23:57 14.08.2019
3644 Rain 9 1015 81 0 1.31 134.132 23:38 14.08.2019
3645 Rain 9 1015 81 0 1.31 134.132 23:19 14.08.2019
3646 Rain 9 1015 81 0 1.31 134.132 22:57 14.08.2019
3647 Rain 9 1015 81 0 1.31 134.132 22:38 14.08.2019
3648 Rain 9 1015 81 0 1.31 134.132 22:19 14.08.2019
3649 Rain 9 1015 81 0 1.31 134.132 21:55 14.08.2019
3650 Rain 9 1015 81 0 1.31 134.132 21:55 14.08.2019
3651 Rain 9 1015 81 0 1.31 134.132 21:55 14.08.2019
3652 Rain 9 1015 81 0 1.31 134.132 21:55 14.08.2019
3653 Rain 9 1015 81 0 1.31 134.132 21:37 14.08.2019
3654 Rain 10 1014 81 0 3.17 150.594 21:18 14.08.2019
3655 Rain 10 1014 81 0 3.17 150.594 20:42 14.08.2019
3656 Rain 10 1014 81 0 3.17 150.594 20:21 14.08.2019
3657 Rain 10 1014 81 0 3.17 150.594 20:21 14.08.2019
3658 Rain 10 1014 81 0 3.17 150.594 20:21 14.08.2019
3659 Rain 10 1014 81 0 3.17 150.594 19:56 14.08.2019
3660 Rain 10 1014 81 0 3.17 150.594 19:38 14.08.2019
3661 Rain 10 1014 81 0 3.17 150.594 19:19 14.08.2019
3662 Rain 10 1014 81 0 3.17 150.594 18:57 14.08.2019
3663 Rain 10 1014 81 0 3.17 150.594 18:38 14.08.2019
3664 Rain 13 1013 61 0 2.51 352.801 18:19 14.08.2019
3665 Rain 13 1013 61 0 2.51 352.801 17:56 14.08.2019
3666 Rain 13 1013 61 0 2.51 352.801 17:37 14.08.2019
3667 Rain 13 1013 61 0 2.51 352.801 17:19 14.08.2019
3668 Rain 13 1013 61 0 2.51 352.801 16:43 14.08.2019
3669 Rain 13 1013 61 0 2.51 352.801 16:20 14.08.2019
3670 Rain 13 1013 61 0 2.51 352.801 15:55 14.08.2019
3671 Rain 13 1013 61 0 2.51 352.801 15:37 14.08.2019
3672 Clouds 18 1007 48 0 0.69 221.108 15:18 14.08.2019
3673 Clouds 18 1007 48 0 0.69 221.108 14:41 14.08.2019
3674 Clouds 18 1007 48 0 0.69 221.108 14:19 14.08.2019
3675 Clouds 18 1007 48 0 0.69 221.108 13:59 14.08.2019
3676 Clouds 18 1007 48 0 0.69 221.108 13:41 14.08.2019
3677 Rain 19 1006 46 0 1.27 230.869 13:22 14.08.2019
3678 Rain 19 1006 46 0 1.27 230.869 13:22 14.08.2019
3679 Rain 19 1006 46 0 1.27 230.869 13:22 14.08.2019
3680 Rain 19 1006 46 0 1.27 230.869 12:56 14.08.2019
3681 Rain 19 1006 46 0 1.27 230.869 12:38 14.08.2019
3682 Rain 20 1006 37 0 0.7 185.076 12:19 14.08.2019
3683 Rain 20 1006 37 0 0.7 185.076 11:46 14.08.2019
3684 Rain 20 1006 37 0 0.7 185.076 11:23 14.08.2019
3685 Rain 20 1006 37 0 0.7 185.076 10:58 14.08.2019
3686 Rain 20 1006 37 0 0.7 185.076 10:38 14.08.2019
3687 Rain 20 1006 37 0 0.7 185.076 10:38 14.08.2019
3688 Rain 20 1006 37 0 0.7 185.076 10:38 14.08.2019
3689 Rain 20 1006 37 0 0.7 185.076 10:20 14.08.2019
3690 Rain 20 1006 37 0 0.7 185.076 09:44 14.08.2019
3691 Rain 20 1006 37 0 0.7 185.076 09:44 14.08.2019
3692 Rain 17 1010 47 0 1.77 207.899 09:21 14.08.2019
3693 Rain 17 1010 47 0 1.77 207.899 09:21 14.08.2019
3694 Rain 17 1011 50 0 2.69 205.143 08:47 14.08.2019
3695 Rain 17 1011 50 0 2.69 205.143 08:29 14.08.2019
3696 Rain 17 1011 50 0 2.69 205.143 07:57 14.08.2019
3697 Rain 17 1011 50 0 2.69 205.143 07:38 14.08.2019
3698 Rain 17 1011 50 0 2.69 205.143 07:19 14.08.2019
3699 Rain 17 1011 50 0 2.69 205.143 06:43 14.08.2019
3700 Rain 13 1016 61 0 0.81 267.8 05:47 14.08.2019
3701 Rain 13 1016 61 0 0.81 267.8 04:45 14.08.2019
3702 Rain 9 1018 83 0 0.66 324.198 02:47 14.08.2019
3703 Rain 9 1018 83 0 0.66 324.198 02:25 14.08.2019
3704 Rain 9 1017 87 0 1.04 253.132 01:30 14.08.2019
3705 Rain 9 1017 87 0 1.04 253.132 00:47 14.08.2019
3706 Rain 10 1016 84 0 2.96 184.707 23:46 13.08.2019
3707 Rain 10 1016 84 0 2.96 184.707 23:20 13.08.2019
3708 Rain 10 1016 84 0 2.96 184.707 22:57 13.08.2019
3709 Rain 10 1016 84 0 2.96 184.707 22:38 13.08.2019
3710 Rain 10 1016 84 0 2.96 184.707 22:20 13.08.2019
3711 Rain 10 1016 84 0 2.96 184.707 21:56 13.08.2019
3712 Rain 10 1016 84 0 2.96 184.707 21:56 13.08.2019
3713 Rain 10 1016 84 0 2.96 184.707 21:36 13.08.2019
3714 Rain 10 1016 77 0 0.83 265.623 21:18 13.08.2019
3715 Rain 10 1016 77 0 0.83 265.623 20:44 13.08.2019
3716 Rain 10 1016 77 0 0.83 265.623 20:20 13.08.2019
3717 Rain 10 1016 77 0 0.83 265.623 19:57 13.08.2019
3718 Rain 10 1016 77 0 0.83 265.623 19:39 13.08.2019
3719 Rain 10 1016 77 0 0.83 265.623 19:20 13.08.2019
3720 Rain 10 1016 77 0 0.83 265.623 18:42 13.08.2019
3721 Rain 13 1015 63 0 3.87 14.916 18:22 13.08.2019
3722 Rain 13 1015 63 0 3.87 14.916 18:22 13.08.2019
3723 Rain 13 1015 63 0 3.87 14.916 17:57 13.08.2019
3724 Rain 13 1015 63 0 3.87 14.916 17:39 13.08.2019
3725 Rain 13 1015 63 0 3.87 14.916 17:19 13.08.2019
3726 Rain 13 1015 63 0 3.87 14.916 17:19 13.08.2019
3727 Rain 13 1015 63 0 3.87 14.916 16:56 13.08.2019
3728 Rain 13 1015 63 0 3.87 14.916 16:56 13.08.2019
3729 Rain 13 1015 63 0 3.87 14.916 16:37 13.08.2019
3730 Rain 13 1015 63 0 3.87 14.916 16:18 13.08.2019
3731 Rain 13 1015 63 0 3.87 14.916 15:38 13.08.2019
3732 Rain 18 1009 46 0 1.45 41.679 15:20 13.08.2019
3733 Rain 18 1009 46 0 1.45 41.679 15:20 13.08.2019
3734 Rain 18 1009 46 0 1.45 41.679 14:55 13.08.2019
3735 Rain 18 1009 46 0 1.45 41.679 14:37 13.08.2019
3736 Rain 18 1009 46 0 1.45 41.679 14:18 13.08.2019
3737 Rain 18 1009 46 0 1.45 41.679 13:41 13.08.2019
3738 Rain 18 1009 46 0 2.13 321.533 13:21 13.08.2019
3739 Rain 18 1009 46 0 2.13 321.533 12:58 13.08.2019
3740 Rain 18 1009 46 0 2.13 321.533 12:40 13.08.2019
3741 Rain 21 1007 33 0 0.71 27.325 12:21 13.08.2019
3742 Rain 21 1007 33 0 0.71 27.325 11:57 13.08.2019
3743 Rain 21 1007 33 0 0.71 27.325 11:37 13.08.2019
3744 Rain 21 1007 33 0 0.71 27.325 11:18 13.08.2019
3745 Rain 21 1007 33 0 0.71 27.325 10:55 13.08.2019
3746 Rain 21 1007 33 0 0.71 27.325 10:36 13.08.2019
3747 Rain 21 1007 33 0 0.71 27.325 10:18 13.08.2019
3748 -273 0 0 0 0 0 09:42 13.08.2019
3749 Rain 18 1010 41 0 1.02 124.375 09:23 13.08.2019
3750 Rain 18 1010 41 0 1.02 124.375 08:43 13.08.2019
3751 Rain 18 1010 41 0 1.02 124.375 08:22 13.08.2019
3752 Rain 18 1010 41 0 1.02 124.375 07:56 13.08.2019
3753 Rain 18 1010 41 0 1.02 124.375 07:32 13.08.2019
3754 Rain 18 1010 41 0 1.02 124.375 06:53 13.08.2019
3755 Rain 18 1010 41 0 1.02 124.375 06:34 13.08.2019
3756 Rain 14 1015 52 0 1.74 145.24 05:34 13.08.2019
3757 Clouds 11 1016 69 0 1.22 145.373 02:38 13.08.2019
3758 Clouds 11 1016 69 0 1.22 145.373 01:58 13.08.2019
3759 Clear 9 1016 77 0 1.21 127.135 00:56 13.08.2019
3760 Clear 9 1016 77 0 1.21 127.135 00:37 13.08.2019
3761 Clear 9 1013 71 0 1.59 137.887 23:49 12.08.2019
3762 Clear 9 1013 71 0 1.59 137.887 23:24 12.08.2019
3763 Clear 9 1013 71 0 1.59 137.887 22:58 12.08.2019
3764 Clear 9 1013 71 0 1.59 137.887 22:39 12.08.2019
3765 Clear 9 1013 71 0 1.59 137.887 22:19 12.08.2019
3766 Clear 9 1013 71 0 1.59 137.887 21:55 12.08.2019
3767 Clear 9 1013 71 0 1.59 137.887 21:37 12.08.2019
3768 Rain 11 1013 61 0 2 151.026 21:18 12.08.2019
3769 Rain 11 1013 61 0 2 151.026 20:56 12.08.2019
3770 Rain 11 1013 61 0 2 151.026 20:56 12.08.2019
3771 Rain 11 1013 61 0 2 151.026 20:37 12.08.2019
3772 Rain 11 1013 61 0 2 151.026 20:19 12.08.2019
3773 Rain 11 1013 61 0 2 151.026 19:55 12.08.2019
3774 Rain 11 1013 61 0 2 151.026 19:36 12.08.2019
3775 Rain 11 1013 61 0 2 151.026 19:18 12.08.2019
3776 Rain 11 1013 61 0 2 151.026 18:54 12.08.2019
3777 Rain 11 1013 61 0 2 151.026 18:36 12.08.2019
3778 Clear 13 1012 54 0 0.03 165.964 18:18 12.08.2019
3779 Clear 13 1012 54 0 0.03 165.964 17:46 12.08.2019
3780 Clear 13 1012 54 0 0.03 165.964 17:27 12.08.2019
3781 Clear 13 1012 54 0 0.03 165.964 16:56 12.08.2019
3782 Clear 13 1012 54 0 0.03 165.964 16:38 12.08.2019
3783 Clear 13 1012 54 0 0.03 165.964 16:19 12.08.2019
3784 Clear 13 1012 54 0 0.03 165.964 15:57 12.08.2019
3785 Clear 13 1012 54 0 0.03 165.964 15:57 12.08.2019
3786 Clear 13 1012 54 0 0.03 165.964 15:38 12.08.2019
3787 Clear 13 1012 54 0 0.03 165.964 15:38 12.08.2019
3788 Clear 18 1006 44 0 0.96 210.441 15:20 12.08.2019
3789 Clear 18 1006 44 0 0.96 210.441 14:54 12.08.2019
3790 -273 0 0 0 0 0 14:36 12.08.2019
3791 Clear 18 1006 44 0 0.96 210.441 14:18 12.08.2019
3792 Clear 18 1006 44 0 0.96 210.441 13:42 12.08.2019
3793 Clear 18 1006 44 0 0.95 194.08 13:23 12.08.2019
3794 Clear 18 1006 44 0 0.95 194.08 12:44 12.08.2019
3795 Clear 19 1006 34 0 1.32 197.196 12:22 12.08.2019
3796 Clear 19 1006 34 0 1.32 197.196 11:56 12.08.2019
3797 Clear 19 1006 34 0 1.32 197.196 11:38 12.08.2019
3798 Clear 19 1006 34 0 1.32 197.196 11:19 12.08.2019
3799 Clear 19 1006 34 0 1.32 197.196 10:40 12.08.2019
3800 Clear 19 1006 34 0 1.32 197.196 10:22 12.08.2019
3801 Clear 19 1006 34 0 1.32 197.196 09:56 12.08.2019
3802 Clear 19 1006 34 0 1.32 197.196 09:37 12.08.2019
3803 Rain 17 1010 42 0 1.66 196.035 09:18 12.08.2019
3804 Rain 17 1010 42 0 1.66 196.035 08:41 12.08.2019
3805 Rain 17 1010 42 0 1.66 196.035 08:23 12.08.2019
3806 Rain 17 1010 42 0 1.66 196.035 07:56 12.08.2019
3807 Rain 17 1010 42 0 1.66 196.035 07:36 12.08.2019
3808 Rain 17 1010 42 0 1.66 196.035 06:58 12.08.2019
3809 Clouds 12 1015 61 0 1.71 168.322 06:22 12.08.2019
3810 Clouds 12 1015 61 0 1.71 168.322 04:31 12.08.2019
3811 Clouds 8 1017 87 0 1.51 141.067 02:43 12.08.2019
3812 Clouds 8 1017 87 0 1.51 141.067 01:48 12.08.2019
3813 Clouds 8 1017 87 0 1.51 141.067 01:19 12.08.2019
3814 Clouds 8 1017 87 0 1.51 141.067 00:55 12.08.2019
3815 Clouds 8 1017 87 0 1.51 141.067 00:37 12.08.2019
3816 Clouds 7 1015 84 0 1.35 129.724 00:18 12.08.2019
3817 Clouds 7 1015 84 0 1.35 129.724 23:40 11.08.2019
3818 Clouds 7 1015 84 0 1.35 129.724 23:20 11.08.2019
3819 Clouds 7 1015 84 0 1.35 129.724 22:57 11.08.2019
3820 Clouds 7 1015 84 0 1.35 129.724 22:38 11.08.2019
3821 Clouds 7 1015 84 0 1.35 129.724 22:18 11.08.2019
3822 Clouds 7 1015 84 0 1.35 129.724 21:56 11.08.2019
3823 Clouds 7 1015 84 0 1.35 129.724 21:38 11.08.2019
3824 Rain 8 1015 81 0 0.86 136.887 21:19 11.08.2019
3825 Rain 8 1015 81 0 0.86 136.887 20:44 11.08.2019
3826 Rain 8 1015 81 0 0.86 136.887 20:23 11.08.2019
3827 Rain 8 1015 81 0 0.86 136.887 19:56 11.08.2019
3828 Rain 8 1015 81 0 0.86 136.887 19:37 11.08.2019
3829 Rain 8 1015 81 0 0.86 136.887 19:18 11.08.2019
3830 Rain 8 1015 81 0 0.86 136.887 18:40 11.08.2019
3831 Rain 9 1014 76 0 0.97 68.716 18:20 11.08.2019
3832 Rain 9 1014 76 0 0.97 68.716 17:56 11.08.2019
3833 Rain 9 1014 76 0 0.97 68.716 17:38 11.08.2019
3834 Rain 9 1014 76 0 0.97 68.716 17:19 11.08.2019
3835 Rain 9 1014 76 0 0.97 68.716 16:55 11.08.2019
3836 Rain 9 1014 76 0 0.97 68.716 16:37 11.08.2019
3837 Rain 9 1014 76 0 0.97 68.716 16:18 11.08.2019
3838 Rain 9 1014 76 0 0.97 68.716 15:42 11.08.2019
3839 Rain 14 1009 56 0 1.92 40.967 15:22 11.08.2019
3840 Rain 14 1009 56 0 1.92 40.967 14:56 11.08.2019
3841 Rain 14 1009 56 0 1.92 40.967 14:38 11.08.2019
3842 Rain 14 1009 56 0 1.92 40.967 14:19 11.08.2019
3843 Rain 14 1009 56 0 1.92 40.967 13:43 11.08.2019
3844 Rain 14 1008 57 0 2.8 30.876 13:24 11.08.2019
3845 Rain 14 1008 57 0 2.8 30.876 12:48 11.08.2019
3846 Clouds 16 1008 50 0 2.44 17.76 12:23 11.08.2019
3847 Clouds 16 1008 50 0 2.44 17.76 11:55 11.08.2019
3848 Clouds 16 1008 50 0 2.44 17.76 11:36 11.08.2019
3849 Clouds 16 1008 50 0 2.44 17.76 11:18 11.08.2019
3850 Clouds 16 1008 50 0 2.44 17.76 10:41 11.08.2019
3851 Clouds 16 1008 50 0 2.44 17.76 10:22 11.08.2019
3852 Clouds 16 1008 50 0 2.44 17.76 09:58 11.08.2019
3853 Clouds 16 1008 50 0 2.44 17.76 09:38 11.08.2019
3854 Rain 12 1012 64 0 2.72 5.091 09:19 11.08.2019
3855 Rain 13 1012 61 0 1.66 359.62 08:44 11.08.2019
3856 Rain 13 1012 61 0 1.66 359.62 08:26 11.08.2019
3857 Rain 13 1012 61 0 1.66 359.62 07:54 11.08.2019
3858 Rain 13 1012 61 0 1.66 359.62 07:23 11.08.2019
3859 Rain 13 1012 61 0 1.66 359.62 06:44 11.08.2019
3860 Rain 7 1016 86 0 1.37 189.676 05:35 11.08.2019
3861 Rain 7 1016 86 0 1.37 189.676 03:43 11.08.2019
3862 Rain 7 1016 90 0 2.71 190.345 02:49 11.08.2019
3863 Rain 7 1016 90 0 2.71 190.345 01:39 11.08.2019
3864 Rain 7 1016 93 0 2.38 209.293 01:20 11.08.2019
3865 Rain 7 1016 93 0 2.38 209.293 01:20 11.08.2019
3866 Rain 7 1016 93 0 2.38 209.293 00:44 11.08.2019
3867 Rain 9 1015 81 0 3.45 183.994 00:25 11.08.2019
3868 Rain 9 1015 81 0 3.45 183.994 23:45 10.08.2019
3869 Rain 9 1015 81 0 3.45 183.994 23:27 10.08.2019
3870 Rain 9 1015 81 0 3.45 183.994 22:43 10.08.2019
3871 Rain 9 1015 81 0 3.45 183.994 22:25 10.08.2019
3872 Rain 9 1015 81 0 3.45 183.994 21:58 10.08.2019
3873 Rain 9 1015 81 0 3.45 183.994 21:38 10.08.2019
3874 Rain 11 1015 69 0 0.39 40.28 21:19 10.08.2019
3875 Rain 11 1015 69 0 0.39 40.28 20:56 10.08.2019
3876 Rain 11 1015 69 0 0.39 40.28 20:37 10.08.2019
3877 Rain 11 1015 69 0 0.39 40.28 20:18 10.08.2019
3878 Rain 11 1015 69 0 0.39 40.28 19:39 10.08.2019
3879 Rain 11 1015 69 0 0.39 40.28 19:21 10.08.2019
3880 Rain 11 1015 69 0 0.39 40.28 18:41 10.08.2019
3881 Rain 11 1014 65 0 1.75 24.411 18:22 10.08.2019
3882 Rain 11 1014 65 0 1.75 24.411 17:46 10.08.2019
3883 Rain 11 1014 65 0 1.75 24.411 17:25 10.08.2019
3884 Rain 11 1014 65 0 1.75 24.411 16:47 10.08.2019
3885 Rain 11 1014 65 0 1.75 24.411 16:29 10.08.2019
3886 Rain 11 1014 65 0 1.75 24.411 15:59 10.08.2019
3887 Rain 11 1014 65 0 1.75 24.411 15:40 10.08.2019
3888 Clouds 15 1007 56 0 3.1 343.292 15:21 10.08.2019
3889 Clouds 15 1007 56 0 3.1 343.292 14:43 10.08.2019
3890 Clouds 15 1007 56 0 3.1 343.292 14:18 10.08.2019
3891 Clouds 15 1007 56 0 3.1 343.292 13:39 10.08.2019
3892 Rain 15 1007 56 0 3.34 346.259 13:19 10.08.2019
3893 Rain 15 1007 56 0 3.34 346.259 12:42 10.08.2019
3894 Clouds 18 1006 42 0 1.17 284.569 12:22 10.08.2019
3895 Clouds 18 1006 42 0 1.17 284.569 11:57 10.08.2019
3896 Clouds 18 1006 42 0 1.17 284.569 11:39 10.08.2019
3897 Clouds 18 1006 42 0 1.17 284.569 11:20 10.08.2019
3898 Clouds 18 1006 42 0 1.17 284.569 10:39 10.08.2019
3899 Clouds 18 1006 42 0 1.17 284.569 10:20 10.08.2019
3900 Clouds 18 1006 42 0 1.17 284.569 09:59 10.08.2019
3901 Clouds 18 1006 42 0 1.17 284.569 09:38 10.08.2019
3902 Rain 14 1009 60 0 0.88 71.813 09:20 10.08.2019
3903 Rain 14 1010 61 0 1.89 185.942 08:39 10.08.2019
3904 Rain 14 1010 61 0 1.89 185.942 08:19 10.08.2019
3905 Rain 14 1010 61 0 1.89 185.942 07:52 10.08.2019
3906 Rain 14 1010 61 0 1.89 185.942 07:27 10.08.2019
3907 Rain 14 1010 61 0 1.89 185.942 06:48 10.08.2019
3908 Rain 8 1013 88 0 2.17 162.72 06:21 10.08.2019
3909 Rain 8 1013 88 0 2.17 162.72 05:24 10.08.2019
3910 Rain 8 1013 88 0 2.17 162.72 04:21 10.08.2019
3911 Rain 11 1015 73 0 1.15 168.387 02:54 10.08.2019
3912 Rain 11 1015 73 0 1.15 168.387 01:59 10.08.2019
3913 Rain 11 1015 73 0 1.15 168.387 01:40 10.08.2019
3914 Rain 10 1014 68 0 1.73 24.842 01:20 10.08.2019
3915 Rain 10 1014 68 0 1.73 24.842 00:44 10.08.2019
3916 Rain 10 1013 67 0 1.37 22.027 00:22 10.08.2019
3917 Rain 10 1013 67 0 1.37 22.027 23:43 09.08.2019
3918 Rain 10 1013 67 0 1.37 22.027 23:23 09.08.2019
3919 Rain 10 1013 67 0 1.37 22.027 22:57 09.08.2019
3920 Rain 10 1013 67 0 1.37 22.027 22:38 09.08.2019
3921 Rain 10 1013 67 0 1.37 22.027 22:20 09.08.2019
3922 Rain 10 1013 67 0 1.37 22.027 21:43 09.08.2019
3923 Rain 10 1014 70 0 0.9 29.856 21:23 09.08.2019
3924 Rain 10 1014 70 0 0.9 29.856 20:59 09.08.2019
3925 Rain 10 1014 72 0 1.11 37.663 20:40 09.08.2019
3926 Rain 10 1014 72 0 1.11 37.663 20:21 09.08.2019
3927 Rain 10 1014 72 0 1.11 37.663 19:56 09.08.2019
3928 Rain 10 1014 72 0 1.11 37.663 19:38 09.08.2019
3929 Rain 10 1014 72 0 1.11 37.663 19:18 09.08.2019
3930 Rain 10 1014 72 0 1.11 37.663 18:41 09.08.2019
3931 Rain 13 1013 59 0 2.31 7.334 18:22 09.08.2019
3932 Rain 13 1013 59 0 2.31 7.334 17:57 09.08.2019
3933 Rain 13 1013 59 0 2.31 7.334 17:39 09.08.2019
3934 Rain 13 1013 59 0 2.31 7.334 17:20 09.08.2019
3935 Rain 13 1013 59 0 2.31 7.334 16:41 09.08.2019
3936 Rain 13 1013 59 0 2.31 7.334 16:23 09.08.2019
3937 Rain 13 1013 59 0 2.31 7.334 15:57 09.08.2019
3938 Rain 13 1013 59 0 2.31 7.334 15:39 09.08.2019
3939 Rain 17 1008 50 0 1.67 34.706 15:20 09.08.2019
3940 Rain 17 1008 50 0 1.67 34.706 15:20 09.08.2019
3941 Rain 17 1008 50 0 1.67 34.706 14:55 09.08.2019
3942 -273 0 0 0 0 0 14:55 09.08.2019
3943 Rain 17 1008 50 0 1.67 34.706 14:36 09.08.2019
3944 Rain 17 1008 50 0 1.67 34.706 14:18 09.08.2019
3945 Rain 17 1008 50 0 1.67 34.706 13:42 09.08.2019
3946 Clouds 17 1008 49 0 2.06 38.938 13:20 09.08.2019
3947 Clouds 17 1008 49 0 2.06 38.938 12:46 09.08.2019
3948 Clouds 18 1008 42 0 0.99 0.232 12:24 09.08.2019
3949 Clouds 18 1008 42 0 0.99 0.232 11:58 09.08.2019
3950 Clouds 18 1008 42 0 0.99 0.232 11:37 09.08.2019
3951 Clouds 18 1008 42 0 0.99 0.232 11:19 09.08.2019
3952 Clouds 18 1008 42 0 0.99 0.232 10:40 09.08.2019
3953 Clouds 18 1008 42 0 0.99 0.232 10:40 09.08.2019
3954 Clouds 18 1008 42 0 0.99 0.232 10:22 09.08.2019
3955 Clouds 18 1008 42 0 0.99 0.232 09:46 09.08.2019
3956 Rain 14 1012 56 0 1.07 22.29 09:20 09.08.2019
3957 Rain 14 1012 56 0 1.07 22.29 08:58 09.08.2019
3958 Rain 16 1012 47 0 0.59 25.609 08:40 09.08.2019
3959 Rain 16 1012 47 0 0.59 25.609 08:20 09.08.2019
3960 Rain 16 1012 47 0 0.59 25.609 07:44 09.08.2019
3961 Rain 16 1012 47 0 0.59 25.609 07:24 09.08.2019
3962 Rain 16 1012 47 0 0.59 25.609 06:56 09.08.2019
3963 Rain 16 1012 47 0 0.59 25.609 06:33 09.08.2019
3964 Rain 11 1016 64 0 1.18 69.876 05:58 09.08.2019
3965 Rain 11 1016 64 0 1.18 69.876 04:22 09.08.2019
3966 Rain 8 1017 89 0 0.66 136.289 02:18 09.08.2019
3967 Rain 8 1017 92 0 1.13 240.205 00:49 09.08.2019
3968 Rain 8 1017 92 0 1.13 240.205 00:27 09.08.2019
3969 Rain 9 1016 83 0 3.02 167.576 23:59 08.08.2019
3970 Rain 9 1016 83 0 3.02 167.576 23:38 08.08.2019
3971 Rain 9 1016 83 0 3.02 167.576 23:20 08.08.2019
3972 Rain 9 1016 83 0 3.02 167.576 22:59 08.08.2019
3973 Rain 9 1016 83 0 3.02 167.576 22:59 08.08.2019
3974 Rain 9 1016 83 0 3.02 167.576 22:37 08.08.2019
3975 Rain 9 1016 83 0 3.02 167.576 22:37 08.08.2019
3976 Rain 9 1016 83 0 3.02 167.576 22:18 08.08.2019
3977 Rain 9 1016 83 0 3.02 167.576 21:58 08.08.2019
3978 Rain 9 1016 83 0 3.02 167.576 21:58 08.08.2019
3979 Rain 9 1016 83 0 3.02 167.576 21:40 08.08.2019
3980 Clouds 11 1016 64 0 1.28 43.32 21:21 08.08.2019
3981 Clouds 11 1016 64 0 1.28 43.32 20:55 08.08.2019
3982 Rain 11 1016 71 0 0.86 37.601 20:36 08.08.2019
3983 Rain 11 1016 71 0 0.86 37.601 20:18 08.08.2019
3984 Rain 11 1016 71 0 0.86 37.601 19:42 08.08.2019
3985 Rain 11 1016 71 0 0.86 37.601 19:21 08.08.2019
3986 Rain 11 1016 71 0 0.86 37.601 18:43 08.08.2019
3987 Rain 12 1014 63 0 1.88 23.938 18:23 08.08.2019
3988 Rain 12 1014 63 0 1.88 23.938 17:56 08.08.2019
3989 Rain 12 1014 63 0 1.88 23.938 17:37 08.08.2019
3990 Rain 12 1014 63 0 1.88 23.938 17:19 08.08.2019
3991 Rain 12 1014 63 0 1.88 23.938 16:43 08.08.2019
3992 Rain 12 1014 63 0 1.88 23.938 16:24 08.08.2019
3993 Rain 12 1014 63 0 1.88 23.938 15:59 08.08.2019
3994 Rain 12 1014 63 0 1.88 23.938 15:59 08.08.2019
3995 Rain 12 1014 63 0 1.88 23.938 15:41 08.08.2019
3996 Rain 15 1009 53 0 2.62 29.233 15:22 08.08.2019
3997 Rain 15 1009 53 0 2.62 29.233 14:42 08.08.2019
3998 Rain 15 1009 53 0 2.62 29.233 14:23 08.08.2019
3999 Rain 15 1009 53 0 2.62 29.233 13:59 08.08.2019
4000 Rain 15 1009 53 0 2.62 29.233 13:59 08.08.2019
4001 Rain 15 1009 53 0 2.62 29.233 13:38 08.08.2019
4002 Clouds 15 1008 53 0 2.82 31.714 13:18 08.08.2019
4003 Clouds 15 1008 53 0 2.82 31.714 13:18 08.08.2019
4004 Clouds 15 1008 53 0 2.82 31.714 12:40 08.08.2019
4005 Clouds 17 1008 47 0 3.3 21.45 12:20 08.08.2019
4006 Clouds 17 1008 47 0 3.3 21.45 11:56 08.08.2019
4007 Clouds 17 1008 47 0 3.3 21.45 11:37 08.08.2019
4008 Clouds 17 1008 47 0 3.3 21.45 11:19 08.08.2019
4009 Clouds 17 1008 47 0 3.3 21.45 10:41 08.08.2019
4010 Clouds 17 1008 47 0 3.3 21.45 10:41 08.08.2019
4011 Clouds 17 1008 47 0 3.3 21.45 10:21 08.08.2019
4012 Clouds 17 1008 47 0 3.3 21.45 09:49 08.08.2019
4013 Clouds 17 1008 47 0 3.3 21.45 09:30 08.08.2019
4014 Rain 14 1011 57 0 4.29 11.488 08:57 08.08.2019
4015 Rain 14 1011 58 0 4.54 10.4 08:37 08.08.2019
4016 Rain 14 1011 58 0 4.54 10.4 08:18 08.08.2019
4017 Rain 14 1011 58 0 4.54 10.4 07:40 08.08.2019
4018 Rain 14 1011 58 0 4.54 10.4 07:19 08.08.2019
4019 Rain 14 1011 58 0 4.54 10.4 06:47 08.08.2019
4020 Rain 14 1011 58 0 4.54 10.4 06:26 08.08.2019
4021 Rain 10 1014 72 0 3.8 2.744 05:52 08.08.2019
4022 Rain 10 1014 72 0 3.8 2.744 04:53 08.08.2019
4023 Rain 10 1014 72 0 3.8 2.744 03:52 08.08.2019
4024 Rain 9 1014 81 0 2.34 8.612 02:21 08.08.2019
4025 Rain 9 1014 81 0 2.34 8.612 01:35 08.08.2019
4026 Rain 8 1014 85 0 3.36 333.404 00:26 08.08.2019
4027 Rain 8 1013 84 0 2.67 13.234 23:50 07.08.2019
4028 Rain 8 1013 84 0 2.67 13.234 23:19 07.08.2019
4029 Rain 8 1013 84 0 2.67 13.234 22:56 07.08.2019
4030 Rain 8 1013 84 0 2.67 13.234 22:38 07.08.2019
4031 Rain 8 1013 84 0 2.67 13.234 22:19 07.08.2019
4032 Rain 8 1013 84 0 2.67 13.234 21:55 07.08.2019
4033 Rain 8 1013 84 0 2.67 13.234 21:37 07.08.2019
4034 Rain 9 1013 84 0 3.37 22.702 21:18 07.08.2019
4035 Rain 11 1013 76 0 2.34 58.124 20:42 07.08.2019
4036 Rain 11 1013 76 0 2.34 58.124 20:23 07.08.2019
4037 Rain 11 1013 76 0 2.34 58.124 19:57 07.08.2019
4038 Rain 11 1013 76 0 2.34 58.124 19:39 07.08.2019
4039 Rain 11 1013 76 0 2.34 58.124 19:21 07.08.2019
4040 Rain 11 1013 76 0 2.34 58.124 18:43 07.08.2019
4041 Rain 15 1011 51 0 3 24.417 18:21 07.08.2019
4042 Rain 15 1011 51 0 3 24.417 17:59 07.08.2019
4043 Rain 15 1011 51 0 3 24.417 17:40 07.08.2019
4044 Rain 15 1011 51 0 3 24.417 17:21 07.08.2019
4045 Rain 15 1011 51 0 3 24.417 16:57 07.08.2019
4046 Rain 15 1011 51 0 3 24.417 16:39 07.08.2019
4047 Rain 15 1011 51 0 3 24.417 16:20 07.08.2019
4048 Rain 15 1011 51 0 3 24.417 15:56 07.08.2019
4049 Rain 15 1011 51 0 3 24.417 15:37 07.08.2019
4050 Clouds 19 1005 43 0 1.04 328.432 15:19 07.08.2019
4051 Clouds 19 1005 43 0 1.04 328.432 14:46 07.08.2019
4052 Clouds 19 1005 43 0 1.04 328.432 14:27 07.08.2019
4053 Clouds 19 1005 43 0 1.04 328.432 13:55 07.08.2019
4054 Clouds 19 1005 43 0 1.04 328.432 13:36 07.08.2019
4055 Clouds 19 1006 40 0 1.83 319.082 13:18 07.08.2019
4056 Clouds 19 1006 40 0 1.83 319.082 12:55 07.08.2019
4057 Clouds 19 1006 40 0 1.83 319.082 12:36 07.08.2019
4058 Clouds 20 1003 31 0 0.72 221.441 12:18 07.08.2019
4059 Clouds 20 1003 31 0 0.72 221.441 11:42 07.08.2019
4060 Clouds 20 1003 31 0 0.72 221.441 11:20 07.08.2019
4061 Clouds 20 1003 31 0 0.72 221.441 10:56 07.08.2019
4062 Clouds 20 1003 31 0 0.72 221.441 10:38 07.08.2019
4063 Clouds 20 1003 31 0 0.72 221.441 10:18 07.08.2019
4064 Clouds 20 1003 31 0 0.72 221.441 10:18 07.08.2019
4065 Clouds 20 1003 31 0 0.72 221.441 09:44 07.08.2019
4066 Rain 18 1007 41 0 2.37 186.687 09:22 07.08.2019
4067 Rain 18 1007 41 0 2.37 186.687 08:56 07.08.2019
4068 Rain 18 1006 43 0 2.48 185.364 08:38 07.08.2019
4069 Rain 18 1006 43 0 2.48 185.364 08:20 07.08.2019
4070 Rain 18 1006 43 0 2.48 185.364 07:39 07.08.2019
4071 Rain 18 1006 43 0 2.48 185.364 07:20 07.08.2019
4072 Rain 18 1006 43 0 2.48 185.364 06:31 07.08.2019
4073 Rain 14 1010 54 0 2.57 174.037 05:54 07.08.2019
4074 Rain 14 1010 54 0 2.57 174.037 04:57 07.08.2019
4075 Clouds 10 1013 77 0 1.9 155.254 03:21 07.08.2019
4076 Clouds 10 1013 77 0 1.9 155.254 02:49 07.08.2019
4077 Clouds 10 1013 77 0 1.9 155.254 02:20 07.08.2019
4078 Clouds 10 1013 77 0 1.9 155.254 01:39 07.08.2019
4079 Rain 9 1013 78 0 2.08 143.715 00:51 07.08.2019
4080 Rain 10 1012 79 0 1.2 159.232 00:22 07.08.2019
4081 Rain 10 1012 79 0 1.2 159.232 23:42 06.08.2019
4082 Rain 10 1012 79 0 1.2 159.232 23:21 06.08.2019
4083 Rain 10 1012 79 0 1.2 159.232 22:57 06.08.2019
4084 Rain 10 1012 79 0 1.2 159.232 22:38 06.08.2019
4085 Rain 10 1012 79 0 1.2 159.232 22:19 06.08.2019
4086 Rain 10 1012 79 0 1.2 159.232 21:43 06.08.2019
4087 Rain 10 1012 80 0 1.85 13.216 21:25 06.08.2019
4088 Rain 10 1012 80 0 1.85 13.216 20:58 06.08.2019
4089 Rain 11 1011 76 0 0.46 54.037 20:40 06.08.2019
4090 Rain 11 1011 76 0 0.46 54.037 20:21 06.08.2019
4091 Rain 11 1011 76 0 0.46 54.037 19:43 06.08.2019
4092 Rain 11 1011 76 0 0.46 54.037 19:25 06.08.2019
4093 Rain 11 1011 76 0 0.46 54.037 18:54 06.08.2019
4094 Rain 11 1011 76 0 0.46 54.037 18:36 06.08.2019
4095 Rain 14 1010 58 0 1.11 143.668 18:18 06.08.2019
4096 Rain 14 1010 58 0 1.11 143.668 17:54 06.08.2019
4097 Rain 14 1010 58 0 1.11 143.668 17:36 06.08.2019
4098 Rain 14 1010 58 0 1.11 143.668 17:18 06.08.2019
4099 Rain 14 1010 58 0 1.11 143.668 17:18 06.08.2019
4100 Rain 14 1010 58 0 1.11 143.668 16:41 06.08.2019
4101 Rain 14 1010 58 0 1.11 143.668 16:21 06.08.2019
4102 Rain 14 1010 58 0 1.11 143.668 15:57 06.08.2019
4103 Rain 14 1010 58 0 1.11 143.668 15:38 06.08.2019
4104 Clouds 18 1004 50 0 0.72 50.491 15:20 06.08.2019
4105 Clouds 18 1004 50 0 0.72 50.491 14:44 06.08.2019
4106 Clouds 18 1004 50 0 0.72 50.491 14:25 06.08.2019
4107 Clouds 18 1004 50 0 0.72 50.491 13:58 06.08.2019
4108 Clouds 18 1004 50 0 0.72 50.491 13:39 06.08.2019
4109 Clouds 18 1004 49 0 0.9 312.691 13:20 06.08.2019
4110 Clouds 18 1004 49 0 0.9 312.691 12:57 06.08.2019
4111 Clouds 18 1004 49 0 0.9 312.691 12:39 06.08.2019
4112 Clouds 18 1004 49 0 0.9 312.691 12:39 06.08.2019
4113 Rain 19 1003 39 0 0.39 205.388 12:21 06.08.2019
4114 Rain 19 1003 39 0 0.39 205.388 12:21 06.08.2019
4115 Rain 19 1003 39 0 0.39 205.388 11:42 06.08.2019
4116 Rain 19 1003 39 0 0.39 205.388 11:19 06.08.2019
4117 Rain 19 1003 39 0 0.39 205.388 10:56 06.08.2019
4118 Rain 19 1003 39 0 0.39 205.388 10:37 06.08.2019
4119 Rain 19 1003 39 0 0.39 205.388 10:19 06.08.2019
4120 Rain 19 1003 39 0 0.39 205.388 09:39 06.08.2019
4121 Rain 15 1008 52 0 1.48 355.217 09:20 06.08.2019
4122 Rain 15 1008 52 0 1.48 355.217 08:47 06.08.2019
4123 Rain 15 1008 53 0 0.87 343.421 08:26 06.08.2019
4124 Rain 15 1008 53 0 0.87 343.421 07:40 06.08.2019
4125 Rain 15 1008 53 0 0.87 343.421 07:22 06.08.2019
4126 Rain 15 1008 53 0 0.87 343.421 06:43 06.08.2019
4127 Rain 9 1012 85 0 1.73 330.456 05:55 06.08.2019
4128 Rain 9 1012 85 0 1.73 330.456 04:35 06.08.2019
4129 Rain 8 1014 83 0 0.58 89.105 01:59 06.08.2019
4130 Rain 8 1014 83 0 0.45 143.258 01:24 06.08.2019
4131 Rain 8 1014 83 0 0.45 143.258 00:37 06.08.2019
4132 Rain 8 1012 91 0 2.97 143.863 23:47 05.08.2019
4133 Rain 8 1012 91 0 2.97 143.863 23:19 05.08.2019
4134 Rain 8 1012 91 0 2.97 143.863 22:42 05.08.2019
4135 Rain 8 1012 91 0 2.97 143.863 22:23 05.08.2019
4136 Rain 8 1012 91 0 2.97 143.863 21:56 05.08.2019
4137 Rain 8 1012 91 0 2.97 143.863 21:37 05.08.2019
4138 Rain 10 1013 78 0 1.29 116.326 21:19 05.08.2019
4139 Rain 9 1013 81 0 1.53 129.619 20:55 05.08.2019
4140 Rain 9 1013 81 0 1.53 129.619 20:37 05.08.2019
4141 Rain 9 1013 81 0 1.53 129.619 20:18 05.08.2019
4142 Rain 9 1013 81 0 1.53 129.619 19:43 05.08.2019
4143 Rain 9 1013 81 0 1.53 129.619 19:24 05.08.2019
4144 Rain 9 1013 81 0 1.53 129.619 18:57 05.08.2019
4145 Rain 9 1013 81 0 1.53 129.619 18:39 05.08.2019
4146 Rain 10 1012 78 0 1.73 41.972 18:19 05.08.2019
4147 Rain 10 1012 78 0 1.73 41.972 17:42 05.08.2019
4148 Rain 10 1012 78 0 1.73 41.972 17:24 05.08.2019
4149 Rain 10 1012 78 0 1.73 41.972 16:46 05.08.2019
4150 Rain 10 1012 78 0 1.73 41.972 16:26 05.08.2019
4151 Rain 10 1012 78 0 1.73 41.972 15:56 05.08.2019
4152 Rain 10 1012 78 0 1.73 41.972 15:37 05.08.2019
4153 Rain 14 1007 59 0 0.85 342.376 15:18 05.08.2019
4154 Rain 14 1007 59 0 0.85 342.376 14:39 05.08.2019
4155 Rain 14 1007 59 0 0.85 342.376 14:19 05.08.2019
4156 Rain 14 1007 59 0 0.85 342.376 13:44 05.08.2019
4157 Rain 14 1007 59 0 1 340.315 13:22 05.08.2019
4158 Rain 14 1007 59 0 1 340.315 12:48 05.08.2019
4159 Clouds 14 1006 58 0 0.86 42.116 12:20 05.08.2019
4160 Clouds 14 1006 58 0 0.86 42.116 11:47 05.08.2019
4161 Clouds 14 1006 58 0 0.86 42.116 11:28 05.08.2019
4162 Clouds 14 1006 58 0 0.86 42.116 10:59 05.08.2019
4163 Clouds 14 1006 58 0 0.86 42.116 10:41 05.08.2019
4164 Clouds 14 1006 58 0 0.86 42.116 10:21 05.08.2019
4165 Clouds 14 1006 58 0 0.86 42.116 09:43 05.08.2019
4166 Rain 9 1010 81 0 1.85 26.911 09:24 05.08.2019
4167 Rain 13 1010 64 0 0.91 139.569 08:51 05.08.2019
4168 Rain 13 1010 64 0 0.91 139.569 08:28 05.08.2019
4169 Rain 13 1010 64 0 0.91 139.569 07:59 05.08.2019
4170 Rain 13 1010 64 0 0.91 139.569 07:41 05.08.2019
4171 Rain 13 1010 64 0 0.91 139.569 07:20 05.08.2019
4172 Rain 13 1010 64 0 0.91 139.569 06:30 05.08.2019
4173 Rain 8 1013 85 0 0.51 354.044 05:51 05.08.2019
4174 Rain 8 1013 85 0 0.51 354.044 05:51 05.08.2019
4175 Rain 8 1013 85 0 0.51 354.044 05:19 05.08.2019
4176 Rain 8 1013 85 0 0.51 354.044 04:25 05.08.2019
4177 Rain 8 1013 85 0 0.51 354.044 03:30 05.08.2019
4178 Rain 9 1013 85 0 1.08 197.177 02:35 05.08.2019
4179 Rain 9 1012 84 0 1.65 178.293 01:34 05.08.2019
4180 Rain 9 1012 84 0 1.65 178.293 00:42 05.08.2019
4181 Rain 9 1012 80 0 1.51 181.444 00:21 05.08.2019
4182 Rain 9 1012 80 0 1.51 181.444 23:57 04.08.2019
4183 Rain 9 1012 80 0 1.51 181.444 23:39 04.08.2019
4184 Rain 9 1012 80 0 1.51 181.444 23:19 04.08.2019
4185 Rain 9 1012 80 0 1.51 181.444 22:54 04.08.2019
4186 Rain 9 1012 80 0 1.51 181.444 22:36 04.08.2019
4187 Rain 9 1012 80 0 1.51 181.444 22:36 04.08.2019
4188 Rain 9 1012 80 0 1.51 181.444 22:18 04.08.2019
4189 Rain 9 1012 80 0 1.51 181.444 21:43 04.08.2019
4190 Rain 10 1011 77 0 0.34 129.699 21:20 04.08.2019
4191 Rain 9 1011 78 0 0.24 178.796 20:45 04.08.2019
4192 Rain 9 1011 78 0 0.24 178.796 20:21 04.08.2019
4193 Rain 9 1011 78 0 0.24 178.796 19:58 04.08.2019
4194 Rain 9 1011 78 0 0.24 178.796 19:38 04.08.2019
4195 Rain 9 1011 78 0 0.24 178.796 19:20 04.08.2019
4196 Rain 9 1011 78 0 0.24 178.796 18:42 04.08.2019
4197 Rain 9 1010 82 0 4.5 19.554 18:21 04.08.2019
4198 Rain 9 1010 82 0 4.5 19.554 17:46 04.08.2019
4199 Rain 9 1010 82 0 4.5 19.554 17:26 04.08.2019
4200 Rain 9 1010 82 0 4.5 19.554 16:59 04.08.2019
4201 Rain 9 1010 82 0 4.5 19.554 16:40 04.08.2019
4202 Rain 9 1010 82 0 4.5 19.554 16:20 04.08.2019
4203 Rain 9 1010 82 0 4.5 19.554 15:44 04.08.2019
4204 Rain 17 1003 53 0 3.42 34.509 15:23 04.08.2019
4205 Rain 17 1003 53 0 3.42 34.509 14:45 04.08.2019
4206 Rain 17 1003 53 0 3.42 34.509 14:27 04.08.2019
4207 Rain 17 1003 53 0 3.42 34.509 13:56 04.08.2019
4208 Rain 17 1003 53 0 3.42 34.509 13:38 04.08.2019
4209 Rain 16 1003 55 0 3.52 2.293 13:20 04.08.2019
4210 Rain 16 1003 55 0 3.52 2.293 12:44 04.08.2019
4211 Rain 20 1000 35 0 1.48 198.705 12:25 04.08.2019
4212 Rain 20 1000 35 0 1.48 198.705 11:56 04.08.2019
4213 Rain 20 1000 35 0 1.48 198.705 11:37 04.08.2019
4214 Rain 20 1000 35 0 1.48 198.705 11:18 04.08.2019
4215 Rain 20 1000 35 0 1.48 198.705 10:40 04.08.2019
4216 Rain 20 1000 35 0 1.48 198.705 10:19 04.08.2019
4217 Rain 20 1000 35 0 1.48 198.705 09:43 04.08.2019
4218 Rain 18 1004 43 0 2.5 184.72 09:22 04.08.2019
4219 Clouds 18 1004 44 0 2.08 178.376 08:44 04.08.2019
4220 Clouds 18 1004 44 0 2.08 178.376 08:26 04.08.2019
4221 Clouds 18 1004 44 0 2.08 178.376 07:52 04.08.2019
4222 Clouds 18 1004 44 0 2.08 178.376 06:56 04.08.2019
4223 Clouds 18 1004 44 0 2.08 178.376 06:28 04.08.2019
4224 Clouds 14 1008 56 0 2.59 167.601 03:46 04.08.2019
4225 Rain 11 1010 77 0 1.46 160.971 02:24 04.08.2019
4226 Rain 11 1010 77 0 1.62 152.914 01:34 04.08.2019
4227 Rain 11 1010 77 0 1.62 152.914 01:34 04.08.2019
4228 Rain 11 1010 77 0 1.62 152.914 01:34 04.08.2019
4229 Rain 11 1010 77 0 1.62 152.914 00:59 04.08.2019
4230 Rain 11 1010 77 0 1.62 152.914 00:40 04.08.2019
4231 Rain 11 1009 79 0 1.26 147.745 00:18 04.08.2019
4232 Rain 11 1009 79 0 1.26 147.745 23:39 03.08.2019
4233 Rain 11 1009 79 0 1.26 147.745 23:18 03.08.2019
4234 Rain 11 1009 79 0 1.26 147.745 22:44 03.08.2019
4235 Rain 11 1009 79 0 1.26 147.745 22:21 03.08.2019
4236 Rain 11 1009 79 0 1.26 147.745 21:56 03.08.2019
4237 Rain 11 1009 79 0 1.26 147.745 21:36 03.08.2019
4238 Rain 11 1009 79 0 1.26 147.745 21:36 03.08.2019
4239 Rain 12 1010 75 0 0.71 173.319 21:18 03.08.2019
4240 Rain 12 1010 75 0 0.71 173.319 21:18 03.08.2019
4241 Rain 12 1009 76 0 1.22 166.921 20:41 03.08.2019
4242 Rain 12 1009 76 0 1.22 166.921 20:20 03.08.2019
4243 Rain 12 1009 76 0 1.22 166.921 19:42 03.08.2019
4244 Rain 12 1009 76 0 1.22 166.921 19:23 03.08.2019
4245 Rain 12 1009 76 0 1.22 166.921 18:50 03.08.2019
4246 Rain 12 1009 76 0 1.22 166.921 18:27 03.08.2019
4247 Rain 13 1008 68 0 1.12 319.088 17:49 03.08.2019
4248 Rain 13 1008 68 0 1.12 319.088 17:21 03.08.2019
4249 Rain 13 1008 68 0 1.12 319.088 16:56 03.08.2019
4250 Rain 13 1008 68 0 1.12 319.088 16:37 03.08.2019
4251 Rain 13 1008 68 0 1.12 319.088 16:19 03.08.2019
4252 Rain 13 1008 68 0 1.12 319.088 15:43 03.08.2019
4253 Rain 18 1003 51 0 1.42 290.977 15:22 03.08.2019
4254 Rain 18 1003 51 0 1.42 290.977 14:40 03.08.2019
4255 Rain 18 1003 51 0 1.42 290.977 14:21 03.08.2019
4256 Rain 18 1003 51 0 1.42 290.977 13:51 03.08.2019
4257 Rain 18 1003 51 0 1.42 290.977 13:51 03.08.2019
4258 Rain 18 1003 50 0 0.71 277.015 13:24 03.08.2019
4259 Rain 18 1003 50 0 0.71 277.015 12:57 03.08.2019
4260 Rain 18 1003 50 0 0.71 277.015 12:57 03.08.2019
4261 Rain 18 1003 50 0 0.71 277.015 12:38 03.08.2019
4262 Rain 18 1003 44 0 0.05 47.231 12:20 03.08.2019
4263 Rain 18 1003 44 0 0.05 47.231 11:47 03.08.2019
4264 Rain 18 1003 44 0 0.05 47.231 11:25 03.08.2019
4265 Rain 18 1003 44 0 0.05 47.231 10:40 03.08.2019
4266 Rain 18 1003 44 0 0.05 47.231 10:22 03.08.2019
4267 Rain 18 1003 44 0 0.05 47.231 09:41 03.08.2019
4268 Rain 15 1008 58 0 1.02 12.578 09:21 03.08.2019
4269 Rain 15 1008 55 0 1.46 137.417 08:46 03.08.2019
4270 Rain 15 1008 55 0 1.46 137.417 07:49 03.08.2019
4271 Rain 15 1008 55 0 1.46 137.417 07:30 03.08.2019
4272 Rain 9 1012 83 0 0.54 90.855 06:23 03.08.2019
4273 Rain 9 1012 83 0 0.54 90.855 03:58 03.08.2019
4274 Rain 8 1013 90 0 1.28 315.221 02:36 03.08.2019
4275 Rain 8 1013 90 0 1.28 315.221 01:36 03.08.2019
4276 Rain 8 1013 88 0 2.23 29.604 00:38 03.08.2019
4277 Rain 8 1011 88 0 1.48 22.233 23:58 02.08.2019
4278 Rain 8 1011 88 0 1.48 22.233 23:40 02.08.2019
4279 Rain 8 1011 88 0 1.48 22.233 23:18 02.08.2019
4280 Rain 8 1011 88 0 1.48 22.233 22:56 02.08.2019
4281 Rain 8 1011 88 0 1.48 22.233 22:38 02.08.2019
4282 Rain 8 1011 88 0 1.48 22.233 22:18 02.08.2019
4283 Rain 8 1011 88 0 1.48 22.233 21:43 02.08.2019
4284 Rain 8 1012 90 0 2.17 11.938 21:23 02.08.2019
4285 Rain 9 1011 89 0 2.36 251.004 20:55 02.08.2019
4286 Rain 9 1011 89 0 2.36 251.004 20:37 02.08.2019
4287 Rain 9 1011 89 0 2.36 251.004 20:19 02.08.2019
4288 Rain 9 1011 89 0 2.36 251.004 19:42 02.08.2019
4289 Rain 9 1011 89 0 2.36 251.004 19:24 02.08.2019
4290 Rain 9 1011 89 0 2.36 251.004 18:44 02.08.2019
4291 Rain 13 1011 64 0 1.71 27.749 18:24 02.08.2019
4292 Rain 13 1011 64 0 1.71 27.749 17:44 02.08.2019
4293 Rain 13 1011 64 0 1.71 27.749 17:24 02.08.2019
4294 Rain 13 1011 64 0 1.71 27.749 16:56 02.08.2019
4295 Rain 13 1011 64 0 1.71 27.749 16:37 02.08.2019
4296 Rain 13 1011 64 0 1.71 27.749 16:18 02.08.2019
4297 Rain 13 1011 64 0 1.71 27.749 15:39 02.08.2019
4298 Clouds 18 1004 44 0 1.93 210.485 15:19 02.08.2019
4299 Clouds 18 1004 44 0 1.93 210.485 14:45 02.08.2019
4300 Clouds 18 1004 44 0 1.93 210.485 14:18 02.08.2019
4301 Clouds 18 1004 44 0 1.93 210.485 13:48 02.08.2019
4302 Clouds 18 1004 44 0 1.64 211.048 13:25 02.08.2019
4303 Clouds 18 1004 44 0 1.64 211.048 12:45 02.08.2019
4304 Clouds 19 1004 38 0 2.22 198.582 12:21 02.08.2019
4305 Clouds 19 1004 38 0 2.22 198.582 11:51 02.08.2019
4306 Clouds 19 1004 38 0 2.22 198.582 11:32 02.08.2019
4307 Clouds 19 1004 38 0 2.22 198.582 10:55 02.08.2019
4308 Clouds 19 1004 38 0 2.22 198.582 10:37 02.08.2019
4309 Clouds 19 1004 38 0 2.22 198.582 10:19 02.08.2019
4310 Clouds 19 1004 38 0 2.22 198.582 09:51 02.08.2019
4311 Rain 15 1007 52 0 2.19 196.937 09:25 02.08.2019
4312 Rain 14 1007 56 0 1.68 189.917 08:47 02.08.2019
4313 Rain 14 1007 56 0 1.68 189.917 08:21 02.08.2019
4314 Rain 14 1007 56 0 1.68 189.917 07:49 02.08.2019
4315 Rain 14 1007 56 0 1.68 189.917 07:31 02.08.2019
4316 Rain 14 1007 56 0 1.68 189.917 06:44 02.08.2019
4317 Rain 10 1012 74 0 1.33 163.021 05:52 02.08.2019
4318 Rain 10 1012 74 0 1.33 163.021 05:52 02.08.2019
4319 Rain 10 1012 74 0 1.33 163.021 05:21 02.08.2019
4320 Rain 10 1012 74 0 1.33 163.021 03:27 02.08.2019
4321 Rain 7 1012 85 0 0.53 219.931 02:33 02.08.2019
4322 Rain 8 1012 78 0 1.08 163.428 00:40 02.08.2019
4323 Rain 8 1011 81 0 2.04 156.912 23:56 01.08.2019
4324 Rain 8 1011 81 0 2.04 156.912 23:38 01.08.2019
4325 Rain 8 1011 81 0 2.04 156.912 23:18 01.08.2019
4326 Rain 8 1011 81 0 2.04 156.912 22:40 01.08.2019
4327 Rain 8 1011 81 0 2.04 156.912 22:21 01.08.2019
4328 Rain 8 1011 81 0 2.04 156.912 21:44 01.08.2019
4329 Rain 8 1012 84 0 2.54 159.764 21:24 01.08.2019
4330 Rain 8 1011 85 0 1.32 217.174 20:59 01.08.2019
4331 Rain 8 1011 85 0 1.32 217.174 20:40 01.08.2019
4332 Rain 8 1011 85 0 1.32 217.174 20:21 01.08.2019
4333 Rain 8 1011 85 0 1.32 217.174 19:42 01.08.2019
4334 Rain 8 1011 85 0 1.32 217.174 19:20 01.08.2019
4335 Rain 8 1011 85 0 1.32 217.174 18:44 01.08.2019
4336 Rain 11 1010 81 0 3.96 175.232 18:25 01.08.2019
4337 Rain 11 1010 81 0 3.96 175.232 17:56 01.08.2019
4338 Rain 11 1010 81 0 3.96 175.232 17:38 01.08.2019
4339 Rain 11 1010 81 0 3.96 175.232 17:19 01.08.2019
4340 Rain 11 1010 81 0 3.96 175.232 16:44 01.08.2019
4341 Rain 11 1010 81 0 3.96 175.232 16:21 01.08.2019
4342 Rain 11 1010 81 0 3.96 175.232 15:42 01.08.2019
4343 Rain 18 1004 43 0 2.31 304.894 15:20 01.08.2019
4344 Rain 18 1004 43 0 2.31 304.894 14:44 01.08.2019
4345 Rain 18 1004 43 0 2.31 304.894 14:21 01.08.2019
4346 Rain 18 1004 43 0 2.31 304.894 13:58 01.08.2019
4347 Rain 18 1004 43 0 2.31 304.894 13:40 01.08.2019
4348 Clouds 18 1004 45 0 2.08 325.822 13:21 01.08.2019
4349 Clouds 18 1004 45 0 2.08 325.822 12:49 01.08.2019
4350 Clouds 18 1004 45 0 2.08 325.822 12:28 01.08.2019
4351 Rain 20 1002 37 0 2.09 205.791 11:58 01.08.2019
4352 Rain 20 1002 37 0 2.09 205.791 11:40 01.08.2019
4353 Rain 20 1002 37 0 2.09 205.791 11:22 01.08.2019
4354 Rain 20 1002 37 0 2.09 205.791 10:41 01.08.2019
4355 Rain 20 1002 37 0 2.09 205.791 10:23 01.08.2019
4356 Rain 20 1002 37 0 2.09 205.791 09:50 01.08.2019
4357 Rain 16 1005 51 0 0.6 189.919 09:24 01.08.2019
4358 Rain 18 1004 41 0 2.59 202.565 08:57 01.08.2019
4359 Rain 18 1004 41 0 2.59 202.565 08:39 01.08.2019
4360 Rain 18 1004 41 0 2.59 202.565 08:18 01.08.2019
4361 Rain 18 1004 41 0 2.59 202.565 07:45 01.08.2019
4362 Rain 18 1004 41 0 2.59 202.565 07:20 01.08.2019
4363 Rain 18 1004 41 0 2.59 202.565 06:39 01.08.2019
4364 Rain 14 1010 54 0 3.01 189.722 05:32 01.08.2019
4365 Rain 11 1011 71 0 1.81 154.031 02:36 01.08.2019
4366 Rain 11 1011 71 0 1.81 154.031 01:41 01.08.2019
4367 Clouds 11 1011 70 0 1.47 153.105 00:37 01.08.2019
4368 Clouds 12 1010 68 0 3.11 144.777 00:18 01.08.2019
4369 Clouds 12 1010 68 0 3.11 144.777 23:42 31.07.2019
4370 Clouds 12 1010 68 0 3.11 144.777 23:20 31.07.2019
4371 Clouds 12 1010 68 0 3.11 144.777 22:45 31.07.2019
4372 Clouds 12 1010 68 0 3.11 144.777 22:27 31.07.2019
4373 Clouds 12 1010 68 0 3.11 144.777 22:27 31.07.2019
4374 Clouds 12 1010 68 0 3.11 144.777 21:45 31.07.2019
4375 Rain 14 1010 59 0 2.87 143.793 21:24 31.07.2019
4376 Clouds 12 1009 69 0 1.34 129.154 20:51 31.07.2019
4377 Clouds 12 1009 69 0 1.34 129.154 20:25 31.07.2019
4378 Clouds 12 1009 69 0 1.34 129.154 19:58 31.07.2019
4379 Clouds 12 1009 69 0 1.34 129.154 19:39 31.07.2019
4380 Clouds 12 1009 69 0 1.34 129.154 19:20 31.07.2019
4381 Clouds 12 1009 69 0 1.34 129.154 18:41 31.07.2019
4382 Clouds 15 1008 49 0 0.81 147.665 18:22 31.07.2019
4383 Clouds 15 1008 49 0 0.81 147.665 17:55 31.07.2019
4384 Clouds 15 1008 49 0 0.81 147.665 17:37 31.07.2019
4385 Clouds 15 1008 49 0 0.81 147.665 17:18 31.07.2019
4386 Clouds 15 1008 49 0 0.81 147.665 16:41 31.07.2019
4387 Clouds 15 1008 49 0 0.81 147.665 16:41 31.07.2019
4388 Clouds 15 1008 49 0 0.81 147.665 16:19 31.07.2019
4389 Clouds 15 1008 49 0 0.81 147.665 15:44 31.07.2019
4390 Clouds 20 1002 35 0 1.06 170.751 15:24 31.07.2019
4391 Clouds 20 1002 35 0 1.06 170.751 14:42 31.07.2019
4392 Clouds 20 1002 35 0 1.06 170.751 14:21 31.07.2019
4393 Clouds 20 1002 35 0 1.06 170.751 13:57 31.07.2019
4394 Clouds 20 1002 35 0 1.06 170.751 13:38 31.07.2019
4395 Clouds 20 1001 36 0 1.98 136.374 13:19 31.07.2019
4396 Clouds 20 1001 36 0 1.98 136.374 12:44 31.07.2019
4397 Clouds 20 1001 36 0 1.98 136.374 12:26 31.07.2019
4398 Rain 21 1002 32 0 1.62 168.391 11:54 31.07.2019
4399 Rain 21 1002 32 0 1.62 168.391 11:36 31.07.2019
4400 Rain 21 1002 32 0 1.62 168.391 11:18 31.07.2019
4401 Rain 21 1002 32 0 1.62 168.391 10:40 31.07.2019
4402 Rain 21 1002 32 0 1.62 168.391 10:20 31.07.2019
4403 Rain 21 1002 32 0 1.62 168.391 09:43 31.07.2019
4404 Rain 19 1005 41 0 1.5 182.636 09:24 31.07.2019
4405 Rain 19 1005 40 0 1.67 171.539 08:44 31.07.2019
4406 Rain 19 1005 40 0 1.67 171.539 08:26 31.07.2019
4407 Rain 19 1005 40 0 1.67 171.539 07:56 31.07.2019
4408 Rain 19 1005 40 0 1.67 171.539 07:56 31.07.2019
4409 Rain 19 1005 40 0 1.67 171.539 07:34 31.07.2019
4410 Rain 14 1010 57 0 1.44 180 05:54 31.07.2019
4411 Rain 14 1010 57 0 1.44 180 04:41 31.07.2019
4412 Clouds 11 1012 71 0 0.61 99.834 00:58 31.07.2019
4413 Rain 11 1011 75 0 1.56 99.468 23:56 30.07.2019
4414 Rain 11 1011 75 0 1.56 99.468 23:38 30.07.2019
4415 Rain 11 1011 75 0 1.56 99.468 23:18 30.07.2019
4416 Rain 11 1011 75 0 1.56 99.468 22:42 30.07.2019
4417 Rain 11 1011 75 0 1.56 99.468 22:22 30.07.2019
4418 Rain 11 1011 75 0 1.56 99.468 21:38 30.07.2019
4419 Rain 12 1011 68 0 1.23 63.956 21:20 30.07.2019
4420 Rain 12 1011 70 0 1.73 86.384 20:57 30.07.2019
4421 Rain 12 1011 70 0 1.73 86.384 20:39 30.07.2019
4422 Rain 12 1011 70 0 1.73 86.384 20:19 30.07.2019
4423 Rain 12 1011 70 0 1.73 86.384 19:49 30.07.2019
4424 Rain 12 1011 70 0 1.73 86.384 19:29 30.07.2019
4425 Rain 12 1011 70 0 1.73 86.384 18:48 30.07.2019
4426 Rain 12 1011 70 0 1.73 86.384 18:27 30.07.2019
4427 Clouds 14 1010 56 0 0.51 79.29 17:59 30.07.2019
4428 Clouds 14 1010 56 0 0.51 79.29 17:40 30.07.2019
4429 Clouds 14 1010 56 0 0.51 79.29 17:19 30.07.2019
4430 Clouds 14 1010 56 0 0.51 79.29 16:46 30.07.2019
4431 Clouds 14 1010 56 0 0.51 79.29 16:20 30.07.2019
4432 Clouds 14 1010 56 0 0.51 79.29 15:44 30.07.2019
4433 Clouds 19 1005 37 0 0.4 125.204 15:22 30.07.2019
4434 Clouds 19 1005 37 0 0.4 125.204 14:46 30.07.2019
4435 Clouds 19 1005 37 0 0.4 125.204 14:27 30.07.2019
4436 Clouds 19 1005 37 0 0.4 125.204 13:59 30.07.2019
4437 Clouds 19 1005 37 0 0.4 125.204 13:40 30.07.2019
4438 Clouds 19 1005 37 0 0.36 239.118 13:22 30.07.2019
4439 Clouds 19 1005 37 0 0.36 239.118 12:46 30.07.2019
4440 Clouds 19 1005 37 0 0.36 239.118 12:28 30.07.2019
4441 Clouds 19 1005 34 0 1.61 223.19 11:58 30.07.2019
4442 Clouds 19 1005 34 0 1.61 223.19 11:37 30.07.2019
4443 Clouds 19 1005 34 0 1.61 223.19 11:18 30.07.2019
4444 Clouds 19 1004 39 0 0.21 135 10:39 30.07.2019
4445 Clouds 19 1004 39 0 0.21 135 10:20 30.07.2019
4446 Clouds 19 1004 39 0 0.21 135 09:48 30.07.2019
4447 Clouds 19 1004 39 0 0.21 135 09:29 30.07.2019
4448 Rain 16 1008 51 0 0.85 27.714 08:44 30.07.2019
4449 Rain 16 1008 51 0 0.85 27.714 08:22 30.07.2019
4450 Rain 16 1008 51 0 0.85 27.714 07:46 30.07.2019
4451 Rain 16 1008 51 0 0.85 27.714 07:25 30.07.2019
4452 Rain 16 1008 51 0 0.85 27.714 06:46 30.07.2019
4453 Rain 12 1013 70 0 1.99 155.004 05:52 30.07.2019
4454 Rain 12 1013 70 0 1.99 155.004 05:32 30.07.2019
4455 Rain 11 1014 80 0 2.67 188.867 01:40 30.07.2019
4456 Rain 11 1014 78 0 1.43 131.31 00:41 30.07.2019
4457 Rain 11 1013 77 0 0.14 305.967 00:20 30.07.2019
4458 Rain 11 1013 77 0 0.14 305.967 23:44 29.07.2019
4459 Rain 11 1013 77 0 0.14 305.967 23:25 29.07.2019
4460 Rain 11 1013 77 0 0.14 305.967 22:57 29.07.2019
4461 Rain 11 1013 77 0 0.14 305.967 22:38 29.07.2019
4462 Rain 11 1013 77 0 0.14 305.967 22:19 29.07.2019
4463 Rain 11 1013 77 0 0.14 305.967 22:19 29.07.2019
4464 Rain 11 1013 77 0 0.14 305.967 21:55 29.07.2019
4465 Rain 11 1013 77 0 0.14 305.967 21:37 29.07.2019
4466 Rain 10 1013 78 0 1.08 31.921 21:18 29.07.2019
4467 Rain 10 1013 78 0 1.08 31.921 20:45 29.07.2019
4468 Rain 10 1013 78 0 1.08 31.921 20:23 29.07.2019
4469 Rain 10 1013 78 0 1.08 31.921 19:55 29.07.2019
4470 Rain 10 1013 78 0 1.08 31.921 19:36 29.07.2019
4471 Rain 10 1013 78 0 1.08 31.921 19:18 29.07.2019
4472 Rain 10 1013 78 0 1.08 31.921 18:41 29.07.2019
4473 Rain 14 1012 67 0 1.92 123.798 18:21 29.07.2019
4474 Rain 14 1012 67 0 1.92 123.798 17:50 29.07.2019
4475 Rain 14 1012 67 0 1.92 123.798 17:32 29.07.2019
4476 Rain 14 1012 67 0 1.92 123.798 16:58 29.07.2019
4477 Rain 14 1012 67 0 1.92 123.798 16:57 29.07.2019
4478 Rain 14 1012 67 0 1.92 123.798 16:39 29.07.2019
4479 Rain 14 1012 67 0 1.92 123.798 16:20 29.07.2019
4480 Rain 14 1012 67 0 1.92 123.798 15:50 29.07.2019
4481 Rain 14 1012 67 0 1.92 123.798 15:30 29.07.2019
4482 Clouds 19 1006 42 0 3.43 326.741 14:45 29.07.2019
4483 Clouds 19 1006 42 0 3.43 326.741 14:21 29.07.2019
4484 Clouds 19 1006 42 0 3.43 326.741 14:21 29.07.2019
4485 Clouds 19 1006 42 0 3.43 326.741 14:21 29.07.2019
4486 Clouds 19 1006 42 0 3.43 326.741 13:59 29.07.2019
4487 Clouds 19 1006 42 0 3.43 326.741 13:40 29.07.2019
4488 Clouds 19 1005 45 0 4.08 247.369 13:22 29.07.2019
4489 Clouds 19 1005 45 0 4.08 247.369 12:42 29.07.2019
4490 Clouds 22 1004 32 0 0.93 212.72 12:22 29.07.2019
4491 Clouds 22 1004 32 0 0.93 212.72 11:43 29.07.2019
4492 Clouds 22 1004 32 0 0.93 212.72 11:21 29.07.2019
4493 Clouds 22 1004 32 0 0.93 212.72 10:45 29.07.2019
4494 Clouds 22 1004 32 0 0.93 212.72 10:24 29.07.2019
4495 Clouds 22 1004 32 0 0.93 212.72 09:45 29.07.2019
4496 Rain 19 1007 41 0 2.05 190.1 09:25 29.07.2019
4497 Rain 19 1007 41 0 2.05 190.1 08:57 29.07.2019
4498 Rain 20 1007 38 0 2.26 183.75 08:28 29.07.2019
4499 Rain 20 1007 38 0 2.26 183.75 07:56 29.07.2019
4500 Rain 20 1007 38 0 2.26 183.75 07:32 29.07.2019
4501 Rain 20 1007 38 0 2.26 183.75 06:44 29.07.2019
4502 Rain 16 1013 50 0 2.42 170.514 05:43 29.07.2019
4503 Rain 16 1013 50 0 2.42 170.514 04:49 29.07.2019
4504 Rain 12 1015 69 0 0.66 77.142 01:57 29.07.2019
4505 Rain 12 1015 69 0 0.66 77.142 01:39 29.07.2019
4506 Rain 11 1014 72 0 0.98 82.282 01:18 29.07.2019
4507 Rain 11 1014 72 0 0.98 82.282 00:38 29.07.2019
4508 Rain 11 1013 71 0 0.92 43.007 00:18 29.07.2019
4509 Rain 11 1013 71 0 0.92 43.007 23:38 28.07.2019
4510 Rain 11 1013 71 0 0.92 43.007 23:18 28.07.2019
4511 Rain 11 1013 71 0 0.92 43.007 22:37 28.07.2019
4512 Rain 11 1013 71 0 0.92 43.007 22:18 28.07.2019
4513 Rain 11 1013 71 0 0.92 43.007 21:43 28.07.2019
4514 Rain 13 1013 63 0 1.77 32.873 21:18 28.07.2019
4515 Rain 13 1012 64 0 1.9 6.31 20:44 28.07.2019
4516 Rain 13 1012 64 0 1.9 6.31 20:26 28.07.2019
4517 Rain 13 1012 64 0 1.9 6.31 19:42 28.07.2019
4518 Rain 13 1012 64 0 1.9 6.31 19:22 28.07.2019
4519 Rain 13 1012 64 0 1.9 6.31 18:51 28.07.2019
4520 Rain 13 1012 64 0 1.9 6.31 18:30 28.07.2019
4521 Rain 16 1011 51 0 2.15 296.744 17:58 28.07.2019
4522 Rain 16 1011 51 0 2.15 296.744 17:40 28.07.2019
4523 Rain 16 1011 51 0 2.15 296.744 17:21 28.07.2019
4524 Rain 16 1011 51 0 2.15 296.744 16:47 28.07.2019
4525 Rain 16 1011 51 0 2.15 296.744 16:28 28.07.2019
4526 Rain 16 1011 51 0 2.15 296.744 15:59 28.07.2019
4527 Rain 16 1011 51 0 2.15 296.744 15:41 28.07.2019
4528 Clouds 18 1005 39 0 3.43 305.526 15:21 28.07.2019
4529 Clouds 18 1005 39 0 3.43 305.526 14:37 28.07.2019
4530 Clouds 18 1005 39 0 3.43 305.526 14:19 28.07.2019
4531 Clouds 18 1005 39 0 3.43 305.526 13:42 28.07.2019
4532 Clouds 21 1005 34 0 1.03 252.897 13:22 28.07.2019
4533 Clouds 21 1005 34 0 1.03 252.897 12:59 28.07.2019
4534 Clouds 21 1005 34 0 1.03 252.897 12:40 28.07.2019
4535 Clouds 22 1005 28 0 1.8 213.17 12:22 28.07.2019
4536 Clouds 22 1005 28 0 1.8 213.17 11:46 28.07.2019
4537 Clouds 22 1005 28 0 1.8 213.17 11:27 28.07.2019
4538 Clouds 22 1005 28 0 1.8 213.17 11:27 28.07.2019
4539 Clouds 22 1005 28 0 1.8 213.17 10:40 28.07.2019
4540 Clouds 22 1005 28 0 1.8 213.17 10:21 28.07.2019
4541 Clouds 22 1005 28 0 1.8 213.17 09:45 28.07.2019
4542 Clouds 22 1005 28 0 1.8 213.17 09:27 28.07.2019
4543 Clouds 19 1007 34 0 2.24 173.069 08:52 28.07.2019
4544 Clouds 19 1007 34 0 2.24 173.069 08:29 28.07.2019
4545 Clouds 19 1007 34 0 2.24 173.069 07:57 28.07.2019
4546 Clouds 19 1007 34 0 2.24 173.069 07:37 28.07.2019
4547 Clouds 19 1007 34 0 2.24 173.069 06:42 28.07.2019
4548 Clouds 15 1012 46 0 2 167.053 05:44 28.07.2019
4549 Clouds 15 1012 46 0 2 167.053 03:31 28.07.2019
4550 Rain 12 1013 66 0 1.8 158.317 02:24 28.07.2019
4551 Rain 12 1013 65 0 0.85 110.58 01:20 28.07.2019
4552 Rain 12 1013 65 0 0.85 110.58 00:45 28.07.2019
4553 Rain 13 1012 67 0 1.44 130.67 00:20 28.07.2019
4554 Rain 13 1012 67 0 1.44 130.67 23:46 27.07.2019
4555 Rain 13 1012 67 0 1.44 130.67 23:22 27.07.2019
4556 Rain 13 1012 67 0 1.44 130.67 22:41 27.07.2019
4557 Rain 13 1012 67 0 1.44 130.67 22:22 27.07.2019
4558 Rain 13 1012 67 0 1.44 130.67 22:22 27.07.2019
4559 Rain 13 1012 67 0 1.44 130.67 21:41 27.07.2019
4560 Rain 14 1011 62 0 1.03 149.333 21:20 27.07.2019
4561 Rain 14 1011 64 0 1.25 41.182 20:52 27.07.2019
4562 Rain 14 1011 64 0 1.25 41.182 20:26 27.07.2019
4563 Rain 14 1011 64 0 1.25 41.182 19:58 27.07.2019
4564 Rain 14 1011 64 0 1.25 41.182 19:38 27.07.2019
4565 Rain 14 1011 64 0 1.25 41.182 19:19 27.07.2019
4566 Rain 14 1011 64 0 1.25 41.182 18:45 27.07.2019
4567 Rain 14 1011 64 0 1.25 41.182 18:27 27.07.2019
4568 Rain 16 1009 50 0 1.55 147.108 17:42 27.07.2019
4569 Rain 16 1009 50 0 1.55 147.108 17:24 27.07.2019
4570 Rain 16 1009 50 0 1.55 147.108 16:51 27.07.2019
4571 Rain 16 1009 50 0 1.55 147.108 16:32 27.07.2019
4572 Rain 16 1009 50 0 1.55 147.108 15:55 27.07.2019
4573 Clouds 20 1004 34 0 1.06 172.694 15:24 27.07.2019
4574 Clouds 20 1004 34 0 1.06 172.694 14:51 27.07.2019
4575 Clouds 20 1004 34 0 1.06 172.694 14:33 27.07.2019
4576 Clouds 20 1004 34 0 1.06 172.694 13:58 27.07.2019
4577 Clouds 20 1004 34 0 1.06 172.694 13:40 27.07.2019
4578 Clouds 20 1003 34 0 0.76 189.537 13:20 27.07.2019
4579 Clouds 20 1003 34 0 0.76 189.537 12:45 27.07.2019
4580 Clouds 20 1003 33 0 2.1 195.537 12:25 27.07.2019
4581 Clouds 20 1003 33 0 2.1 195.537 11:46 27.07.2019
4582 Clouds 20 1003 33 0 2.1 195.537 11:25 27.07.2019
4583 Clouds 20 1003 33 0 2.1 195.537 10:56 27.07.2019
4584 Clouds 20 1003 33 0 2.1 195.537 10:38 27.07.2019
4585 Clouds 20 1003 33 0 2.1 195.537 10:18 27.07.2019
4586 Clouds 20 1003 33 0 2.1 195.537 09:39 27.07.2019
4587 Rain 18 1006 41 0 2.69 190.191 09:21 27.07.2019
4588 Rain 18 1006 41 0 2.61 181.579 08:45 27.07.2019
4589 Rain 18 1006 41 0 2.61 181.579 08:25 27.07.2019
4590 Rain 18 1006 41 0 2.61 181.579 07:45 27.07.2019
4591 Rain 18 1006 41 0 2.61 181.579 07:22 27.07.2019
4592 Rain 18 1006 41 0 2.61 181.579 06:54 27.07.2019
4593 Rain 18 1006 41 0 2.61 181.579 06:28 27.07.2019
4594 Clouds 12 1011 61 0 1.67 176.364 05:42 27.07.2019
4595 Clouds 12 1011 61 0 1.67 176.364 04:54 27.07.2019
4596 Clouds 12 1011 61 0 1.67 176.364 03:57 27.07.2019
4597 Clouds 9 1013 77 0 0.49 28.929 02:44 27.07.2019
4598 Clouds 9 1013 77 0 0.49 28.929 02:24 27.07.2019
4599 Clouds 9 1013 77 0 0.49 28.929 01:41 27.07.2019
4600 Rain 8 1012 78 0 1.05 149.802 00:51 27.07.2019
4601 Rain 8 1012 78 0 1.05 149.802 00:31 27.07.2019
4602 Rain 9 1012 80 0 1.71 155.853 23:50 26.07.2019
4603 Rain 9 1012 80 0 1.71 155.853 23:26 26.07.2019
4604 Rain 9 1012 80 0 1.71 155.853 22:45 26.07.2019
4605 Rain 9 1012 80 0 1.71 155.853 22:26 26.07.2019
4606 Rain 9 1012 80 0 1.71 155.853 21:58 26.07.2019
4607 Rain 9 1012 80 0 1.71 155.853 21:58 26.07.2019
4608 Rain 9 1012 80 0 1.71 155.853 21:37 26.07.2019
4609 Rain 9 1012 80 0 2.25 154.576 21:18 26.07.2019
4610 Rain 8 1012 85 0 3.1 159.649 20:41 26.07.2019
4611 Rain 8 1012 85 0 3.1 159.649 20:21 26.07.2019
4612 Rain 8 1012 85 0 3.1 159.649 19:42 26.07.2019
4613 Rain 8 1012 85 0 3.1 159.649 19:23 26.07.2019
4614 Rain 8 1012 85 0 3.1 159.649 18:47 26.07.2019
4615 Rain 11 1010 76 0 3.1 192.088 18:23 26.07.2019
4616 Rain 11 1010 76 0 3.1 192.088 17:58 26.07.2019
4617 Rain 11 1010 76 0 3.1 192.088 17:40 26.07.2019
4618 Rain 11 1010 76 0 3.1 192.088 17:18 26.07.2019
4619 Rain 11 1010 76 0 3.1 192.088 16:56 26.07.2019
4620 Rain 11 1010 76 0 3.1 192.088 16:37 26.07.2019
4621 Rain 11 1010 76 0 3.1 192.088 16:18 26.07.2019
4622 Rain 11 1010 76 0 3.1 192.088 15:45 26.07.2019
4623 Rain 11 1010 76 0 3.1 192.088 15:45 26.07.2019
4624 Rain 13 1004 63 0 1.84 35.454 15:23 26.07.2019
4625 Rain 13 1004 63 0 1.84 35.454 14:58 26.07.2019
4626 Rain 13 1004 63 0 1.84 35.454 14:40 26.07.2019
4627 Rain 13 1004 63 0 1.84 35.454 14:21 26.07.2019
4628 Rain 13 1004 63 0 1.84 35.454 13:40 26.07.2019
4629 Rain 17 1004 44 0 4.9 319.93 13:21 26.07.2019
4630 Rain 17 1004 44 0 4.9 319.93 12:45 26.07.2019
4631 Rain 21 1003 31 0 1.31 136.357 12:20 26.07.2019
4632 Rain 21 1003 31 0 1.31 136.357 11:40 26.07.2019
4633 Rain 21 1003 31 0 1.31 136.357 11:20 26.07.2019
4634 Rain 21 1003 31 0 1.31 136.357 10:55 26.07.2019
4635 Rain 21 1003 31 0 1.31 136.357 10:36 26.07.2019
4636 Rain 21 1003 31 0 1.31 136.357 09:55 26.07.2019
4637 Rain 21 1003 31 0 1.31 136.357 09:36 26.07.2019
4638 Rain 18 1006 38 0 1.59 177.042 08:44 26.07.2019
4639 Rain 18 1006 38 0 1.59 177.042 08:23 26.07.2019
4640 Rain 18 1006 38 0 1.59 177.042 07:59 26.07.2019
4641 Rain 18 1006 38 0 1.59 177.042 07:29 26.07.2019
4642 Rain 18 1006 38 0 1.59 177.042 06:53 26.07.2019
4643 Rain 13 1012 57 0 1.95 148.819 05:23 26.07.2019
4644 Rain 13 1012 57 0 1.95 148.819 04:28 26.07.2019
4645 Rain 9 1013 82 0 1.7 184.083 03:18 26.07.2019
4646 Rain 9 1013 82 0 1.7 184.083 01:43 26.07.2019
4647 Rain 10 1012 69 0 1.44 147.587 00:47 26.07.2019
4648 Rain 9 1011 73 0 1.32 192.968 23:59 25.07.2019
4649 Rain 9 1011 73 0 1.32 192.968 23:25 25.07.2019
4650 Rain 9 1011 73 0 1.32 192.968 22:59 25.07.2019
4651 Rain 9 1011 73 0 1.32 192.968 22:40 25.07.2019
4652 Rain 9 1011 73 0 1.32 192.968 22:21 25.07.2019
4653 Rain 9 1011 73 0 1.32 192.968 21:46 25.07.2019
4654 Clouds 12 1011 54 0 2.61 177.89 21:22 25.07.2019
4655 Clouds 11 1011 58 0 2.43 164.883 20:49 25.07.2019
4656 Clouds 11 1011 58 0 2.43 164.883 20:29 25.07.2019
4657 Clouds 11 1011 58 0 2.43 164.883 19:54 25.07.2019
4658 Clouds 11 1011 58 0 2.43 164.883 19:36 25.07.2019
4659 Clouds 11 1011 58 0 2.43 164.883 19:18 25.07.2019
4660 Clouds 11 1011 58 0 2.43 164.883 18:39 25.07.2019
4661 Clouds 13 1010 43 0 1.24 127.839 18:21 25.07.2019
4662 Clouds 13 1010 43 0 1.24 127.839 17:45 25.07.2019
4663 Clouds 13 1010 43 0 1.24 127.839 17:25 25.07.2019
4664 Clouds 13 1010 43 0 1.24 127.839 16:47 25.07.2019
4665 Clouds 13 1010 43 0 1.24 127.839 16:29 25.07.2019
4666 Clouds 13 1010 43 0 1.24 127.839 15:58 25.07.2019
4667 Clouds 13 1010 43 0 1.24 127.839 15:38 25.07.2019
4668 Clouds 19 1005 26 0 1.25 38.524 15:18 25.07.2019
4669 Clouds 19 1005 26 0 1.25 38.524 14:41 25.07.2019
4670 Clouds 19 1005 26 0 1.25 38.524 14:22 25.07.2019
4671 Clouds 19 1005 26 0 1.25 38.524 13:44 25.07.2019
4672 Clouds 19 1004 25 0 1.82 59.506 13:25 25.07.2019
4673 Clouds 19 1004 25 0 1.82 59.506 12:54 25.07.2019
4674 Clouds 19 1004 25 0 1.82 59.506 12:28 25.07.2019
4675 Clouds 20 1004 20 0 1.36 33.655 11:43 25.07.2019
4676 Clouds 20 1004 20 0 1.36 33.655 11:23 25.07.2019
4677 Clouds 20 1004 20 0 1.36 33.655 10:46 25.07.2019
4678 Clouds 20 1004 20 0 1.36 33.655 10:26 25.07.2019
4679 Clouds 20 1004 20 0 1.36 33.655 09:59 25.07.2019
4680 Clouds 20 1004 20 0 1.36 33.655 09:40 25.07.2019
4681 Clouds 18 1008 18 0 0.78 349.603 08:55 25.07.2019
4682 Clouds 18 1008 18 0 0.78 349.603 08:55 25.07.2019
4683 Clouds 18 1008 18 0 0.78 349.603 08:37 25.07.2019
4684 Clouds 18 1008 18 0 0.78 349.603 07:51 25.07.2019
4685 Clouds 18 1008 18 0 0.78 349.603 07:27 25.07.2019
4686 Clouds 18 1008 18 0 0.78 349.603 06:41 25.07.2019
4687 Clouds 14 1012 27 0 1.45 18.523 05:37 25.07.2019
4688 Clouds 14 1012 27 0 1.45 18.523 04:57 25.07.2019
4689 Clouds 14 1012 27 0 1.45 18.523 04:19 25.07.2019
4690 Clouds 8 1014 45 0 2.39 23.054 01:31 25.07.2019
4691 Clouds 8 1015 44 0 2.3 23.401 00:45 25.07.2019
4692 Clear 8 1014 40 0 2.73 22.25 00:19 25.07.2019
4693 Clear 8 1014 40 0 2.73 22.25 23:44 24.07.2019
4694 Clear 8 1014 40 0 2.73 22.25 23:25 24.07.2019
4695 Clear 8 1014 40 0 2.73 22.25 22:47 24.07.2019
4696 Clear 8 1014 40 0 2.73 22.25 22:25 24.07.2019
4697 Clear 8 1014 40 0 2.73 22.25 21:59 24.07.2019
4698 Clear 8 1014 40 0 2.73 22.25 21:41 24.07.2019
4699 Clear 10 1014 38 0 2.89 9.739 21:21 24.07.2019
4700 Clear 10 1014 38 0 2.4 13.903 20:48 24.07.2019
4701 Clear 10 1014 38 0 2.4 13.903 20:30 24.07.2019
4702 Clear 10 1014 38 0 2.4 13.903 20:00 24.07.2019
4703 Clear 10 1014 38 0 2.4 13.903 19:41 24.07.2019
4704 Clear 10 1014 38 0 2.4 13.903 19:21 24.07.2019
4705 Clear 10 1014 38 0 2.4 13.903 18:45 24.07.2019
4706 Clear 12 1013 35 0 3.06 3.864 18:25 24.07.2019
4707 Clear 12 1013 35 0 3.06 3.864 17:55 24.07.2019
4708 Clear 12 1013 35 0 3.06 3.864 17:37 24.07.2019
4709 Clear 12 1013 35 0 3.06 3.864 17:37 24.07.2019
4710 Clear 12 1013 35 0 3.06 3.864 17:18 24.07.2019
4711 Clear 12 1013 35 0 3.06 3.864 16:40 24.07.2019
4712 Clear 12 1013 35 0 3.06 3.864 16:21 24.07.2019
4713 Clear 12 1013 35 0 3.06 3.864 15:39 24.07.2019
4714 Clouds 18 1006 27 0 4.84 18.997 15:21 24.07.2019
4715 Clouds 18 1006 27 0 4.84 18.997 14:47 24.07.2019
4716 Clouds 18 1006 27 0 4.84 18.997 14:22 24.07.2019
4717 Clouds 18 1006 27 0 4.84 18.997 13:58 24.07.2019
4718 Clouds 18 1006 27 0 4.84 18.997 13:36 24.07.2019
4719 Clouds 18 1006 27 0 4.05 14.483 13:18 24.07.2019
4720 Clouds 18 1006 27 0 4.05 14.483 12:45 24.07.2019
4721 Clouds 20 1005 20 0 3.17 37.137 12:22 24.07.2019
4722 Clouds 20 1005 20 0 3.17 37.137 11:37 24.07.2019
4723 Clouds 20 1005 20 0 3.17 37.137 11:19 24.07.2019
4724 Clouds 20 1005 20 0 3.17 37.137 10:43 24.07.2019
4725 Clouds 20 1005 20 0 3.17 37.137 10:24 24.07.2019
4726 Clouds 20 1005 20 0 3.17 37.137 09:44 24.07.2019
4727 Clouds 18 1009 24 0 3.69 32.889 09:24 24.07.2019
4728 Clouds 18 1009 24 0 3.69 32.889 08:54 24.07.2019
4729 Clouds 18 1009 23 0 3.5 31.492 08:27 24.07.2019
4730 Clouds 18 1009 23 0 3.5 31.492 07:51 24.07.2019
4731 Clouds 18 1009 23 0 3.5 31.492 07:23 24.07.2019
4732 Clouds 18 1009 23 0 3.5 31.492 06:28 24.07.2019
4733 Clouds 18 1009 23 0 3.5 31.492 06:28 24.07.2019
4734 Clouds 15 1012 41 0 2.68 23.435 05:26 24.07.2019
4735 Clouds 9 1014 69 0 2.59 22.545 01:59 24.07.2019
4736 Clouds 9 1014 72 0 2.2 31.732 01:29 24.07.2019
4737 Clouds 9 1014 72 0 2.2 31.732 00:57 24.07.2019
4738 Clouds 9 1013 71 0 2.21 26.542 00:22 24.07.2019
4739 Clouds 9 1013 71 0 2.21 26.542 23:42 23.07.2019
4740 Clouds 9 1013 71 0 2.21 26.542 23:23 23.07.2019
4741 Clouds 9 1013 71 0 2.21 26.542 22:39 23.07.2019
4742 Clouds 9 1013 71 0 2.21 26.542 22:19 23.07.2019
4743 Clouds 9 1013 71 0 2.21 26.542 21:58 23.07.2019
4744 Clouds 9 1013 71 0 2.21 26.542 21:58 23.07.2019
4745 Clouds 9 1013 71 0 2.21 26.542 21:40 23.07.2019
4746 Rain 10 1013 70 0 1.29 31.921 21:21 23.07.2019
4747 Rain 10 1012 70 0 0.85 37.733 20:44 23.07.2019
4748 Rain 10 1012 70 0 0.85 37.733 20:21 23.07.2019
4749 Rain 10 1012 70 0 0.85 37.733 19:42 23.07.2019
4750 Rain 10 1012 70 0 0.85 37.733 19:19 23.07.2019
4751 Rain 10 1012 70 0 0.85 37.733 18:48 23.07.2019
4752 Rain 12 1011 64 0 0.63 80.731 18:23 23.07.2019
4753 Rain 12 1011 64 0 0.63 80.731 17:45 23.07.2019
4754 Rain 12 1011 64 0 0.63 80.731 17:26 23.07.2019
4755 Rain 12 1011 64 0 0.63 80.731 16:58 23.07.2019
4756 Rain 12 1011 64 0 0.63 80.731 16:39 23.07.2019
4757 Rain 12 1011 64 0 0.63 80.731 16:19 23.07.2019
4758 Rain 12 1011 64 0 0.63 80.731 15:45 23.07.2019
4759 Rain 12 1011 64 0 0.63 80.731 15:45 23.07.2019
4760 Rain 17 1006 44 0 1.48 338.119 15:24 23.07.2019
4761 Rain 17 1006 44 0 1.48 338.119 14:39 23.07.2019
4762 Rain 17 1006 44 0 1.48 338.119 14:20 23.07.2019
4763 Rain 17 1006 44 0 1.48 338.119 13:58 23.07.2019
4764 Rain 17 1006 44 0 1.48 338.119 13:39 23.07.2019
4765 Rain 17 1005 45 0 0.76 290.891 13:20 23.07.2019
4766 Rain 17 1005 45 0 0.76 290.891 12:48 23.07.2019
4767 Rain 15 1004 53 0 1.08 188.19 12:25 23.07.2019
4768 Rain 15 1004 53 0 1.08 188.19 11:49 23.07.2019
4769 Rain 15 1004 53 0 1.08 188.19 11:31 23.07.2019
4770 Rain 15 1004 53 0 1.08 188.19 10:57 23.07.2019
4771 Rain 15 1004 53 0 1.08 188.19 10:38 23.07.2019
4772 Rain 15 1004 53 0 1.08 188.19 10:20 23.07.2019
4773 Rain 15 1004 53 0 1.08 188.19 09:40 23.07.2019
4774 Rain 15 1008 55 0 4.45 226.511 09:19 23.07.2019
4775 Rain 14 1008 54 0 1.57 220.894 08:42 23.07.2019
4776 Rain 14 1008 54 0 1.57 220.894 08:19 23.07.2019
4777 Rain 14 1008 54 0 1.57 220.894 07:55 23.07.2019
4778 Rain 14 1008 54 0 1.57 220.894 07:33 23.07.2019
4779 Rain 14 1008 54 0 1.57 220.894 06:44 23.07.2019
4780 Rain 14 1008 54 0 1.57 220.894 06:26 23.07.2019
4781 Rain 11 1012 72 0 0.95 153.354 02:44 23.07.2019
4782 Clouds 11 1011 73 0 0.88 123.926 01:31 23.07.2019
4783 Clouds 11 1011 73 0 0.88 123.926 00:30 23.07.2019
4784 Rain 10 1010 71 0 0.97 142.622 23:43 22.07.2019
4785 Rain 10 1010 71 0 0.97 142.622 23:22 22.07.2019
4786 Rain 10 1010 71 0 0.97 142.622 22:59 22.07.2019
4787 Rain 10 1010 71 0 0.97 142.622 22:41 22.07.2019
4788 Rain 10 1010 71 0 0.97 142.622 22:20 22.07.2019
4789 Rain 10 1010 71 0 0.97 142.622 21:42 22.07.2019
4790 Clouds 10 1011 67 0 1.06 3.261 21:21 22.07.2019
4791 Rain 11 1010 67 0 0.91 337.756 20:48 22.07.2019
4792 Rain 11 1010 67 0 0.91 337.756 20:30 22.07.2019
4793 Rain 11 1010 67 0 0.91 337.756 19:55 22.07.2019
4794 Rain 11 1010 67 0 0.91 337.756 19:37 22.07.2019
4795 Rain 11 1010 67 0 0.91 337.756 19:18 22.07.2019
4796 Rain 11 1010 67 0 0.91 337.756 19:18 22.07.2019
4797 Rain 11 1010 67 0 0.91 337.756 18:41 22.07.2019
4798 Clouds 12 1010 63 0 0.34 132.984 18:23 22.07.2019
4799 Clouds 12 1010 63 0 0.34 132.984 17:44 22.07.2019
4800 Clouds 12 1010 63 0 0.34 132.984 17:26 22.07.2019
4801 Clouds 12 1010 63 0 0.34 132.984 16:58 22.07.2019
4802 Clouds 12 1010 63 0 0.34 132.984 16:38 22.07.2019
4803 Clouds 12 1010 63 0 0.34 132.984 16:18 22.07.2019
4804 Clouds 12 1010 63 0 0.34 132.984 15:43 22.07.2019
4805 Clouds 16 1005 43 0 1.37 155.272 15:19 22.07.2019
4806 Clouds 16 1005 43 0 1.37 155.272 14:44 22.07.2019
4807 Clouds 16 1005 43 0 1.37 155.272 14:22 22.07.2019
4808 Clouds 16 1005 43 0 1.37 155.272 13:50 22.07.2019
4809 Clouds 16 1005 43 0 1.37 155.272 13:30 22.07.2019
4810 Clouds 16 1005 43 0 1.37 155.272 12:50 22.07.2019
4811 Clouds 16 1005 43 0 1.37 155.272 12:31 22.07.2019
4812 Clouds 18 1003 41 0 1.73 192.15 11:46 22.07.2019
4813 Clouds 18 1003 41 0 1.73 192.15 11:27 22.07.2019
4814 Clouds 18 1003 41 0 1.73 192.15 10:59 22.07.2019
4815 Clouds 18 1003 41 0 1.73 192.15 10:34 22.07.2019
4816 Clouds 18 1003 41 0 1.73 192.15 09:46 22.07.2019
4817 Clouds 18 1003 41 0 1.73 192.15 09:26 22.07.2019
4818 Clouds 18 1003 41 0 1.73 192.15 09:26 22.07.2019
4819 Rain 14 1009 58 0 2.06 188.41 08:59 22.07.2019
4820 Rain 14 1009 58 0 2.06 188.41 08:38 22.07.2019
4821 Rain 14 1009 58 0 2.06 188.41 08:19 22.07.2019
4822 Rain 14 1009 58 0 2.06 188.41 07:47 22.07.2019
4823 Rain 14 1009 58 0 2.06 188.41 07:27 22.07.2019
4824 Rain 9 1014 84 0 2.5 187.913 05:20 22.07.2019
4825 Rain 10 1015 83 0 3.21 191.194 02:59 22.07.2019
4826 Rain 12 1014 64 0 0.92 172.302 01:25 22.07.2019
4827 Rain 12 1014 64 0 0.92 172.302 00:42 22.07.2019
4828 Clouds 11 1013 68 0 0.74 28.912 00:20 22.07.2019
4829 Clouds 11 1013 68 0 0.74 28.912 23:46 21.07.2019
4830 Clouds 11 1013 68 0 0.74 28.912 22:59 21.07.2019
4831 Clouds 11 1013 68 0 0.74 28.912 22:40 21.07.2019
4832 Clouds 11 1013 68 0 0.74 28.912 22:21 21.07.2019
4833 Clouds 11 1013 68 0 0.74 28.912 21:49 21.07.2019
4834 Clouds 11 1013 68 0 0.74 28.912 21:26 21.07.2019
4835 Clouds 11 1013 64 0 1.28 26.062 20:59 21.07.2019
4836 Clouds 11 1013 64 0 1.37 17.112 20:41 21.07.2019
4837 Clouds 11 1013 64 0 1.37 17.112 20:22 21.07.2019
4838 Clouds 11 1013 64 0 1.37 17.112 19:52 21.07.2019
4839 Clouds 11 1013 64 0 1.37 17.112 19:29 21.07.2019
4840 Clouds 11 1013 64 0 1.37 17.112 18:56 21.07.2019
4841 Clouds 11 1013 64 0 1.37 17.112 18:37 21.07.2019
4842 Clear 12 1012 61 0 2.24 32.247 18:19 21.07.2019
4843 Clear 12 1012 61 0 2.24 32.247 17:40 21.07.2019
4844 Clear 12 1012 61 0 2.24 32.247 17:19 21.07.2019
4845 Clear 12 1012 61 0 2.24 32.247 16:42 21.07.2019
4846 Clear 12 1012 61 0 2.24 32.247 16:24 21.07.2019
4847 Clear 12 1012 61 0 2.24 32.247 15:43 21.07.2019
4848 Clouds 16 1007 45 0 2.84 35.043 15:22 21.07.2019
4849 Clouds 16 1007 45 0 2.84 35.043 14:54 21.07.2019
4850 Clouds 16 1007 45 0 2.84 35.043 14:25 21.07.2019
4851 Clouds 16 1007 45 0 2.84 35.043 13:59 21.07.2019
4852 Clouds 16 1007 45 0 2.84 35.043 13:40 21.07.2019
4853 Rain 17 1007 44 0 3.25 29.898 13:20 21.07.2019
4854 Rain 17 1007 44 0 3.25 29.898 12:41 21.07.2019
4855 Rain 18 1006 43 0 3.61 17.109 12:22 21.07.2019
4856 Rain 18 1006 43 0 3.61 17.109 11:46 21.07.2019
4857 Rain 18 1006 43 0 3.61 17.109 11:27 21.07.2019
4858 Rain 18 1006 43 0 3.61 17.109 10:47 21.07.2019
4859 Rain 18 1006 43 0 3.61 17.109 10:25 21.07.2019
4860 Rain 18 1006 43 0 3.61 17.109 09:55 21.07.2019
4861 Rain 18 1006 43 0 3.61 17.109 09:36 21.07.2019
4862 Rain 14 1011 56 0 3.52 7.561 08:49 21.07.2019
4863 Rain 14 1011 56 0 3.52 7.561 08:30 21.07.2019
4864 Rain 14 1011 56 0 3.52 7.561 07:56 21.07.2019
4865 Rain 14 1011 56 0 3.52 7.561 07:19 21.07.2019
4866 Rain 14 1011 56 0 3.52 7.561 06:34 21.07.2019
4867 Rain 11 1014 72 0 3.52 0.683 04:19 21.07.2019
4868 Rain 11 1015 70 0 2.29 11.781 01:53 21.07.2019
4869 Rain 11 1014 71 0 1.25 12.117 00:48 21.07.2019
4870 Rain 11 1013 72 0 1.34 142.669 00:22 21.07.2019
4871 Rain 11 1013 72 0 1.34 142.669 23:48 20.07.2019
4872 Rain 11 1013 72 0 1.34 142.669 23:27 20.07.2019
4873 Rain 11 1013 72 0 1.34 142.669 22:58 20.07.2019
4874 Rain 11 1013 72 0 1.34 142.669 22:40 20.07.2019
4875 Rain 11 1013 72 0 1.34 142.669 22:19 20.07.2019
4876 Rain 11 1013 72 0 1.34 142.669 21:43 20.07.2019
4877 Rain 13 1013 61 0 1.35 145.887 21:24 20.07.2019
4878 Rain 12 1013 67 0 1.24 119.888 20:43 20.07.2019
4879 Rain 12 1013 67 0 1.24 119.888 20:23 20.07.2019
4880 Rain 12 1013 67 0 1.24 119.888 19:51 20.07.2019
4881 Rain 12 1013 67 0 1.24 119.888 19:29 20.07.2019
4882 Rain 12 1013 67 0 1.24 119.888 18:57 20.07.2019
4883 Rain 12 1013 67 0 1.24 119.888 18:38 20.07.2019
4884 Clouds 17 1010 39 0 2.75 183.294 18:19 20.07.2019
4885 Clouds 17 1010 39 0 2.75 183.294 17:46 20.07.2019
4886 Clouds 17 1010 39 0 2.75 183.294 17:20 20.07.2019
4887 Clouds 17 1010 39 0 2.75 183.294 16:42 20.07.2019
4888 Clouds 17 1010 39 0 2.75 183.294 16:23 20.07.2019
4889 Clouds 17 1010 39 0 2.75 183.294 15:42 20.07.2019
4890 Clear 21 1005 27 0 2.06 324.346 15:21 20.07.2019
4891 Clear 21 1005 27 0 2.06 324.346 14:54 20.07.2019
4892 Clear 21 1005 27 0 2.06 324.346 14:36 20.07.2019
4893 Clear 21 1005 27 0 2.06 324.346 14:18 20.07.2019
4894 Clear 21 1005 27 0 2.06 324.346 13:38 20.07.2019
4895 Clear 21 1005 29 0 1.87 296.032 13:19 20.07.2019
4896 Clear 21 1005 29 0 1.87 296.032 12:49 20.07.2019
4897 Clear 22 1003 26 0 0.43 129.261 12:20 20.07.2019
4898 Clear 22 1003 26 0 0.43 129.261 11:52 20.07.2019
4899 Clear 22 1003 26 0 0.43 129.261 11:23 20.07.2019
4900 Clear 22 1003 26 0 0.43 129.261 10:49 20.07.2019
4901 Clear 22 1003 26 0 0.43 129.261 10:26 20.07.2019
4902 Clear 22 1003 26 0 0.43 129.261 09:53 20.07.2019
4903 Clear 22 1003 26 0 0.43 129.261 09:27 20.07.2019
4904 Rain 19 1007 37 0 2.24 186.442 08:57 20.07.2019
4905 Clear 19 1007 37 0 2.38 187.834 08:36 20.07.2019
4906 Clear 19 1007 37 0 2.38 187.834 08:18 20.07.2019
4907 Clear 19 1007 37 0 2.38 187.834 07:18 20.07.2019
4908 Clear 19 1007 37 0 2.38 187.834 06:31 20.07.2019
4909 Clear 14 1012 55 0 2.01 176.083 04:31 20.07.2019
4910 Clouds 10 1015 74 0 0.52 108.712 02:36 20.07.2019
4911 Clouds 10 1015 72 0 1.58 151.761 01:21 20.07.2019
4912 Clouds 10 1015 72 0 1.58 151.761 00:45 20.07.2019
4913 Clouds 10 1014 76 0 1.46 165.23 00:18 20.07.2019
4914 Clouds 10 1014 76 0 1.46 165.23 23:43 19.07.2019
4915 Clouds 10 1014 76 0 1.46 165.23 23:22 19.07.2019
4916 Clouds 10 1014 76 0 1.46 165.23 22:44 19.07.2019
4917 Clouds 10 1014 76 0 1.46 165.23 22:25 19.07.2019
4918 Clouds 10 1014 76 0 1.46 165.23 21:47 19.07.2019
4919 Rain 11 1014 71 0 1.05 170.484 21:29 19.07.2019
4920 Rain 11 1013 70 0 2.1 150.604 20:50 19.07.2019
4921 Rain 11 1013 70 0 2.1 150.604 20:31 19.07.2019
4922 Rain 11 1013 70 0 2.1 150.604 19:55 19.07.2019
4923 Rain 11 1013 70 0 2.1 150.604 19:34 19.07.2019
4924 Rain 11 1013 70 0 2.1 150.604 18:43 19.07.2019
4925 Rain 13 1011 58 0 3.76 164.174 18:23 19.07.2019
4926 Rain 13 1011 58 0 3.76 164.174 17:55 19.07.2019
4927 Rain 13 1011 58 0 3.76 164.174 17:29 19.07.2019
4928 Rain 13 1011 58 0 3.76 164.174 16:49 19.07.2019
4929 Rain 13 1011 58 0 3.76 164.174 16:29 19.07.2019
4930 Rain 13 1011 58 0 3.76 164.174 15:56 19.07.2019
4931 Rain 13 1011 58 0 3.76 164.174 15:38 19.07.2019
4932 Clouds 20 1005 30 0 1.18 341.95 15:20 19.07.2019
4933 Clouds 20 1005 30 0 1.18 341.95 14:44 19.07.2019
4934 Clouds 20 1005 30 0 1.18 341.95 14:25 19.07.2019
4935 Clouds 20 1005 30 0 1.18 341.95 13:46 19.07.2019
4936 Clear 20 1005 30 0 0.38 354.819 13:27 19.07.2019
4937 Clear 20 1005 30 0 0.38 354.819 12:57 19.07.2019
4938 Clear 20 1005 30 0 0.38 354.819 12:37 19.07.2019
4939 Clear 21 1004 27 0 1.12 211.174 12:19 19.07.2019
4940 Clear 21 1004 27 0 1.12 211.174 11:44 19.07.2019
4941 Clear 21 1004 27 0 1.12 211.174 11:18 19.07.2019
4942 Clear 21 1004 27 0 1.12 211.174 10:48 19.07.2019
4943 Clear 21 1004 27 0 1.12 211.174 10:23 19.07.2019
4944 Clear 21 1004 27 0 1.12 211.174 09:58 19.07.2019
4945 Clear 21 1004 27 0 1.12 211.174 09:40 19.07.2019
4946 Rain 18 1009 36 0 1.89 189.861 09:21 19.07.2019
4947 Rain 18 1008 36 0 2.2 194.511 08:48 19.07.2019
4948 Rain 18 1008 36 0 2.2 194.511 07:59 19.07.2019
4949 Rain 18 1008 36 0 2.2 194.511 07:29 19.07.2019
4950 Rain 14 1013 56 0 1.07 182.095 05:57 19.07.2019
4951 Clouds 9 1017 80 0 0.43 124.729 02:43 19.07.2019
4952 Clouds 9 1016 77 0 0.56 0.508 01:20 19.07.2019
4953 Clouds 9 1016 77 0 0.56 0.508 00:45 19.07.2019
4954 Clouds 9 1014 81 0 0.56 46.532 23:58 18.07.2019
4955 Clouds 9 1014 81 0 0.56 46.532 23:39 18.07.2019
4956 Clouds 9 1014 81 0 0.56 46.532 23:21 18.07.2019
4957 Clouds 9 1014 81 0 0.56 46.532 22:41 18.07.2019
4958 Clouds 9 1014 81 0 0.56 46.532 22:20 18.07.2019
4959 Clouds 9 1014 81 0 0.56 46.532 21:49 18.07.2019
4960 Clouds 9 1014 81 0 0.56 46.532 21:30 18.07.2019
4961 Rain 9 1016 79 0 1.77 152.684 20:54 18.07.2019
4962 Rain 9 1016 79 0 1.77 152.684 20:36 18.07.2019
4963 Rain 9 1016 79 0 1.77 152.684 20:18 18.07.2019
4964 Rain 9 1016 79 0 1.77 152.684 19:43 18.07.2019
4965 Rain 9 1016 79 0 1.77 152.684 19:20 18.07.2019
4966 Rain 9 1016 79 0 1.77 152.684 18:43 18.07.2019
4967 Rain 11 1013 73 0 1.89 232.487 18:21 18.07.2019
4968 Rain 11 1013 73 0 1.89 232.487 17:44 18.07.2019
4969 Rain 11 1013 73 0 1.89 232.487 17:25 18.07.2019
4970 Rain 11 1013 73 0 1.89 232.487 16:57 18.07.2019
4971 Rain 11 1013 73 0 1.89 232.487 16:39 18.07.2019
4972 Rain 11 1013 73 0 1.89 232.487 16:19 18.07.2019
4973 Rain 11 1013 73 0 1.89 232.487 15:51 18.07.2019
4974 Rain 11 1013 73 0 1.89 232.487 15:33 18.07.2019
4975 Clouds 19 1006 35 0 5.79 311.158 14:53 18.07.2019
4976 Clouds 19 1006 35 0 5.79 311.158 14:33 18.07.2019
4977 Clouds 19 1006 35 0 5.79 311.158 13:50 18.07.2019
4978 Clouds 19 1005 35 0 6.17 322.694 13:27 18.07.2019
4979 Clouds 19 1005 35 0 6.17 322.694 12:54 18.07.2019
4980 Clouds 19 1005 35 0 6.17 322.694 12:36 18.07.2019
4981 Clear 21 1003 24 0 1.14 8.414 12:18 18.07.2019
4982 Clear 21 1003 24 0 1.14 8.414 12:18 18.07.2019
4983 Clear 21 1003 24 0 1.14 8.414 11:46 18.07.2019
4984 Clear 21 1003 24 0 1.14 8.414 11:22 18.07.2019
4985 Clear 21 1003 24 0 1.14 8.414 10:51 18.07.2019
4986 Clear 21 1003 24 0 1.14 8.414 09:50 18.07.2019
4987 Clear 21 1003 24 0 1.14 8.414 09:27 18.07.2019
4988 Clear 19 1008 32 0 1.63 186.081 08:54 18.07.2019
4989 Clear 19 1008 32 0 1.63 186.081 08:25 18.07.2019
4990 Clear 19 1008 32 0 1.63 186.081 07:58 18.07.2019
4991 Clear 19 1008 32 0 1.63 186.081 07:36 18.07.2019
4992 Clear 19 1008 32 0 1.63 186.081 06:55 18.07.2019
4993 Clear 19 1008 32 0 1.63 186.081 06:30 18.07.2019
4994 Clear 14 1012 47 0 2.21 174.166 03:46 18.07.2019
4995 Rain 10 1014 67 0 1.23 102.225 02:50 18.07.2019
4996 Rain 10 1014 67 0 1.15 57.247 01:36 18.07.2019
4997 Rain 9 1013 76 0 1.58 28.092 00:22 18.07.2019
4998 Rain 9 1013 76 0 1.58 28.092 23:22 17.07.2019
4999 Rain 9 1013 76 0 1.58 28.092 22:59 17.07.2019
5000 Rain 9 1013 76 0 1.58 28.092 22:41 17.07.2019
5001 Rain 9 1013 76 0 1.58 28.092 22:22 17.07.2019
5002 Rain 9 1013 76 0 1.58 28.092 21:58 17.07.2019
5003 Rain 9 1013 76 0 1.58 28.092 21:38 17.07.2019
5004 Rain 11 1013 69 0 1.75 6.648 21:19 17.07.2019
5005 Rain 11 1012 69 0 1.17 12.156 20:55 17.07.2019
5006 Rain 11 1012 69 0 1.17 12.156 20:37 17.07.2019
5007 Rain 11 1012 69 0 1.17 12.156 20:18 17.07.2019
5008 Rain 11 1012 69 0 1.17 12.156 19:41 17.07.2019
5009 Rain 11 1012 69 0 1.17 12.156 19:20 17.07.2019
5010 Rain 11 1012 69 0 1.17 12.156 18:45 17.07.2019
5011 Rain 12 1009 58 0 2.12 354.553 18:21 17.07.2019
5012 Rain 12 1009 58 0 2.12 354.553 17:57 17.07.2019
5013 Rain 12 1009 58 0 2.12 354.553 17:39 17.07.2019
5014 Rain 12 1009 58 0 2.12 354.553 17:20 17.07.2019
5015 Rain 12 1009 58 0 2.12 354.553 16:40 17.07.2019
5016 Rain 12 1009 58 0 2.12 354.553 16:20 17.07.2019
5017 Rain 12 1009 58 0 2.12 354.553 15:51 17.07.2019
5018 Rain 12 1009 58 0 2.12 354.553 15:31 17.07.2019
5019 Rain 19 1004 33 0 3.09 131.367 14:57 17.07.2019
5020 Rain 19 1004 33 0 3.09 131.367 14:38 17.07.2019
5021 Rain 19 1004 33 0 3.09 131.367 14:20 17.07.2019
5022 Rain 19 1004 33 0 3.09 131.367 13:49 17.07.2019
5023 Clouds 20 1003 29 0 2.44 105.816 13:31 17.07.2019
5024 Clouds 20 1003 29 0 2.44 105.816 12:55 17.07.2019
5025 Clouds 20 1003 29 0 2.44 105.816 12:36 17.07.2019
5026 Clouds 22 1003 23 0 1.08 48.729 12:18 17.07.2019
5027 Clouds 22 1003 23 0 1.08 48.729 11:40 17.07.2019
5028 Clouds 22 1003 23 0 1.08 48.729 11:40 17.07.2019
5029 Clouds 22 1003 23 0 1.08 48.729 11:19 17.07.2019
5030 Clouds 22 1003 23 0 1.08 48.729 10:43 17.07.2019
5031 Clouds 22 1003 23 0 1.08 48.729 10:20 17.07.2019
5032 Clouds 22 1003 23 0 1.08 48.729 09:45 17.07.2019
5033 Clouds 22 1003 23 0 1.08 48.729 09:26 17.07.2019
5034 Clouds 22 1003 23 0 1.08 48.729 09:26 17.07.2019
5035 Clouds 19 1007 32 0 1.83 185.408 08:44 17.07.2019
5036 Clouds 19 1007 32 0 1.83 185.408 08:23 17.07.2019
5037 Clouds 19 1007 32 0 1.83 185.408 07:55 17.07.2019
5038 Clouds 19 1007 32 0 1.83 185.408 07:36 17.07.2019
5039 Clouds 19 1007 32 0 1.83 185.408 07:18 17.07.2019
5040 Clouds 19 1007 32 0 1.83 185.408 06:41 17.07.2019
5041 Clear 15 1010 43 0 1.8 169.874 06:22 17.07.2019
5042 Clear 15 1010 43 0 1.8 169.874 05:33 17.07.2019
5043 Clear 15 1010 43 0 1.8 169.874 04:56 17.07.2019
5044 Clear 15 1010 43 0 1.8 169.874 03:52 17.07.2019
5045 Clouds 10 1013 59 0 1.85 142.895 02:43 17.07.2019
5046 Clouds 10 1013 59 0 1.85 142.895 01:41 17.07.2019
5047 Clouds 10 1013 59 0 1.92 151.726 01:21 17.07.2019
5048 Clouds 10 1013 59 0 1.92 151.726 00:39 17.07.2019
5049 Clouds 10 1011 60 0 2.19 148.973 00:20 17.07.2019
5050 Clouds 10 1011 60 0 2.19 148.973 23:45 16.07.2019
5051 Clouds 10 1011 60 0 2.19 148.973 23:24 16.07.2019
5052 Clouds 10 1011 60 0 2.19 148.973 22:44 16.07.2019
5053 Clouds 10 1011 60 0 2.19 148.973 22:26 16.07.2019
5054 Clouds 10 1011 60 0 2.19 148.973 21:59 16.07.2019
5055 Clouds 10 1011 60 0 2.19 148.973 21:59 16.07.2019
5056 Clouds 10 1011 60 0 2.19 148.973 21:40 16.07.2019
5057 Clouds 13 1010 52 0 3.01 176.709 21:19 16.07.2019
5058 Clouds 12 1011 54 0 2.99 171.025 20:41 16.07.2019
5059 Clouds 12 1011 54 0 2.99 171.025 20:23 16.07.2019
5060 Clouds 12 1011 54 0 2.99 171.025 19:55 16.07.2019
5061 Clouds 12 1011 54 0 2.99 171.025 19:33 16.07.2019
5062 Clouds 12 1011 54 0 2.99 171.025 18:59 16.07.2019
5063 Clouds 12 1011 54 0 2.99 171.025 18:41 16.07.2019
5064 Clouds 14 1008 45 0 2.61 179.561 18:21 16.07.2019
5065 -273 0 0 0 0 0 17:54 16.07.2019
5066 Clouds 14 1008 45 0 2.61 179.561 17:36 16.07.2019
5067 Clouds 14 1008 45 0 2.61 179.561 16:53 16.07.2019
5068 Clouds 14 1008 45 0 2.61 179.561 16:28 16.07.2019
5069 Clouds 14 1008 45 0 2.61 179.561 15:58 16.07.2019
5070 Clouds 14 1008 45 0 2.61 179.561 15:39 16.07.2019
5071 Clouds 20 1001 26 0 2.56 216.785 15:20 16.07.2019
5072 Clouds 20 1001 26 0 2.56 216.785 14:56 16.07.2019
5073 Clouds 20 1001 26 0 2.56 216.785 14:38 16.07.2019
5074 Clouds 20 1001 26 0 2.56 216.785 14:19 16.07.2019
5075 Clouds 20 1001 26 0 2.56 216.785 13:44 16.07.2019
5076 Clouds 20 1001 30 0 4.29 237.554 13:19 16.07.2019
5077 Clouds 20 1001 30 0 4.29 237.554 12:44 16.07.2019
5078 Clouds 21 1000 23 0 3.11 183.723 12:20 16.07.2019
5079 Clouds 21 1000 23 0 3.11 183.723 11:55 16.07.2019
5080 Clouds 21 1000 23 0 3.11 183.723 11:37 16.07.2019
5081 Clouds 21 1000 23 0 3.11 183.723 11:19 16.07.2019
5082 Clouds 21 1000 23 0 3.11 183.723 10:45 16.07.2019
5083 Clouds 21 1000 23 0 3.11 183.723 10:22 16.07.2019
5084 Clouds 21 1000 23 0 3.11 183.723 09:44 16.07.2019
5085 Clouds 19 1004 28 0 2.81 176.843 09:22 16.07.2019
5086 Clouds 19 1004 28 0 2.81 176.843 08:58 16.07.2019
5087 Clouds 18 1004 30 0 2.89 175.794 08:40 16.07.2019
5088 Clouds 18 1004 30 0 2.89 175.794 08:18 16.07.2019
5089 Clouds 18 1004 30 0 2.89 175.794 07:41 16.07.2019
5090 Clouds 18 1004 30 0 2.89 175.794 07:23 16.07.2019
5091 Clouds 18 1004 30 0 2.89 175.794 06:47 16.07.2019
5092 Rain 15 1009 40 0 2.89 184.798 06:22 16.07.2019
5093 Rain 15 1009 40 0 2.89 184.798 05:32 16.07.2019
5094 Rain 15 1009 40 0 2.89 184.798 04:57 16.07.2019
5095 Rain 15 1009 40 0 2.89 184.798 03:54 16.07.2019
5096 Rain 15 1009 40 0 2.89 184.798 03:54 16.07.2019
5097 Rain 11 1010 60 0 1.95 159.605 03:18 16.07.2019
5098 Rain 11 1010 60 0 1.95 159.605 02:30 16.07.2019
5099 Rain 11 1010 60 0 1.95 159.605 01:44 16.07.2019
5100 Rain 11 1010 60 0 1.95 159.605 00:47 16.07.2019
5101 Clouds 11 1008 56 0 3 144.84 00:20 16.07.2019
5102 Clouds 11 1008 56 0 3 144.84 23:47 15.07.2019
5103 Clouds 11 1008 56 0 3 144.84 23:29 15.07.2019
5104 Clouds 11 1008 56 0 3 144.84 22:48 15.07.2019
5105 Clouds 11 1008 56 0 3 144.84 22:22 15.07.2019
5106 Clouds 11 1008 56 0 3 144.84 21:59 15.07.2019
5107 Clouds 11 1008 56 0 3 144.84 21:40 15.07.2019
5108 Rain 12 1007 56 0 3.04 155.208 21:20 15.07.2019
5109 Rain 12 1007 56 0 3.04 155.208 20:57 15.07.2019
5110 Rain 12 1007 56 0 3.04 155.208 20:38 15.07.2019
5111 Rain 12 1007 56 0 3.04 155.208 20:19 15.07.2019
5112 Rain 12 1007 56 0 3.04 155.208 19:43 15.07.2019
5113 Rain 12 1007 56 0 3.04 155.208 19:21 15.07.2019
5114 Rain 12 1007 56 0 3.04 155.208 18:55 15.07.2019
5115 Rain 12 1007 56 0 3.04 155.208 18:55 15.07.2019
5116 Rain 12 1007 56 0 3.04 155.208 18:36 15.07.2019
5117 Rain 15 1006 49 0 2.62 181.289 18:18 15.07.2019
5118 Rain 15 1006 49 0 2.62 181.289 17:44 15.07.2019
5119 Rain 15 1006 49 0 2.62 181.289 17:26 15.07.2019
5120 Rain 15 1006 49 0 2.62 181.289 16:59 15.07.2019
5121 Rain 15 1006 49 0 2.62 181.289 16:38 15.07.2019
5122 Rain 15 1006 49 0 2.62 181.289 16:20 15.07.2019
5123 Rain 15 1006 49 0 2.62 181.289 16:20 15.07.2019
5124 Rain 15 1006 49 0 2.62 181.289 15:55 15.07.2019
5125 Rain 15 1006 49 0 2.62 181.289 15:36 15.07.2019
5126 Rain 18 999 39 0 2.93 206.583 15:18 15.07.2019
5127 Rain 18 999 39 0 2.93 206.583 14:41 15.07.2019
5128 Rain 18 999 39 0 2.93 206.583 14:23 15.07.2019
5129 Rain 18 999 39 0 2.93 206.583 13:50 15.07.2019
5130 Rain 18 999 39 0 2.93 206.583 13:50 15.07.2019
5131 Rain 15 999 49 0 3.6 220.386 13:22 15.07.2019
5132 Rain 15 999 49 0 3.6 220.386 12:58 15.07.2019
5133 Rain 15 999 49 0 3.6 220.386 12:40 15.07.2019
5134 Rain 19 998 37 0 0.6 79.01 12:20 15.07.2019
5135 Rain 19 998 37 0 0.6 79.01 11:41 15.07.2019
5136 Rain 19 998 37 0 0.6 79.01 11:22 15.07.2019
5137 Rain 19 998 37 0 0.6 79.01 10:45 15.07.2019
5138 Rain 19 998 37 0 0.6 79.01 10:26 15.07.2019
5139 Rain 19 998 37 0 0.6 79.01 09:48 15.07.2019
5140 Rain 19 998 37 0 0.6 79.01 09:26 15.07.2019
5141 Rain 13 1002 56 0 1.95 328.966 08:58 15.07.2019
5142 Rain 13 1002 56 0 1.95 328.966 08:40 15.07.2019
5143 Rain 13 1002 56 0 1.95 328.966 08:22 15.07.2019
5144 Rain 13 1002 56 0 1.95 328.966 07:37 15.07.2019
5145 Rain 13 1002 56 0 1.95 328.966 06:59 15.07.2019
5146 Rain 13 1002 56 0 1.95 328.966 06:38 15.07.2019
5147 Rain 8 1007 78 0 1.91 357.718 05:44 15.07.2019
5148 Rain 8 1007 78 0 1.91 357.718 05:26 15.07.2019
5149 Rain 8 1007 78 0 1.91 357.718 04:41 15.07.2019
5150 Rain 8 1007 78 0 1.91 357.718 03:39 15.07.2019
5151 Rain 6 1007 87 0 4.79 355.554 02:37 15.07.2019
5152 Rain 6 1007 87 0 4.79 355.554 01:43 15.07.2019
5153 Rain 8 1007 82 0 3.8 2.642 01:24 15.07.2019
5154 Rain 8 1007 82 0 3.8 2.642 00:51 15.07.2019
5155 Clouds 10 1006 65 0 1.99 44.47 00:19 15.07.2019
5156 Clouds 10 1006 65 0 1.99 44.47 23:55 14.07.2019
5157 Clouds 10 1006 65 0 1.99 44.47 23:36 14.07.2019
5158 Clouds 10 1006 65 0 1.99 44.47 23:18 14.07.2019
5159 Clouds 10 1006 65 0 1.99 44.47 22:40 14.07.2019
5160 Clouds 10 1006 65 0 1.99 44.47 22:22 14.07.2019
5161 Clouds 10 1006 65 0 1.99 44.47 21:58 14.07.2019
5162 Clouds 10 1006 65 0 1.99 44.47 21:40 14.07.2019
5163 Clouds 11 1005 64 0 1.1 66.053 21:18 14.07.2019
5164 Clouds 11 1005 64 0 1.1 66.053 20:54 14.07.2019
5165 Clouds 11 1005 64 0 1.1 66.053 20:36 14.07.2019
5166 Clouds 11 1005 64 0 1.1 66.053 20:18 14.07.2019
5167 Clouds 11 1005 64 0 1.1 66.053 19:42 14.07.2019
5168 Clouds 11 1005 64 0 1.1 66.053 19:24 14.07.2019
5169 Clouds 11 1005 64 0 1.1 66.053 18:56 14.07.2019
5170 Clouds 11 1005 64 0 1.1 66.053 18:37 14.07.2019
5171 Clouds 12 1004 61 0 0.87 273.147 18:18 14.07.2019
5172 Clouds 12 1004 61 0 0.87 273.147 17:42 14.07.2019
5173 Clouds 12 1004 61 0 0.87 273.147 17:19 14.07.2019
5174 Clouds 12 1004 61 0 0.87 273.147 16:46 14.07.2019
5175 Clouds 12 1004 61 0 0.87 273.147 16:23 14.07.2019
5176 Clouds 12 1004 61 0 0.87 273.147 15:50 14.07.2019
5177 Clouds 12 1004 61 0 0.87 273.147 15:27 14.07.2019
5178 Rain 14 999 53 0 1.39 143.997 14:48 14.07.2019
5179 Rain 14 999 53 0 1.39 143.997 14:21 14.07.2019
5180 Rain 14 999 53 0 1.39 143.997 13:49 14.07.2019
5181 Rain 14 999 60 0 1.5 238.728 13:25 14.07.2019
5182 Rain 14 999 60 0 1.5 238.728 12:58 14.07.2019
5183 Rain 14 999 60 0 1.5 238.728 12:40 14.07.2019
5184 Rain 16 999 48 0 2.89 312.14 12:19 14.07.2019
5185 Rain 16 999 48 0 2.89 312.14 11:51 14.07.2019
5186 Rain 16 999 48 0 2.89 312.14 11:22 14.07.2019
5187 Rain 16 999 48 0 2.89 312.14 10:49 14.07.2019
5188 Rain 16 999 48 0 2.89 312.14 10:23 14.07.2019
5189 Rain 16 999 48 0 2.89 312.14 09:51 14.07.2019
5190 Rain 16 999 48 0 2.89 312.14 09:30 14.07.2019
5191 Clouds 18 1002 36 0 2.23 189.695 08:57 14.07.2019
5192 Clouds 18 1002 36 0 2.23 189.695 08:39 14.07.2019
5193 Clouds 18 1002 36 0 2.23 189.695 07:47 14.07.2019
5194 Clouds 18 1002 36 0 2.23 189.695 07:22 14.07.2019
5195 Clouds 15 1006 47 0 2.32 171.859 05:47 14.07.2019
5196 Clouds 15 1006 47 0 2.32 171.859 05:25 14.07.2019
5197 Clouds 15 1006 47 0 2.32 171.859 03:44 14.07.2019
5198 Rain 11 1007 66 0 1.71 120.987 03:25 14.07.2019
5199 Rain 11 1007 66 0 1.71 120.987 02:25 14.07.2019
5200 Rain 11 1007 66 0 1.71 120.987 01:57 14.07.2019
5201 Clouds 11 1007 62 0 1.77 134.201 01:30 14.07.2019
5202 Clouds 11 1007 62 0 1.77 134.201 00:42 14.07.2019
5203 Clouds 12 1006 65 0 1.49 147.635 00:21 14.07.2019
5204 Clouds 12 1006 65 0 1.49 147.635 23:59 13.07.2019
5205 Clouds 12 1006 65 0 1.49 147.635 23:41 13.07.2019
5206 Clouds 12 1006 65 0 1.49 147.635 23:22 13.07.2019
5207 Clouds 12 1006 65 0 1.49 147.635 22:42 13.07.2019
5208 Clouds 12 1006 65 0 1.49 147.635 22:22 13.07.2019
5209 Clouds 12 1006 65 0 1.49 147.635 21:49 13.07.2019
5210 Rain 13 1007 62 0 1.79 176.57 21:22 13.07.2019
5211 Rain 13 1007 63 0 1.5 172.875 20:53 13.07.2019
5212 Rain 13 1007 63 0 1.5 172.875 20:34 13.07.2019
5213 Rain 13 1007 63 0 1.5 172.875 19:54 13.07.2019
5214 Rain 13 1007 63 0 1.5 172.875 19:31 13.07.2019
5215 Rain 13 1007 63 0 1.5 172.875 18:59 13.07.2019
5216 Rain 13 1007 63 0 1.5 172.875 18:39 13.07.2019
5217 Rain 13 1006 67 0 1.55 52.119 18:19 13.07.2019
5218 Rain 13 1006 67 0 1.55 52.119 17:37 13.07.2019
5219 Rain 13 1006 67 0 1.55 52.119 17:19 13.07.2019
5220 Rain 13 1006 67 0 1.55 52.119 17:19 13.07.2019
5221 Rain 13 1006 67 0 1.55 52.119 16:44 13.07.2019
5222 Rain 13 1006 67 0 1.55 52.119 16:25 13.07.2019
5223 Rain 13 1006 67 0 1.55 52.119 15:48 13.07.2019
5224 Rain 16 1002 51 0 1.63 318.784 15:24 13.07.2019
5225 Rain 16 1002 51 0 1.63 318.784 14:57 13.07.2019
5226 Rain 16 1002 51 0 1.63 318.784 14:38 13.07.2019
5227 Rain 16 1002 51 0 1.63 318.784 14:19 13.07.2019
5228 Rain 16 1002 51 0 1.63 318.784 13:43 13.07.2019
5229 Rain 15 1002 58 0 2.88 146.045 13:19 13.07.2019
5230 Rain 15 1002 58 0 2.88 146.045 12:41 13.07.2019
5231 Rain 18 1002 40 0 0.42 344.709 12:23 13.07.2019
5232 Rain 18 1002 40 0 0.42 344.709 11:57 13.07.2019
5233 Rain 18 1002 40 0 0.42 344.709 11:36 13.07.2019
5234 Rain 18 1002 40 0 0.42 344.709 11:18 13.07.2019
5235 Rain 18 1002 40 0 0.42 344.709 10:39 13.07.2019
5236 Rain 18 1002 40 0 0.42 344.709 10:21 13.07.2019
5237 Rain 18 1002 40 0 0.42 344.709 09:42 13.07.2019
5238 Rain 15 1006 51 0 1.11 3.759 09:24 13.07.2019
5239 Rain 13 1007 59 0 1.58 6.733 08:55 13.07.2019
5240 Rain 13 1007 59 0 1.58 6.733 08:27 13.07.2019
5241 Rain 13 1007 59 0 1.58 6.733 07:50 13.07.2019
5242 Rain 13 1007 59 0 1.58 6.733 07:23 13.07.2019
5243 Rain 13 1007 59 0 1.58 6.733 06:31 13.07.2019
5244 Rain 7 1011 83 0 1.33 22.966 05:47 13.07.2019
5245 Rain 7 1011 83 0 1.33 22.966 04:40 13.07.2019
5246 Rain 7 1011 83 0 1.33 22.966 04:20 13.07.2019
5247 Rain 7 1011 83 0 1.33 22.966 03:41 13.07.2019
5248 Rain 6 1011 86 0 1.76 9.923 02:54 13.07.2019
5249 Rain 6 1011 86 0 1.76 9.923 01:53 13.07.2019
5250 Rain 6 1011 85 0 1.62 0.848 01:21 13.07.2019
5251 Rain 6 1011 85 0 1.62 0.848 00:58 13.07.2019
5252 Rain 7 1010 87 0 2.06 349.812 00:21 13.07.2019
5253 Rain 7 1010 87 0 2.06 349.812 23:53 12.07.2019
5254 Rain 7 1010 87 0 2.06 349.812 23:33 12.07.2019
5255 Rain 7 1010 87 0 2.06 349.812 22:58 12.07.2019
5256 Rain 7 1010 87 0 2.06 349.812 22:40 12.07.2019
5257 Rain 7 1010 87 0 2.06 349.812 22:21 12.07.2019
5258 Rain 7 1010 87 0 2.06 349.812 21:42 12.07.2019
5259 Rain 9 1011 85 0 2.72 146.573 21:21 12.07.2019
5260 Rain 9 1011 85 0 2.72 146.573 20:47 12.07.2019
5261 Rain 9 1011 85 0 2.72 146.573 20:23 12.07.2019
5262 Rain 9 1011 85 0 2.72 146.573 19:44 12.07.2019
5263 Rain 9 1011 85 0 2.72 146.573 19:26 12.07.2019
5264 Rain 9 1011 85 0 2.72 146.573 18:58 12.07.2019
5265 Rain 9 1011 85 0 2.72 146.573 18:37 12.07.2019
5266 Rain 10 1010 82 0 2.27 174.435 18:19 12.07.2019
5267 Rain 10 1010 82 0 2.27 174.435 17:45 12.07.2019
5268 Rain 10 1010 82 0 2.27 174.435 17:27 12.07.2019
5269 Rain 10 1010 82 0 2.27 174.435 16:40 12.07.2019
5270 Rain 10 1010 82 0 2.27 174.435 16:20 12.07.2019
5271 Rain 10 1010 82 0 2.27 174.435 15:41 12.07.2019
5272 Rain 16 1004 52 0 1.84 318.75 15:21 12.07.2019
5273 Rain 16 1004 52 0 1.84 318.75 14:55 12.07.2019
5274 Rain 16 1004 52 0 1.84 318.75 14:37 12.07.2019
5275 Rain 16 1004 52 0 1.84 318.75 14:19 12.07.2019
5276 Rain 16 1004 52 0 1.84 318.75 13:38 12.07.2019
5277 Rain 14 1004 58 0 0.76 30.523 12:57 12.07.2019
5278 Rain 14 1004 58 0 0.76 30.523 12:57 12.07.2019
5279 Rain 14 1004 58 0 0.76 30.523 12:38 12.07.2019
5280 Rain 16 1003 53 0 3.43 4.262 12:19 12.07.2019
5281 Rain 16 1003 53 0 3.43 4.262 11:44 12.07.2019
5282 Rain 16 1003 53 0 3.43 4.262 11:20 12.07.2019
5283 Rain 16 1003 53 0 3.43 4.262 10:44 12.07.2019
5284 Rain 16 1003 53 0 3.43 4.262 10:24 12.07.2019
5285 Rain 16 1003 53 0 3.43 4.262 09:54 12.07.2019
5286 Rain 16 1003 53 0 3.43 4.262 09:30 12.07.2019
5287 Rain 18 1005 38 0 0.8 243.818 08:58 12.07.2019
5288 Rain 18 1005 38 0 0.8 243.818 08:39 12.07.2019
5289 Rain 18 1005 38 0 0.8 243.818 08:18 12.07.2019
5290 Rain 18 1005 38 0 0.8 243.818 07:40 12.07.2019
5291 Rain 18 1005 38 0 0.8 243.818 07:22 12.07.2019
5292 Rain 18 1005 38 0 0.8 243.818 06:29 12.07.2019
5293 Rain 15 1008 49 0 1.26 156.659 05:46 12.07.2019
5294 Rain 12 1009 65 0 0.82 71.609 03:22 12.07.2019
5295 Rain 12 1009 65 0 0.82 71.609 01:41 12.07.2019
5296 Rain 12 1008 68 0 0.46 359.75 00:58 12.07.2019
5297 Rain 12 1007 70 0 0.95 18.34 00:20 12.07.2019
5298 Rain 12 1007 70 0 0.95 18.34 23:49 11.07.2019
5299 Rain 12 1007 70 0 0.95 18.34 23:26 11.07.2019
5300 Rain 12 1007 70 0 0.95 18.34 22:58 11.07.2019
5301 Rain 12 1007 70 0 0.95 18.34 22:39 11.07.2019
5302 Rain 12 1007 70 0 0.95 18.34 22:20 11.07.2019
5303 Rain 12 1007 70 0 0.95 18.34 21:41 11.07.2019
5304 Rain 13 1007 60 0 1.71 92.015 21:19 11.07.2019
5305 Rain 13 1007 60 0 1.71 92.015 20:54 11.07.2019
5306 Rain 13 1007 60 0 1.71 92.015 20:36 11.07.2019
5307 Rain 13 1007 60 0 1.71 92.015 20:18 11.07.2019
5308 Rain 13 1007 60 0 1.71 92.015 19:43 11.07.2019
5309 Rain 13 1007 60 0 1.71 92.015 19:22 11.07.2019
5310 Rain 13 1007 60 0 1.71 92.015 18:44 11.07.2019
5311 Rain 13 1007 60 0 1.71 92.015 18:26 11.07.2019
5312 Rain 15 1005 54 0 4.4 153.283 17:54 11.07.2019
5313 Rain 15 1005 54 0 4.4 153.283 17:36 11.07.2019
5314 Rain 15 1005 54 0 4.4 153.283 17:18 11.07.2019
5315 Rain 15 1005 54 0 4.4 153.283 16:42 11.07.2019
5316 Rain 15 1005 54 0 4.4 153.283 16:42 11.07.2019
5317 Rain 15 1005 54 0 4.4 153.283 16:19 11.07.2019
5318 Rain 15 1005 54 0 4.4 153.283 15:44 11.07.2019
5319 Clouds 19 1001 39 0 2.81 179.183 15:24 11.07.2019
5320 Clouds 19 1001 39 0 2.81 179.183 14:58 11.07.2019
5321 Clouds 19 1001 39 0 2.81 179.183 14:38 11.07.2019
5322 Clouds 19 1001 39 0 2.81 179.183 14:19 11.07.2019
5323 Clouds 19 1001 39 0 2.81 179.183 13:42 11.07.2019
5324 Clouds 19 1001 40 0 2.9 180.908 13:23 11.07.2019
5325 Clouds 19 1001 40 0 2.9 180.908 12:39 11.07.2019
5326 Clouds 19 1002 36 0 2.21 205.186 12:19 11.07.2019
5327 Clouds 19 1002 36 0 2.21 205.186 11:50 11.07.2019
5328 Clouds 19 1002 36 0 2.21 205.186 11:30 11.07.2019
5329 Clouds 19 1002 36 0 2.21 205.186 10:54 11.07.2019
5330 Clouds 19 1002 36 0 2.21 205.186 10:20 11.07.2019
5331 Clouds 19 1002 36 0 2.21 205.186 10:20 11.07.2019
5332 Clouds 19 1002 36 0 2.21 205.186 09:57 11.07.2019
5333 Clouds 19 1002 36 0 2.21 205.186 09:39 11.07.2019
5334 Rain 15 1006 51 0 1.12 205.242 09:20 11.07.2019
5335 Rain 14 1007 59 0 0.26 111.761 08:42 11.07.2019
5336 Rain 14 1007 59 0 0.26 111.761 08:20 11.07.2019
5337 Rain 14 1007 59 0 0.26 111.761 07:45 11.07.2019
5338 Rain 14 1007 59 0 0.26 111.761 07:25 11.07.2019
5339 Rain 9 1010 84 0 1.28 184.916 06:21 11.07.2019
5340 Rain 9 1010 84 0 1.28 184.916 05:33 11.07.2019
5341 Rain 9 1010 84 0 1.28 184.916 04:57 11.07.2019
5342 Rain 9 1010 84 0 1.28 184.916 03:58 11.07.2019
5343 Rain 8 1010 88 0 2.09 196.183 02:31 11.07.2019
5344 Rain 8 1010 88 0 1.82 204.927 00:48 11.07.2019
5345 Rain 9 1009 86 0 1.51 240.42 23:52 10.07.2019
5346 Rain 9 1009 86 0 1.51 240.42 23:31 10.07.2019
5347 Rain 9 1009 86 0 1.51 240.42 22:58 10.07.2019
5348 Rain 9 1009 86 0 1.51 240.42 22:27 10.07.2019
5349 Rain 9 1009 86 0 1.51 240.42 21:59 10.07.2019
5350 Rain 9 1009 86 0 1.51 240.42 21:39 10.07.2019
5351 Rain 11 1009 77 0 2.59 150.48 21:21 10.07.2019
5352 Rain 11 1009 77 0 2.59 150.48 20:48 10.07.2019
5353 Rain 11 1009 77 0 2.59 150.48 20:27 10.07.2019
5354 Rain 11 1009 77 0 2.59 150.48 19:59 10.07.2019
5355 Rain 11 1009 77 0 2.59 150.48 19:40 10.07.2019
5356 Rain 11 1009 77 0 2.59 150.48 19:21 10.07.2019
5357 Rain 11 1009 77 0 2.59 150.48 18:46 10.07.2019
5358 Rain 12 1007 65 0 2.35 29.119 18:24 10.07.2019
5359 Rain 12 1007 65 0 2.35 29.119 17:50 10.07.2019
5360 Rain 12 1007 65 0 2.35 29.119 17:30 10.07.2019
5361 Rain 12 1007 65 0 2.35 29.119 16:58 10.07.2019
5362 Rain 12 1007 65 0 2.35 29.119 16:22 10.07.2019
5363 Rain 12 1007 65 0 2.35 29.119 15:54 10.07.2019
5364 Rain 12 1007 65 0 2.35 29.119 15:36 10.07.2019
5365 Rain 14 1003 59 0 3.05 21.986 15:18 10.07.2019
5366 Rain 14 1003 59 0 3.05 21.986 14:39 10.07.2019
5367 Rain 14 1003 59 0 3.05 21.986 14:20 10.07.2019
5368 Rain 14 1003 59 0 3.05 21.986 13:43 10.07.2019
5369 Rain 12 1002 63 0 4.01 16.328 13:19 10.07.2019
5370 Rain 12 1002 63 0 4.01 16.328 12:42 10.07.2019
5371 Rain 17 1001 48 0 5.94 29.015 12:22 10.07.2019
5372 Rain 17 1001 48 0 5.94 29.015 11:56 10.07.2019
5373 Rain 17 1001 48 0 5.94 29.015 11:38 10.07.2019
5374 Rain 17 1001 48 0 5.94 29.015 11:20 10.07.2019
5375 Rain 17 1001 48 0 5.94 29.015 10:40 10.07.2019
5376 Rain 17 1001 48 0 5.94 29.015 10:19 10.07.2019
5377 Rain 17 1001 48 0 5.94 29.015 09:42 10.07.2019
5378 Rain 18 1003 39 0 2.19 213.429 09:20 10.07.2019
5379 Rain 19 1003 37 0 2.05 207.166 08:49 10.07.2019
5380 Rain 19 1003 37 0 2.05 207.166 08:28 10.07.2019
5381 Rain 19 1003 37 0 2.05 207.166 07:53 10.07.2019
5382 Rain 19 1003 37 0 2.05 207.166 07:28 10.07.2019
5383 Rain 19 1003 37 0 2.05 207.166 06:41 10.07.2019
5384 Rain 15 1006 47 0 2.33 172.326 05:42 10.07.2019
5385 Rain 15 1006 47 0 2.33 172.326 04:35 10.07.2019
5386 Rain 12 1007 66 0 1.72 142.362 03:20 10.07.2019
5387 Rain 12 1007 65 0 1.98 147.275 00:45 10.07.2019
5388 Rain 11 1006 73 0 1.22 160.173 23:58 09.07.2019
5389 Rain 11 1006 73 0 1.22 160.173 23:39 09.07.2019
5390 Rain 11 1006 73 0 1.22 160.173 23:39 09.07.2019
5391 Rain 11 1006 73 0 1.22 160.173 23:20 09.07.2019
5392 Rain 11 1006 73 0 1.22 160.173 22:40 09.07.2019
5393 Rain 11 1006 73 0 1.22 160.173 22:22 09.07.2019
5394 Rain 11 1006 73 0 1.22 160.173 21:54 09.07.2019
5395 Rain 11 1006 73 0 1.22 160.173 21:54 09.07.2019
5396 Rain 11 1006 73 0 1.22 160.173 21:36 09.07.2019
5397 Rain 12 1007 67 0 1.5 181.796 21:18 09.07.2019
5398 Rain 12 1007 67 0 1.5 181.796 20:42 09.07.2019
5399 Rain 12 1007 67 0 1.5 181.796 20:24 09.07.2019
5400 Rain 12 1007 67 0 1.5 181.796 19:39 09.07.2019
5401 Rain 12 1007 67 0 1.5 181.796 19:20 09.07.2019
5402 Rain 12 1007 67 0 1.5 181.796 18:44 09.07.2019
5403 Rain 12 1006 64 0 2.18 159.136 18:23 09.07.2019
5404 Rain 12 1006 64 0 2.18 159.136 17:54 09.07.2019
5405 Rain 12 1006 64 0 2.18 159.136 17:36 09.07.2019
5406 Rain 12 1006 64 0 2.18 159.136 17:18 09.07.2019
5407 Rain 12 1006 64 0 2.18 159.136 16:41 09.07.2019
5408 Rain 12 1006 64 0 2.18 159.136 16:23 09.07.2019
5409 Rain 12 1006 64 0 2.18 159.136 15:44 09.07.2019
5410 Rain 12 1006 64 0 2.18 159.136 15:26 09.07.2019
5411 Rain 16 1003 50 0 4.43 166.754 14:47 09.07.2019
5412 Rain 16 1003 50 0 4.43 166.754 14:24 09.07.2019
5413 Rain 16 1003 50 0 4.43 166.754 13:59 09.07.2019
5414 Rain 16 1003 50 0 4.43 166.754 13:39 09.07.2019
5415 Rain 11 1002 78 0 4.3 151.482 13:20 09.07.2019
5416 Rain 11 1002 78 0 4.3 151.482 12:40 09.07.2019
5417 Rain 19 1001 38 0 1.87 46.085 12:19 09.07.2019
5418 Rain 19 1001 38 0 1.87 46.085 11:57 09.07.2019
5419 Rain 19 1001 38 0 1.87 46.085 11:38 09.07.2019
5420 Rain 19 1001 38 0 1.87 46.085 11:20 09.07.2019
5421 Rain 19 1001 38 0 1.87 46.085 10:48 09.07.2019
5422 Rain 19 1001 38 0 1.87 46.085 10:26 09.07.2019
5423 Rain 19 1001 38 0 1.87 46.085 09:39 09.07.2019
5424 Rain 17 1007 47 0 2.34 43.406 09:20 09.07.2019
5425 Rain 17 1007 47 0 2.34 43.406 09:20 09.07.2019
5426 Clouds 16 1006 49 0 1.43 6.46 08:45 09.07.2019
5427 Clouds 16 1006 49 0 1.43 6.46 08:21 09.07.2019
5428 Rain 11 1010 71 0 0.65 61.902 03:52 05.07.2019
5429 Rain 9 1011 82 0 1.92 67.605 03:24 05.07.2019
5430 Rain 9 1011 82 0 1.92 67.605 02:54 05.07.2019
5431 Rain 9 1011 82 0 1.92 67.605 02:36 05.07.2019
5432 Rain 9 1011 82 0 1.92 67.605 01:37 05.07.2019
5433 Rain 9 1011 82 0 1.57 29.94 00:54 05.07.2019
5434 Rain 9 1011 82 0 1.57 29.94 00:33 05.07.2019
5435 Rain 10 1010 89 0 1.66 183.46 23:48 04.07.2019
5436 Rain 10 1010 89 0 1.66 183.46 23:20 04.07.2019
5437 Rain 10 1010 89 0 1.66 183.46 22:44 04.07.2019
5438 Rain 10 1010 89 0 1.66 183.46 22:44 04.07.2019
5439 Rain 10 1010 89 0 1.66 183.46 22:24 04.07.2019
5440 Rain 10 1010 89 0 1.66 183.46 21:55 04.07.2019
5441 Rain 10 1010 89 0 1.66 183.46 21:37 04.07.2019
5442 Rain 14 1009 61 0 1.45 131.785 21:19 04.07.2019
5443 Rain 13 1009 66 0 2.05 57.092 20:39 04.07.2019
5444 Rain 13 1009 66 0 2.05 57.092 20:20 04.07.2019
5445 Rain 13 1009 66 0 2.05 57.092 19:56 04.07.2019
5446 Rain 13 1009 66 0 2.05 57.092 19:38 04.07.2019
5447 Rain 13 1009 66 0 2.05 57.092 19:19 04.07.2019
5448 Rain 13 1009 66 0 2.05 57.092 18:41 04.07.2019
5449 Rain 17 1007 42 0 0.69 82.73 18:23 04.07.2019
5450 Rain 17 1007 42 0 0.69 82.73 17:44 04.07.2019
5451 Rain 17 1007 42 0 0.69 82.73 17:19 04.07.2019
5452 Rain 17 1007 42 0 0.69 82.73 15:57 04.07.2019
5453 Rain 17 1007 42 0 0.69 82.73 15:39 04.07.2019
5454 Clouds 21 1002 29 0 1.86 30.636 15:20 04.07.2019
5455 Clouds 21 1002 29 0 1.86 30.636 14:55 04.07.2019
5456 Clouds 21 1002 29 0 1.86 30.636 14:36 04.07.2019
5457 Clouds 21 1002 29 0 1.86 30.636 14:18 04.07.2019
5458 Clouds 21 1002 29 0 1.86 30.636 13:42 04.07.2019
5459 Clouds 21 1003 29 0 1.46 45.807 13:22 04.07.2019
5460 Clouds 21 1003 29 0 1.46 45.807 12:55 04.07.2019
5461 Clouds 21 1003 29 0 1.46 45.807 12:36 04.07.2019
5462 Clouds 22 1002 29 0 0.24 7.533 12:18 04.07.2019
5463 Clouds 22 1002 29 0 0.24 7.533 11:39 04.07.2019
5464 Clouds 22 1002 29 0 0.24 7.533 11:19 04.07.2019
5465 Clouds 22 1002 29 0 0.24 7.533 10:40 04.07.2019
5466 Clouds 22 1002 29 0 0.24 7.533 10:20 04.07.2019
5467 Clouds 22 1002 29 0 0.24 7.533 09:44 04.07.2019
5468 Rain 17 1005 42 0 1.82 279.727 09:25 04.07.2019
5469 Rain 19 1005 36 0 3.54 324.229 08:56 04.07.2019
5470 Rain 19 1005 36 0 3.54 324.229 08:23 04.07.2019
5471 Rain 19 1005 36 0 3.54 324.229 07:45 04.07.2019
5472 Rain 19 1005 36 0 3.54 324.229 07:22 04.07.2019
5473 Rain 19 1005 36 0 3.54 324.229 06:51 04.07.2019
5474 Clouds 14 1010 51 0 1.21 7.774 05:52 04.07.2019
5475 Clouds 14 1010 51 0 1.21 7.774 05:33 04.07.2019
5476 Clouds 12 1012 62 0 0.06 135.69 02:43 04.07.2019
5477 Clouds 12 1012 62 0 0.06 135.69 01:42 04.07.2019
5478 Rain 11 1013 64 0 1.08 64.122 01:21 04.07.2019
5479 Clouds 11 1012 67 0 0.68 240.454 23:58 03.07.2019
5480 Clouds 11 1012 67 0 0.68 240.454 23:40 03.07.2019
5481 Clouds 11 1012 67 0 0.68 240.454 23:20 03.07.2019
5482 Clouds 11 1012 67 0 0.68 240.454 22:44 03.07.2019
5483 Rain 11 1013 71 0 1.19 140.435 22:25 03.07.2019
5484 Rain 11 1013 71 0 1.19 140.435 21:59 03.07.2019
5485 Rain 11 1013 71 0 1.19 140.435 21:41 03.07.2019
5486 Rain 11 1013 73 0 2.42 149.645 21:23 03.07.2019
5487 Rain 11 1013 73 0 2.42 149.645 20:46 03.07.2019
5488 Rain 11 1013 73 0 2.42 149.645 20:24 03.07.2019
5489 Rain 11 1013 73 0 2.42 149.645 19:51 03.07.2019
5490 Rain 11 1013 73 0 2.42 149.645 19:32 03.07.2019
5491 Rain 11 1013 73 0 2.42 149.645 18:49 03.07.2019
5492 Rain 11 1013 73 0 2.42 149.645 18:30 03.07.2019
5493 Rain 14 1010 57 0 3.16 197.088 17:57 03.07.2019
5494 Rain 14 1010 57 0 3.16 197.088 17:37 03.07.2019
5495 Rain 14 1010 57 0 3.16 197.088 17:18 03.07.2019
5496 Rain 14 1010 57 0 3.16 197.088 16:43 03.07.2019
5497 Rain 14 1010 57 0 3.16 197.088 16:22 03.07.2019
5498 Rain 14 1010 57 0 3.16 197.088 15:49 03.07.2019
5499 Rain 14 1010 57 0 3.16 197.088 15:31 03.07.2019
5500 Clouds 20 1003 32 0 7.66 328.672 14:57 03.07.2019
5501 Clouds 20 1003 32 0 7.66 328.672 14:38 03.07.2019
5502 Clouds 20 1003 32 0 7.66 328.672 14:18 03.07.2019
5503 Clouds 20 1003 32 0 7.66 328.672 13:40 03.07.2019
5504 Clouds 17 1003 45 0 9.19 314.167 13:18 03.07.2019
5505 Clouds 17 1003 45 0 9.19 314.167 12:43 03.07.2019
5506 Clouds 24 1001 22 0 1.93 337.613 12:18 03.07.2019
5507 Clouds 24 1001 22 0 1.93 337.613 11:42 03.07.2019
5508 Clouds 24 1001 22 0 1.93 337.613 11:21 03.07.2019
5509 Clouds 24 1001 22 0 1.93 337.613 10:43 03.07.2019
5510 Clouds 24 1001 22 0 1.93 337.613 10:24 03.07.2019
5511 Clouds 24 1001 22 0 1.93 337.613 09:55 03.07.2019
5512 Clouds 24 1001 22 0 1.93 337.613 09:36 03.07.2019
5513 Clouds 22 1005 28 0 0.97 243.726 09:18 03.07.2019
5514 Clouds 22 1005 28 0 0.97 243.726 08:41 03.07.2019
5515 Clouds 20 1006 34 0 1.11 334.385 08:22 03.07.2019
5516 Clouds 20 1006 34 0 1.11 334.385 07:38 03.07.2019
5517 Clouds 20 1006 34 0 1.11 334.385 06:56 03.07.2019
5518 Clouds 16 1011 46 0 0.86 351.671 05:57 03.07.2019
5519 Clouds 16 1011 46 0 0.86 351.671 05:27 03.07.2019
5520 Clouds 16 1011 46 0 0.86 351.671 03:58 03.07.2019
5521 Clouds 14 1013 55 0 1.54 126.282 02:55 03.07.2019
5522 Rain 13 1013 55 0 1.54 142.04 01:40 03.07.2019
5523 Rain 13 1013 55 0 1.54 142.04 01:21 03.07.2019
5524 Rain 13 1013 55 0 1.54 142.04 00:40 03.07.2019
5525 Rain 13 1012 60 0 1.71 146.588 23:57 02.07.2019
5526 Rain 13 1012 60 0 1.71 146.588 23:37 02.07.2019
5527 Rain 13 1012 60 0 1.71 146.588 23:19 02.07.2019
5528 Rain 13 1012 60 0 1.71 146.588 22:41 02.07.2019
5529 Rain 13 1012 60 0 1.71 146.588 22:23 02.07.2019
5530 Rain 13 1012 60 0 1.71 146.588 21:58 02.07.2019
5531 Rain 13 1012 60 0 1.71 146.588 21:39 02.07.2019
5532 Rain 14 1012 58 0 0.53 128.456 21:20 02.07.2019
5533 Rain 15 1011 54 0 1.77 156.891 20:57 02.07.2019
5534 Rain 15 1011 54 0 1.77 156.891 20:38 02.07.2019
5535 Rain 15 1011 54 0 1.77 156.891 20:19 02.07.2019
5536 Rain 15 1011 54 0 1.77 156.891 19:41 02.07.2019
5537 Rain 15 1011 54 0 1.77 156.891 19:22 02.07.2019
5538 Rain 15 1011 54 0 1.77 156.891 18:46 02.07.2019
5539 Rain 16 1009 44 0 5 123.003 18:18 02.07.2019
5540 Rain 16 1009 44 0 5 123.003 17:41 02.07.2019
5541 Rain 16 1009 44 0 5 123.003 17:22 02.07.2019
5542 Rain 16 1009 44 0 5 123.003 16:49 02.07.2019
5543 Rain 16 1009 44 0 5 123.003 16:31 02.07.2019
5544 Rain 16 1009 44 0 5 123.003 15:46 02.07.2019
5545 Rain 16 1009 44 0 5 123.003 15:26 02.07.2019
5546 Clouds 24 1002 17 0 1.75 217.454 14:56 02.07.2019
5547 Clouds 24 1002 17 0 1.75 217.454 14:38 02.07.2019
5548 Clouds 24 1002 17 0 1.75 217.454 13:58 02.07.2019
5549 Clouds 24 1002 17 0 1.14 153.682 13:36 02.07.2019
5550 Clouds 24 1002 17 0 1.14 153.682 13:18 02.07.2019
5551 Clouds 24 1002 17 0 1.14 153.682 12:43 02.07.2019
5552 Clear 24 1001 18 0 0.2 164.291 12:22 02.07.2019
5553 Clear 24 1001 18 0 0.2 164.291 11:43 02.07.2019
5554 Clear 24 1001 18 0 0.2 164.291 11:43 02.07.2019
5555 Clear 24 1001 18 0 0.2 164.291 11:23 02.07.2019
5556 Clear 24 1001 18 0 0.2 164.291 10:51 02.07.2019
5557 Clear 24 1001 18 0 0.2 164.291 10:26 02.07.2019
5558 Clear 24 1001 18 0 0.2 164.291 09:49 02.07.2019
5559 Clouds 21 1005 25 0 1.95 187.727 09:22 02.07.2019
5560 Clouds 21 1005 25 0 1.95 187.727 08:55 02.07.2019
5561 Clouds 21 1005 25 0 2.15 189.432 08:35 02.07.2019
5562 Clouds 21 1005 25 0 2.15 189.432 07:57 02.07.2019
5563 Clouds 21 1005 25 0 2.15 189.432 07:21 02.07.2019
5564 Clouds 21 1005 25 0 2.15 189.432 06:54 02.07.2019
5565 Clouds 21 1005 25 0 2.15 189.432 06:35 02.07.2019
5566 Clouds 17 1011 39 0 2.65 173.808 04:59 02.07.2019
5567 Clouds 13 1014 52 0 2.24 143.227 02:30 02.07.2019
5568 Clouds 12 1012 54 0 1.96 145.128 00:24 02.07.2019
5569 Clouds 12 1012 54 0 1.96 145.128 23:26 01.07.2019
5570 Clouds 12 1012 54 0 1.96 145.128 22:52 01.07.2019
5571 Clouds 12 1012 54 0 1.96 145.128 22:28 01.07.2019
5572 Clouds 12 1012 54 0 1.96 145.128 21:55 01.07.2019
5573 Clouds 12 1012 54 0 1.96 145.128 21:36 01.07.2019
5574 Clouds 14 1011 46 0 3.18 167.518 21:18 01.07.2019
5575 Clouds 14 1010 49 0 2.99 154.36 20:42 01.07.2019
5576 Clouds 14 1010 49 0 2.99 154.36 20:20 01.07.2019
5577 Clouds 14 1010 49 0 2.99 154.36 19:43 01.07.2019
5578 Clouds 14 1010 49 0 2.99 154.36 19:24 01.07.2019
5579 Clouds 14 1010 49 0 2.99 154.36 18:56 01.07.2019
5580 Clouds 14 1010 49 0 2.99 154.36 18:37 01.07.2019
5581 Clouds 17 1007 37 0 3.67 158.132 18:19 01.07.2019
5582 Clouds 17 1007 37 0 3.67 158.132 17:42 01.07.2019
5583 Clouds 17 1007 37 0 3.67 158.132 17:23 01.07.2019
5584 Clouds 17 1007 37 0 3.67 158.132 16:48 01.07.2019
5585 Clouds 17 1007 37 0 3.67 158.132 16:27 01.07.2019
5586 Clouds 17 1007 37 0 3.67 158.132 15:57 01.07.2019
5587 Clouds 17 1007 37 0 3.67 158.132 15:38 01.07.2019
5588 Clear 23 1000 19 0 4.28 154.37 15:20 01.07.2019
5589 Clear 23 1000 19 0 4.28 154.37 14:43 01.07.2019
5590 Clear 23 1000 19 0 4.28 154.37 14:20 01.07.2019
5591 Clear 23 1000 19 0 4.28 154.37 13:44 01.07.2019
5592 Clouds 23 1000 19 0 3.48 157.602 13:23 01.07.2019
5593 Clouds 23 1000 19 0 3.48 157.602 12:55 01.07.2019
5594 Clouds 23 1000 19 0 3.48 157.602 12:36 01.07.2019
5595 Clear 24 999 19 0 1.28 180.941 12:18 01.07.2019
5596 Clear 24 999 19 0 1.28 180.941 11:43 01.07.2019
5597 Clear 24 999 19 0 1.28 180.941 11:20 01.07.2019
5598 Clear 24 999 19 0 1.28 180.941 10:47 01.07.2019
5599 Clear 24 999 19 0 1.28 180.941 10:23 01.07.2019
5600 Clear 24 999 19 0 1.28 180.941 09:58 01.07.2019
5601 Clear 24 999 19 0 1.28 180.941 09:39 01.07.2019
5602 Clouds 21 1003 25 0 2.27 188.245 09:20 01.07.2019
5603 Clear 21 1003 25 0 2.22 181.032 08:37 01.07.2019
5604 Clear 21 1003 25 0 2.22 181.032 08:37 01.07.2019
5605 Clear 21 1003 25 0 2.22 181.032 07:48 01.07.2019
5606 Clear 21 1003 25 0 2.22 181.032 07:27 01.07.2019
5607 Clear 16 1009 38 0 2.82 170.598 06:20 01.07.2019
5608 Clear 12 1013 53 0 2 137.507 01:42 01.07.2019
5609 Clear 12 1012 53 0 2.05 142.929 00:48 01.07.2019
5610 Clear 12 1012 53 0 2.05 142.929 00:28 01.07.2019
5611 Clear 11 1010 55 0 2.13 144.506 23:52 30.06.2019
5612 Clear 11 1010 55 0 2.13 144.506 23:21 30.06.2019
5613 Clear 11 1010 55 0 2.13 144.506 22:49 30.06.2019
5614 Clear 11 1010 55 0 2.13 144.506 22:21 30.06.2019
5615 Clear 11 1010 55 0 2.13 144.506 21:42 30.06.2019
5616 Clouds 14 1010 46 0 2.8 181.987 21:20 30.06.2019
5617 Clouds 14 1010 46 0 2.8 181.987 20:56 30.06.2019
5618 Clouds 14 1010 46 0 2.8 181.987 20:38 30.06.2019
5619 Clouds 14 1009 47 0 2.78 177.653 20:19 30.06.2019
5620 Clouds 14 1009 47 0 2.78 177.653 19:44 30.06.2019
5621 Clouds 14 1009 47 0 2.78 177.653 19:25 30.06.2019
5622 Clouds 14 1009 47 0 2.78 177.653 18:27 30.06.2019
5623 Clouds 18 1007 30 0 3.33 160.721 18:00 30.06.2019
5624 Clouds 18 1007 30 0 3.33 160.721 17:39 30.06.2019
5625 Clouds 18 1007 30 0 3.33 160.721 17:18 30.06.2019
5626 Clouds 18 1007 30 0 3.33 160.721 16:49 30.06.2019
5627 Clouds 18 1007 30 0 3.33 160.721 16:27 30.06.2019
5628 Clouds 18 1007 30 0 3.33 160.721 16:27 30.06.2019
5629 Clouds 18 1007 30 0 3.33 160.721 15:38 30.06.2019
5630 Clear 23 999 17 0 3.21 131.211 15:19 30.06.2019
5631 Clear 23 999 17 0 3.21 131.211 14:55 30.06.2019
5632 Clear 23 999 17 0 3.21 131.211 14:36 30.06.2019
5633 Clear 23 999 17 0 3.21 131.211 13:57 30.06.2019
5634 Clear 23 999 17 0 3.21 131.211 13:37 30.06.2019
5635 Clear 23 998 18 0 2.57 126.531 13:18 30.06.2019
5636 Clear 23 998 18 0 2.57 126.531 12:42 30.06.2019
5637 Clear 23 998 18 0 1.45 168.628 12:20 30.06.2019
5638 Clear 23 998 18 0 1.45 168.628 11:45 30.06.2019
5639 Clear 23 998 18 0 1.45 168.628 11:22 30.06.2019
5640 Clear 23 998 18 0 1.45 168.628 10:55 30.06.2019
5641 Clear 23 998 18 0 1.45 168.628 10:36 30.06.2019
5642 Clear 23 998 18 0 1.45 168.628 10:18 30.06.2019
5643 Clear 23 998 18 0 1.45 168.628 09:43 30.06.2019
5644 Clouds 21 1003 26 0 2.5 179.542 09:21 30.06.2019
5645 Clouds 20 1002 26 0 2.31 177.593 08:40 30.06.2019
5646 Clouds 20 1002 26 0 2.31 177.593 08:22 30.06.2019
5647 Clouds 20 1002 26 0 2.31 177.593 07:52 30.06.2019
5648 Clouds 20 1002 26 0 2.31 177.593 07:26 30.06.2019
5649 Clouds 20 1002 26 0 2.31 177.593 06:39 30.06.2019
5650 Clouds 16 1008 37 0 2.48 168.028 04:48 30.06.2019
5651 Clear 12 1010 53 0 2.22 148.09 02:41 30.06.2019
5652 Clear 12 1010 54 0 2.28 151.223 01:24 30.06.2019
5653 Clear 11 1008 56 0 1.96 155.204 00:26 30.06.2019
5654 Clear 11 1008 56 0 1.96 155.204 23:53 29.06.2019
5655 Clear 11 1008 56 0 1.96 155.204 23:24 29.06.2019
5656 Clear 11 1008 56 0 1.96 155.204 22:55 29.06.2019
5657 Clear 11 1008 56 0 1.96 155.204 22:25 29.06.2019
5658 Clear 11 1008 56 0 1.96 155.204 22:25 29.06.2019
5659 Clear 12 1008 55 0 2.17 158.805 21:59 29.06.2019
5660 Clear 12 1008 55 0 2.17 158.805 21:40 29.06.2019
5661 Clouds 14 1006 47 0 2.56 175.067 21:20 29.06.2019
5662 Clouds 14 1006 47 0 2.56 175.067 20:40 29.06.2019
5663 Clouds 14 1006 47 0 2.56 175.067 20:22 29.06.2019
5664 Clouds 14 1006 47 0 2.56 175.067 19:48 29.06.2019
5665 Clouds 14 1006 47 0 2.56 175.067 19:23 29.06.2019
5666 Clouds 14 1006 47 0 2.56 175.067 18:49 29.06.2019
5667 Clouds 17 1004 32 0 4.09 160.834 18:25 29.06.2019
5668 Clouds 17 1004 32 0 4.09 160.834 17:42 29.06.2019
5669 Clouds 17 1004 32 0 4.09 160.834 17:22 29.06.2019
5670 Clouds 17 1004 32 0 4.09 160.834 16:54 29.06.2019
5671 Clouds 17 1004 32 0 4.09 160.834 16:29 29.06.2019
5672 Clouds 17 1004 32 0 4.09 160.834 15:42 29.06.2019
5673 Clouds 23 998 15 0 1.6 52.364 15:23 29.06.2019
5674 Clouds 23 998 15 0 1.6 52.364 14:43 29.06.2019
5675 Clouds 23 998 15 0 1.6 52.364 14:25 29.06.2019
5676 Clouds 23 998 15 0 1.6 52.364 13:46 29.06.2019
5677 Clouds 23 998 19 0 0.23 60.848 13:26 29.06.2019
5678 Clouds 23 998 19 0 0.23 60.848 12:49 29.06.2019
5679 Clouds 23 998 19 0 0.23 60.848 12:31 29.06.2019
5680 Clouds 23 997 20 0 1.25 187.994 11:53 29.06.2019
5681 Clouds 23 997 20 0 1.25 187.994 11:31 29.06.2019
5682 Clouds 23 997 20 0 1.25 187.994 10:56 29.06.2019
5683 Clouds 23 997 20 0 1.25 187.994 10:36 29.06.2019
5684 Clouds 23 997 20 0 1.25 187.994 10:36 29.06.2019
5685 Clouds 23 997 20 0 1.25 187.994 09:59 29.06.2019
5686 Clouds 23 997 20 0 1.25 187.994 09:38 29.06.2019
5687 Clear 20 1001 27 0 2.03 182.456 08:42 29.06.2019
5688 Clear 20 1001 27 0 2.06 182.592 07:59 29.06.2019
5689 Clear 20 1001 27 0 2.06 182.592 07:36 29.06.2019
5690 Clear 20 1001 27 0 2.06 182.592 06:45 29.06.2019
5691 Clear 16 1006 40 0 2.23 173.223 06:23 29.06.2019
5692 Clear 11 1008 57 0 1.84 144.618 02:51 29.06.2019
5693 Clear 11 1008 56 0 1.72 141.454 01:21 29.06.2019
5694 Clear 10 1007 60 0 2.23 150.22 00:24 29.06.2019
5695 Clear 10 1007 60 0 2.23 150.22 23:27 28.06.2019
5696 Clear 10 1007 60 0 2.23 150.22 22:57 28.06.2019
5697 Clear 10 1007 60 0 2.23 150.22 22:37 28.06.2019
5698 Clear 10 1007 60 0 2.23 150.22 21:52 28.06.2019
5699 Clouds 13 1005 52 0 2.76 186.104 21:25 28.06.2019
5700 Clouds 13 1005 51 0 2.79 191.125 20:49 28.06.2019
5701 Clouds 13 1005 51 0 2.79 191.125 20:28 28.06.2019
5702 Clouds 13 1005 51 0 2.79 191.125 19:54 28.06.2019
5703 Clouds 13 1005 51 0 2.79 191.125 19:30 28.06.2019
5704 Clouds 13 1005 51 0 2.79 191.125 18:59 28.06.2019
5705 Clouds 13 1005 51 0 2.79 191.125 18:38 28.06.2019
5706 Rain 15 1003 48 0 2.49 136.741 18:20 28.06.2019
5707 Rain 15 1003 48 0 2.49 136.741 17:33 28.06.2019
5708 Rain 15 1003 48 0 2.49 136.741 16:54 28.06.2019
5709 Rain 15 1003 48 0 2.49 136.741 16:29 28.06.2019
5710 Rain 15 1003 48 0 2.49 136.741 15:49 28.06.2019
5711 Rain 21 997 26 0 2.61 206.015 15:26 28.06.2019
5712 Rain 21 997 26 0 2.61 206.015 14:57 28.06.2019
5713 Rain 21 997 26 0 2.61 206.015 14:38 28.06.2019
5714 Rain 21 997 26 0 2.61 206.015 14:20 28.06.2019
5715 Rain 21 997 26 0 2.61 206.015 13:44 28.06.2019
5716 Clouds 22 996 23 0 2.36 180.024 13:22 28.06.2019
5717 Clouds 22 996 23 0 2.36 180.024 12:49 28.06.2019
5718 Clouds 23 996 21 0 2.48 152.713 12:25 28.06.2019
5719 Clouds 23 996 21 0 2.48 152.713 11:28 28.06.2019
5720 Clouds 23 996 21 0 2.48 152.713 10:47 28.06.2019
5721 Clouds 23 996 21 0 2.48 152.713 10:23 28.06.2019
5722 Clouds 23 996 21 0 2.48 152.713 09:59 28.06.2019
5723 Clouds 23 996 21 0 2.48 152.713 09:41 28.06.2019
5724 Clouds 21 999 29 0 2.8 176.724 09:22 28.06.2019
5725 Clouds 20 999 30 0 2.92 192.861 08:41 28.06.2019
5726 Clouds 20 999 30 0 2.92 192.861 08:23 28.06.2019
5727 Clouds 20 999 30 0 2.92 192.861 07:41 28.06.2019
5728 Clouds 20 999 30 0 2.92 192.861 06:49 28.06.2019
5729 Clouds 17 1004 39 0 2.18 180.448 03:35 28.06.2019
5730 Clouds 13 1007 50 0 1.73 147.181 00:46 28.06.2019
5731 Clouds 12 1005 55 0 1.64 127.718 23:59 27.06.2019
5732 Clouds 12 1005 55 0 1.64 127.718 23:41 27.06.2019
5733 Clouds 12 1005 55 0 1.64 127.718 23:22 27.06.2019
5734 Clouds 12 1005 55 0 1.64 127.718 22:43 27.06.2019
5735 Clouds 12 1005 55 0 1.64 127.718 22:24 27.06.2019
5736 Clouds 12 1005 55 0 1.64 127.718 21:57 27.06.2019
5737 Clouds 12 1005 55 0 1.64 127.718 21:38 27.06.2019
5738 Rain 14 1006 50 0 2.76 159.935 21:19 27.06.2019
5739 Clouds 15 1005 44 0 2.83 164.805 20:45 27.06.2019
5740 Clouds 15 1005 44 0 2.83 164.805 20:27 27.06.2019
5741 Clouds 15 1005 44 0 2.83 164.805 19:47 27.06.2019
5742 Clouds 15 1005 44 0 2.83 164.805 19:27 27.06.2019
5743 Clouds 15 1005 44 0 2.83 164.805 18:51 27.06.2019
5744 Clouds 15 1005 44 0 2.83 164.805 18:30 27.06.2019
5745 Rain 17 1003 39 0 2.56 161.197 17:47 27.06.2019
5746 Rain 17 1003 39 0 2.56 161.197 17:24 27.06.2019
5747 Rain 17 1003 39 0 2.56 161.197 16:59 27.06.2019
5748 Rain 17 1003 39 0 2.56 161.197 16:37 27.06.2019
5749 Rain 17 1003 39 0 2.56 161.197 16:18 27.06.2019
5750 Rain 17 1003 39 0 2.56 161.197 15:45 27.06.2019
5751 Clouds 21 996 25 0 2.47 290.977 15:21 27.06.2019
5752 Clouds 21 996 25 0 2.47 290.977 14:46 27.06.2019
5753 Clouds 21 996 25 0 2.47 290.977 14:28 27.06.2019
5754 Clouds 21 996 25 0 2.47 290.977 13:49 27.06.2019
5755 Clouds 23 995 20 0 3.63 231.111 13:30 27.06.2019
5756 Clouds 23 995 20 0 3.63 231.111 12:55 27.06.2019
5757 Clouds 23 995 20 0 3.63 231.111 12:35 27.06.2019
5758 Clouds 24 995 17 0 1.29 205.511 11:59 27.06.2019
5759 Clouds 24 995 17 0 1.29 205.511 11:39 27.06.2019
5760 Clouds 24 995 17 0 1.29 205.511 11:20 27.06.2019
5761 Clouds 24 995 17 0 1.29 205.511 10:45 27.06.2019
5762 Clouds 24 995 17 0 1.29 205.511 10:22 27.06.2019
5763 Clouds 24 995 17 0 1.29 205.511 09:55 27.06.2019
5764 Clouds 21 999 26 0 2.23 195.023 09:22 27.06.2019
5765 Clouds 21 999 26 0 2.23 195.023 08:52 27.06.2019
5766 Clear 21 999 27 0 2.24 193.682 08:31 27.06.2019
5767 Clear 21 999 27 0 2.24 193.682 07:57 27.06.2019
5768 Clear 21 999 27 0 2.24 193.682 07:31 27.06.2019
5769 Clear 21 999 27 0 2.24 193.682 06:53 27.06.2019
5770 Clear 16 1004 40 0 2.49 183.76 06:24 27.06.2019
5771 Clouds 12 1008 58 0 1.89 140.21 02:45 27.06.2019
5772 Clouds 12 1008 58 0 1.89 140.21 01:50 27.06.2019
5773 Clouds 11 1007 58 0 1.46 133.338 00:58 27.06.2019
5774 Clouds 11 1007 58 0 1.46 133.338 00:39 27.06.2019
5775 Clouds 11 1006 64 0 1.8 176.044 00:18 27.06.2019
5776 Clouds 11 1006 64 0 1.8 176.044 23:40 26.06.2019
5777 Clouds 11 1006 64 0 1.8 176.044 23:20 26.06.2019
5778 Clouds 11 1006 64 0 1.8 176.044 22:43 26.06.2019
5779 Clouds 11 1006 64 0 1.8 176.044 22:25 26.06.2019
5780 Clouds 11 1006 64 0 1.8 176.044 21:56 26.06.2019
5781 Clouds 11 1006 64 0 1.8 176.044 21:37 26.06.2019
5782 Rain 13 1007 63 0 1.64 193.047 21:19 26.06.2019
5783 Rain 13 1006 62 0 1.82 196.756 20:44 26.06.2019
5784 Rain 13 1006 62 0 1.82 196.756 20:26 26.06.2019
5785 Rain 13 1006 62 0 1.82 196.756 19:49 26.06.2019
5786 Rain 13 1006 62 0 1.82 196.756 19:31 26.06.2019
5787 Rain 13 1006 62 0 1.82 196.756 18:55 26.06.2019
5788 Rain 13 1006 62 0 1.82 196.756 18:55 26.06.2019
5789 Rain 13 1006 62 0 1.82 196.756 18:37 26.06.2019
5790 Rain 13 1005 63 0 1.23 152.496 18:18 26.06.2019
5791 Rain 13 1005 63 0 1.23 152.496 17:41 26.06.2019
5792 Rain 13 1005 63 0 1.23 152.496 17:23 26.06.2019
5793 Rain 13 1005 63 0 1.23 152.496 16:50 26.06.2019
5794 Rain 13 1005 63 0 1.23 152.496 16:28 26.06.2019
5795 Rain 13 1005 63 0 1.23 152.496 15:49 26.06.2019
5796 Rain 13 1005 63 0 1.23 152.496 15:27 26.06.2019
5797 Rain 16 999 48 0 4.39 202.455 14:42 26.06.2019
5798 Rain 16 999 48 0 4.39 202.455 14:21 26.06.2019
5799 Rain 16 999 48 0 4.39 202.455 13:45 26.06.2019
5800 Clouds 21 998 30 0 4.54 199.907 13:21 26.06.2019
5801 Clouds 21 998 30 0 4.54 199.907 12:52 26.06.2019
5802 Clouds 21 998 30 0 4.54 199.907 12:33 26.06.2019
5803 Clouds 23 998 24 0 3.93 161.925 11:55 26.06.2019
5804 Clouds 23 998 24 0 3.93 161.925 11:25 26.06.2019
5805 Clouds 23 998 24 0 3.93 161.925 10:51 26.06.2019
5806 Clouds 23 998 24 0 3.93 161.925 10:51 26.06.2019
5807 Clouds 23 998 24 0 3.93 161.925 10:31 26.06.2019
5808 Clouds 23 998 24 0 3.93 161.925 09:51 26.06.2019
5809 Clouds 23 998 24 0 3.93 161.925 09:29 26.06.2019
5810 Clouds 21 1001 30 0 2.74 179.288 08:52 26.06.2019
5811 Clear 21 1001 29 0 2.68 187.451 08:22 26.06.2019
5812 Clear 21 1001 29 0 2.68 187.451 07:57 26.06.2019
5813 Clear 21 1001 29 0 2.68 187.451 07:37 26.06.2019
5814 Clear 21 1001 29 0 2.68 187.451 06:33 26.06.2019
5815 Clear 11 1011 70 0 1.32 149.631 01:59 26.06.2019
5816 Clear 11 1011 71 0 1.16 160.084 00:35 26.06.2019
5817 Clouds 10 1010 75 0 1.4 165.061 23:52 25.06.2019
5818 Clouds 10 1010 75 0 1.4 165.061 23:32 25.06.2019
5819 Clouds 10 1010 75 0 1.4 165.061 22:59 25.06.2019
5820 Clouds 10 1010 75 0 1.4 165.061 22:41 25.06.2019
5821 Clouds 10 1010 75 0 1.4 165.061 22:22 25.06.2019
5822 Clouds 10 1010 75 0 1.4 165.061 21:46 25.06.2019
5823 Clouds 11 1011 67 0 2.04 166.434 21:25 25.06.2019
5824 Clouds 11 1010 68 0 2.02 168.384 20:49 25.06.2019
5825 Clouds 11 1010 68 0 2.02 168.384 20:49 25.06.2019
5826 Clouds 11 1010 68 0 2.02 168.384 20:49 25.06.2019
5827 Clouds 11 1010 68 0 2.02 168.384 20:24 25.06.2019
5828 Clouds 11 1010 68 0 2.02 168.384 20:24 25.06.2019
5829 Clouds 11 1010 68 0 2.02 168.384 19:56 25.06.2019
5830 Clouds 11 1010 68 0 2.02 168.384 19:56 25.06.2019
5831 Clouds 11 1010 68 0 2.02 168.384 19:56 25.06.2019
5832 Clouds 11 1010 68 0 2.02 168.384 19:56 25.06.2019
5833 Clouds 11 1010 68 0 2.02 168.384 19:56 25.06.2019
5834 Clouds 11 1010 68 0 2.02 168.384 19:37 25.06.2019
5835 Clouds 11 1010 68 0 2.02 168.384 19:19 25.06.2019
5836 Clouds 11 1010 68 0 2.02 168.384 18:42 25.06.2019
5837 Rain 13 1010 59 0 3.79 154.294 18:23 25.06.2019
5838 -273 0 0 0 0 0 17:45 25.06.2019
5839 -273 0 0 0 0 0 17:25 25.06.2019
5840 -273 0 0 0 0 0 17:24 25.06.2019
5841 Rain 13 1010 59 0 3.79 154.294 16:44 25.06.2019
5842 Rain 13 1010 59 0 3.79 154.294 16:25 25.06.2019
5843 Rain 13 1010 59 0 3.79 154.294 15:54 25.06.2019
5844 Rain 13 1010 59 0 3.79 154.294 15:36 25.06.2019
5845 Rain 19 1003 33 0 2.91 204.177 15:18 25.06.2019
5846 Rain 19 1003 33 0 2.91 204.177 15:18 25.06.2019
5847 Rain 19 1003 33 0 2.91 204.177 14:42 25.06.2019
5848 Rain 19 1003 33 0 2.91 204.177 14:23 25.06.2019
5849 Rain 19 1003 33 0 2.91 204.177 13:42 25.06.2019
5850 Clouds 21 1000 26 0 0.88 355.517 13:23 25.06.2019
5851 Clouds 21 1000 26 0 0.88 355.517 12:42 25.06.2019
5852 Clear 25 1000 18 0 0.97 223.619 12:24 25.06.2019
5853 Clear 25 1000 18 0 0.97 223.619 11:45 25.06.2019
5854 Clear 25 1000 18 0 0.97 223.619 11:23 25.06.2019
5855 Clear 25 1000 18 0 0.97 223.619 11:23 25.06.2019
5856 -273 0 0 0 0 0 10:57 25.06.2019
5857 Clear 25 1000 18 0 0.97 223.619 10:36 25.06.2019
5858 Clear 25 1000 18 0 0.97 223.619 10:18 25.06.2019
5859 Clear 25 1000 18 0 0.97 223.619 09:39 25.06.2019
5860 Clear 23 1004 25 0 1.95 213.046 09:21 25.06.2019
5861 Clear 23 1004 25 0 1.95 213.046 09:21 25.06.2019
5862 Clear 23 1004 25 0 1.95 213.046 08:51 25.06.2019
5863 Clear 23 1004 25 0 1.95 213.046 08:31 25.06.2019
5864 Clear 23 1003 25 0 2.03 209.85 07:44 25.06.2019
5865 Clear 23 1003 25 0 2.03 209.85 07:24 25.06.2019
5866 Clear 23 1003 25 0 2.03 209.85 06:44 25.06.2019
5867 Clear 17 1010 41 0 2.17 186.843 05:48 25.06.2019
5868 Rain 12 1014 65 0 0.61 46.938 02:37 25.06.2019
5869 Clouds 13 1014 52 0 0.96 117.234 00:38 25.06.2019
5870 Clear 11 1013 58 0 0.85 49.171 00:19 25.06.2019
5871 Clear 11 1013 58 0 0.85 49.171 23:51 24.06.2019
5872 Clear 11 1013 58 0 0.85 49.171 23:32 24.06.2019
5873 Clear 11 1013 58 0 0.85 49.171 22:46 24.06.2019
5874 Clear 11 1013 58 0 0.85 49.171 22:20 24.06.2019
5875 Clear 11 1013 58 0 0.85 49.171 21:56 24.06.2019
5876 Clear 11 1013 58 0 0.85 49.171 21:37 24.06.2019
5877 Clouds 14 1012 45 0 0.46 39.614 21:18 24.06.2019
5878 Clouds 14 1011 42 0 0.52 145.509 20:42 24.06.2019
5879 Clouds 14 1011 42 0 0.52 145.509 20:22 24.06.2019
5880 Clouds 14 1011 42 0 0.52 145.509 19:49 24.06.2019
5881 Clouds 14 1011 42 0 0.52 145.509 19:26 24.06.2019
5882 Clouds 14 1011 42 0 0.52 145.509 18:56 24.06.2019
5883 Clouds 14 1011 42 0 0.52 145.509 18:37 24.06.2019
5884 Clear 17 1010 25 0 1.11 115.479 18:18 24.06.2019
5885 Clear 17 1010 25 0 1.11 115.479 17:37 24.06.2019
5886 Clear 17 1010 25 0 1.11 115.479 16:57 24.06.2019
5887 Clear 17 1010 25 0 1.11 115.479 16:39 24.06.2019
5888 Clear 17 1010 25 0 1.11 115.479 16:19 24.06.2019
5889 Clear 17 1010 25 0 1.11 115.479 15:40 24.06.2019
5890 Clouds 24 1003 14 0 1.44 43.367 15:22 24.06.2019
5891 Clouds 24 1003 14 0 1.44 43.367 14:35 24.06.2019
5892 Clouds 24 1003 14 0 1.44 43.367 13:58 24.06.2019
5893 Clouds 24 1003 14 0 1.44 43.367 13:32 24.06.2019
5894 Clouds 24 1002 14 0 1.74 53.394 12:54 24.06.2019
5895 Clouds 24 1002 14 0 1.74 53.394 12:36 24.06.2019
5896 Clouds 25 1001 15 0 0.48 236.641 12:18 24.06.2019
5897 Clouds 25 1001 15 0 0.48 236.641 11:43 24.06.2019
5898 Clouds 25 1001 15 0 0.48 236.641 11:23 24.06.2019
5899 Clouds 25 1001 15 0 0.48 236.641 10:51 24.06.2019
5900 Clouds 25 1001 15 0 0.48 236.641 10:28 24.06.2019
5901 Clouds 25 1001 15 0 0.48 236.641 09:51 24.06.2019
5902 Clear 22 1007 21 0 2.23 203.806 09:23 24.06.2019
5903 Clear 22 1007 21 0 2.23 203.806 08:55 24.06.2019
5904 Clear 22 1007 21 0 2.23 203.806 08:32 24.06.2019
5905 Clear 22 1006 20 0 2.24 199.358 07:49 24.06.2019
5906 Clear 22 1006 20 0 2.24 199.358 07:27 24.06.2019
5907 Clear 22 1006 20 0 2.24 199.358 06:56 24.06.2019
5908 Clear 17 1011 35 0 2.07 182.021 06:23 24.06.2019
5909 Clear 17 1011 35 0 2.07 182.021 05:29 24.06.2019
5910 Clear 17 1011 35 0 2.07 182.021 04:31 24.06.2019
5911 Clear 17 1011 35 0 2.07 182.021 03:32 24.06.2019
5912 Clear 12 1015 50 0 1.92 152.809 02:34 24.06.2019
5913 Clear 12 1015 50 0 1.92 152.809 01:54 24.06.2019
5914 Clear 12 1015 52 0 2.01 149.231 01:28 24.06.2019
5915 Clear 12 1015 52 0 2.01 149.231 00:45 24.06.2019
5916 Clear 12 1013 55 0 1.76 170.094 00:20 24.06.2019
5917 Clear 12 1013 55 0 1.76 170.094 23:47 23.06.2019
5918 Clear 12 1013 55 0 1.76 170.094 23:27 23.06.2019
5919 Clear 12 1013 55 0 1.76 170.094 22:55 23.06.2019
5920 Clear 12 1013 55 0 1.76 170.094 22:37 23.06.2019
5921 Clear 12 1013 55 0 1.76 170.094 22:19 23.06.2019
5922 Clear 12 1013 55 0 1.76 170.094 21:40 23.06.2019
5923 Clouds 14 1011 46 0 2.63 193.213 21:21 23.06.2019
5924 Clouds 14 1011 46 0 2.63 193.213 20:45 23.06.2019
5925 Clouds 14 1011 45 0 2.62 187.647 20:26 23.06.2019
5926 Clouds 14 1011 45 0 2.62 187.647 19:46 23.06.2019
5927 Clouds 14 1011 45 0 2.62 187.647 19:46 23.06.2019
5928 Clouds 14 1011 45 0 2.62 187.647 19:22 23.06.2019
5929 Clouds 14 1011 45 0 2.62 187.647 18:54 23.06.2019
5930 Clouds 14 1011 45 0 2.62 187.647 18:26 23.06.2019
5931 Clouds 19 1009 30 0 3.16 181.088 17:59 23.06.2019
5932 Clouds 19 1009 30 0 3.16 181.088 17:38 23.06.2019
5933 Clouds 19 1009 30 0 3.16 181.088 17:19 23.06.2019
5934 Clouds 19 1009 30 0 3.16 181.088 16:43 23.06.2019
5935 Clouds 19 1009 30 0 3.16 181.088 16:23 23.06.2019
5936 Clouds 19 1009 30 0 3.16 181.088 15:41 23.06.2019
5937 Clouds 24 1004 16 0 3.3 222.172 15:22 23.06.2019
5938 Clouds 24 1004 16 0 3.3 222.172 14:42 23.06.2019
5939 Clouds 24 1004 16 0 3.3 222.172 14:24 23.06.2019
5940 Clouds 24 1004 16 0 3.3 222.172 13:59 23.06.2019
5941 Clouds 24 1004 16 0 3.3 222.172 13:41 23.06.2019
5942 Clouds 24 1003 15 0 2.5 221.341 13:20 23.06.2019
5943 Clouds 24 1003 15 0 2.5 221.341 12:54 23.06.2019
5944 Clouds 24 1003 15 0 2.5 221.341 12:36 23.06.2019
5945 Clear 24 1002 15 0 0.34 104.522 12:18 23.06.2019
5946 Clear 24 1002 15 0 0.34 104.522 11:42 23.06.2019
5947 Clear 24 1002 15 0 0.34 104.522 11:24 23.06.2019
5948 Clear 24 1002 15 0 0.34 104.522 10:47 23.06.2019
5949 Clear 24 1002 15 0 0.34 104.522 10:20 23.06.2019
5950 Clear 24 1002 15 0 0.34 104.522 09:53 23.06.2019
5951 Clear 21 1006 22 0 1.95 197.403 09:21 23.06.2019
5952 Clear 21 1006 22 0 1.95 197.403 08:46 23.06.2019
5953 Clear 21 1006 21 0 1.94 196.646 08:27 23.06.2019
5954 Clear 21 1006 21 0 1.94 196.646 07:55 23.06.2019
5955 Clear 21 1006 21 0 1.94 196.646 07:25 23.06.2019
5956 Clear 21 1006 21 0 1.94 196.646 06:55 23.06.2019
5957 Clear 16 1012 34 0 2.47 183.813 05:59 23.06.2019
5958 Clear 16 1012 34 0 2.47 183.813 04:38 23.06.2019
5959 Clear 11 1015 53 0 1.87 153.366 02:24 23.06.2019
5960 Clear 11 1015 53 0 1.87 153.366 01:37 23.06.2019
5961 Clear 11 1015 54 0 1.95 150.477 00:37 23.06.2019
5962 Clear 10 1014 57 0 1.87 158.524 23:58 22.06.2019
5963 Clear 10 1014 57 0 1.87 158.524 23:39 22.06.2019
5964 Clear 10 1014 57 0 1.87 158.524 23:20 22.06.2019
5965 Clear 10 1014 57 0 1.87 158.524 22:45 22.06.2019
5966 Clear 10 1014 57 0 1.87 158.524 22:24 22.06.2019
5967 Clear 10 1014 57 0 1.87 158.524 21:41 22.06.2019
5968 Clouds 13 1013 49 0 2.54 181.604 21:20 22.06.2019
5969 Clouds 13 1013 49 0 2.54 181.604 20:53 22.06.2019
5970 Clouds 13 1013 49 0 2.6 178.433 20:27 22.06.2019
5971 Clouds 13 1013 49 0 2.6 178.433 19:58 22.06.2019
5972 Clouds 13 1013 49 0 2.6 178.433 19:39 22.06.2019
5973 Clouds 13 1013 49 0 2.6 178.433 19:19 22.06.2019
5974 Clouds 13 1013 49 0 2.6 178.433 18:41 22.06.2019
5975 Clouds 16 1010 38 0 3.41 187.743 18:19 22.06.2019
5976 Clouds 16 1010 38 0 3.41 187.743 17:40 22.06.2019
5977 Clouds 16 1010 38 0 3.41 187.743 17:22 22.06.2019
5978 Clouds 16 1010 38 0 3.41 187.743 16:40 22.06.2019
5979 Clouds 16 1010 38 0 3.41 187.743 16:22 22.06.2019
5980 Clouds 16 1010 38 0 3.41 187.743 15:42 22.06.2019
5981 Clouds 22 1003 23 0 3.77 231.402 15:24 22.06.2019
5982 Clouds 22 1003 23 0 3.77 231.402 14:50 22.06.2019
5983 Clouds 22 1003 23 0 3.77 231.402 14:29 22.06.2019
5984 Clouds 22 1003 23 0 3.77 231.402 13:55 22.06.2019
5985 Clouds 22 1003 23 0 3.77 231.402 13:36 22.06.2019
5986 Clouds 22 1003 23 0 4.4 248.225 13:18 22.06.2019
5987 Clouds 22 1003 23 0 4.4 248.225 12:41 22.06.2019
5988 Clouds 23 1002 17 0 3.68 202.822 11:59 22.06.2019
5989 Clouds 23 1002 17 0 3.68 202.822 11:40 22.06.2019
5990 Clouds 23 1002 17 0 3.68 202.822 10:58 22.06.2019
5991 Clouds 23 1002 17 0 3.68 202.822 10:22 22.06.2019
5992 Clouds 23 1002 17 0 3.68 202.822 09:56 22.06.2019
5993 Clouds 23 1002 17 0 3.68 202.822 09:29 22.06.2019
5994 Clouds 21 1007 23 0 2.62 185.078 08:46 22.06.2019
5995 Clouds 21 1007 23 0 2.63 194.068 08:28 22.06.2019
5996 Clouds 21 1007 23 0 2.63 194.068 07:44 22.06.2019
5997 Clouds 21 1007 23 0 2.63 194.068 07:20 22.06.2019
5998 Clouds 21 1007 23 0 2.63 194.068 06:35 22.06.2019
5999 Clouds 16 1013 37 0 2.48 186.264 03:42 22.06.2019
6000 Clouds 12 1015 54 0 2.14 162.779 02:24 22.06.2019
6001 Clear 11 1015 56 0 1.89 155.295 00:52 22.06.2019
6002 Clear 11 1015 56 0 1.89 155.295 00:29 22.06.2019
6003 Clear 11 1013 60 0 2 151.371 23:49 21.06.2019
6004 Clear 11 1013 60 0 2 151.371 23:23 21.06.2019
6005 Clear 11 1013 60 0 2 151.371 22:56 21.06.2019
6006 Clear 11 1013 60 0 2 151.371 22:32 21.06.2019
6007 Clear 11 1013 60 0 2 151.371 21:58 21.06.2019
6008 Clear 11 1013 60 0 2 151.371 21:38 21.06.2019
6009 Rain 13 1013 52 0 2.42 151.397 21:19 21.06.2019
6010 Rain 13 1013 52 0 3.1 151.274 20:47 21.06.2019
6011 Rain 13 1013 52 0 3.1 151.274 20:25 21.06.2019
6012 Rain 13 1013 52 0 3.1 151.274 19:45 21.06.2019
6013 Rain 13 1013 52 0 3.1 151.274 18:59 21.06.2019
6014 Rain 13 1013 52 0 3.1 151.274 18:40 21.06.2019
6015 Rain 16 1010 40 0 2.5 200.701 18:22 21.06.2019
6016 Rain 16 1010 40 0 2.5 200.701 17:31 21.06.2019
6017 Rain 16 1010 40 0 2.5 200.701 16:43 21.06.2019
6018 Rain 16 1010 40 0 2.5 200.701 16:24 21.06.2019
6019 Rain 16 1010 40 0 2.5 200.701 15:58 21.06.2019
6020 Rain 16 1010 40 0 2.5 200.701 15:36 21.06.2019
6021 Clouds 22 1003 18 0 3.09 229.254 14:56 21.06.2019
6022 Clouds 22 1003 18 0 3.09 229.254 14:37 21.06.2019
6023 Clouds 22 1003 18 0 3.09 229.254 14:19 21.06.2019
6024 Clouds 22 1003 18 0 3.09 229.254 13:39 21.06.2019
6025 Clouds 22 1002 17 0 2.95 241.129 13:21 21.06.2019
6026 Clouds 22 1002 17 0 2.95 241.129 12:49 21.06.2019
6027 Clouds 23 1002 15 0 1.91 136.953 12:23 21.06.2019
6028 Clouds 23 1002 15 0 1.91 136.953 12:23 21.06.2019
6029 Clouds 23 1002 15 0 1.91 136.953 11:49 21.06.2019
6030 Clouds 23 1002 15 0 1.91 136.953 11:28 21.06.2019
6031 Clouds 23 1002 15 0 1.91 136.953 10:59 21.06.2019
6032 Clouds 23 1002 15 0 1.91 136.953 10:40 21.06.2019
6033 Clouds 23 1002 15 0 1.91 136.953 10:20 21.06.2019
6034 Clouds 23 1002 15 0 1.91 136.953 09:43 21.06.2019
6035 Clouds 19 1007 25 0 1.8 179.745 09:22 21.06.2019
6036 Clouds 19 1007 25 0 1.8 179.745 08:55 21.06.2019
6037 Clouds 19 1007 25 0 1.7 176.869 08:37 21.06.2019
6038 Clouds 19 1007 25 0 1.7 176.869 08:18 21.06.2019
6039 Clouds 19 1007 25 0 1.7 176.869 07:40 21.06.2019
6040 Clouds 19 1007 25 0 1.7 176.869 07:19 21.06.2019
6041 Clouds 15 1012 38 0 2.73 174.828 06:25 21.06.2019
6042 Clouds 15 1012 38 0 2.73 174.828 05:33 21.06.2019
6043 Clouds 15 1012 38 0 2.73 174.828 04:40 21.06.2019
6044 Clouds 15 1012 38 0 2.73 174.828 03:41 21.06.2019
6045 Clear 10 1015 55 0 2.26 143.505 03:23 21.06.2019
6046 Clear 10 1015 55 0 2.26 143.505 02:21 21.06.2019
6047 Clear 10 1015 55 0 2.1 142.689 01:27 21.06.2019
6048 Clear 10 1015 55 0 2.1 142.689 00:29 21.06.2019
6049 Clear 9 1013 58 0 1.86 147.359 23:55 20.06.2019
6050 Clear 9 1013 58 0 1.86 147.359 23:37 20.06.2019
6051 Clear 9 1013 58 0 1.86 147.359 23:37 20.06.2019
6052 Clear 9 1013 58 0 1.86 147.359 23:18 20.06.2019
6053 Clear 9 1013 58 0 1.86 147.359 22:41 20.06.2019
6054 Clear 9 1013 58 0 1.86 147.359 22:22 20.06.2019
6055 Clear 9 1013 58 0 1.86 147.359 21:55 20.06.2019
6056 Clear 9 1013 58 0 1.86 147.359 21:37 20.06.2019
6057 Clouds 11 1012 49 0 2.85 168.047 21:18 20.06.2019
6058 Clear 12 1012 50 0 2.83 164.459 20:41 20.06.2019
6059 Clear 12 1012 50 0 2.83 164.459 20:22 20.06.2019
6060 Clear 12 1012 50 0 2.83 164.459 19:45 20.06.2019
6061 Clear 12 1012 50 0 2.83 164.459 19:19 20.06.2019
6062 Clear 12 1012 50 0 2.83 164.459 18:58 20.06.2019
6063 Clear 12 1012 50 0 2.83 164.459 18:39 20.06.2019
6064 Clouds 14 1008 38 0 2.88 199.587 18:21 20.06.2019
6065 Clouds 14 1008 38 0 2.88 199.587 17:46 20.06.2019
6066 Clouds 14 1008 38 0 2.88 199.587 17:27 20.06.2019
6067 Clouds 14 1008 38 0 2.88 199.587 16:44 20.06.2019
6068 Clouds 14 1008 38 0 2.88 199.587 16:19 20.06.2019
6069 Clouds 14 1008 38 0 2.88 199.587 15:56 20.06.2019
6070 Clouds 14 1008 38 0 2.88 199.587 15:38 20.06.2019
6071 Clouds 20 1001 22 0 6.08 177.032 15:18 20.06.2019
6072 Clouds 20 1001 22 0 6.08 177.032 14:43 20.06.2019
6073 Clouds 20 1001 22 0 6.08 177.032 14:21 20.06.2019
6074 Clouds 20 1001 22 0 6.08 177.032 13:40 20.06.2019
6075 Clouds 21 1001 22 0 5.46 180.577 13:19 20.06.2019
6076 Clouds 21 1001 22 0 5.46 180.577 12:44 20.06.2019
6077 Clouds 22 1001 21 0 3.7 220.848 12:23 20.06.2019
6078 Clouds 22 1001 21 0 3.7 220.848 11:45 20.06.2019
6079 Clouds 22 1001 21 0 3.7 220.848 11:24 20.06.2019
6080 Clouds 22 1001 21 0 3.7 220.848 10:47 20.06.2019
6081 Clouds 22 1001 21 0 3.7 220.848 10:47 20.06.2019
6082 Clouds 22 1001 21 0 3.7 220.848 10:25 20.06.2019
6083 Clouds 22 1001 21 0 3.7 220.848 09:59 20.06.2019
6084 Clouds 22 1001 21 0 3.7 220.848 09:40 20.06.2019
6085 Clouds 19 1006 26 0 2.33 166.488 09:21 20.06.2019
6086 Clouds 19 1006 26 0 2.4 171.867 08:45 20.06.2019
6087 Clouds 19 1006 26 0 2.4 171.867 08:27 20.06.2019
6088 Clouds 19 1006 26 0 2.4 171.867 07:53 20.06.2019
6089 Clouds 19 1006 26 0 2.4 171.867 07:28 20.06.2019
6090 Clouds 19 1006 26 0 2.4 171.867 06:27 20.06.2019
6091 Clouds 15 1011 36 0 2.38 177.326 04:54 20.06.2019
6092 Clouds 10 1014 53 0 1.44 163.924 02:29 20.06.2019
6093 Clouds 10 1014 50 0 1.13 127.714 00:34 20.06.2019
6094 Clouds 9 1012 56 0 2.43 157.302 23:56 19.06.2019
6095 Clouds 9 1012 56 0 2.43 157.302 23:37 19.06.2019
6096 Clouds 9 1012 56 0 2.43 157.302 23:19 19.06.2019
6097 Clouds 9 1012 56 0 2.43 157.302 22:40 19.06.2019
6098 Clouds 9 1012 56 0 2.43 157.302 22:18 19.06.2019
6099 Clouds 9 1012 56 0 2.43 157.302 22:18 19.06.2019
6100 Clouds 9 1012 56 0 2.43 157.302 21:42 19.06.2019
6101 Clear 11 1011 50 0 2.61 175.546 21:23 19.06.2019
6102 Clear 11 1011 50 0 2.61 175.546 20:43 19.06.2019
6103 Clear 11 1011 50 0 2.61 175.546 20:22 19.06.2019
6104 Clear 11 1011 50 0 2.61 175.546 19:58 19.06.2019
6105 Clear 11 1011 50 0 2.61 175.546 19:39 19.06.2019
6106 Clear 11 1011 50 0 2.61 175.546 19:20 19.06.2019
6107 Clear 11 1011 50 0 2.61 175.546 18:47 19.06.2019
6108 Clear 14 1007 38 0 3.09 204.875 18:20 19.06.2019
6109 Clear 14 1007 38 0 3.09 204.875 17:37 19.06.2019
6110 Clear 14 1007 38 0 3.09 204.875 16:59 19.06.2019
6111 Clear 14 1007 38 0 3.09 204.875 16:39 19.06.2019
6112 Clear 14 1007 38 0 3.09 204.875 16:21 19.06.2019
6113 Clear 14 1007 38 0 3.09 204.875 15:48 19.06.2019
6114 Clear 14 1007 38 0 3.09 204.875 15:27 19.06.2019
6115 Clouds 19 1000 22 0 5.27 192.031 14:50 19.06.2019
6116 Clouds 19 1000 22 0 5.27 192.031 14:31 19.06.2019
6117 Clouds 19 1000 22 0 5.27 192.031 13:59 19.06.2019
6118 Clouds 19 1000 22 0 5.27 192.031 13:41 19.06.2019
6119 Clouds 19 999 22 0 4.97 201.17 13:23 19.06.2019
6120 Clouds 19 999 22 0 4.97 201.17 12:44 19.06.2019
6121 Clouds 22 998 15 0 4.61 176.881 12:22 19.06.2019
6122 Clouds 22 998 15 0 4.61 176.881 11:55 19.06.2019
6123 Clouds 22 998 15 0 4.61 176.881 11:37 19.06.2019
6124 Clouds 22 998 15 0 4.61 176.881 11:18 19.06.2019
6125 Clouds 22 998 15 0 4.61 176.881 10:41 19.06.2019
6126 Clouds 22 998 15 0 4.61 176.881 10:23 19.06.2019
6127 Clouds 22 998 15 0 4.61 176.881 09:41 19.06.2019
6128 Clouds 19 1004 21 0 2.8 179.775 09:21 19.06.2019
6129 Clouds 19 1003 18 0 3.68 174.713 08:50 19.06.2019
6130 Clouds 19 1003 18 0 3.68 174.713 08:29 19.06.2019
6131 Clouds 19 1003 18 0 3.68 174.713 07:48 19.06.2019
6132 Clouds 19 1003 18 0 3.68 174.713 07:29 19.06.2019
6133 Clouds 19 1003 18 0 3.68 174.713 06:53 19.06.2019
6134 Clouds 19 1003 18 0 3.68 174.713 06:29 19.06.2019
6135 Clouds 14 1009 34 0 3.63 164.8 05:50 19.06.2019
6136 Clouds 14 1009 34 0 3.63 164.8 04:41 19.06.2019
6137 Clouds 14 1009 34 0 3.63 164.8 03:36 19.06.2019
6138 Clouds 10 1012 48 0 2.41 168.01 02:30 19.06.2019
6139 Clouds 10 1012 47 0 2.53 158.728 01:27 19.06.2019
6140 Clouds 10 1012 47 0 2.53 158.728 00:46 19.06.2019
6141 Clouds 10 1012 47 0 2.53 158.728 00:27 19.06.2019
6142 Clouds 10 1010 51 0 2.12 134.924 23:55 18.06.2019
6143 Clouds 10 1010 51 0 2.12 134.924 23:28 18.06.2019
6144 Clouds 10 1010 51 0 2.12 134.924 22:55 18.06.2019
6145 Clouds 10 1010 51 0 2.12 134.924 22:37 18.06.2019
6146 Clouds 10 1010 51 0 2.12 134.924 22:18 18.06.2019
6147 Clouds 10 1010 51 0 2.12 134.924 21:42 18.06.2019
6148 Clouds 11 1010 49 0 2.98 156.968 21:21 18.06.2019
6149 Clouds 11 1009 49 0 2.26 162.69 20:44 18.06.2019
6150 Clouds 11 1009 49 0 2.26 162.69 20:25 18.06.2019
6151 Clouds 11 1009 49 0 2.26 162.69 19:55 18.06.2019
6152 Clouds 11 1009 49 0 2.26 162.69 19:37 18.06.2019
6153 Clouds 11 1009 49 0 2.26 162.69 19:19 18.06.2019
6154 Clouds 11 1009 49 0 2.26 162.69 18:43 18.06.2019
6155 Clouds 14 1006 40 0 3.16 187.244 18:24 18.06.2019
6156 Clouds 14 1006 40 0 3.16 187.244 17:40 18.06.2019
6157 Clouds 14 1006 40 0 3.16 187.244 17:20 18.06.2019
6158 Clouds 14 1006 40 0 3.16 187.244 16:47 18.06.2019
6159 Clouds 14 1006 40 0 3.16 187.244 16:27 18.06.2019
6160 Clouds 14 1006 40 0 3.16 187.244 15:56 18.06.2019
6161 Clouds 14 1006 40 0 3.16 187.244 15:36 18.06.2019
6162 Clouds 19 1001 25 0 6.66 175.504 15:18 18.06.2019
6163 Clouds 19 1001 25 0 6.66 175.504 14:42 18.06.2019
6164 Clouds 19 1001 25 0 6.66 175.504 14:22 18.06.2019
6165 Clouds 19 1001 25 0 6.66 175.504 13:53 18.06.2019
6166 Clouds 19 1000 25 0 6.11 183.545 13:32 18.06.2019
6167 Clouds 19 1000 25 0 6.11 183.545 12:59 18.06.2019
6168 Clouds 19 1000 25 0 6.11 183.545 12:41 18.06.2019
6169 Clouds 22 998 19 0 6.11 214.083 12:23 18.06.2019
6170 Clouds 22 998 19 0 6.11 214.083 11:42 18.06.2019
6171 Clouds 22 998 19 0 6.11 214.083 11:21 18.06.2019
6172 Clouds 22 998 19 0 6.11 214.083 10:57 18.06.2019
6173 Clouds 22 998 19 0 6.11 214.083 10:37 18.06.2019
6174 Clouds 22 998 19 0 6.11 214.083 10:18 18.06.2019
6175 Clouds 22 998 19 0 6.11 214.083 09:39 18.06.2019
6176 Clouds 19 1003 21 0 2.34 156.212 09:18 18.06.2019
6177 Clouds 19 1003 21 0 2.34 156.212 08:43 18.06.2019
6178 Clouds 19 1003 21 0 2.34 156.212 08:43 18.06.2019
6179 Clouds 18 1003 22 0 2.69 162.191 08:21 18.06.2019
6180 Clouds 18 1003 22 0 2.69 162.191 07:40 18.06.2019
6181 Clouds 18 1003 22 0 2.69 162.191 07:19 18.06.2019
6182 Clouds 14 1009 37 0 2.76 176.218 05:39 18.06.2019
6183 Clouds 14 1009 37 0 2.76 176.218 04:24 18.06.2019
6184 Clouds 10 1011 59 0 0.72 270.795 02:52 18.06.2019
6185 Clouds 10 1011 59 0 0.72 270.795 01:54 18.06.2019
6186 Rain 10 1011 50 0 0.18 125.91 01:24 18.06.2019
6187 Rain 10 1011 50 0 0.18 125.91 00:54 18.06.2019
6188 Clouds 11 1009 48 0 2.75 154.387 00:26 18.06.2019
6189 Clouds 11 1009 48 0 2.75 154.387 23:41 17.06.2019
6190 Clouds 11 1009 48 0 2.75 154.387 23:20 17.06.2019
6191 Clouds 11 1009 48 0 2.75 154.387 22:55 17.06.2019
6192 Clouds 11 1009 48 0 2.75 154.387 22:36 17.06.2019
6193 Clouds 11 1009 48 0 2.75 154.387 22:18 17.06.2019
6194 Clouds 11 1009 48 0 2.75 154.387 21:42 17.06.2019
6195 Clear 11 1008 47 0 2.72 183.852 21:21 17.06.2019
6196 Clear 11 1008 47 0 2.72 183.852 20:37 17.06.2019
6197 Clear 11 1008 47 0 2.46 176.504 20:19 17.06.2019
6198 Clear 11 1008 47 0 2.46 176.504 19:42 17.06.2019
6199 Clear 11 1008 47 0 2.46 176.504 19:23 17.06.2019
6200 Clear 11 1008 47 0 2.46 176.504 18:58 17.06.2019
6201 Clear 11 1008 47 0 2.46 176.504 18:38 17.06.2019
6202 Clear 14 1005 38 0 2.9 185.51 18:18 17.06.2019
6203 Clear 14 1005 38 0 2.9 185.51 17:47 17.06.2019
6204 Clear 14 1005 38 0 2.9 185.51 17:28 17.06.2019
6205 Clear 14 1005 38 0 2.9 185.51 16:49 17.06.2019
6206 Clear 14 1005 38 0 2.9 185.51 16:31 17.06.2019
6207 Clear 14 1005 38 0 2.9 185.51 15:58 17.06.2019
6208 Clear 14 1005 38 0 2.9 185.51 15:39 17.06.2019
6209 Clouds 19 999 26 0 6.91 186.797 15:19 17.06.2019
6210 Clouds 19 999 26 0 6.91 186.797 14:53 17.06.2019
6211 Clouds 19 999 26 0 6.91 186.797 14:34 17.06.2019
6212 Clouds 19 999 26 0 6.91 186.797 13:57 17.06.2019
6213 Clouds 19 999 26 0 6.91 186.797 13:39 17.06.2019
6214 Clouds 19 998 24 0 6.57 187.283 13:20 17.06.2019
6215 Clouds 19 998 24 0 6.57 187.283 12:33 17.06.2019
6216 -273 0 0 0 0 0 11:58 17.06.2019
6217 Clouds 23 996 16 0 6.83 180.789 11:39 17.06.2019
6218 Clouds 23 996 16 0 6.83 180.789 11:18 17.06.2019
6219 Clouds 23 996 16 0 6.83 180.789 10:46 17.06.2019
6220 Clouds 23 996 16 0 6.83 180.789 10:28 17.06.2019
6221 Clouds 23 996 16 0 6.83 180.789 09:56 17.06.2019
6222 Clouds 23 996 16 0 6.83 180.789 09:32 17.06.2019
6223 Clouds 19 1002 26 0 3.61 195.372 08:46 17.06.2019
6224 Clouds 19 1002 26 0 3.61 195.372 08:24 17.06.2019
6225 Clouds 19 1002 26 0 3.61 195.372 07:57 17.06.2019
6226 Clouds 19 1002 26 0 3.61 195.372 07:32 17.06.2019
6227 Clouds 19 1002 26 0 3.61 195.372 06:53 17.06.2019
6228 Clouds 15 1006 36 0 2.87 168.212 06:18 17.06.2019
6229 Clouds 15 1006 36 0 2.87 168.212 05:20 17.06.2019
6230 Clouds 15 1006 36 0 2.87 168.212 04:23 17.06.2019
6231 Clouds 15 1006 36 0 2.87 168.212 03:31 17.06.2019
6232 Clear 11 1008 50 0 2.44 149.517 02:43 17.06.2019
6233 Clear 11 1008 50 0 2.44 149.517 02:25 17.06.2019
6234 Clear 11 1008 50 0 2.44 149.517 01:35 17.06.2019
6235 Clear 11 1009 51 0 1.79 146.354 00:57 17.06.2019
6236 Clear 11 1009 51 0 1.79 146.354 00:36 17.06.2019
6237 Clear 10 1007 53 0 2.42 168.454 00:18 17.06.2019
6238 Clear 10 1007 53 0 2.42 168.454 23:39 16.06.2019
6239 Clear 10 1007 53 0 2.42 168.454 23:20 16.06.2019
6240 Clear 10 1007 53 0 2.42 168.454 22:44 16.06.2019
6241 Clear 10 1007 53 0 2.42 168.454 22:20 16.06.2019
6242 Clear 10 1007 53 0 2.42 168.454 21:57 16.06.2019
6243 Clear 10 1007 53 0 2.42 168.454 21:39 16.06.2019
6244 Clear 13 1006 44 0 2.64 176.157 21:20 16.06.2019
6245 Clouds 13 1006 44 0 2.9 177.313 20:40 16.06.2019
6246 Clouds 13 1006 44 0 2.9 177.313 20:19 16.06.2019
6247 Clouds 13 1006 44 0 2.9 177.313 19:58 16.06.2019
6248 Clouds 13 1006 44 0 2.9 177.313 19:39 16.06.2019
6249 Clouds 13 1006 44 0 2.9 177.313 19:21 16.06.2019
6250 Clouds 13 1006 44 0 2.9 177.313 18:42 16.06.2019
6251 Clouds 16 1003 33 0 3.67 189.911 18:21 16.06.2019
6252 Clouds 16 1003 33 0 3.67 189.911 18:21 16.06.2019
6253 Clouds 16 1003 33 0 3.67 189.911 17:57 16.06.2019
6254 Clouds 16 1003 33 0 3.67 189.911 17:38 16.06.2019
6255 Clouds 16 1003 33 0 3.67 189.911 17:20 16.06.2019
6256 Clouds 16 1003 33 0 3.67 189.911 16:55 16.06.2019
6257 Clouds 16 1003 33 0 3.67 189.911 16:36 16.06.2019
6258 Clouds 16 1003 33 0 3.67 189.911 16:18 16.06.2019
6259 Clouds 16 1003 33 0 3.67 189.911 15:39 16.06.2019
6260 Clouds 21 997 21 0 2.34 212.807 15:20 16.06.2019
6261 Clouds 21 997 21 0 2.34 212.807 14:40 16.06.2019
6262 Clouds 21 997 21 0 2.34 212.807 14:21 16.06.2019
6263 Clouds 21 997 21 0 2.34 212.807 13:50 16.06.2019
6264 Clouds 21 997 21 0 2.34 212.807 13:25 16.06.2019
6265 Clouds 19 996 26 0 2 348.111 12:56 16.06.2019
6266 Clouds 19 996 26 0 2 348.111 12:37 16.06.2019
6267 Clouds 23 995 15 0 3.42 178.257 12:18 16.06.2019
6268 Clouds 23 995 15 0 3.42 178.257 11:38 16.06.2019
6269 Clouds 23 995 15 0 3.42 178.257 11:19 16.06.2019
6270 Clouds 23 995 15 0 3.42 178.257 10:45 16.06.2019
6271 Clouds 23 995 15 0 3.42 178.257 10:20 16.06.2019
6272 Clouds 23 995 15 0 3.42 178.257 09:47 16.06.2019
6273 Clear 20 1000 24 0 2.82 183.452 09:25 16.06.2019
6274 Clouds 20 1001 25 0 2.95 182.27 08:50 16.06.2019
6275 Clouds 20 1001 25 0 2.95 182.27 08:23 16.06.2019
6276 Clouds 20 1001 25 0 2.95 182.27 07:54 16.06.2019
6277 Clouds 20 1001 25 0 2.95 182.27 07:36 16.06.2019
6278 Clouds 20 1001 25 0 2.95 182.27 06:57 16.06.2019
6279 Clouds 20 1001 25 0 2.95 182.27 06:57 16.06.2019
6280 Clear 16 1005 37 0 2.43 172.872 06:21 16.06.2019
6281 Clear 16 1005 37 0 2.43 172.872 05:29 16.06.2019
6282 Clear 16 1005 37 0 2.43 172.872 04:36 16.06.2019
6283 Clear 16 1005 37 0 2.43 172.872 03:51 16.06.2019
6284 Clear 16 1005 37 0 2.43 172.872 03:30 16.06.2019
6285 -273 0 0 0 0 0 01:57 16.06.2019
6286 Clear 11 1008 53 0 1.89 140.245 01:37 16.06.2019
6287 Clear 11 1008 52 0 1.76 142.792 01:18 16.06.2019
6288 Clear 11 1008 52 0 1.76 142.792 00:39 16.06.2019
6289 Clear 11 1007 54 0 2.49 162.155 00:19 16.06.2019
6290 Clear 11 1007 54 0 2.49 162.155 23:40 15.06.2019
6291 Clear 11 1007 54 0 2.49 162.155 23:21 15.06.2019
6292 Clear 11 1007 54 0 2.49 162.155 22:49 15.06.2019
6293 Clear 11 1007 54 0 2.49 162.155 22:26 15.06.2019
6294 Clear 11 1007 54 0 2.49 162.155 21:45 15.06.2019
6295 Clear 11 1007 54 0 2.49 162.155 21:27 15.06.2019
6296 Clear 14 1006 46 0 2.89 192.585 20:56 15.06.2019
6297 Clear 14 1006 46 0 2.89 192.585 20:36 15.06.2019
6298 Clear 14 1006 46 0 2.89 192.585 20:18 15.06.2019
6299 Clear 14 1006 46 0 2.89 192.585 19:40 15.06.2019
6300 Clear 14 1006 46 0 2.89 192.585 19:22 15.06.2019
6301 Clear 14 1006 46 0 2.89 192.585 18:39 15.06.2019
6302 Clear 17 1004 35 0 3.52 193.914 18:20 15.06.2019
6303 Clear 17 1004 35 0 3.52 193.914 17:43 15.06.2019
6304 Clear 17 1004 35 0 3.52 193.914 17:43 15.06.2019
6305 Clear 17 1004 35 0 3.52 193.914 17:21 15.06.2019
6306 Clear 17 1004 35 0 3.52 193.914 16:46 15.06.2019
6307 Clear 17 1004 35 0 3.52 193.914 16:19 15.06.2019
6308 Clear 17 1004 35 0 3.52 193.914 15:43 15.06.2019
6309 Clouds 22 998 19 0 3.96 220.067 15:23 15.06.2019
6310 Clouds 22 998 19 0 3.96 220.067 14:42 15.06.2019
6311 Clouds 22 998 19 0 3.96 220.067 14:19 15.06.2019
6312 Clouds 22 998 19 0 3.96 220.067 13:56 15.06.2019
6313 Clouds 22 998 19 0 3.96 220.067 13:38 15.06.2019
6314 Clouds 22 998 19 0 3.96 220.067 13:18 15.06.2019
6315 Clouds 22 998 19 0 3.96 220.067 12:47 15.06.2019
6316 Clouds 23 997 15 0 3.21 157.162 12:23 15.06.2019
6317 Clouds 23 996 16 0 2.14 143.489 11:51 15.06.2019
6318 Clouds 23 996 16 0 2.14 143.489 11:32 15.06.2019
6319 Clouds 23 996 15 0 1.97 154.045 10:47 15.06.2019
6320 Clouds 23 996 15 0 1.97 154.045 10:26 15.06.2019
6321 Clouds 23 996 15 0 1.97 154.045 09:58 15.06.2019
6322 Clouds 23 996 15 0 1.97 154.045 09:39 15.06.2019
6323 Clear 20 1002 24 0 2.18 167.548 09:19 15.06.2019
6324 Clear 20 1002 24 0 2.18 167.548 08:43 15.06.2019
6325 Clear 20 1002 24 0 2.18 167.548 08:24 15.06.2019
6326 Clear 20 1002 24 0 2.18 167.548 07:27 15.06.2019
6327 Clear 20 1002 24 0 2.18 167.548 07:27 15.06.2019
6328 Clear 20 1002 24 0 2.18 167.548 06:50 15.06.2019
6329 Clear 20 1002 24 0 2.18 167.548 06:30 15.06.2019
6330 Clear 15 1007 38 0 2.57 171.189 05:46 15.06.2019
6331 Clear 15 1007 38 0 2.57 171.189 05:18 15.06.2019
6332 Clear 15 1007 38 0 2.57 171.189 04:31 15.06.2019
6333 Clear 15 1007 38 0 2.57 171.189 03:33 15.06.2019
6334 Clouds 11 1009 53 0 2.17 147.007 02:47 15.06.2019
6335 Clouds 11 1009 53 0 2.17 147.007 01:59 15.06.2019
6336 Clouds 11 1009 53 0 2.17 147.007 01:27 15.06.2019
6337 Clouds 11 1009 53 0 2.17 147.007 00:43 15.06.2019
6338 Clouds 11 1008 53 0 2.25 171.624 00:25 15.06.2019
6339 Clouds 11 1008 53 0 2.38 165.981 23:51 14.06.2019
6340 Clouds 11 1008 53 0 2.38 165.981 23:23 14.06.2019
6341 Clouds 11 1008 53 0 2.38 165.981 22:42 14.06.2019
6342 Clouds 11 1008 53 0 2.38 165.981 22:22 14.06.2019
6343 Clouds 11 1008 53 0 2.38 165.981 21:49 14.06.2019
6344 Clouds 11 1008 53 0 2.38 165.981 21:30 14.06.2019
6345 Clouds 14 1008 44 0 2.98 192.266 20:58 14.06.2019
6346 Clouds 14 1008 44 0 2.98 192.266 20:39 14.06.2019
6347 Clouds 14 1008 44 0 2.98 192.266 20:18 14.06.2019
6348 Clouds 14 1008 44 0 2.98 192.266 19:44 14.06.2019
6349 Clouds 14 1008 44 0 2.98 192.266 19:23 14.06.2019
6350 Clouds 14 1008 44 0 2.98 192.266 18:58 14.06.2019
6351 Clouds 14 1008 44 0 2.98 192.266 18:40 14.06.2019
6352 Clouds 17 1005 30 0 3.03 197.431 18:21 14.06.2019
6353 Clouds 17 1005 30 0 3.03 197.431 17:46 14.06.2019
6354 Clouds 17 1005 30 0 3.03 197.431 17:25 14.06.2019
6355 Clouds 17 1005 30 0 3.03 197.431 16:55 14.06.2019
6356 Clouds 17 1005 30 0 3.03 197.431 16:37 14.06.2019
6357 Clouds 17 1005 30 0 3.03 197.431 16:18 14.06.2019
6358 Clouds 17 1005 30 0 3.03 197.431 15:39 14.06.2019
6359 Clouds 22 999 18 0 3.98 190.658 15:20 14.06.2019
6360 Clouds 22 999 18 0 3.98 190.658 14:52 14.06.2019
6361 Clouds 22 999 18 0 3.98 190.658 14:32 14.06.2019
6362 -273 0 0 0 0 0 14:32 14.06.2019
6363 Clouds 22 999 18 0 3.98 190.658 13:55 14.06.2019
6364 Clouds 22 998 17 0 3.36 196.156 13:36 14.06.2019
6365 Clouds 22 998 17 0 3.36 196.156 13:18 14.06.2019
6366 Clouds 22 998 17 0 3.36 196.156 12:41 14.06.2019
6367 Clouds 23 999 16 0 1.17 162.43 12:22 14.06.2019
6368 Clouds 23 999 16 0 1.17 162.43 11:46 14.06.2019
6369 Clouds 23 999 16 0 1.17 162.43 11:24 14.06.2019
6370 Clouds 23 999 16 0 1.17 162.43 10:58 14.06.2019
6371 Clouds 23 999 16 0 1.17 162.43 10:39 14.06.2019
6372 Clouds 23 999 16 0 1.17 162.43 10:18 14.06.2019
6373 Clear 22 999 18 0 3.35 176.16 09:39 14.06.2019
6374 Clear 19 1004 25 0 3.59 170.338 09:20 14.06.2019
6375 Clear 19 1004 25 0 3.59 170.338 08:45 14.06.2019
6376 Clear 19 1004 25 0 3.59 170.338 08:18 14.06.2019
6377 Clear 19 1004 25 0 3.59 170.338 07:48 14.06.2019
6378 Clear 19 1004 25 0 3.59 170.338 07:20 14.06.2019
6379 Clear 19 1004 25 0 3.59 170.338 06:31 14.06.2019
6380 Clear 14 1009 39 0 2.99 159.455 05:55 14.06.2019
6381 Clear 14 1009 39 0 2.99 159.455 05:55 14.06.2019
6382 Clear 14 1009 39 0 2.99 159.455 04:57 14.06.2019
6383 Clear 14 1009 39 0 2.99 159.455 04:37 14.06.2019
6384 Clear 14 1009 39 0 2.99 159.455 03:51 14.06.2019
6385 Clear 10 1013 54 0 2.3 151.141 03:25 14.06.2019
6386 Clear 10 1013 54 0 2.3 151.141 03:25 14.06.2019
6387 Clear 10 1013 54 0 2.3 151.141 03:25 14.06.2019
6388 Clear 10 1013 54 0 2.3 151.141 02:47 14.06.2019
6389 -273 0 0 0 0 0 01:58 14.06.2019
6390 Clear 10 1013 54 0 2.3 151.141 00:51 14.06.2019
6391 Clear 10 1011 54 0 2.27 160.406 00:23 14.06.2019
6392 Clear 10 1011 54 0 2.27 160.406 23:56 13.06.2019
6393 Clear 10 1011 54 0 2.27 160.406 23:27 13.06.2019
6394 Clear 10 1011 54 0 2.27 160.406 22:59 13.06.2019
6395 Clear 10 1011 54 0 2.27 160.406 22:39 13.06.2019
6396 Clear 10 1011 54 0 2.27 160.406 22:20 13.06.2019
6397 Clear 10 1011 54 0 2.27 160.406 21:39 13.06.2019
6398 Clouds 12 1011 44 0 3.6 174.589 21:20 13.06.2019
6399 Clouds 12 1011 44 0 3.6 174.589 20:45 13.06.2019
6400 Clouds 12 1011 44 0 3.6 174.589 20:22 13.06.2019
6401 Clouds 12 1011 44 0 3.6 174.589 19:59 13.06.2019
6402 Clouds 12 1011 44 0 3.6 174.589 19:40 13.06.2019
6403 Clouds 12 1011 44 0 3.6 174.589 19:21 13.06.2019
6404 Clouds 12 1011 44 0 3.6 174.589 18:55 13.06.2019
6405 Clouds 12 1011 44 0 3.6 174.589 18:36 13.06.2019
6406 Clouds 17 1008 32 0 4.98 171.268 18:18 13.06.2019
6407 Clouds 17 1008 32 0 4.98 171.268 17:41 13.06.2019
6408 Clouds 17 1008 32 0 4.98 171.268 17:20 13.06.2019
6409 Clouds 17 1008 32 0 4.98 171.268 16:46 13.06.2019
6410 Clouds 17 1008 32 0 4.98 171.268 16:21 13.06.2019
6411 -273 0 0 0 0 0 15:57 13.06.2019
6412 Clouds 17 1008 32 0 4.98 171.268 15:38 13.06.2019
6413 Clear 20 1002 21 0 4.71 179.599 15:18 13.06.2019
6414 Clear 20 1002 21 0 4.71 179.599 14:44 13.06.2019
6415 Clear 20 1002 21 0 4.71 179.599 14:25 13.06.2019
6416 Clear 20 1002 21 0 4.71 179.599 13:46 13.06.2019
6417 Clear 20 1002 21 0 4.71 179.599 13:21 13.06.2019
6418 Clear 20 1002 21 0 4.71 179.599 12:44 13.06.2019
6419 Clear 21 1002 18 0 3.88 171.755 12:24 13.06.2019
6420 Clear 21 1002 18 0 3.88 171.755 11:59 13.06.2019
6421 Clear 21 1002 18 0 3.88 171.755 11:41 13.06.2019
6422 Clear 21 1002 18 0 3.88 171.755 11:21 13.06.2019
6423 Clear 21 1002 18 0 3.88 171.755 10:46 13.06.2019
6424 Clear 21 1002 18 0 3.88 171.755 10:27 13.06.2019
6425 Clear 21 1002 18 0 3.88 171.755 10:27 13.06.2019
6426 Clear 21 1002 18 0 3.88 171.755 09:45 13.06.2019
6427 Clear 18 1006 25 0 3.73 173.006 09:25 13.06.2019
6428 Clear 18 1006 25 0 3.73 173.006 08:50 13.06.2019
6429 Clear 18 1006 25 0 3.73 173.006 08:29 13.06.2019
6430 Clear 18 1006 25 0 3.73 173.006 07:59 13.06.2019
6431 Clear 18 1006 25 0 3.73 173.006 07:31 13.06.2019
6432 Clear 18 1006 25 0 3.73 173.006 06:52 13.06.2019
6433 Clear 13 1011 39 0 3.1 163.341 06:24 13.06.2019
6434 Clear 13 1011 39 0 3.1 163.341 05:57 13.06.2019
6435 Clear 13 1011 39 0 3.1 163.341 05:38 13.06.2019
6436 Clear 13 1011 39 0 3.1 163.341 05:18 13.06.2019
6437 Clear 13 1011 39 0 3.1 163.341 03:36 13.06.2019
6438 Clear 9 1014 55 0 2.55 162.638 01:55 13.06.2019
6439 Clear 9 1014 55 0 2.55 162.638 00:30 13.06.2019
6440 Clouds 10 1012 54 0 2.87 165.372 23:26 12.06.2019
6441 Clouds 10 1012 54 0 2.87 165.372 22:58 12.06.2019
6442 Clouds 10 1012 54 0 2.87 165.372 22:39 12.06.2019
6443 Clouds 10 1012 54 0 2.87 165.372 22:39 12.06.2019
6444 Clouds 10 1012 54 0 2.87 165.372 22:21 12.06.2019
6445 Clouds 10 1012 54 0 2.87 165.372 21:42 12.06.2019
6446 Clouds 10 1012 54 0 2.87 165.372 21:42 12.06.2019
6447 Clear 12 1012 45 0 3.58 171.221 21:22 12.06.2019
6448 Clear 12 1012 45 0 3.58 171.221 20:48 12.06.2019
6449 Clear 12 1012 45 0 3.58 171.221 20:29 12.06.2019
6450 Clear 12 1012 45 0 3.58 171.221 19:57 12.06.2019
6451 Clear 12 1012 45 0 3.58 171.221 19:38 12.06.2019
6452 Clear 12 1012 45 0 3.58 171.221 19:19 12.06.2019
6453 Clear 12 1012 45 0 3.58 171.221 18:44 12.06.2019
6454 Clear 15 1009 31 0 3.31 177.353 18:26 12.06.2019
6455 Clear 15 1009 31 0 3.31 177.353 17:47 12.06.2019
6456 Clear 15 1009 31 0 3.31 177.353 17:23 12.06.2019
6457 Clear 15 1009 31 0 3.31 177.353 16:44 12.06.2019
6458 Clear 15 1009 31 0 3.31 177.353 16:25 12.06.2019
6459 Clear 15 1009 31 0 3.31 177.353 15:58 12.06.2019
6460 Clear 15 1009 31 0 3.31 177.353 15:34 12.06.2019
6461 Clear 19 1005 21 0 3.59 171.475 14:58 12.06.2019
6462 Clear 19 1005 21 0 3.59 171.475 14:34 12.06.2019
6463 Clear 19 1005 21 0 3.59 171.475 13:58 12.06.2019
6464 Clear 19 1005 21 0 3.59 171.475 13:39 12.06.2019
6465 Clear 19 1004 21 0 3.97 176.052 13:19 12.06.2019
6466 Clear 19 1004 21 0 3.97 176.052 12:44 12.06.2019
6467 Clear 20 1003 19 0 2.22 166.001 12:22 12.06.2019
6468 Clear 20 1003 19 0 2.22 166.001 11:58 12.06.2019
6469 Clear 20 1003 19 0 2.22 166.001 11:38 12.06.2019
6470 Clear 20 1003 19 0 2.22 166.001 11:20 12.06.2019
6471 Clear 20 1003 19 0 2.22 166.001 10:44 12.06.2019
6472 Clear 20 1003 19 0 2.22 166.001 10:20 12.06.2019
6473 Clear 20 1003 19 0 2.22 166.001 09:43 12.06.2019
6474 Clear 17 1007 27 0 2.98 171.734 09:22 12.06.2019
6475 Clear 17 1007 27 0 2.98 171.734 08:38 12.06.2019
6476 Clear 17 1007 27 0 2.98 171.734 08:19 12.06.2019
6477 Clear 17 1007 27 0 2.98 171.734 07:26 12.06.2019
6478 Clear 17 1007 27 0 2.98 171.734 06:41 12.06.2019
6479 Clear 13 1012 38 0 2.77 163.386 05:25 12.06.2019
6480 Clear 13 1012 38 0 2.77 163.386 03:41 12.06.2019
6481 Clear 9 1015 47 0 2.66 169.882 00:54 12.06.2019
6482 Clear 9 1015 47 0 2.66 169.882 00:35 12.06.2019
6483 Clear 9 1014 40 0 2.4 171.654 23:44 11.06.2019
6484 Clear 9 1014 40 0 2.4 171.654 23:26 11.06.2019
6485 Clear 9 1013 47 0 2.94 168.984 22:43 11.06.2019
6486 Clear 9 1013 47 0 2.94 168.984 22:18 11.06.2019
6487 Clear 9 1013 47 0 2.94 168.984 21:57 11.06.2019
6488 Clear 9 1013 47 0 2.94 168.984 21:37 11.06.2019
6489 Clear 11 1012 38 0 1.72 168.631 21:19 11.06.2019
6490 Clear 11 1012 38 0 1.72 168.631 20:47 11.06.2019
6491 Clear 11 1012 38 0 1.72 168.631 20:24 11.06.2019
6492 Clear 11 1012 38 0 1.72 168.631 19:54 11.06.2019
6493 Clear 11 1012 38 0 1.72 168.631 19:32 11.06.2019
6494 Clear 11 1012 38 0 1.72 168.631 18:56 11.06.2019
6495 Clear 11 1012 38 0 1.72 168.631 18:56 11.06.2019
6496 -273 0 0 0 0 0 18:21 11.06.2019
6497 Clouds 13 1009 35 0 1.53 38.023 17:42 11.06.2019
6498 Clouds 13 1009 35 0 1.53 38.023 17:22 11.06.2019
6499 Clouds 13 1009 35 0 1.53 38.023 16:57 11.06.2019
6500 Clouds 13 1009 35 0 1.53 38.023 16:39 11.06.2019
6501 Clouds 13 1009 35 0 1.53 38.023 16:21 11.06.2019
6502 Clouds 13 1009 35 0 1.53 38.023 15:42 11.06.2019
6503 -273 0 0 0 0 0 15:42 11.06.2019
6504 Clouds 16 1005 22 0 1.92 6.617 15:22 11.06.2019
6505 Clouds 16 1005 22 0 1.92 6.617 14:47 11.06.2019
6506 Clouds 16 1005 22 0 1.92 6.617 14:21 11.06.2019
6507 Clouds 16 1005 22 0 1.92 6.617 13:51 11.06.2019
6508 Clouds 16 1005 22 0 1.92 6.617 13:24 11.06.2019
6509 Clouds 16 1005 22 0 1.92 6.617 13:24 11.06.2019
6510 Clouds 18 1004 19 0 1.78 162.441 12:58 11.06.2019
6511 Clouds 18 1004 19 0 1.78 162.441 12:40 11.06.2019
6512 Clouds 18 1004 22 0 2.81 167.189 12:19 11.06.2019
6513 Clouds 18 1004 22 0 2.81 167.189 11:39 11.06.2019
6514 Clouds 18 1004 22 0 2.81 167.189 11:19 11.06.2019
6515 Clouds 18 1004 22 0 2.81 167.189 10:46 11.06.2019
6516 Clouds 18 1004 22 0 2.81 167.189 10:46 11.06.2019
6517 Clouds 18 1004 22 0 2.81 167.189 10:46 11.06.2019
6518 Clouds 18 1004 22 0 2.81 167.189 10:25 11.06.2019
6519 Clouds 18 1004 22 0 2.81 167.189 09:49 11.06.2019
6520 Clouds 15 1008 30 0 2.49 166.976 09:24 11.06.2019
6521 Clouds 15 1008 30 0 2.49 166.976 08:46 11.06.2019
6522 Clouds 15 1008 30 0 2.49 166.976 08:28 11.06.2019
6523 Clouds 15 1008 30 0 2.49 166.976 07:46 11.06.2019
6524 Clouds 15 1008 30 0 2.49 166.976 07:27 11.06.2019
6525 Clear 16 1007 25 0 3.16 168.003 06:50 11.06.2019
6526 Clear 12 1012 38 0 2.46 155.24 04:55 11.06.2019
6527 Clear 12 1012 38 0 2.46 155.24 03:42 11.06.2019
6528 Clear 8 1014 53 0 2.25 157.674 01:41 11.06.2019
6529 Clear 8 1014 53 0 2.25 157.674 00:47 11.06.2019
6530 Clear 8 1013 49 0 2.22 148.895 23:50 10.06.2019
6531 Clear 8 1013 49 0 2.22 148.895 23:32 10.06.2019
6532 Clouds 9 1013 48 0 2.17 136.758 22:56 10.06.2019
6533 Clouds 9 1013 48 0 2.17 136.758 22:37 10.06.2019
6534 Clouds 9 1013 48 0 2.17 136.758 22:19 10.06.2019
6535 Clouds 9 1013 48 0 2.17 136.758 21:41 10.06.2019
6536 Clouds 11 1012 39 0 2.92 154.19 21:22 10.06.2019
6537 Clouds 11 1012 39 0 2.92 154.19 20:47 10.06.2019
6538 Clouds 11 1012 39 0 2.92 154.19 20:25 10.06.2019
6539 Clouds 11 1012 39 0 2.92 154.19 19:57 10.06.2019
6540 Clouds 11 1012 39 0 2.92 154.19 19:38 10.06.2019
6541 Clouds 11 1012 39 0 2.92 154.19 19:20 10.06.2019
6542 Clouds 11 1012 39 0 2.92 154.19 18:55 10.06.2019
6543 Clouds 11 1012 39 0 2.92 154.19 18:37 10.06.2019
6544 Clouds 14 1009 28 0 5 168.784 18:18 10.06.2019
6545 Clouds 14 1009 28 0 5 168.784 17:40 10.06.2019
6546 Clouds 14 1009 28 0 5 168.784 17:21 10.06.2019
6547 Clouds 14 1009 28 0 5 168.784 16:45 10.06.2019
6548 Clouds 14 1009 28 0 5 168.784 16:27 10.06.2019
6549 Clouds 14 1009 28 0 5 168.784 15:43 10.06.2019
6550 Clouds 18 1003 16 0 5.8 171.605 15:24 10.06.2019
6551 Clouds 18 1003 16 0 5.8 171.605 14:59 10.06.2019
6552 Clouds 18 1003 16 0 5.8 171.605 14:38 10.06.2019
6553 Clouds 18 1003 16 0 5.8 171.605 14:20 10.06.2019
6554 Clouds 18 1003 16 0 5.8 171.605 13:43 10.06.2019
6555 Clouds 18 1003 16 0 5.8 171.605 13:22 10.06.2019
6556 Clouds 19 1003 15 0 5.03 166.6 12:45 10.06.2019
6557 Clouds 19 1001 15 0 4.41 165.538 12:27 10.06.2019
6558 Clouds 19 1001 15 0 4.41 165.538 11:48 10.06.2019
6559 Clouds 19 1001 15 0 4.41 165.538 11:29 10.06.2019
6560 Clouds 19 1001 15 0 4.41 165.538 10:57 10.06.2019
6561 Clouds 19 1001 15 0 4.41 165.538 10:38 10.06.2019
6562 Clouds 19 1001 15 0 4.41 165.538 10:18 10.06.2019
6563 Clouds 19 1001 15 0 4.41 165.538 09:45 10.06.2019
6564 Clear 17 1004 22 0 4.79 167.741 09:26 10.06.2019
6565 Clear 17 1004 22 0 4.79 167.741 08:45 10.06.2019
6566 Clear 17 1004 22 0 4.79 167.741 08:25 10.06.2019
6567 Clear 17 1004 22 0 4.79 167.741 07:26 10.06.2019
6568 Clear 12 1010 37 0 3.33 157.032 04:41 10.06.2019
6569 Clear 8 1013 54 0 3.03 153.773 01:59 10.06.2019
6570 Clear 8 1013 54 0 3.03 153.773 01:27 10.06.2019
6571 Clear 8 1013 54 0 3.03 153.773 00:59 10.06.2019
6572 Clear 8 1011 51 0 3.05 153.359 00:24 10.06.2019
6573 Clear 8 1011 51 0 3.05 153.359 23:44 09.06.2019
6574 Clear 8 1011 51 0 3.05 153.359 23:21 09.06.2019
6575 Clear 8 1011 51 0 3.05 153.359 22:45 09.06.2019
6576 Clear 8 1011 51 0 3.05 153.359 22:25 09.06.2019
6577 Clear 8 1011 51 0 3.05 153.359 21:46 09.06.2019
6578 Clear 8 1011 51 0 3.05 153.359 21:27 09.06.2019
6579 -273 0 0 0 0 0 20:45 09.06.2019
6580 Clouds 10 1010 41 0 3.69 157.489 20:24 09.06.2019
6581 Clouds 10 1010 41 0 3.69 157.489 19:59 09.06.2019
6582 Clouds 10 1010 41 0 3.69 157.489 19:41 09.06.2019
6583 Clouds 10 1010 42 0 3.51 156.609 19:18 09.06.2019
6584 Clouds 10 1010 42 0 3.51 156.609 18:42 09.06.2019
6585 Clouds 13 1007 31 0 5.34 160.059 18:24 09.06.2019
6586 Clouds 13 1007 31 0 5.34 160.059 17:48 09.06.2019
6587 Clouds 13 1007 31 0 5.34 160.059 17:29 09.06.2019
6588 Clouds 13 1007 31 0 5.34 160.059 16:57 09.06.2019
6589 Clouds 13 1007 31 0 5.34 160.059 16:38 09.06.2019
6590 Clouds 13 1007 31 0 5.34 160.059 16:19 09.06.2019
6591 Clouds 13 1007 31 0 5.34 160.059 15:48 09.06.2019
6592 Clouds 13 1007 31 0 5.34 160.059 15:28 09.06.2019
6593 Clouds 17 1001 23 0 3.87 151.575 14:48 09.06.2019
6594 Clouds 17 1001 23 0 3.87 151.575 14:29 09.06.2019
6595 Clouds 17 1001 23 0 3.87 151.575 13:57 09.06.2019
6596 Clouds 17 1001 23 0 3.87 151.575 13:38 09.06.2019
6597 Clouds 17 1002 24 0 4.88 148.342 12:55 09.06.2019
6598 Clouds 17 1002 24 0 4.88 148.342 12:34 09.06.2019
6599 Clouds 19 1002 16 0 4.45 155.871 11:49 09.06.2019
6600 Clouds 19 1002 16 0 4.45 155.871 11:30 09.06.2019
6601 Clouds 20 1002 16 0 4.9 158.731 10:47 09.06.2019
6602 Clouds 20 1002 16 0 4.9 158.731 10:26 09.06.2019
6603 -273 0 0 0 0 0 09:58 09.06.2019
6604 Clouds 20 1002 16 0 4.9 158.731 09:38 09.06.2019
6605 Clouds 20 1002 16 0 4.9 158.731 09:37 09.06.2019
6606 Clear 17 1006 23 0 4.49 172.184 09:18 09.06.2019
6607 Clear 17 1006 24 0 4.27 167.943 08:43 09.06.2019
6608 Clear 17 1006 24 0 4.27 167.943 07:51 09.06.2019
6609 Clear 17 1006 24 0 4.27 167.943 06:40 09.06.2019
6610 Clear 12 1010 39 0 3.53 160.872 05:52 09.06.2019
6611 Clear 8 1013 55 0 2.78 158.979 02:55 09.06.2019
6612 Clear 8 1013 55 0 2.78 158.979 01:37 09.06.2019
6613 Clear 8 1013 55 0 2.78 158.979 01:37 09.06.2019
6614 Clear 8 1013 55 0 2.78 158.979 01:37 09.06.2019
6615 Clear 8 1013 57 0 3.04 161.141 01:18 09.06.2019
6616 Clear 9 1011 55 0 3.09 161.624 00:22 09.06.2019
6617 Clear 9 1011 55 0 3.09 161.624 23:40 08.06.2019
6618 Clear 9 1011 55 0 3.09 161.624 23:22 08.06.2019
6619 Clear 9 1011 55 0 3.09 161.624 22:45 08.06.2019
6620 Clear 9 1011 55 0 3.09 161.624 22:26 08.06.2019
6621 Clear 9 1011 55 0 3.09 161.624 21:58 08.06.2019
6622 Clear 9 1011 55 0 3.09 161.624 21:39 08.06.2019
6623 Clouds 11 1011 45 0 3.56 158.999 21:20 08.06.2019
6624 Clouds 11 1011 45 0 3.56 158.999 20:43 08.06.2019
6625 Clouds 11 1011 45 0 3.56 158.999 20:25 08.06.2019
6626 Clouds 11 1011 45 0 3.56 158.999 19:55 08.06.2019
6627 Clouds 11 1011 45 0 3.56 158.999 19:36 08.06.2019
6628 Clouds 11 1011 45 0 3.7 157.362 19:18 08.06.2019
6629 Clouds 11 1011 45 0 3.7 157.362 18:40 08.06.2019
6630 Clouds 14 1009 35 0 5.44 166.648 18:20 08.06.2019
6631 Clouds 14 1009 35 0 5.44 166.648 17:43 08.06.2019
6632 Clouds 14 1009 35 0 5.44 166.648 17:22 08.06.2019
6633 Clouds 14 1009 35 0 5.44 166.648 16:48 08.06.2019
6634 Clouds 14 1009 35 0 5.44 166.648 16:29 08.06.2019
6635 Clouds 14 1009 35 0 5.44 166.648 15:51 08.06.2019
6636 Clouds 14 1009 35 0 5.44 166.648 15:33 08.06.2019
6637 Clouds 14 1009 35 0 5.44 166.648 15:33 08.06.2019
6638 Clouds 14 1009 35 0 5.44 166.648 15:33 08.06.2019
6639 Rain 17 1004 27 0 3.67 144.668 14:47 08.06.2019
6640 Rain 17 1004 27 0 3.67 144.668 14:29 08.06.2019
6641 Rain 17 1004 27 0 3.67 144.668 13:45 08.06.2019
6642 Rain 17 1004 28 0 3.79 128.289 12:53 08.06.2019
6643 Rain 17 1004 28 0 3.79 128.289 12:33 08.06.2019
6644 Clouds 19 1003 23 0 4.7 165.922 11:44 08.06.2019
6645 Clouds 19 1003 23 0 4.7 165.922 11:26 08.06.2019
6646 Clouds 19 1003 23 0 4.7 165.922 10:47 08.06.2019
6647 Clouds 19 1003 23 0 4.7 165.922 10:24 08.06.2019
6648 Clouds 19 1003 23 0 4.7 165.922 09:54 08.06.2019
6649 Clouds 19 1003 23 0 4.7 165.922 09:29 08.06.2019
6650 Clouds 17 1007 27 0 4.34 171.808 08:44 08.06.2019
6651 Clouds 17 1007 27 0 4.34 171.808 08:19 08.06.2019
6652 Clear 17 1008 28 0 4.22 171.35 06:51 08.06.2019
6653 Clear 17 1008 28 0 4.22 171.35 06:32 08.06.2019
6654 Clear 13 1012 40 0 3.79 162.628 03:35 08.06.2019
6655 Clear 9 1015 55 0 2.82 157.042 02:20 08.06.2019
6656 Clear 9 1016 55 0 2.85 155.958 00:30 08.06.2019
6657 Clear 9 1015 53 0 2.92 162.086 23:56 07.06.2019
6658 Clear 9 1015 53 0 2.92 162.086 23:21 07.06.2019
6659 Clear 9 1015 53 0 2.92 162.086 22:50 07.06.2019
6660 Clear 9 1015 52 0 2.64 159.5 22:32 07.06.2019
6661 Clear 9 1015 52 0 2.64 159.5 21:55 07.06.2019
6662 Clear 9 1015 52 0 2.64 159.5 21:32 07.06.2019
6663 Clouds 11 1014 44 0 3.57 166.812 20:59 07.06.2019
6664 Clouds 11 1014 44 0 3.57 166.812 20:41 07.06.2019
6665 Clouds 11 1014 44 0 3.57 166.812 20:22 07.06.2019
6666 Clouds 11 1014 44 0 3.57 166.8